<?xml version='1.0' encoding='UTF-8'?><gpx version="1.1" creator="JPX - https://github.com/jenetics/jpx" xmlns="http://www.topografix.com/GPX/1/1"><trk><trkseg><trkpt lat="42.12397173446096" lon="12.123362963901121"><ele>363.0</ele><time>2026-04-04T06:27:49Z</time></trkpt><trkpt lat="42.12393536416963" lon="12.123448149800423"><ele>363.0</ele><time>2026-04-04T06:28:10.001Z</time></trkpt><trkpt lat="42.123937310877025" lon="12.123539724518393"><ele>363.0</ele><time>2026-04-04T06:28:12.001Z</time></trkpt><trkpt lat="42.12393811043829" lon="12.123645442357422"><ele>363.0</ele><time>2026-04-04T06:28:14.001Z</time></trkpt><trkpt lat="42.12394109968303" lon="12.123757871598473"><ele>363.0</ele><time>2026-04-04T06:28:16.001Z</time></trkpt><trkpt lat="42.123942820824226" lon="12.123869904955697"><ele>363.0</ele><time>2026-04-04T06:28:18.001Z</time></trkpt><trkpt lat="42.12396011522973" lon="12.12398048002621"><ele>362.1666666666667</ele><time>2026-04-04T06:28:20.001Z</time></trkpt><trkpt lat="42.123967165622375" lon="12.124084238018547"><ele>361.3333333333333</ele><time>2026-04-04T06:28:22.001Z</time></trkpt><trkpt lat="42.12394201866987" lon="12.124179800775451"><ele>360.5</ele><time>2026-04-04T06:28:25.001Z</time></trkpt><trkpt lat="42.123933368888544" lon="12.124268443766422"><ele>359.66666666666663</ele><time>2026-04-04T06:28:27.001Z</time></trkpt><trkpt lat="42.123932362116065" lon="12.124378155561562"><ele>358.8333333333333</ele><time>2026-04-04T06:28:29.001Z</time></trkpt><trkpt lat="42.12389231302898" lon="12.124464570747142"><ele>358.0</ele><time>2026-04-04T06:28:31.001Z</time></trkpt><trkpt lat="42.12383516603933" lon="12.12456498642511"><ele>358.00000000000006</ele><time>2026-04-04T06:28:33.001Z</time></trkpt><trkpt lat="42.12379245232101" lon="12.124627438709412"><ele>358.0</ele><time>2026-04-04T06:28:35.001Z</time></trkpt><trkpt lat="42.12375604587549" lon="12.124719295619755"><ele>358.0</ele><time>2026-04-04T06:28:37.001Z</time></trkpt><trkpt lat="42.12370560416446" lon="12.124790235331314"><ele>358.0</ele><time>2026-04-04T06:28:39.001Z</time></trkpt><trkpt lat="42.123652325109276" lon="12.124877546065989"><ele>358.0</ele><time>2026-04-04T06:28:41.001Z</time></trkpt><trkpt lat="42.12359884601679" lon="12.124947591299778"><ele>358.00000000000006</ele><time>2026-04-04T06:28:43.001Z</time></trkpt><trkpt lat="42.12354678676885" lon="12.125024346583414"><ele>358.0</ele><time>2026-04-04T06:28:45.001Z</time></trkpt><trkpt lat="42.12349320181548" lon="12.125107954356892"><ele>358.25</ele><time>2026-04-04T06:28:47.002Z</time></trkpt><trkpt lat="42.12341985748674" lon="12.12521882609693"><ele>358.5</ele><time>2026-04-04T06:28:49.002Z</time></trkpt><trkpt lat="42.12329438476307" lon="12.125397197093589"><ele>358.75</ele><time>2026-04-04T06:28:51.002Z</time></trkpt><trkpt lat="42.12323832491788" lon="12.125515078653773"><ele>359.0</ele><time>2026-04-04T06:28:53.002Z</time></trkpt><trkpt lat="42.123227144545176" lon="12.125657295831207"><ele>359.4</ele><time>2026-04-04T06:28:55.002Z</time></trkpt><trkpt lat="42.12328739830257" lon="12.125786140393235"><ele>359.79999999999995</ele><time>2026-04-04T06:28:57.002Z</time></trkpt><trkpt lat="42.12338108471149" lon="12.125881847765763"><ele>360.20000000000005</ele><time>2026-04-04T06:28:59.002Z</time></trkpt><trkpt lat="42.12347182867613" lon="12.12596122782913"><ele>360.6</ele><time>2026-04-04T06:29:01.002Z</time></trkpt><trkpt lat="42.1235581919816" lon="12.126037838641146"><ele>361.0</ele><time>2026-04-04T06:29:03.002Z</time></trkpt><trkpt lat="42.12363166594876" lon="12.126118455970753"><ele>361.0</ele><time>2026-04-04T06:29:05.002Z</time></trkpt><trkpt lat="42.12370375121297" lon="12.126198440535015"><ele>361.0</ele><time>2026-04-04T06:29:07.002Z</time></trkpt><trkpt lat="42.12377995123843" lon="12.126280582973662"><ele>361.0</ele><time>2026-04-04T06:29:09.002Z</time></trkpt><trkpt lat="42.12384219908075" lon="12.126356891668195"><ele>361.0</ele><time>2026-04-04T06:29:12.002Z</time></trkpt><trkpt lat="42.12396016843497" lon="12.126517177688594"><ele>361.0</ele><time>2026-04-04T06:29:14.002Z</time></trkpt><trkpt lat="42.124032261043745" lon="12.12658879078445"><ele>361.0</ele><time>2026-04-04T06:29:16.002Z</time></trkpt><trkpt lat="42.124101036757516" lon="12.126670909707787"><ele>361.0</ele><time>2026-04-04T06:29:18.002Z</time></trkpt><trkpt lat="42.12417217314757" lon="12.126765359881512"><ele>361.0</ele><time>2026-04-04T06:29:20.002Z</time></trkpt><trkpt lat="42.12423194465751" lon="12.126830852920966"><ele>361.0</ele><time>2026-04-04T06:29:22.002Z</time></trkpt><trkpt lat="42.12421969918435" lon="12.126984741042941"><ele>361.0</ele><time>2026-04-04T06:29:25.002Z</time></trkpt><trkpt lat="42.12424628576477" lon="12.127077950596924"><ele>361.0</ele><time>2026-04-04T06:29:27.002Z</time></trkpt><trkpt lat="42.12424152790413" lon="12.12716380063177"><ele>361.0</ele><time>2026-04-04T06:29:28.002Z</time></trkpt><trkpt lat="42.124251281787515" lon="12.127285594991774"><ele>361.0</ele><time>2026-04-04T06:29:30.002Z</time></trkpt><trkpt lat="42.12424265736342" lon="12.12740446805371"><ele>361.0</ele><time>2026-04-04T06:29:32.002Z</time></trkpt><trkpt lat="42.124260013913684" lon="12.12749947072263"><ele>361.0</ele><time>2026-04-04T06:29:34.003Z</time></trkpt><trkpt lat="42.12426556499568" lon="12.127599225325456"><ele>361.0</ele><time>2026-04-04T06:29:36.003Z</time></trkpt><trkpt lat="42.12427909214559" lon="12.127703105518636"><ele>361.0</ele><time>2026-04-04T06:29:38.002Z</time></trkpt><trkpt lat="42.12430053665599" lon="12.127793058586676"><ele>361.0</ele><time>2026-04-04T06:29:40.002Z</time></trkpt><trkpt lat="42.124312465853876" lon="12.127899055328747"><ele>361.0</ele><time>2026-04-04T06:29:43.002Z</time></trkpt><trkpt lat="42.12438465154468" lon="12.127958836627553"><ele>361.0</ele><time>2026-04-04T06:29:46.002Z</time></trkpt><trkpt lat="42.12444287711162" lon="12.128001829121668"><ele>361.0</ele><time>2026-04-04T06:29:48.002Z</time></trkpt><trkpt lat="42.12450079028503" lon="12.128039793337157"><ele>361.0</ele><time>2026-04-04T06:29:50.001Z</time></trkpt><trkpt lat="42.12455471973831" lon="12.128165231982603"><ele>361.0</ele><time>2026-04-04T06:29:52.001Z</time></trkpt><trkpt lat="42.12462818759683" lon="12.12827071785726"><ele>361.0</ele><time>2026-04-04T06:29:54.001Z</time></trkpt><trkpt lat="42.12470945419196" lon="12.12834139231056"><ele>361.0</ele><time>2026-04-04T06:29:56.001Z</time></trkpt><trkpt lat="42.124796943160106" lon="12.128428831170572"><ele>361.0</ele><time>2026-04-04T06:29:58.001Z</time></trkpt><trkpt lat="42.12485876666639" lon="12.128512870701282"><ele>361.0</ele><time>2026-04-04T06:30:01.001Z</time></trkpt><trkpt lat="42.12505233855456" lon="12.128689612564294"><ele>361.20000000000005</ele><time>2026-04-04T06:30:04.001Z</time></trkpt><trkpt lat="42.12511800561943" lon="12.128766854484619"><ele>361.40000000000003</ele><time>2026-04-04T06:30:06.001Z</time></trkpt><trkpt lat="42.125178010576306" lon="12.128813650962472"><ele>361.6</ele><time>2026-04-04T06:30:07.001Z</time></trkpt><trkpt lat="42.12526135154543" lon="12.128887853033564"><ele>361.8</ele><time>2026-04-04T06:30:09.001Z</time></trkpt><trkpt lat="42.125352046537266" lon="12.128972242235584"><ele>362.0</ele><time>2026-04-04T06:30:11.001Z</time></trkpt><trkpt lat="42.12544730632947" lon="12.12905907068652"><ele>362.0</ele><time>2026-04-04T06:30:13.001Z</time></trkpt><trkpt lat="42.12551180866817" lon="12.129090969687375"><ele>362.0</ele><time>2026-04-04T06:30:14.001Z</time></trkpt><trkpt lat="42.12558471980898" lon="12.129188326744611"><ele>362.0</ele><time>2026-04-04T06:30:16.001Z</time></trkpt><trkpt lat="42.12563313328046" lon="12.12924312225199"><ele>362.0</ele><time>2026-04-04T06:30:17.001Z</time></trkpt><trkpt lat="42.12569868657593" lon="12.129300840817292"><ele>362.0</ele><time>2026-04-04T06:30:19.001Z</time></trkpt><trkpt lat="42.12577044034256" lon="12.129368268779398"><ele>362.0</ele><time>2026-04-04T06:30:21.001Z</time></trkpt><trkpt lat="42.12586757067462" lon="12.129440719939955"><ele>362.0</ele><time>2026-04-04T06:30:23.001Z</time></trkpt><trkpt lat="42.125958373888906" lon="12.129530266559177"><ele>362.0</ele><time>2026-04-04T06:30:25.001Z</time></trkpt><trkpt lat="42.12602417813429" lon="12.129605626476982"><ele>362.0</ele><time>2026-04-04T06:30:27.001Z</time></trkpt><trkpt lat="42.12608260785974" lon="12.129648827997329"><ele>362.0</ele><time>2026-04-04T06:30:28.001Z</time></trkpt><trkpt lat="42.1262040684408" lon="12.129756634786032"><ele>362.0</ele><time>2026-04-04T06:30:30.001Z</time></trkpt><trkpt lat="42.126292401757425" lon="12.12984718442276"><ele>361.8</ele><time>2026-04-04T06:30:32.001Z</time></trkpt><trkpt lat="42.126386802517224" lon="12.129936083699617"><ele>361.6</ele><time>2026-04-04T06:30:34.001Z</time></trkpt><trkpt lat="42.12643695125663" lon="12.129993578355874"><ele>361.40000000000003</ele><time>2026-04-04T06:30:35.001Z</time></trkpt><trkpt lat="42.126527477237445" lon="12.130085398852172"><ele>361.20000000000005</ele><time>2026-04-04T06:30:37.001Z</time></trkpt><trkpt lat="42.126624466752276" lon="12.130156035083656"><ele>361.0</ele><time>2026-04-04T06:30:39.001Z</time></trkpt><trkpt lat="42.12670394597857" lon="12.130241804018763"><ele>361.4</ele><time>2026-04-04T06:30:41.001Z</time></trkpt><trkpt lat="42.12677856317384" lon="12.130327397391518"><ele>361.8</ele><time>2026-04-04T06:30:43.001Z</time></trkpt><trkpt lat="42.1268637495664" lon="12.130418306748993"><ele>362.2</ele><time>2026-04-04T06:30:45.001Z</time></trkpt><trkpt lat="42.12695098697097" lon="12.130490090210392"><ele>362.59999999999997</ele><time>2026-04-04T06:30:47.001Z</time></trkpt><trkpt lat="42.127033015777805" lon="12.130578567223303"><ele>363.0</ele><time>2026-04-04T06:30:49.001Z</time></trkpt><trkpt lat="42.12710289248309" lon="12.130628513050155"><ele>363.0</ele><time>2026-04-04T06:30:51.001Z</time></trkpt><trkpt lat="42.12716059034775" lon="12.130701778986435"><ele>363.0</ele><time>2026-04-04T06:30:52.001Z</time></trkpt><trkpt lat="42.12734816474066" lon="12.130860932928774"><ele>363.0</ele><time>2026-04-04T06:30:56.001Z</time></trkpt><trkpt lat="42.12743289999078" lon="12.130953255255092"><ele>363.0</ele><time>2026-04-04T06:30:58.001Z</time></trkpt><trkpt lat="42.127511008399665" lon="12.131041525148207"><ele>363.59999999999997</ele><time>2026-04-04T06:31:00.001Z</time></trkpt><trkpt lat="42.127610864821264" lon="12.131104314815442"><ele>364.2</ele><time>2026-04-04T06:31:02.001Z</time></trkpt><trkpt lat="42.1276899824575" lon="12.131181401223456"><ele>364.8</ele><time>2026-04-04T06:31:04.001Z</time></trkpt><trkpt lat="42.127761670881" lon="12.131260262805991"><ele>365.4</ele><time>2026-04-04T06:31:06.001Z</time></trkpt><trkpt lat="42.1278649519636" lon="12.131329205920174"><ele>366.0</ele><time>2026-04-04T06:31:08.001Z</time></trkpt><trkpt lat="42.127963689794306" lon="12.131405608202416"><ele>366.0</ele><time>2026-04-04T06:31:10.001Z</time></trkpt><trkpt lat="42.12802679189879" lon="12.13149017575617"><ele>366.0</ele><time>2026-04-04T06:31:12.001Z</time></trkpt><trkpt lat="42.128096237660635" lon="12.131566706626945"><ele>366.0</ele><time>2026-04-04T06:31:14.001Z</time></trkpt><trkpt lat="42.128177992926176" lon="12.131636154943049"><ele>366.0</ele><time>2026-04-04T06:31:17.001Z</time></trkpt><trkpt lat="42.12825143177084" lon="12.131708160219087"><ele>366.0</ele><time>2026-04-04T06:31:20.001Z</time></trkpt><trkpt lat="42.12834070584185" lon="12.13176858798766"><ele>366.6</ele><time>2026-04-04T06:31:22.001Z</time></trkpt><trkpt lat="42.12842841328366" lon="12.131866475634457"><ele>367.20000000000005</ele><time>2026-04-04T06:31:25.001Z</time></trkpt><trkpt lat="42.12849382183978" lon="12.131967158055767"><ele>367.79999999999995</ele><time>2026-04-04T06:31:29.001Z</time></trkpt><trkpt lat="42.12852231883499" lon="12.132047242141509"><ele>368.4</ele><time>2026-04-04T06:31:31.001Z</time></trkpt><trkpt lat="42.12859249254668" lon="12.132140690927953"><ele>369.0</ele><time>2026-04-04T06:31:34.001Z</time></trkpt><trkpt lat="42.12867647200893" lon="12.13224916132166"><ele>370.5</ele><time>2026-04-04T06:31:37.001Z</time></trkpt><trkpt lat="42.129088207418235" lon="12.132453668144613"><ele>372.0</ele><time>2026-04-04T06:31:38.001Z</time></trkpt><trkpt lat="42.12912724603531" lon="12.13252142218478"><ele>372.0</ele><time>2026-04-04T06:31:39.001Z</time></trkpt><trkpt lat="42.12923254559326" lon="12.132578714859926"><ele>372.0</ele><time>2026-04-04T06:31:41.001Z</time></trkpt><trkpt lat="42.129183089556165" lon="12.132670211805067"><ele>372.0</ele><time>2026-04-04T06:31:42.001Z</time></trkpt><trkpt lat="42.129286659929974" lon="12.13270521166996"><ele>372.0</ele><time>2026-04-04T06:31:43.001Z</time></trkpt><trkpt lat="42.12940306936698" lon="12.13267449742665"><ele>372.0</ele><time>2026-04-04T06:31:44.001Z</time></trkpt><trkpt lat="42.12948396005144" lon="12.132704464842396"><ele>372.0</ele><time>2026-04-04T06:31:46.001Z</time></trkpt><trkpt lat="42.12959406005849" lon="12.132686872154872"><ele>372.0</ele><time>2026-04-04T06:31:48.001Z</time></trkpt><trkpt lat="42.129705159520334" lon="12.132671992096075"><ele>372.0</ele><time>2026-04-04T06:31:50.001Z</time></trkpt><trkpt lat="42.1298107761013" lon="12.132778043128525"><ele>372.0</ele><time>2026-04-04T06:31:52.001Z</time></trkpt><trkpt lat="42.12988753215565" lon="12.132794514693348"><ele>372.0</ele><time>2026-04-04T06:31:54.001Z</time></trkpt><trkpt lat="42.12998480901991" lon="12.132854011052206"><ele>371.8</ele><time>2026-04-04T06:31:56.001Z</time></trkpt><trkpt lat="42.13009643657506" lon="12.132872127264768"><ele>371.6</ele><time>2026-04-04T06:31:58.001Z</time></trkpt><trkpt lat="42.130156339002156" lon="12.13291339946413"><ele>371.40000000000003</ele><time>2026-04-04T06:31:59.001Z</time></trkpt><trkpt lat="42.13023226257831" lon="12.133008884459876"><ele>371.20000000000005</ele><time>2026-04-04T06:32:01.001Z</time></trkpt><trkpt lat="42.13029764208025" lon="12.133052791543838"><ele>371.0</ele><time>2026-04-04T06:32:02.001Z</time></trkpt><trkpt lat="42.1303902910383" lon="12.13309905673255"><ele>371.0</ele><time>2026-04-04T06:32:04Z</time></trkpt><trkpt lat="42.130482216100226" lon="12.133163719249"><ele>371.0</ele><time>2026-04-04T06:32:06Z</time></trkpt><trkpt lat="42.130592853140506" lon="12.13324002791442"><ele>371.0</ele><time>2026-04-04T06:32:08Z</time></trkpt><trkpt lat="42.130658111181965" lon="12.13322524132242"><ele>371.0</ele><time>2026-04-04T06:32:09Z</time></trkpt><trkpt lat="42.1307576564644" lon="12.133112145037103"><ele>371.0</ele><time>2026-04-04T06:32:10Z</time></trkpt><trkpt lat="42.13086192039891" lon="12.133004496355513"><ele>369.6666666666667</ele><time>2026-04-04T06:32:11Z</time></trkpt><trkpt lat="42.130916619572744" lon="12.132953513340672"><ele>368.33333333333337</ele><time>2026-04-04T06:32:13Z</time></trkpt><trkpt lat="42.131002553685526" lon="12.132946151003846"><ele>367.0</ele><time>2026-04-04T06:32:14Z</time></trkpt><trkpt lat="42.13107725671623" lon="12.132983391104043"><ele>365.6666666666667</ele><time>2026-04-04T06:32:15Z</time></trkpt><trkpt lat="42.131129621140886" lon="12.133079406658112"><ele>364.3333333333333</ele><time>2026-04-04T06:32:16Z</time></trkpt><trkpt lat="42.13119884571171" lon="12.133136230499073"><ele>363.0</ele><time>2026-04-04T06:32:17Z</time></trkpt><trkpt lat="42.13125527930453" lon="12.133182554768263"><ele>362.5</ele><time>2026-04-04T06:32:18Z</time></trkpt><trkpt lat="42.13133585916911" lon="12.133252482450734"><ele>362.0</ele><time>2026-04-04T06:32:19Z</time></trkpt><trkpt lat="42.131397638160415" lon="12.133304759376115"><ele>361.5</ele><time>2026-04-04T06:32:20Z</time></trkpt><trkpt lat="42.13146407474753" lon="12.133360977519816"><ele>361.0</ele><time>2026-04-04T06:32:21Z</time></trkpt><trkpt lat="42.13152706970966" lon="12.133414283388046"><ele>360.5</ele><time>2026-04-04T06:32:22Z</time></trkpt><trkpt lat="42.131594434058556" lon="12.133471286611961"><ele>360.0</ele><time>2026-04-04T06:32:23Z</time></trkpt><trkpt lat="42.131655179787124" lon="12.133522862280156"><ele>358.6666666666667</ele><time>2026-04-04T06:32:24Z</time></trkpt><trkpt lat="42.13171932890313" lon="12.133577301578665"><ele>357.3333333333333</ele><time>2026-04-04T06:32:25Z</time></trkpt><trkpt lat="42.131779174092635" lon="12.133632605942731"><ele>356.0</ele><time>2026-04-04T06:32:26Z</time></trkpt><trkpt lat="42.13184143070166" lon="12.133688885916353"><ele>354.66666666666663</ele><time>2026-04-04T06:32:27Z</time></trkpt><trkpt lat="42.13190132870433" lon="12.133751538752623"><ele>353.3333333333333</ele><time>2026-04-04T06:32:28Z</time></trkpt><trkpt lat="42.13196764449445" lon="12.133824224197921"><ele>352.0</ele><time>2026-04-04T06:32:29Z</time></trkpt><trkpt lat="42.13204488035595" lon="12.133901275915239"><ele>352.0</ele><time>2026-04-04T06:32:30Z</time></trkpt><trkpt lat="42.13211978071148" lon="12.133968705734844"><ele>352.0</ele><time>2026-04-04T06:32:31Z</time></trkpt><trkpt lat="42.132201976202964" lon="12.134040493131344"><ele>352.0</ele><time>2026-04-04T06:32:32Z</time></trkpt><trkpt lat="42.1322844460183" lon="12.134097077776218"><ele>352.0</ele><time>2026-04-04T06:32:33Z</time></trkpt><trkpt lat="42.13237624028325" lon="12.13414513698266"><ele>352.0</ele><time>2026-04-04T06:32:34Z</time></trkpt><trkpt lat="42.13248118365894" lon="12.134171927050835"><ele>352.0</ele><time>2026-04-04T06:32:35Z</time></trkpt><trkpt lat="42.13257084382514" lon="12.134172347548331"><ele>352.0</ele><time>2026-04-04T06:32:36Z</time></trkpt><trkpt lat="42.13265643839922" lon="12.13411901892393"><ele>352.0</ele><time>2026-04-04T06:32:37Z</time></trkpt><trkpt lat="42.13272958071582" lon="12.134051280141053"><ele>352.0</ele><time>2026-04-04T06:32:38Z</time></trkpt><trkpt lat="42.13277355015096" lon="12.133943989469367"><ele>352.0</ele><time>2026-04-04T06:32:39Z</time></trkpt><trkpt lat="42.1328179965458" lon="12.133863197183278"><ele>352.0</ele><time>2026-04-04T06:32:40Z</time></trkpt><trkpt lat="42.13286131206573" lon="12.133786284309675"><ele>352.0</ele><time>2026-04-04T06:32:41Z</time></trkpt><trkpt lat="42.13291560263852" lon="12.133697855008068"><ele>352.0</ele><time>2026-04-04T06:32:42Z</time></trkpt><trkpt lat="42.13296598629246" lon="12.13361308953859"><ele>352.0</ele><time>2026-04-04T06:32:43Z</time></trkpt><trkpt lat="42.13301522532924" lon="12.133534108572936"><ele>352.0</ele><time>2026-04-04T06:32:44Z</time></trkpt><trkpt lat="42.13307697498448" lon="12.133479957333332"><ele>352.0</ele><time>2026-04-04T06:32:45Z</time></trkpt><trkpt lat="42.1331466209118" lon="12.133443578600621"><ele>352.0</ele><time>2026-04-04T06:32:46Z</time></trkpt><trkpt lat="42.13321898091168" lon="12.133428235378101"><ele>350.8333333333333</ele><time>2026-04-04T06:32:47Z</time></trkpt><trkpt lat="42.133294146107126" lon="12.133457302362364"><ele>349.66666666666663</ele><time>2026-04-04T06:32:48Z</time></trkpt><trkpt lat="42.13334941898186" lon="12.133522015162473"><ele>348.5</ele><time>2026-04-04T06:32:49Z</time></trkpt><trkpt lat="42.13340544610441" lon="12.133578364903428"><ele>347.3333333333333</ele><time>2026-04-04T06:32:50Z</time></trkpt><trkpt lat="42.133467648943885" lon="12.133683043871015"><ele>346.1666666666667</ele><time>2026-04-04T06:32:52Z</time></trkpt><trkpt lat="42.133497648827905" lon="12.1338309270092"><ele>345.0</ele><time>2026-04-04T06:32:54Z</time></trkpt><trkpt lat="42.13356245048491" lon="12.133946526263887"><ele>345.0</ele><time>2026-04-04T06:32:56Z</time></trkpt><trkpt lat="42.13363002319184" lon="12.134035171424445"><ele>345.0</ele><time>2026-04-04T06:32:58Z</time></trkpt><trkpt lat="42.13369413167094" lon="12.13409097543061"><ele>345.0</ele><time>2026-04-04T06:33:00Z</time></trkpt><trkpt lat="42.13376983453107" lon="12.134125114353905"><ele>345.0</ele><time>2026-04-04T06:33:02Z</time></trkpt><trkpt lat="42.133856708537095" lon="12.134152168207905"><ele>345.0</ele><time>2026-04-04T06:33:04Z</time></trkpt><trkpt lat="42.13393704235408" lon="12.13416020355631"><ele>345.0</ele><time>2026-04-04T06:33:06Z</time></trkpt><trkpt lat="42.134015351680596" lon="12.13415992908237"><ele>345.8</ele><time>2026-04-04T06:33:08Z</time></trkpt><trkpt lat="42.1341127083942" lon="12.1341812905721"><ele>346.6</ele><time>2026-04-04T06:33:10Z</time></trkpt><trkpt lat="42.13420632693139" lon="12.134190602787706"><ele>347.4</ele><time>2026-04-04T06:33:12Z</time></trkpt><trkpt lat="42.13428532876711" lon="12.134208113479797"><ele>348.2</ele><time>2026-04-04T06:33:14Z</time></trkpt><trkpt lat="42.13436873727737" lon="12.134243488897251"><ele>349.0</ele><time>2026-04-04T06:33:16Z</time></trkpt><trkpt lat="42.13449207416019" lon="12.134271393492325"><ele>349.0</ele><time>2026-04-04T06:33:19Z</time></trkpt><trkpt lat="42.13457411041106" lon="12.13428034638589"><ele>349.0</ele><time>2026-04-04T06:33:21Z</time></trkpt><trkpt lat="42.13464741359125" lon="12.134286296367174"><ele>349.0</ele><time>2026-04-04T06:33:23Z</time></trkpt><trkpt lat="42.134708555921726" lon="12.134309032342463"><ele>349.0</ele><time>2026-04-04T06:33:25Z</time></trkpt><trkpt lat="42.13478613861832" lon="12.134328141474096"><ele>349.0</ele><time>2026-04-04T06:33:27Z</time></trkpt><trkpt lat="42.13488033685161" lon="12.134330568853947"><ele>349.0</ele><time>2026-04-04T06:33:29Z</time></trkpt><trkpt lat="42.134962541895305" lon="12.13431833250712"><ele>349.85714285714283</ele><time>2026-04-04T06:33:31Z</time></trkpt><trkpt lat="42.13503921439405" lon="12.134343615535903"><ele>350.7142857142857</ele><time>2026-04-04T06:33:33Z</time></trkpt><trkpt lat="42.13510424432773" lon="12.134345309652481"><ele>351.57142857142856</ele><time>2026-04-04T06:33:37Z</time></trkpt><trkpt lat="42.135178914382564" lon="12.13435367235631"><ele>352.42857142857144</ele><time>2026-04-04T06:33:40Z</time></trkpt><trkpt lat="42.13524641649371" lon="12.134329987474153"><ele>353.2857142857143</ele><time>2026-04-04T06:33:42Z</time></trkpt><trkpt lat="42.13531166975236" lon="12.134330452649957"><ele>354.1428571428571</ele><time>2026-04-04T06:33:44Z</time></trkpt><trkpt lat="42.13538133482666" lon="12.134337884630344"><ele>355.0</ele><time>2026-04-04T06:33:47Z</time></trkpt><trkpt lat="42.135456224900224" lon="12.13433315099004"><ele>355.0</ele><time>2026-04-04T06:33:50Z</time></trkpt><trkpt lat="42.135536339358815" lon="12.134332856919697"><ele>355.0</ele><time>2026-04-04T06:33:53Z</time></trkpt><trkpt lat="42.13560354227271" lon="12.1343226904681"><ele>355.0</ele><time>2026-04-04T06:33:55Z</time></trkpt><trkpt lat="42.13567737468865" lon="12.13432090123526"><ele>355.0</ele><time>2026-04-04T06:33:57Z</time></trkpt><trkpt lat="42.135756706250376" lon="12.134338298278664"><ele>355.0</ele><time>2026-04-04T06:33:59Z</time></trkpt><trkpt lat="42.135846831084166" lon="12.134350472543966"><ele>355.0</ele><time>2026-04-04T06:34:01Z</time></trkpt><trkpt lat="42.13596030434742" lon="12.134374198524178"><ele>356.5</ele><time>2026-04-04T06:34:03Z</time></trkpt><trkpt lat="42.1362062769824" lon="12.134401875582851"><ele>358.0</ele><time>2026-04-04T06:34:05Z</time></trkpt><trkpt lat="42.13628702247443" lon="12.134430205793333"><ele>359.5</ele><time>2026-04-04T06:34:07Z</time></trkpt><trkpt lat="42.136363279105204" lon="12.134447575336967"><ele>361.0</ele><time>2026-04-04T06:34:09Z</time></trkpt><trkpt lat="42.136454450190975" lon="12.134458124218876"><ele>361.0</ele><time>2026-04-04T06:34:11Z</time></trkpt><trkpt lat="42.13654402855618" lon="12.134506252516134"><ele>361.0</ele><time>2026-04-04T06:34:13Z</time></trkpt><trkpt lat="42.13661835356407" lon="12.13451169324214"><ele>361.0</ele><time>2026-04-04T06:34:15Z</time></trkpt><trkpt lat="42.136686476457555" lon="12.134560220619658"><ele>361.0</ele><time>2026-04-04T06:34:17Z</time></trkpt><trkpt lat="42.136748892172605" lon="12.134602846977401"><ele>361.0</ele><time>2026-04-04T06:34:19Z</time></trkpt><trkpt lat="42.136793819985634" lon="12.134666517779578"><ele>361.0</ele><time>2026-04-04T06:34:21Z</time></trkpt><trkpt lat="42.136881763153326" lon="12.134745278836228"><ele>362.0</ele><time>2026-04-04T06:34:24Z</time></trkpt><trkpt lat="42.136930974790516" lon="12.134837965708602"><ele>363.0</ele><time>2026-04-04T06:34:26Z</time></trkpt><trkpt lat="42.1370075144458" lon="12.13490849531175"><ele>364.0</ele><time>2026-04-04T06:34:28Z</time></trkpt><trkpt lat="42.13705430328394" lon="12.13497433520618"><ele>365.0</ele><time>2026-04-04T06:34:29Z</time></trkpt><trkpt lat="42.13712113144174" lon="12.135077300153068"><ele>366.0</ele><time>2026-04-04T06:34:31Z</time></trkpt><trkpt lat="42.1372062720825" lon="12.13518634644819"><ele>366.0</ele><time>2026-04-04T06:34:33Z</time></trkpt><trkpt lat="42.137285635872566" lon="12.135290976336142"><ele>366.0</ele><time>2026-04-04T06:34:35Z</time></trkpt><trkpt lat="42.137367592374396" lon="12.13539886125965"><ele>366.0</ele><time>2026-04-04T06:34:37Z</time></trkpt><trkpt lat="42.137452024742394" lon="12.135490248609646"><ele>366.0</ele><time>2026-04-04T06:34:39Z</time></trkpt><trkpt lat="42.13751999997884" lon="12.13558137336291"><ele>366.0</ele><time>2026-04-04T06:34:41Z</time></trkpt><trkpt lat="42.13758419662961" lon="12.135673271991871"><ele>365.4</ele><time>2026-04-04T06:34:43Z</time></trkpt><trkpt lat="42.13765587684271" lon="12.135790825525671"><ele>364.8</ele><time>2026-04-04T06:34:45Z</time></trkpt><trkpt lat="42.13770469492744" lon="12.135860093285334"><ele>364.2</ele><time>2026-04-04T06:34:46Z</time></trkpt><trkpt lat="42.137758809229574" lon="12.135907334337208"><ele>363.59999999999997</ele><time>2026-04-04T06:34:47Z</time></trkpt><trkpt lat="42.137838538325774" lon="12.13601885150121"><ele>363.0</ele><time>2026-04-04T06:34:49Z</time></trkpt><trkpt lat="42.13789637424306" lon="12.136121056451033"><ele>363.0</ele><time>2026-04-04T06:34:51Z</time></trkpt><trkpt lat="42.137969963535745" lon="12.136231333357188"><ele>363.0</ele><time>2026-04-04T06:34:53Z</time></trkpt><trkpt lat="42.138047961663" lon="12.136352131559525"><ele>363.0</ele><time>2026-04-04T06:34:55Z</time></trkpt><trkpt lat="42.13812275214146" lon="12.136450650378336"><ele>363.0</ele><time>2026-04-04T06:34:57Z</time></trkpt><trkpt lat="42.138199388185356" lon="12.136542566676248"><ele>363.0</ele><time>2026-04-04T06:34:59Z</time></trkpt><trkpt lat="42.13827689128106" lon="12.136614013576"><ele>364.0</ele><time>2026-04-04T06:35:01Z</time></trkpt><trkpt lat="42.13832707545558" lon="12.13669861958756"><ele>365.0</ele><time>2026-04-04T06:35:05Z</time></trkpt><trkpt lat="42.138402565946315" lon="12.13672923587498"><ele>366.0</ele><time>2026-04-04T06:35:07Z</time></trkpt><trkpt lat="42.13848341290436" lon="12.136795261346649"><ele>367.0</ele><time>2026-04-04T06:35:10Z</time></trkpt><trkpt lat="42.138562086937" lon="12.136865175674622"><ele>368.0</ele><time>2026-04-04T06:35:13Z</time></trkpt><trkpt lat="42.13862787732017" lon="12.136949454931743"><ele>369.0</ele><time>2026-04-04T06:35:16Z</time></trkpt><trkpt lat="42.138891998281856" lon="12.137086777408108"><ele>369.0</ele><time>2026-04-04T06:35:17Z</time></trkpt><trkpt lat="42.13897247033793" lon="12.137137204547688"><ele>369.0</ele><time>2026-04-04T06:35:19Z</time></trkpt><trkpt lat="42.13903866286794" lon="12.137184927601243"><ele>369.0</ele><time>2026-04-04T06:35:21Z</time></trkpt><trkpt lat="42.13912543727533" lon="12.137249242877637"><ele>369.0</ele><time>2026-04-04T06:35:23Z</time></trkpt><trkpt lat="42.13918178558534" lon="12.137289084822388"><ele>369.0</ele><time>2026-04-04T06:35:24Z</time></trkpt><trkpt lat="42.13929832248974" lon="12.137352526698436"><ele>370.0</ele><time>2026-04-04T06:35:26Z</time></trkpt><trkpt lat="42.13942812150452" lon="12.137385640319671"><ele>371.0</ele><time>2026-04-04T06:35:28Z</time></trkpt><trkpt lat="42.1395264773221" lon="12.137369975853531"><ele>372.0</ele><time>2026-04-04T06:35:29Z</time></trkpt><trkpt lat="42.139659686411925" lon="12.137251990158148"><ele>373.0</ele><time>2026-04-04T06:35:30Z</time></trkpt><trkpt lat="42.139772816831055" lon="12.137201724161152"><ele>373.4</ele><time>2026-04-04T06:35:31Z</time></trkpt><trkpt lat="42.13985717884898" lon="12.137112354827503"><ele>373.79999999999995</ele><time>2026-04-04T06:35:32Z</time></trkpt><trkpt lat="42.139974468145205" lon="12.137080535148039"><ele>374.2</ele><time>2026-04-04T06:35:33Z</time></trkpt><trkpt lat="42.140038542333954" lon="12.137066567780385"><ele>374.6</ele><time>2026-04-04T06:35:34Z</time></trkpt><trkpt lat="42.14014722912909" lon="12.137106461301231"><ele>375.0</ele><time>2026-04-04T06:35:35Z</time></trkpt><trkpt lat="42.140237236331686" lon="12.137134987268722"><ele>375.0</ele><time>2026-04-04T06:35:36Z</time></trkpt><trkpt lat="42.140304291286384" lon="12.137179515359136"><ele>375.0</ele><time>2026-04-04T06:35:37Z</time></trkpt><trkpt lat="42.14039151811117" lon="12.137214129003558"><ele>375.0</ele><time>2026-04-04T06:35:38Z</time></trkpt><trkpt lat="42.14047365933384" lon="12.137236201401894"><ele>375.0</ele><time>2026-04-04T06:35:39Z</time></trkpt><trkpt lat="42.140549876186675" lon="12.137243618312635"><ele>375.0</ele><time>2026-04-04T06:35:40Z</time></trkpt><trkpt lat="42.14063391778812" lon="12.137256475487696"><ele>375.0</ele><time>2026-04-04T06:35:41Z</time></trkpt><trkpt lat="42.14079398504145" lon="12.137291675980467"><ele>375.0</ele><time>2026-04-04T06:35:43Z</time></trkpt><trkpt lat="42.14087206176385" lon="12.137301320349405"><ele>375.0</ele><time>2026-04-04T06:35:44Z</time></trkpt><trkpt lat="42.14094674586401" lon="12.137309925845912"><ele>375.0</ele><time>2026-04-04T06:35:45Z</time></trkpt><trkpt lat="42.14101317652459" lon="12.137315810509575"><ele>375.0</ele><time>2026-04-04T06:35:46Z</time></trkpt><trkpt lat="42.14108451588222" lon="12.137323027649455"><ele>375.0</ele><time>2026-04-04T06:35:47Z</time></trkpt><trkpt lat="42.141210825018554" lon="12.137337956673742"><ele>375.0</ele><time>2026-04-04T06:35:49Z</time></trkpt><trkpt lat="42.141326989432876" lon="12.137355929816916"><ele>375.0</ele><time>2026-04-04T06:35:51Z</time></trkpt><trkpt lat="42.14143223515722" lon="12.13738437338581"><ele>375.0</ele><time>2026-04-04T06:35:53Z</time></trkpt><trkpt lat="42.141516318118995" lon="12.137456786409263"><ele>375.0</ele><time>2026-04-04T06:35:55Z</time></trkpt><trkpt lat="42.14158919450815" lon="12.137580653293323"><ele>375.0</ele><time>2026-04-04T06:35:57Z</time></trkpt><trkpt lat="42.14161024268632" lon="12.137729753740288"><ele>375.0</ele><time>2026-04-04T06:35:59Z</time></trkpt><trkpt lat="42.141617695939104" lon="12.137872591024006"><ele>372.25</ele><time>2026-04-04T06:36:01Z</time></trkpt><trkpt lat="42.14162075592914" lon="12.138023840125456"><ele>369.5</ele><time>2026-04-04T06:36:03Z</time></trkpt><trkpt lat="42.14159722203653" lon="12.138173777418388"><ele>366.75</ele><time>2026-04-04T06:36:05Z</time></trkpt><trkpt lat="42.14158550875037" lon="12.138327986996911"><ele>364.0</ele><time>2026-04-04T06:36:07Z</time></trkpt><trkpt lat="42.14156636150352" lon="12.138476188671447"><ele>363.79999999999995</ele><time>2026-04-04T06:36:09Z</time></trkpt><trkpt lat="42.14155465303385" lon="12.138628843431686"><ele>363.59999999999997</ele><time>2026-04-04T06:36:11Z</time></trkpt><trkpt lat="42.14154586349856" lon="12.138780184772697"><ele>363.4</ele><time>2026-04-04T06:36:13Z</time></trkpt><trkpt lat="42.14153871905778" lon="12.138918035282092"><ele>363.2</ele><time>2026-04-04T06:36:15Z</time></trkpt><trkpt lat="42.14154995462105" lon="12.139041875003478"><ele>363.0</ele><time>2026-04-04T06:36:17Z</time></trkpt><trkpt lat="42.141551513788365" lon="12.139153912625803"><ele>362.79999999999995</ele><time>2026-04-04T06:36:19Z</time></trkpt><trkpt lat="42.1415535442866" lon="12.139268982823896"><ele>362.6</ele><time>2026-04-04T06:36:22Z</time></trkpt><trkpt lat="42.1415384413468" lon="12.139510307169152"><ele>362.4</ele><time>2026-04-04T06:36:25Z</time></trkpt><trkpt lat="42.141539721575285" lon="12.139625636990226"><ele>362.20000000000005</ele><time>2026-04-04T06:36:27Z</time></trkpt><trkpt lat="42.14154279455073" lon="12.139743681555348"><ele>362.0</ele><time>2026-04-04T06:36:29Z</time></trkpt><trkpt lat="42.14154246550773" lon="12.139887008708474"><ele>362.0</ele><time>2026-04-04T06:36:31Z</time></trkpt><trkpt lat="42.141541551781025" lon="12.140037671014621"><ele>362.0</ele><time>2026-04-04T06:36:33Z</time></trkpt><trkpt lat="42.14155210480188" lon="12.140198183917787"><ele>362.0</ele><time>2026-04-04T06:36:35Z</time></trkpt><trkpt lat="42.14159082904235" lon="12.140358241313544"><ele>362.0</ele><time>2026-04-04T06:36:37Z</time></trkpt><trkpt lat="42.14166901915005" lon="12.14050993849833"><ele>362.1666666666667</ele><time>2026-04-04T06:36:39Z</time></trkpt><trkpt lat="42.141726104552" lon="12.140670500003937"><ele>362.33333333333337</ele><time>2026-04-04T06:36:41Z</time></trkpt><trkpt lat="42.14176587190581" lon="12.14075997985209"><ele>362.5</ele><time>2026-04-04T06:36:42Z</time></trkpt><trkpt lat="42.1417942792543" lon="12.140865924490306"><ele>362.6666666666667</ele><time>2026-04-04T06:36:43Z</time></trkpt><trkpt lat="42.14179818515793" lon="12.14096170453782"><ele>362.8333333333333</ele><time>2026-04-04T06:36:44Z</time></trkpt><trkpt lat="42.14174584053081" lon="12.141021553501837"><ele>363.0</ele><time>2026-04-04T06:36:45Z</time></trkpt><trkpt lat="42.14169288782378" lon="12.141094354549924"><ele>363.0</ele><time>2026-04-04T06:36:46Z</time></trkpt><trkpt lat="42.141619648881736" lon="12.141187648366717"><ele>363.0</ele><time>2026-04-04T06:36:48Z</time></trkpt><trkpt lat="42.14156456620441" lon="12.14127851006231"><ele>363.0</ele><time>2026-04-04T06:36:50Z</time></trkpt><trkpt lat="42.14148673587943" lon="12.14133159279668"><ele>363.0</ele><time>2026-04-04T06:36:52Z</time></trkpt><trkpt lat="42.14141007330717" lon="12.141430983667139"><ele>363.0</ele><time>2026-04-04T06:36:54Z</time></trkpt><trkpt lat="42.14132460968102" lon="12.14154415778446"><ele>363.2</ele><time>2026-04-04T06:36:56Z</time></trkpt><trkpt lat="42.14125394018906" lon="12.141679386596808"><ele>363.4</ele><time>2026-04-04T06:36:58Z</time></trkpt><trkpt lat="42.14121998779528" lon="12.141766861866744"><ele>363.59999999999997</ele><time>2026-04-04T06:36:59Z</time></trkpt><trkpt lat="42.14120483232492" lon="12.141853602115097"><ele>363.79999999999995</ele><time>2026-04-04T06:37:00Z</time></trkpt><trkpt lat="42.14114880700992" lon="12.14197364348992"><ele>364.0</ele><time>2026-04-04T06:37:02Z</time></trkpt><trkpt lat="42.141170092460364" lon="12.142131396156552"><ele>364.0</ele><time>2026-04-04T06:37:04Z</time></trkpt><trkpt lat="42.14121351027829" lon="12.142195352073763"><ele>364.0</ele><time>2026-04-04T06:37:05Z</time></trkpt><trkpt lat="42.14128518531655" lon="12.142257166007075"><ele>364.0</ele><time>2026-04-04T06:37:06Z</time></trkpt><trkpt lat="42.141331064202284" lon="12.142315570143504"><ele>364.0</ele><time>2026-04-04T06:37:07Z</time></trkpt><trkpt lat="42.14139925710534" lon="12.142438774983868"><ele>364.0</ele><time>2026-04-04T06:37:09Z</time></trkpt><trkpt lat="42.14144509572084" lon="12.142501593451293"><ele>364.0</ele><time>2026-04-04T06:37:10Z</time></trkpt><trkpt lat="42.141504611916034" lon="12.142621320450457"><ele>362.25</ele><time>2026-04-04T06:37:12Z</time></trkpt><trkpt lat="42.141589099844346" lon="12.142744240261298"><ele>360.5</ele><time>2026-04-04T06:37:14Z</time></trkpt><trkpt lat="42.14166729737795" lon="12.142865432419498"><ele>358.75</ele><time>2026-04-04T06:37:16Z</time></trkpt><trkpt lat="42.14173013179884" lon="12.142996599242469"><ele>357.0</ele><time>2026-04-04T06:37:18Z</time></trkpt><trkpt lat="42.14181502079715" lon="12.14310426462571"><ele>356.6</ele><time>2026-04-04T06:37:20Z</time></trkpt><trkpt lat="42.141886437298496" lon="12.14321791074115"><ele>356.20000000000005</ele><time>2026-04-04T06:37:22Z</time></trkpt><trkpt lat="42.14195115561466" lon="12.143346187107982"><ele>355.8</ele><time>2026-04-04T06:37:24Z</time></trkpt><trkpt lat="42.14204057759669" lon="12.143440496780961"><ele>355.4</ele><time>2026-04-04T06:37:26Z</time></trkpt><trkpt lat="42.14210648022498" lon="12.143550749779184"><ele>355.0</ele><time>2026-04-04T06:37:28Z</time></trkpt><trkpt lat="42.14216378107057" lon="12.143669435644576"><ele>355.0</ele><time>2026-04-04T06:37:30Z</time></trkpt><trkpt lat="42.14223872895738" lon="12.143771385632093"><ele>355.0</ele><time>2026-04-04T06:37:32Z</time></trkpt><trkpt lat="42.1423101342537" lon="12.143872139414425"><ele>355.0</ele><time>2026-04-04T06:37:34Z</time></trkpt><trkpt lat="42.142373592893044" lon="12.143957090838994"><ele>355.0</ele><time>2026-04-04T06:37:36Z</time></trkpt><trkpt lat="42.14241234702381" lon="12.144056451333194"><ele>355.0</ele><time>2026-04-04T06:37:38Z</time></trkpt><trkpt lat="42.14248120455132" lon="12.14418707068712"><ele>354.66666666666663</ele><time>2026-04-04T06:37:41Z</time></trkpt><trkpt lat="42.14252555366016" lon="12.14425284797388"><ele>354.3333333333333</ele><time>2026-04-04T06:37:43Z</time></trkpt><trkpt lat="42.14256848858119" lon="12.144316981940985"><ele>354.0</ele><time>2026-04-04T06:37:45Z</time></trkpt><trkpt lat="42.14261762817983" lon="12.144415566175613"><ele>353.6666666666667</ele><time>2026-04-04T06:37:48Z</time></trkpt><trkpt lat="42.142677509559086" lon="12.14450615454848"><ele>353.33333333333337</ele><time>2026-04-04T06:37:51Z</time></trkpt><trkpt lat="42.14271065547271" lon="12.144602451357203"><ele>353.0</ele><time>2026-04-04T06:37:54Z</time></trkpt><trkpt lat="42.14275474085418" lon="12.14473663720028"><ele>353.0</ele><time>2026-04-04T06:40:15Z</time></trkpt><trkpt lat="42.14274782314394" lon="12.144834695550987"><ele>353.0</ele><time>2026-04-04T06:40:17Z</time></trkpt><trkpt lat="42.14274089198006" lon="12.144940534326986"><ele>353.0</ele><time>2026-04-04T06:40:19Z</time></trkpt><trkpt lat="42.142728562235" lon="12.145058770593101"><ele>353.0</ele><time>2026-04-04T06:40:21Z</time></trkpt><trkpt lat="42.142723523039976" lon="12.145193585489933"><ele>353.0</ele><time>2026-04-04T06:40:23Z</time></trkpt><trkpt lat="42.14271341438218" lon="12.145337028321558"><ele>353.0</ele><time>2026-04-04T06:40:25Z</time></trkpt><trkpt lat="42.142687245666636" lon="12.145488526555152"><ele>352.75</ele><time>2026-04-04T06:40:27Z</time></trkpt><trkpt lat="42.142694934334244" lon="12.145642356598245"><ele>352.5</ele><time>2026-04-04T06:40:29Z</time></trkpt><trkpt lat="42.142736779616705" lon="12.145794331547194"><ele>352.25</ele><time>2026-04-04T06:40:31Z</time></trkpt><trkpt lat="42.14277222760925" lon="12.145944875823165"><ele>352.0</ele><time>2026-04-04T06:40:33Z</time></trkpt><trkpt lat="42.14281878497504" lon="12.146095600065946"><ele>352.0</ele><time>2026-04-04T06:40:35Z</time></trkpt><trkpt lat="42.142868609892076" lon="12.146237486306047"><ele>352.0</ele><time>2026-04-04T06:40:37Z</time></trkpt><trkpt lat="42.142943998656385" lon="12.146357748398678"><ele>352.0</ele><time>2026-04-04T06:40:39Z</time></trkpt><trkpt lat="42.14303027430226" lon="12.146457819412893"><ele>352.0</ele><time>2026-04-04T06:40:41Z</time></trkpt><trkpt lat="42.14314447312167" lon="12.146527934801748"><ele>352.6</ele><time>2026-04-04T06:40:43Z</time></trkpt><trkpt lat="42.14325387110509" lon="12.146590524461287"><ele>353.20000000000005</ele><time>2026-04-04T06:40:45Z</time></trkpt><trkpt lat="42.143320214983895" lon="12.14663711863529"><ele>353.8</ele><time>2026-04-04T06:40:46Z</time></trkpt><trkpt lat="42.14340086845807" lon="12.146690154665587"><ele>354.4</ele><time>2026-04-04T06:40:47Z</time></trkpt><trkpt lat="42.1435111108192" lon="12.14674058106569"><ele>355.0</ele><time>2026-04-04T06:40:49Z</time></trkpt><trkpt lat="42.14363092922003" lon="12.146834122772626"><ele>355.0</ele><time>2026-04-04T06:40:51Z</time></trkpt><trkpt lat="42.143704599108055" lon="12.1468703545465"><ele>355.0</ele><time>2026-04-04T06:40:52Z</time></trkpt><trkpt lat="42.14376523529319" lon="12.146908237484839"><ele>355.0</ele><time>2026-04-04T06:40:53Z</time></trkpt><trkpt lat="42.14385872269734" lon="12.146945094267636"><ele>355.0</ele><time>2026-04-04T06:40:54Z</time></trkpt><trkpt lat="42.14392323581606" lon="12.146995149961864"><ele>355.0</ele><time>2026-04-04T06:40:55Z</time></trkpt><trkpt lat="42.144000357976836" lon="12.147070328711457"><ele>355.0</ele><time>2026-04-04T06:40:56Z</time></trkpt><trkpt lat="42.144058080612076" lon="12.147155579978811"><ele>355.5</ele><time>2026-04-04T06:40:57Z</time></trkpt><trkpt lat="42.144115761145336" lon="12.147247769283112"><ele>356.0</ele><time>2026-04-04T06:40:58Z</time></trkpt><trkpt lat="42.14416851181833" lon="12.14733998157442"><ele>356.5</ele><time>2026-04-04T06:40:59Z</time></trkpt><trkpt lat="42.144219399296944" lon="12.147441990298583"><ele>357.0</ele><time>2026-04-04T06:41:00Z</time></trkpt><trkpt lat="42.144268605809145" lon="12.147540878760426"><ele>357.5</ele><time>2026-04-04T06:41:01Z</time></trkpt><trkpt lat="42.14432285633338" lon="12.14763959272467"><ele>358.0</ele><time>2026-04-04T06:41:02Z</time></trkpt><trkpt lat="42.14437007901331" lon="12.147741611944308"><ele>356.5</ele><time>2026-04-04T06:41:03Z</time></trkpt><trkpt lat="42.14442390007273" lon="12.147832846864095"><ele>355.0</ele><time>2026-04-04T06:41:04Z</time></trkpt><trkpt lat="42.14449913437213" lon="12.147897137027924"><ele>353.5</ele><time>2026-04-04T06:41:05Z</time></trkpt><trkpt lat="42.14454568782964" lon="12.148004140305515"><ele>352.0</ele><time>2026-04-04T06:41:06Z</time></trkpt><trkpt lat="42.14459318840979" lon="12.148097347026367"><ele>350.5</ele><time>2026-04-04T06:41:07Z</time></trkpt><trkpt lat="42.144648880802905" lon="12.148175139382966"><ele>349.0</ele><time>2026-04-04T06:41:08Z</time></trkpt><trkpt lat="42.14470081252324" lon="12.148267261392387"><ele>348.0</ele><time>2026-04-04T06:41:09Z</time></trkpt><trkpt lat="42.144752682222204" lon="12.148357559067088"><ele>347.0</ele><time>2026-04-04T06:41:10Z</time></trkpt><trkpt lat="42.14479981218027" lon="12.148448759443042"><ele>346.0</ele><time>2026-04-04T06:41:11Z</time></trkpt><trkpt lat="42.14486350381841" lon="12.148526821596235"><ele>345.0</ele><time>2026-04-04T06:41:12Z</time></trkpt><trkpt lat="42.14491154858186" lon="12.148612870715528"><ele>344.0</ele><time>2026-04-04T06:41:13Z</time></trkpt><trkpt lat="42.144960228359864" lon="12.148703874117476"><ele>343.0</ele><time>2026-04-04T06:41:14Z</time></trkpt><trkpt lat="42.145003760423265" lon="12.148788487464072"><ele>343.0</ele><time>2026-04-04T06:41:15Z</time></trkpt><trkpt lat="42.14505334326649" lon="12.148885458054341"><ele>343.0</ele><time>2026-04-04T06:41:16Z</time></trkpt><trkpt lat="42.14510294670407" lon="12.148984324043377"><ele>343.0</ele><time>2026-04-04T06:41:17Z</time></trkpt><trkpt lat="42.14514489325937" lon="12.149067930733983"><ele>343.0</ele><time>2026-04-04T06:41:18Z</time></trkpt><trkpt lat="42.14518576216667" lon="12.149149020946016"><ele>343.0</ele><time>2026-04-04T06:41:19Z</time></trkpt><trkpt lat="42.145226022243584" lon="12.149228740167777"><ele>343.0</ele><time>2026-04-04T06:41:20Z</time></trkpt><trkpt lat="42.14527240019368" lon="12.149321826470835"><ele>341.57142857142856</ele><time>2026-04-04T06:41:21Z</time></trkpt><trkpt lat="42.145305072124145" lon="12.14941827350871"><ele>340.1428571428571</ele><time>2026-04-04T06:41:22Z</time></trkpt><trkpt lat="42.14534840693312" lon="12.149495623012912"><ele>338.7142857142857</ele><time>2026-04-04T06:41:23Z</time></trkpt><trkpt lat="42.14539472060648" lon="12.149573533782268"><ele>337.2857142857143</ele><time>2026-04-04T06:41:24Z</time></trkpt><trkpt lat="42.145445521152965" lon="12.149643941058407"><ele>335.85714285714283</ele><time>2026-04-04T06:41:25Z</time></trkpt><trkpt lat="42.14549810154435" lon="12.149710487696604"><ele>334.42857142857144</ele><time>2026-04-04T06:41:26Z</time></trkpt><trkpt lat="42.14554890140509" lon="12.149777848343174"><ele>333.0</ele><time>2026-04-04T06:41:27Z</time></trkpt><trkpt lat="42.14560128455172" lon="12.149840872801695"><ele>332.5</ele><time>2026-04-04T06:41:28Z</time></trkpt><trkpt lat="42.14564678034437" lon="12.149910999240145"><ele>332.0</ele><time>2026-04-04T06:41:29Z</time></trkpt><trkpt lat="42.145689203218105" lon="12.1499809303716"><ele>331.5</ele><time>2026-04-04T06:41:30Z</time></trkpt><trkpt lat="42.14572659561936" lon="12.150053349885633"><ele>331.0</ele><time>2026-04-04T06:41:31Z</time></trkpt><trkpt lat="42.14575539302196" lon="12.15013008159107"><ele>330.5</ele><time>2026-04-04T06:41:32Z</time></trkpt><trkpt lat="42.14578545087192" lon="12.150208150773487"><ele>330.0</ele><time>2026-04-04T06:41:33Z</time></trkpt><trkpt lat="42.145835394351195" lon="12.150355574284594"><ele>330.0</ele><time>2026-04-04T06:41:35Z</time></trkpt><trkpt lat="42.145863193882725" lon="12.150508414460775"><ele>330.0</ele><time>2026-04-04T06:41:37Z</time></trkpt><trkpt lat="42.14592628074811" lon="12.150647244287446"><ele>330.0</ele><time>2026-04-04T06:41:39Z</time></trkpt><trkpt lat="42.145966782498604" lon="12.150795517094902"><ele>330.0</ele><time>2026-04-04T06:41:41Z</time></trkpt><trkpt lat="42.14602824717895" lon="12.150942838599448"><ele>329.5714285714286</ele><time>2026-04-04T06:41:43Z</time></trkpt><trkpt lat="42.146091286528474" lon="12.151087507412543"><ele>329.14285714285717</ele><time>2026-04-04T06:41:45Z</time></trkpt><trkpt lat="42.146128107080195" lon="12.151157678344235"><ele>328.7142857142857</ele><time>2026-04-04T06:41:46Z</time></trkpt><trkpt lat="42.1461673761727" lon="12.15122629129411"><ele>328.28571428571433</ele><time>2026-04-04T06:41:47Z</time></trkpt><trkpt lat="42.146215205132435" lon="12.151284502637074"><ele>327.8571428571429</ele><time>2026-04-04T06:41:48Z</time></trkpt><trkpt lat="42.14627009787629" lon="12.151332316041843"><ele>327.42857142857144</ele><time>2026-04-04T06:41:49Z</time></trkpt><trkpt lat="42.14632739388597" lon="12.151372276214506"><ele>327.0</ele><time>2026-04-04T06:41:50Z</time></trkpt><trkpt lat="42.14638215969721" lon="12.15141732824157"><ele>327.0</ele><time>2026-04-04T06:41:51Z</time></trkpt><trkpt lat="42.1464746234746" lon="12.151503092876615"><ele>327.0</ele><time>2026-04-04T06:41:53Z</time></trkpt><trkpt lat="42.14653033542832" lon="12.15158525231036"><ele>327.0</ele><time>2026-04-04T06:41:55Z</time></trkpt><trkpt lat="42.1465613143476" lon="12.151674729791917"><ele>327.0</ele><time>2026-04-04T06:41:58Z</time></trkpt><trkpt lat="42.14650469408238" lon="12.151716802446975"><ele>327.0</ele><time>2026-04-04T06:42:01Z</time></trkpt><trkpt lat="42.14655349792017" lon="12.151804956443117"><ele>327.0</ele><time>2026-04-04T06:42:05Z</time></trkpt><trkpt lat="42.14662379621017" lon="12.15181022078896"><ele>326.85714285714283</ele><time>2026-04-04T06:42:07Z</time></trkpt><trkpt lat="42.14669323221565" lon="12.151821295086153"><ele>326.7142857142857</ele><time>2026-04-04T06:42:09Z</time></trkpt><trkpt lat="42.14677104732862" lon="12.151838921528384"><ele>326.57142857142856</ele><time>2026-04-04T06:42:11Z</time></trkpt><trkpt lat="42.146841614244764" lon="12.151883659575631"><ele>326.42857142857144</ele><time>2026-04-04T06:42:13Z</time></trkpt><trkpt lat="42.14689951794199" lon="12.151924146219962"><ele>326.2857142857143</ele><time>2026-04-04T06:42:15Z</time></trkpt><trkpt lat="42.146976640287846" lon="12.151938348378188"><ele>326.14285714285717</ele><time>2026-04-04T06:42:18Z</time></trkpt><trkpt lat="42.14704304684889" lon="12.151960907586174"><ele>326.0</ele><time>2026-04-04T06:42:20Z</time></trkpt><trkpt lat="42.1471115350841" lon="12.152011998323324"><ele>326.0</ele><time>2026-04-04T06:42:22Z</time></trkpt><trkpt lat="42.14717622057591" lon="12.1520427806695"><ele>326.0</ele><time>2026-04-04T06:42:24Z</time></trkpt><trkpt lat="42.14724721231204" lon="12.152069153594912"><ele>326.0</ele><time>2026-04-04T06:42:26Z</time></trkpt><trkpt lat="42.14731715220098" lon="12.152095948085737"><ele>326.0</ele><time>2026-04-04T06:42:28Z</time></trkpt><trkpt lat="42.147377508754865" lon="12.152127811050427"><ele>326.0</ele><time>2026-04-04T06:42:30Z</time></trkpt><trkpt lat="42.1474495645215" lon="12.152136231485173"><ele>326.0</ele><time>2026-04-04T06:42:33Z</time></trkpt><trkpt lat="42.14753059941401" lon="12.152222734481361"><ele>327.6666666666667</ele><time>2026-04-04T06:42:35Z</time></trkpt><trkpt lat="42.147557232250854" lon="12.152314638241068"><ele>329.33333333333337</ele><time>2026-04-04T06:42:37Z</time></trkpt><trkpt lat="42.14761387765597" lon="12.15238835048417"><ele>331.0</ele><time>2026-04-04T06:42:40Z</time></trkpt><trkpt lat="42.14767176205273" lon="12.152464221975318"><ele>332.6666666666667</ele><time>2026-04-04T06:42:44Z</time></trkpt><trkpt lat="42.14775793775235" lon="12.152499509366438"><ele>334.3333333333333</ele><time>2026-04-04T06:42:47Z</time></trkpt><trkpt lat="42.14782594753044" lon="12.15251783081469"><ele>336.0</ele><time>2026-04-04T06:42:50Z</time></trkpt><trkpt lat="42.14789322677612" lon="12.15254823736024"><ele>336.0</ele><time>2026-04-04T06:42:53Z</time></trkpt><trkpt lat="42.14794305609126" lon="12.152610295677384"><ele>336.0</ele><time>2026-04-04T06:42:56Z</time></trkpt><trkpt lat="42.14800001454045" lon="12.152650561480266"><ele>336.0</ele><time>2026-04-04T06:42:59Z</time></trkpt><trkpt lat="42.14807824606385" lon="12.152698939729024"><ele>336.0</ele><time>2026-04-04T06:43:02Z</time></trkpt><trkpt lat="42.14813580542594" lon="12.152746979626043"><ele>336.0</ele><time>2026-04-04T06:43:05Z</time></trkpt><trkpt lat="42.14818701719257" lon="12.152810480174518"><ele>336.0</ele><time>2026-04-04T06:43:08Z</time></trkpt><trkpt lat="42.1482503077753" lon="12.152876053830386"><ele>336.0</ele><time>2026-04-04T06:43:11Z</time></trkpt><trkpt lat="42.148313747953225" lon="12.152947523863835"><ele>338.14285714285717</ele><time>2026-04-04T06:43:14Z</time></trkpt><trkpt lat="42.1483578500689" lon="12.153013869583527"><ele>340.2857142857143</ele><time>2026-04-04T06:43:17Z</time></trkpt><trkpt lat="42.148417689067585" lon="12.15308544775616"><ele>342.42857142857144</ele><time>2026-04-04T06:43:20Z</time></trkpt><trkpt lat="42.148469116632334" lon="12.153139362195505"><ele>344.57142857142856</ele><time>2026-04-04T06:43:22Z</time></trkpt><trkpt lat="42.14853907632201" lon="12.15320963007303"><ele>346.7142857142857</ele><time>2026-04-04T06:43:25Z</time></trkpt><trkpt lat="42.14859524483085" lon="12.153264341867247"><ele>348.8571428571429</ele><time>2026-04-04T06:43:27Z</time></trkpt><trkpt lat="42.14865285508099" lon="12.153319281803046"><ele>351.0</ele><time>2026-04-04T06:43:29Z</time></trkpt><trkpt lat="42.14870844286111" lon="12.153369649698002"><ele>351.0</ele><time>2026-04-04T06:43:31Z</time></trkpt><trkpt lat="42.14876573472665" lon="12.153418149092525"><ele>351.0</ele><time>2026-04-04T06:43:33Z</time></trkpt><trkpt lat="42.14884089145344" lon="12.15347679734112"><ele>351.0</ele><time>2026-04-04T06:43:36Z</time></trkpt><trkpt lat="42.14891218546843" lon="12.153525656756534"><ele>351.0</ele><time>2026-04-04T06:43:39Z</time></trkpt><trkpt lat="42.14898421879847" lon="12.153568677178345"><ele>351.0</ele><time>2026-04-04T06:43:42Z</time></trkpt><trkpt lat="42.14906608825636" lon="12.153613696877592"><ele>351.0</ele><time>2026-04-04T06:43:45Z</time></trkpt><trkpt lat="42.149130046955335" lon="12.153647276647796"><ele>352.7142857142857</ele><time>2026-04-04T06:43:47Z</time></trkpt><trkpt lat="42.14919408351734" lon="12.15368089729378"><ele>354.42857142857144</ele><time>2026-04-04T06:43:49Z</time></trkpt><trkpt lat="42.1492696011955" lon="12.15372197607472"><ele>356.1428571428571</ele><time>2026-04-04T06:43:51Z</time></trkpt><trkpt lat="42.149336874642046" lon="12.153762121045277"><ele>357.8571428571429</ele><time>2026-04-04T06:43:53Z</time></trkpt><trkpt lat="42.14939419611921" lon="12.153797998835648"><ele>359.57142857142856</ele><time>2026-04-04T06:43:55Z</time></trkpt><trkpt lat="42.1494580824306" lon="12.15383938335738"><ele>361.2857142857143</ele><time>2026-04-04T06:43:57Z</time></trkpt><trkpt lat="42.14951971148025" lon="12.15387794946995"><ele>363.0</ele><time>2026-04-04T06:43:59Z</time></trkpt><trkpt lat="42.14959821729432" lon="12.153933864841546"><ele>363.0</ele><time>2026-04-04T06:44:02Z</time></trkpt><trkpt lat="42.14968134350093" lon="12.15399214873201"><ele>363.0</ele><time>2026-04-04T06:44:05Z</time></trkpt><trkpt lat="42.14974092072646" lon="12.154033749353582"><ele>363.0</ele><time>2026-04-04T06:44:07Z</time></trkpt><trkpt lat="42.14981907728427" lon="12.154089903631073"><ele>363.0</ele><time>2026-04-04T06:44:10Z</time></trkpt><trkpt lat="42.14990420926384" lon="12.154151123669253"><ele>363.0</ele><time>2026-04-04T06:44:13Z</time></trkpt><trkpt lat="42.14996014495897" lon="12.15419427173797"><ele>363.0</ele><time>2026-04-04T06:44:15Z</time></trkpt><trkpt lat="42.15002522634689" lon="12.15424447467844"><ele>363.5</ele><time>2026-04-04T06:44:18Z</time></trkpt><trkpt lat="42.15010239336751" lon="12.154304000355147"><ele>364.0</ele><time>2026-04-04T06:44:21Z</time></trkpt><trkpt lat="42.15017459425106" lon="12.15435982863785"><ele>364.5</ele><time>2026-04-04T06:44:24Z</time></trkpt><trkpt lat="42.15024760272342" lon="12.154418429760055"><ele>365.0</ele><time>2026-04-04T06:44:27Z</time></trkpt><trkpt lat="42.150251353990505" lon="12.154523447230314"><ele>365.5</ele><time>2026-04-04T06:44:29Z</time></trkpt><trkpt lat="42.15029416005766" lon="12.154619472119967"><ele>366.0</ele><time>2026-04-04T06:44:32Z</time></trkpt><trkpt lat="42.15033497682174" lon="12.154713118306638"><ele>366.0</ele><time>2026-04-04T06:44:35Z</time></trkpt><trkpt lat="42.15036735232364" lon="12.154814651563717"><ele>366.0</ele><time>2026-04-04T06:44:38Z</time></trkpt><trkpt lat="42.15040352371268" lon="12.154912242259275"><ele>366.0</ele><time>2026-04-04T06:44:41Z</time></trkpt><trkpt lat="42.15046241305019" lon="12.155003613273212"><ele>366.0</ele><time>2026-04-04T06:44:44Z</time></trkpt><trkpt lat="42.150513174034074" lon="12.155075604450237"><ele>366.0</ele><time>2026-04-04T06:44:46Z</time></trkpt><trkpt lat="42.150574299831334" lon="12.155166309030207"><ele>366.0</ele><time>2026-04-04T06:44:49Z</time></trkpt><trkpt lat="42.15063108750645" lon="12.155240995212608"><ele>366.3333333333333</ele><time>2026-04-04T06:44:52Z</time></trkpt><trkpt lat="42.15068694786897" lon="12.155312330381195"><ele>366.6666666666667</ele><time>2026-04-04T06:44:55Z</time></trkpt><trkpt lat="42.15076474602636" lon="12.15535061268434"><ele>367.0</ele><time>2026-04-04T06:44:58Z</time></trkpt><trkpt lat="42.150829086083114" lon="12.155418474829037"><ele>367.33333333333337</ele><time>2026-04-04T06:45:01Z</time></trkpt><trkpt lat="42.15090093684525" lon="12.155476639352012"><ele>367.6666666666667</ele><time>2026-04-04T06:45:04Z</time></trkpt><trkpt lat="42.15098820170638" lon="12.155521612745755"><ele>368.0</ele><time>2026-04-04T06:45:07Z</time></trkpt><trkpt lat="42.15104839077641" lon="12.155556336292392"><ele>368.0</ele><time>2026-04-04T06:45:10Z</time></trkpt><trkpt lat="42.151113018292115" lon="12.15558734264284"><ele>368.0</ele><time>2026-04-04T06:45:13Z</time></trkpt><trkpt lat="42.15118938521459" lon="12.155612658547646"><ele>368.0</ele><time>2026-04-04T06:45:16Z</time></trkpt><trkpt lat="42.151263982873274" lon="12.155621903948541"><ele>368.0</ele><time>2026-04-04T06:45:19Z</time></trkpt><trkpt lat="42.151332626049374" lon="12.155638219329497"><ele>368.0</ele><time>2026-04-04T06:45:22Z</time></trkpt><trkpt lat="42.15140429689397" lon="12.15564159172509"><ele>368.0</ele><time>2026-04-04T06:45:25Z</time></trkpt><trkpt lat="42.15147393693079" lon="12.15564367945834"><ele>368.0</ele><time>2026-04-04T06:45:28Z</time></trkpt><trkpt lat="42.15154572922172" lon="12.15564440202932"><ele>369.83333333333337</ele><time>2026-04-04T06:45:31Z</time></trkpt><trkpt lat="42.15161967768089" lon="12.155656872249537"><ele>371.6666666666667</ele><time>2026-04-04T06:45:34Z</time></trkpt><trkpt lat="42.15168232300327" lon="12.155639152365401"><ele>373.5</ele><time>2026-04-04T06:45:37Z</time></trkpt><trkpt lat="42.15176810145168" lon="12.155644026216748"><ele>375.3333333333333</ele><time>2026-04-04T06:45:40Z</time></trkpt><trkpt lat="42.15184839231577" lon="12.155617015758407"><ele>377.16666666666663</ele><time>2026-04-04T06:45:43Z</time></trkpt><trkpt lat="42.15191630769831" lon="12.155616296093514"><ele>379.0</ele><time>2026-04-04T06:45:46Z</time></trkpt><trkpt lat="42.15199402577097" lon="12.155626003440487"><ele>379.0</ele><time>2026-04-04T06:46:20Z</time></trkpt><trkpt lat="42.152055557649014" lon="12.15559709808356"><ele>379.0</ele><time>2026-04-04T06:46:23Z</time></trkpt><trkpt lat="42.15199342767338" lon="12.155625138162364"><ele>379.0</ele><time>2026-04-04T06:47:19Z</time></trkpt><trkpt lat="42.151919137728925" lon="12.155657220998384"><ele>379.0</ele><time>2026-04-04T06:47:21Z</time></trkpt><trkpt lat="42.1518495321523" lon="12.15566993018296"><ele>379.0</ele><time>2026-04-04T06:47:23Z</time></trkpt><trkpt lat="42.15176759507881" lon="12.15568265021278"><ele>379.0</ele><time>2026-04-04T06:47:25Z</time></trkpt><trkpt lat="42.151664691285355" lon="12.155693708102955"><ele>379.0</ele><time>2026-04-04T06:47:27Z</time></trkpt><trkpt lat="42.15155452015827" lon="12.155685142319877"><ele>379.0</ele><time>2026-04-04T06:47:29Z</time></trkpt><trkpt lat="42.151434541005194" lon="12.155636819747425"><ele>379.0</ele><time>2026-04-04T06:47:31Z</time></trkpt><trkpt lat="42.15132129511964" lon="12.155620451978772"><ele>379.0</ele><time>2026-04-04T06:47:33Z</time></trkpt><trkpt lat="42.15125583259262" lon="12.155607211435756"><ele>379.0</ele><time>2026-04-04T06:47:34Z</time></trkpt><trkpt lat="42.15118931530245" lon="12.1555894164327"><ele>377.42857142857144</ele><time>2026-04-04T06:47:35Z</time></trkpt><trkpt lat="42.15112688246185" lon="12.155567358867572"><ele>375.8571428571429</ele><time>2026-04-04T06:47:36Z</time></trkpt><trkpt lat="42.151060249114515" lon="12.155539562131"><ele>374.28571428571433</ele><time>2026-04-04T06:47:37Z</time></trkpt><trkpt lat="42.150997330463056" lon="12.15550346621562"><ele>372.7142857142857</ele><time>2026-04-04T06:47:38Z</time></trkpt><trkpt lat="42.150937131303145" lon="12.155461649949183"><ele>371.1428571428571</ele><time>2026-04-04T06:47:39Z</time></trkpt><trkpt lat="42.15088284082445" lon="12.15541728675931"><ele>369.5714285714286</ele><time>2026-04-04T06:47:40Z</time></trkpt><trkpt lat="42.15080003074653" lon="12.155319727167138"><ele>368.0</ele><time>2026-04-04T06:47:42Z</time></trkpt><trkpt lat="42.15073534257244" lon="12.15522400023889"><ele>367.5</ele><time>2026-04-04T06:47:44Z</time></trkpt><trkpt lat="42.15066567406726" lon="12.15510506003871"><ele>367.0</ele><time>2026-04-04T06:47:46Z</time></trkpt><trkpt lat="42.150593455640966" lon="12.15496968174255"><ele>366.5</ele><time>2026-04-04T06:47:48Z</time></trkpt><trkpt lat="42.15053969873284" lon="12.154839140176096"><ele>366.0</ele><time>2026-04-04T06:47:50Z</time></trkpt><trkpt lat="42.15049914299136" lon="12.154684938029806"><ele>366.0</ele><time>2026-04-04T06:47:52Z</time></trkpt><trkpt lat="42.150456087114875" lon="12.154557066505095"><ele>366.0</ele><time>2026-04-04T06:47:54Z</time></trkpt><trkpt lat="42.150407679391684" lon="12.154476468880654"><ele>366.0</ele><time>2026-04-04T06:47:57Z</time></trkpt><trkpt lat="42.15040762004999" lon="12.154368484189046"><ele>366.0</ele><time>2026-04-04T06:48:02Z</time></trkpt><trkpt lat="42.15048993630748" lon="12.154337327983493"><ele>366.0</ele><time>2026-04-04T06:48:05Z</time></trkpt><trkpt lat="42.150568921146785" lon="12.15432742385671"><ele>366.0</ele><time>2026-04-04T06:48:09Z</time></trkpt><trkpt lat="42.150635080361695" lon="12.154318041937008"><ele>366.0</ele><time>2026-04-04T06:48:12Z</time></trkpt><trkpt lat="42.15069691189316" lon="12.1543569533509"><ele>366.0</ele><time>2026-04-04T06:48:22Z</time></trkpt><trkpt lat="42.150779990565375" lon="12.154360073002424"><ele>366.0</ele><time>2026-04-04T06:48:56Z</time></trkpt><trkpt lat="42.15083201168259" lon="12.154413819922693"><ele>366.0</ele><time>2026-04-04T06:49:08Z</time></trkpt><trkpt lat="42.15086469249151" lon="12.154498291972782"><ele>366.0</ele><time>2026-04-04T06:49:34Z</time></trkpt><trkpt lat="42.15093502051545" lon="12.15452996225547"><ele>366.0</ele><time>2026-04-04T06:49:38Z</time></trkpt><trkpt lat="42.151004712732124" lon="12.154570765650714"><ele>366.0</ele><time>2026-04-04T06:49:42Z</time></trkpt><trkpt lat="42.15106475070366" lon="12.154607266050277"><ele>366.2857142857143</ele><time>2026-04-04T06:49:45Z</time></trkpt><trkpt lat="42.15113316559509" lon="12.154620389670162"><ele>366.57142857142856</ele><time>2026-04-04T06:49:49Z</time></trkpt><trkpt lat="42.15119895972518" lon="12.154660611412517"><ele>366.8571428571429</ele><time>2026-04-04T06:49:53Z</time></trkpt><trkpt lat="42.15126323485788" lon="12.154714281977792"><ele>367.1428571428571</ele><time>2026-04-04T06:49:57Z</time></trkpt><trkpt lat="42.15131438254209" lon="12.154778177614109"><ele>367.4285714285714</ele><time>2026-04-04T06:50:01Z</time></trkpt><trkpt lat="42.15131315482665" lon="12.154866404876348"><ele>367.7142857142857</ele><time>2026-04-04T06:50:04Z</time></trkpt><trkpt lat="42.151342313146294" lon="12.154952142569867"><ele>368.0</ele><time>2026-04-04T06:50:08Z</time></trkpt><trkpt lat="42.15141227645949" lon="12.154972556195188"><ele>368.0</ele><time>2026-04-04T06:50:13Z</time></trkpt><trkpt lat="42.151477014181275" lon="12.154965321305387"><ele>368.0</ele><time>2026-04-04T06:50:17Z</time></trkpt><trkpt lat="42.15155511824423" lon="12.1549830773108"><ele>368.0</ele><time>2026-04-04T06:50:22Z</time></trkpt><trkpt lat="42.151594987477566" lon="12.154908129507605"><ele>368.0</ele><time>2026-04-04T06:50:31Z</time></trkpt><trkpt lat="42.15159790521094" lon="12.154797655351052"><ele>368.0</ele><time>2026-04-04T06:50:35Z</time></trkpt><trkpt lat="42.15166307824288" lon="12.15477889204996"><ele>368.0</ele><time>2026-04-04T06:50:41Z</time></trkpt><trkpt lat="42.15173380348201" lon="12.154747267481774"><ele>368.0</ele><time>2026-04-04T06:50:47Z</time></trkpt><trkpt lat="42.151802930345085" lon="12.15476682959985"><ele>369.2857142857143</ele><time>2026-04-04T06:51:21Z</time></trkpt><trkpt lat="42.151868399230146" lon="12.154778354274084"><ele>370.57142857142856</ele><time>2026-04-04T06:51:25Z</time></trkpt><trkpt lat="42.151935178984054" lon="12.15480456380557"><ele>371.85714285714283</ele><time>2026-04-04T06:51:30Z</time></trkpt><trkpt lat="42.151964695538844" lon="12.15471392414085"><ele>373.1428571428571</ele><time>2026-04-04T06:51:34Z</time></trkpt><trkpt lat="42.152029481808995" lon="12.154696988298499"><ele>374.42857142857144</ele><time>2026-04-04T06:51:38Z</time></trkpt><trkpt lat="42.15209837096783" lon="12.15472354666856"><ele>375.71428571428567</ele><time>2026-04-04T06:51:42Z</time></trkpt><trkpt lat="42.15214782033328" lon="12.154666606321646"><ele>377.0</ele><time>2026-04-04T06:51:46Z</time></trkpt><trkpt lat="42.152203152255275" lon="12.154610526273737"><ele>376.99999999999994</ele><time>2026-04-04T06:51:50Z</time></trkpt><trkpt lat="42.15227246236828" lon="12.15458517810781"><ele>377.0</ele><time>2026-04-04T06:51:53Z</time></trkpt><trkpt lat="42.15233558163913" lon="12.154534617028668"><ele>377.0</ele><time>2026-04-04T06:51:57Z</time></trkpt><trkpt lat="42.15237937810087" lon="12.154461634075682"><ele>377.0</ele><time>2026-04-04T06:52:00Z</time></trkpt><trkpt lat="42.152410598169865" lon="12.154363940375724"><ele>377.0</ele><time>2026-04-04T06:52:03Z</time></trkpt><trkpt lat="42.15239448011359" lon="12.154279417108745"><ele>376.99999999999994</ele><time>2026-04-04T06:52:06Z</time></trkpt><trkpt lat="42.15238631806277" lon="12.154189170071623"><ele>377.0</ele><time>2026-04-04T06:52:10Z</time></trkpt><trkpt lat="42.152469770321254" lon="12.154176791541603"><ele>379.0</ele><time>2026-04-04T06:52:15Z</time></trkpt><trkpt lat="42.152533519174895" lon="12.154218818858057"><ele>381.0</ele><time>2026-04-04T06:52:18Z</time></trkpt><trkpt lat="42.152593778943846" lon="12.154273728994632"><ele>383.0</ele><time>2026-04-04T06:52:22Z</time></trkpt><trkpt lat="42.15265515387643" lon="12.154354055121287"><ele>385.0</ele><time>2026-04-04T06:52:26Z</time></trkpt><trkpt lat="42.15272332292592" lon="12.154395454711228"><ele>386.99999999999994</ele><time>2026-04-04T06:52:30Z</time></trkpt><trkpt lat="42.15279455936461" lon="12.154437311425342"><ele>389.0</ele><time>2026-04-04T06:52:33Z</time></trkpt><trkpt lat="42.15286886158836" lon="12.154455156235704"><ele>389.0</ele><time>2026-04-04T06:52:37Z</time></trkpt><trkpt lat="42.152947276064744" lon="12.154475164907327"><ele>389.0</ele><time>2026-04-04T06:52:41Z</time></trkpt><trkpt lat="42.15301924356618" lon="12.154505143920215"><ele>389.0</ele><time>2026-04-04T06:52:44Z</time></trkpt><trkpt lat="42.1530846982022" lon="12.154547751645362"><ele>389.0</ele><time>2026-04-04T06:52:48Z</time></trkpt><trkpt lat="42.15314792895111" lon="12.154574609460385"><ele>389.0</ele><time>2026-04-04T06:52:52Z</time></trkpt><trkpt lat="42.15320919332409" lon="12.154515216886624"><ele>389.0</ele><time>2026-04-04T06:52:57Z</time></trkpt><trkpt lat="42.153182919798574" lon="12.154425766932626"><ele>389.0</ele><time>2026-04-04T06:53:04Z</time></trkpt><trkpt lat="42.15313664799678" lon="12.154360659141414"><ele>389.0</ele><time>2026-04-04T06:53:22Z</time></trkpt><trkpt lat="42.15309006272611" lon="12.154275515402457"><ele>389.0</ele><time>2026-04-04T06:53:30Z</time></trkpt><trkpt lat="42.153052220344506" lon="12.154207355061978"><ele>389.0</ele><time>2026-04-04T06:53:37Z</time></trkpt><trkpt lat="42.15303313062006" lon="12.154114552695034"><ele>389.0</ele><time>2026-04-04T06:53:43Z</time></trkpt><trkpt lat="42.153003369008104" lon="12.154034086773104"><ele>389.0</ele><time>2026-04-04T06:53:50Z</time></trkpt><trkpt lat="42.15295813414925" lon="12.153964441881483"><ele>389.0</ele><time>2026-04-04T06:53:57Z</time></trkpt><trkpt lat="42.152895384881106" lon="12.153938703559525"><ele>389.0</ele><time>2026-04-04T06:54:03Z</time></trkpt><trkpt lat="42.15283789134532" lon="12.153873371468501"><ele>390.16666666666663</ele><time>2026-04-04T06:54:09Z</time></trkpt><trkpt lat="42.15276090027926" lon="12.153743733544282"><ele>391.3333333333333</ele><time>2026-04-04T06:54:12Z</time></trkpt><trkpt lat="42.152703579236274" lon="12.153705302681553"><ele>392.5</ele><time>2026-04-04T06:54:14Z</time></trkpt><trkpt lat="42.152645410159465" lon="12.15366853974587"><ele>393.66666666666663</ele><time>2026-04-04T06:54:17Z</time></trkpt><trkpt lat="42.15257624239503" lon="12.153577034907816"><ele>394.8333333333333</ele><time>2026-04-04T06:54:20Z</time></trkpt><trkpt lat="42.152551117381876" lon="12.153498339526445"><ele>396.0</ele><time>2026-04-04T06:54:30Z</time></trkpt><trkpt lat="42.152580381053625" lon="12.153403924218875"><ele>396.0</ele><time>2026-04-04T06:54:33Z</time></trkpt><trkpt lat="42.152612184161406" lon="12.153321266366026"><ele>396.0</ele><time>2026-04-04T06:54:36Z</time></trkpt><trkpt lat="42.15265291417016" lon="12.153233708627484"><ele>396.0</ele><time>2026-04-04T06:54:40Z</time></trkpt><trkpt lat="42.15269561963106" lon="12.15315730347439"><ele>396.0</ele><time>2026-04-04T06:54:44Z</time></trkpt><trkpt lat="42.152747844744525" lon="12.15307102223738"><ele>396.0</ele><time>2026-04-04T06:54:48Z</time></trkpt><trkpt lat="42.15279606093308" lon="12.153014604909036"><ele>396.0</ele><time>2026-04-04T06:54:51Z</time></trkpt><trkpt lat="42.15284040055511" lon="12.152947496831565"><ele>396.0</ele><time>2026-04-04T06:54:54Z</time></trkpt><trkpt lat="42.152890209430154" lon="12.152871266049646"><ele>397.8333333333333</ele><time>2026-04-04T06:54:58Z</time></trkpt><trkpt lat="42.1529175202999" lon="12.152760565138577"><ele>399.66666666666663</ele><time>2026-04-04T06:55:02Z</time></trkpt><trkpt lat="42.15295284094634" lon="12.152663995787394"><ele>401.5</ele><time>2026-04-04T06:55:06Z</time></trkpt><trkpt lat="42.15298138236231" lon="12.152572007716564"><ele>403.3333333333333</ele><time>2026-04-04T06:55:10Z</time></trkpt><trkpt lat="42.1529981477979" lon="12.152461965618336"><ele>405.16666666666663</ele><time>2026-04-04T06:55:14Z</time></trkpt><trkpt lat="42.153010911839324" lon="12.152378660251966"><ele>407.0</ele><time>2026-04-04T06:55:17Z</time></trkpt><trkpt lat="42.15302935010473" lon="12.15229548340956"><ele>408.8571428571429</ele><time>2026-04-04T06:55:20Z</time></trkpt><trkpt lat="42.15307187417902" lon="12.152208060781119"><ele>410.7142857142857</ele><time>2026-04-04T06:55:24Z</time></trkpt><trkpt lat="42.153095137915976" lon="12.152115365373172"><ele>412.57142857142856</ele><time>2026-04-04T06:55:28Z</time></trkpt><trkpt lat="42.153085191570604" lon="12.152024301797768"><ele>414.42857142857144</ele><time>2026-04-04T06:55:31Z</time></trkpt><trkpt lat="42.153089005158584" lon="12.151921794610889"><ele>416.2857142857143</ele><time>2026-04-04T06:55:35Z</time></trkpt><trkpt lat="42.153088780894215" lon="12.15181590823373"><ele>418.14285714285717</ele><time>2026-04-04T06:55:39Z</time></trkpt><trkpt lat="42.153121541078356" lon="12.151730401112543"><ele>420.0</ele><time>2026-04-04T06:55:43Z</time></trkpt><trkpt lat="42.15319294150348" lon="12.151686001570331"><ele>420.57142857142856</ele><time>2026-04-04T06:55:47Z</time></trkpt><trkpt lat="42.15325960650837" lon="12.15164003673402"><ele>421.1428571428571</ele><time>2026-04-04T06:55:51Z</time></trkpt><trkpt lat="42.15331814408299" lon="12.151596468971007"><ele>421.7142857142857</ele><time>2026-04-04T06:55:55Z</time></trkpt><trkpt lat="42.15335611300095" lon="12.151526944274202"><ele>422.2857142857143</ele><time>2026-04-04T06:55:59Z</time></trkpt><trkpt lat="42.1534172183567" lon="12.15147790223531"><ele>422.85714285714283</ele><time>2026-04-04T06:56:04Z</time></trkpt><trkpt lat="42.1534917656152" lon="12.15148012878113"><ele>423.42857142857144</ele><time>2026-04-04T06:56:09Z</time></trkpt><trkpt lat="42.15354397332051" lon="12.151428788258855"><ele>424.0</ele><time>2026-04-04T06:56:38Z</time></trkpt><trkpt lat="42.15356688287581" lon="12.151337106583785"><ele>424.2857142857143</ele><time>2026-04-04T06:56:55Z</time></trkpt><trkpt lat="42.15353535392063" lon="12.151246067669454"><ele>424.57142857142856</ele><time>2026-04-04T06:56:58Z</time></trkpt><trkpt lat="42.15350075409887" lon="12.151164384259362"><ele>424.85714285714283</ele><time>2026-04-04T06:57:01Z</time></trkpt><trkpt lat="42.15345420650443" lon="12.151085025241175"><ele>425.1428571428571</ele><time>2026-04-04T06:57:05Z</time></trkpt><trkpt lat="42.15339889247755" lon="12.151019132825837"><ele>425.42857142857144</ele><time>2026-04-04T06:57:08Z</time></trkpt><trkpt lat="42.15337354928692" lon="12.150923065837421"><ele>425.71428571428567</ele><time>2026-04-04T06:57:11Z</time></trkpt><trkpt lat="42.15341664401216" lon="12.150859163872573"><ele>426.0</ele><time>2026-04-04T06:57:14Z</time></trkpt><trkpt lat="42.15347071279129" lon="12.150812559780222"><ele>426.0</ele><time>2026-04-04T06:57:17Z</time></trkpt><trkpt lat="42.15354255656358" lon="12.150824640402499"><ele>426.0</ele><time>2026-04-04T06:57:20Z</time></trkpt><trkpt lat="42.15362416276962" lon="12.15084929525461"><ele>426.0</ele><time>2026-04-04T06:57:24Z</time></trkpt><trkpt lat="42.15370499350879" lon="12.150863348157912"><ele>426.0</ele><time>2026-04-04T06:57:28Z</time></trkpt><trkpt lat="42.15378645606221" lon="12.150852555173108"><ele>426.0</ele><time>2026-04-04T06:57:32Z</time></trkpt><trkpt lat="42.15387262153824" lon="12.150866312544462"><ele>426.0</ele><time>2026-04-04T06:57:36Z</time></trkpt><trkpt lat="42.153938456156126" lon="12.150931613644966"><ele>425.99999999999994</ele><time>2026-04-04T06:57:40Z</time></trkpt><trkpt lat="42.154001694681256" lon="12.150987806680766"><ele>426.0</ele><time>2026-04-04T06:57:44Z</time></trkpt><trkpt lat="42.154065214514375" lon="12.151015075129852"><ele>426.0</ele><time>2026-04-04T06:57:47Z</time></trkpt><trkpt lat="42.154132467246534" lon="12.151061032791223"><ele>426.0</ele><time>2026-04-04T06:57:51Z</time></trkpt><trkpt lat="42.15419771131109" lon="12.151071108332255"><ele>426.0</ele><time>2026-04-04T06:57:54Z</time></trkpt><trkpt lat="42.15427541274397" lon="12.151071495319632"><ele>425.99999999999994</ele><time>2026-04-04T06:57:58Z</time></trkpt><trkpt lat="42.154352972747716" lon="12.151081001429498"><ele>426.0</ele><time>2026-04-04T06:58:02Z</time></trkpt><trkpt lat="42.15443333730597" lon="12.151038162894219"><ele>428.1428571428571</ele><time>2026-04-04T06:58:06Z</time></trkpt><trkpt lat="42.15450622754086" lon="12.151045579606109"><ele>430.2857142857143</ele><time>2026-04-04T06:58:09Z</time></trkpt><trkpt lat="42.154567459081036" lon="12.151068589002373"><ele>432.42857142857144</ele><time>2026-04-04T06:58:13Z</time></trkpt><trkpt lat="42.154614305492345" lon="12.15114097435407"><ele>434.57142857142856</ele><time>2026-04-04T06:58:17Z</time></trkpt><trkpt lat="42.15467557547541" lon="12.151189860146292"><ele>436.7142857142857</ele><time>2026-04-04T06:58:21Z</time></trkpt><trkpt lat="42.15473610257086" lon="12.151165421349171"><ele>438.85714285714283</ele><time>2026-04-04T06:58:31Z</time></trkpt><trkpt lat="42.15480686894303" lon="12.151215701253305"><ele>441.0</ele><time>2026-04-04T06:58:50Z</time></trkpt><trkpt lat="42.1548447547935" lon="12.151307214189773"><ele>441.7142857142857</ele><time>2026-04-04T06:59:05Z</time></trkpt><trkpt lat="42.15489283095334" lon="12.15138662359227"><ele>442.42857142857144</ele><time>2026-04-04T06:59:09Z</time></trkpt><trkpt lat="42.154929625872654" lon="12.151458728038978"><ele>443.1428571428571</ele><time>2026-04-04T06:59:14Z</time></trkpt><trkpt lat="42.154989396481064" lon="12.151491695966179"><ele>443.8571428571429</ele><time>2026-04-04T06:59:18Z</time></trkpt><trkpt lat="42.15506377116136" lon="12.151522712662542"><ele>444.57142857142856</ele><time>2026-04-04T06:59:21Z</time></trkpt><trkpt lat="42.155130090389605" lon="12.151570347255152"><ele>445.2857142857143</ele><time>2026-04-04T06:59:25Z</time></trkpt><trkpt lat="42.155166216890805" lon="12.151660249419983"><ele>446.0</ele><time>2026-04-04T06:59:30Z</time></trkpt><trkpt lat="42.15517970558566" lon="12.15175056882065"><ele>446.7142857142857</ele><time>2026-04-04T06:59:33Z</time></trkpt><trkpt lat="42.155199503116755" lon="12.151832142314504"><ele>447.42857142857144</ele><time>2026-04-04T06:59:36Z</time></trkpt><trkpt lat="42.155260881361684" lon="12.15187797726049"><ele>448.1428571428571</ele><time>2026-04-04T06:59:39Z</time></trkpt><trkpt lat="42.15530169720883" lon="12.151946496707122"><ele>448.8571428571429</ele><time>2026-04-04T06:59:42Z</time></trkpt><trkpt lat="42.15535209424309" lon="12.152046350584405"><ele>449.5714285714286</ele><time>2026-04-04T06:59:45Z</time></trkpt><trkpt lat="42.1554032660778" lon="12.152119299050112"><ele>450.2857142857143</ele><time>2026-04-04T06:59:48Z</time></trkpt><trkpt lat="42.15544062151164" lon="12.152197378578414"><ele>451.0</ele><time>2026-04-04T06:59:51Z</time></trkpt><trkpt lat="42.15552683547914" lon="12.152254970317186"><ele>451.00000000000006</ele><time>2026-04-04T06:59:56Z</time></trkpt><trkpt lat="42.15558298083319" lon="12.152339997563134"><ele>451.0</ele><time>2026-04-04T06:59:59Z</time></trkpt><trkpt lat="42.15562875989507" lon="12.152420264706215"><ele>451.0</ele><time>2026-04-04T07:00:01Z</time></trkpt><trkpt lat="42.155694024371364" lon="12.152489403421647"><ele>451.0</ele><time>2026-04-04T07:00:04Z</time></trkpt><trkpt lat="42.15573032433563" lon="12.152580257042688"><ele>451.00000000000006</ele><time>2026-04-04T07:00:07Z</time></trkpt><trkpt lat="42.155768815292085" lon="12.152670280947904"><ele>451.0</ele><time>2026-04-04T07:00:10Z</time></trkpt><trkpt lat="42.15581417909164" lon="12.152745087114223"><ele>452.2857142857143</ele><time>2026-04-04T07:00:13Z</time></trkpt><trkpt lat="42.155855731164515" lon="12.152809937555444"><ele>453.57142857142856</ele><time>2026-04-04T07:00:16Z</time></trkpt><trkpt lat="42.15592169142909" lon="12.152869973070443"><ele>454.85714285714283</ele><time>2026-04-04T07:00:19Z</time></trkpt><trkpt lat="42.15593954403874" lon="12.152966837957555"><ele>456.1428571428571</ele><time>2026-04-04T07:00:29Z</time></trkpt><trkpt lat="42.15596660596425" lon="12.15305171099105"><ele>457.42857142857144</ele><time>2026-04-04T07:00:32Z</time></trkpt><trkpt lat="42.155941642130685" lon="12.15314147997354"><ele>458.71428571428567</ele><time>2026-04-04T07:00:37Z</time></trkpt><trkpt lat="42.15594011432014" lon="12.153051118273174"><ele>459.99999999999994</ele><time>2026-04-04T07:01:28Z</time></trkpt><trkpt lat="42.15598273374143" lon="12.152974899262293"><ele>459.99999999999994</ele><time>2026-04-04T07:01:38Z</time></trkpt><trkpt lat="42.15602088021191" lon="12.152896507348041"><ele>460.0</ele><time>2026-04-04T07:01:46Z</time></trkpt><trkpt lat="42.15606401598924" lon="12.152829522277004"><ele>459.99999999999994</ele><time>2026-04-04T07:01:51Z</time></trkpt><trkpt lat="42.15612820542405" lon="12.152796317033458"><ele>459.99999999999994</ele><time>2026-04-04T07:01:59Z</time></trkpt><trkpt lat="42.15619265411223" lon="12.152778141968298"><ele>460.0</ele><time>2026-04-04T07:02:02Z</time></trkpt><trkpt lat="42.15626625614036" lon="12.152750446244207"><ele>459.99999999999994</ele><time>2026-04-04T07:02:06Z</time></trkpt><trkpt lat="42.15634061634108" lon="12.152706585793608"><ele>459.99999999999994</ele><time>2026-04-04T07:02:10Z</time></trkpt><trkpt lat="42.15640796356708" lon="12.152650131696387"><ele>459.99999999999994</ele><time>2026-04-04T07:02:18Z</time></trkpt><trkpt lat="42.156461650209295" lon="12.15256675802162"><ele>460.0</ele><time>2026-04-04T07:02:30Z</time></trkpt><trkpt lat="42.15649591960551" lon="12.152489395567807"><ele>459.99999999999994</ele><time>2026-04-04T07:02:34Z</time></trkpt><trkpt lat="42.156538739383485" lon="12.152419838780004"><ele>459.99999999999994</ele><time>2026-04-04T07:02:36Z</time></trkpt><trkpt lat="42.15659839836734" lon="12.152385570534385"><ele>460.0</ele><time>2026-04-04T07:02:39Z</time></trkpt><trkpt lat="42.15664451777364" lon="12.152325257646906"><ele>459.99999999999994</ele><time>2026-04-04T07:02:43Z</time></trkpt><trkpt lat="42.156709682121196" lon="12.152272913983314"><ele>459.99999999999994</ele><time>2026-04-04T07:02:47Z</time></trkpt><trkpt lat="42.15676201242387" lon="12.152181180541925"><ele>458.83333333333337</ele><time>2026-04-04T07:02:50Z</time></trkpt><trkpt lat="42.15678486788644" lon="12.152081856056899"><ele>457.6666666666667</ele><time>2026-04-04T07:02:53Z</time></trkpt><trkpt lat="42.1568106683357" lon="12.151981984537583"><ele>456.5</ele><time>2026-04-04T07:02:56Z</time></trkpt><trkpt lat="42.156857456271474" lon="12.151881952257005"><ele>455.33333333333337</ele><time>2026-04-04T07:02:59Z</time></trkpt><trkpt lat="42.15688646823164" lon="12.151795448718264"><ele>454.1666666666667</ele><time>2026-04-04T07:03:01Z</time></trkpt><trkpt lat="42.156923172992194" lon="12.151725228351255"><ele>453.0</ele><time>2026-04-04T07:03:03Z</time></trkpt><trkpt lat="42.15697174055197" lon="12.151651076402668"><ele>452.99999999999994</ele><time>2026-04-04T07:03:07Z</time></trkpt><trkpt lat="42.157016870147615" lon="12.151581528221412"><ele>453.0</ele><time>2026-04-04T07:03:18Z</time></trkpt><trkpt lat="42.15707022392557" lon="12.151516662367808"><ele>452.99999999999994</ele><time>2026-04-04T07:03:22Z</time></trkpt><trkpt lat="42.15713358759335" lon="12.151468355921192"><ele>452.99999999999994</ele><time>2026-04-04T07:03:25Z</time></trkpt><trkpt lat="42.157201604737466" lon="12.151407481449692"><ele>453.0</ele><time>2026-04-04T07:03:28Z</time></trkpt><trkpt lat="42.15725122348243" lon="12.15135267623851"><ele>452.99999999999994</ele><time>2026-04-04T07:03:30Z</time></trkpt><trkpt lat="42.1573025940408" lon="12.15129847709405"><ele>452.99999999999994</ele><time>2026-04-04T07:03:33Z</time></trkpt><trkpt lat="42.1573603710019" lon="12.151230820231296"><ele>451.2857142857142</ele><time>2026-04-04T07:03:37Z</time></trkpt><trkpt lat="42.15741650254805" lon="12.151177574525821"><ele>449.57142857142856</ele><time>2026-04-04T07:03:40Z</time></trkpt><trkpt lat="42.157492116395524" lon="12.151218807064051"><ele>447.85714285714283</ele><time>2026-04-04T07:04:10Z</time></trkpt><trkpt lat="42.15754467205555" lon="12.151297506045369"><ele>446.1428571428571</ele><time>2026-04-04T07:04:15Z</time></trkpt><trkpt lat="42.157589188967016" lon="12.151362043675324"><ele>444.42857142857144</ele><time>2026-04-04T07:04:17Z</time></trkpt><trkpt lat="42.157629115961505" lon="12.151438194884857"><ele>442.7142857142857</ele><time>2026-04-04T07:04:20Z</time></trkpt><trkpt lat="42.15769350677524" lon="12.151463459937016"><ele>441.0</ele><time>2026-04-04T07:04:28Z</time></trkpt><trkpt lat="42.15776975369214" lon="12.151483554189507"><ele>441.0</ele><time>2026-04-04T07:04:32Z</time></trkpt><trkpt lat="42.157835215916634" lon="12.15144022469072"><ele>441.0</ele><time>2026-04-04T07:04:35Z</time></trkpt><trkpt lat="42.15783881407607" lon="12.15129468241282"><ele>441.0</ele><time>2026-04-04T07:04:49Z</time></trkpt><trkpt lat="42.15782196614192" lon="12.151211046801007"><ele>441.0</ele><time>2026-04-04T07:04:51Z</time></trkpt><trkpt lat="42.15780974125866" lon="12.151100250713421"><ele>441.0</ele><time>2026-04-04T07:04:55Z</time></trkpt><trkpt lat="42.15781808335624" lon="12.150979012533218"><ele>441.0</ele><time>2026-04-04T07:04:58Z</time></trkpt><trkpt lat="42.157823848244284" lon="12.1508874242145"><ele>441.0</ele><time>2026-04-04T07:05:00Z</time></trkpt><trkpt lat="42.15781830495193" lon="12.150790732109963"><ele>441.0</ele><time>2026-04-04T07:05:02Z</time></trkpt><trkpt lat="42.157816671778384" lon="12.150704509338834"><ele>441.0</ele><time>2026-04-04T07:05:04Z</time></trkpt><trkpt lat="42.15785710834675" lon="12.150612540530217"><ele>441.0</ele><time>2026-04-04T07:05:07Z</time></trkpt><trkpt lat="42.157893886036845" lon="12.150529618087567"><ele>441.0</ele><time>2026-04-04T07:05:10Z</time></trkpt><trkpt lat="42.15792496792724" lon="12.150450767011499"><ele>441.0</ele><time>2026-04-04T07:05:12Z</time></trkpt><trkpt lat="42.157963982687484" lon="12.150367269159847"><ele>441.0</ele><time>2026-04-04T07:05:14Z</time></trkpt><trkpt lat="42.158003806843666" lon="12.150300896702651"><ele>440.0</ele><time>2026-04-04T07:05:16Z</time></trkpt><trkpt lat="42.15804775784339" lon="12.150239976329587"><ele>439.0</ele><time>2026-04-04T07:05:18Z</time></trkpt><trkpt lat="42.158092012673336" lon="12.15017399902246"><ele>438.0</ele><time>2026-04-04T07:05:21Z</time></trkpt><trkpt lat="42.158145729140216" lon="12.150110613347394"><ele>437.0</ele><time>2026-04-04T07:05:23Z</time></trkpt><trkpt lat="42.15819480258411" lon="12.150042477244135"><ele>436.0</ele><time>2026-04-04T07:05:50Z</time></trkpt><trkpt lat="42.15825240676022" lon="12.149959471878496"><ele>435.0</ele><time>2026-04-04T07:05:56Z</time></trkpt><trkpt lat="42.15829449496104" lon="12.149885201724606"><ele>434.0</ele><time>2026-04-04T07:05:58Z</time></trkpt><trkpt lat="42.15834673667559" lon="12.149835082600957"><ele>432.66666666666663</ele><time>2026-04-04T07:06:00Z</time></trkpt><trkpt lat="42.158391322990845" lon="12.14975498459463"><ele>431.3333333333333</ele><time>2026-04-04T07:06:03Z</time></trkpt><trkpt lat="42.15841545757756" lon="12.149641307387453"><ele>430.0</ele><time>2026-04-04T07:06:06Z</time></trkpt><trkpt lat="42.15843703556471" lon="12.149542104040147"><ele>428.66666666666663</ele><time>2026-04-04T07:06:08Z</time></trkpt><trkpt lat="42.158450835407294" lon="12.149454320508577"><ele>427.3333333333333</ele><time>2026-04-04T07:06:10Z</time></trkpt><trkpt lat="42.15847050077249" lon="12.149348381671244"><ele>426.0</ele><time>2026-04-04T07:06:13Z</time></trkpt><trkpt lat="42.15853035223918" lon="12.149274967185796"><ele>426.0</ele><time>2026-04-04T07:06:16Z</time></trkpt><trkpt lat="42.15855952585558" lon="12.149174186425086"><ele>426.0</ele><time>2026-04-04T07:06:19Z</time></trkpt><trkpt lat="42.15857000019268" lon="12.149070481275134"><ele>426.0</ele><time>2026-04-04T07:06:22Z</time></trkpt><trkpt lat="42.158599914452815" lon="12.14899435782686"><ele>426.0</ele><time>2026-04-04T07:06:26Z</time></trkpt><trkpt lat="42.15867053686057" lon="12.14894493886193"><ele>426.0</ele><time>2026-04-04T07:06:30Z</time></trkpt><trkpt lat="42.15873654031754" lon="12.148924604631913"><ele>426.0</ele><time>2026-04-04T07:06:32Z</time></trkpt><trkpt lat="42.158810387128995" lon="12.14900021746373"><ele>426.0</ele><time>2026-04-04T07:06:34Z</time></trkpt><trkpt lat="42.15886438700226" lon="12.149082152870212"><ele>426.0</ele><time>2026-04-04T07:06:36Z</time></trkpt><trkpt lat="42.15891047260012" lon="12.149165536848253"><ele>426.0</ele><time>2026-04-04T07:06:38Z</time></trkpt><trkpt lat="42.15897530626039" lon="12.149242805111372"><ele>426.0</ele><time>2026-04-04T07:06:41Z</time></trkpt><trkpt lat="42.15899497015451" lon="12.149324014148547"><ele>426.0</ele><time>2026-04-04T07:06:44Z</time></trkpt><trkpt lat="42.1590199545116" lon="12.14940361658127"><ele>426.0</ele><time>2026-04-04T07:06:45Z</time></trkpt><trkpt lat="42.15907968115105" lon="12.149492119496887"><ele>425.1666666666667</ele><time>2026-04-04T07:06:47Z</time></trkpt><trkpt lat="42.15912731136466" lon="12.149574636386312"><ele>424.33333333333337</ele><time>2026-04-04T07:06:49Z</time></trkpt><trkpt lat="42.15917330894725" lon="12.149654174915586"><ele>423.5</ele><time>2026-04-04T07:06:51Z</time></trkpt><trkpt lat="42.15922285821292" lon="12.149750361029003"><ele>422.6666666666667</ele><time>2026-04-04T07:06:54Z</time></trkpt><trkpt lat="42.15926370642415" lon="12.149816298219658"><ele>421.83333333333337</ele><time>2026-04-04T07:06:56Z</time></trkpt><trkpt lat="42.1593070071787" lon="12.149891204675457"><ele>421.0</ele><time>2026-04-04T07:06:58Z</time></trkpt><trkpt lat="42.15939541506292" lon="12.149872131590095"><ele>420.00000000000006</ele><time>2026-04-04T07:07:01Z</time></trkpt><trkpt lat="42.15945874417418" lon="12.149831442144619"><ele>419.0</ele><time>2026-04-04T07:07:05Z</time></trkpt><trkpt lat="42.15952390492602" lon="12.149807338022306"><ele>418.0</ele><time>2026-04-04T07:07:17Z</time></trkpt><trkpt lat="42.159563254976774" lon="12.149738788054332"><ele>417.0</ele><time>2026-04-04T07:07:34Z</time></trkpt><trkpt lat="42.15957415427207" lon="12.14965159799928"><ele>416.0</ele><time>2026-04-04T07:08:01Z</time></trkpt><trkpt lat="42.15960073327529" lon="12.149573248486753"><ele>415.00000000000006</ele><time>2026-04-04T07:08:05Z</time></trkpt><trkpt lat="42.1595840123422" lon="12.149725254932038"><ele>414.0</ele><time>2026-04-04T07:08:32Z</time></trkpt><trkpt lat="42.15958661161754" lon="12.149817801968068"><ele>414.00000000000006</ele><time>2026-04-04T07:08:58Z</time></trkpt><trkpt lat="42.15952899521407" lon="12.14985790513787"><ele>414.0</ele><time>2026-04-04T07:09:03Z</time></trkpt><trkpt lat="42.15947811761725" lon="12.149912128902018"><ele>414.0</ele><time>2026-04-04T07:09:13Z</time></trkpt><trkpt lat="42.159419147382664" lon="12.14998271250543"><ele>414.0</ele><time>2026-04-04T07:09:17Z</time></trkpt><trkpt lat="42.159356323345435" lon="12.150016506681744"><ele>414.0</ele><time>2026-04-04T07:09:22Z</time></trkpt><trkpt lat="42.15938043838481" lon="12.150105018506501"><ele>414.00000000000006</ele><time>2026-04-04T07:09:25Z</time></trkpt><trkpt lat="42.15945205930337" lon="12.15015779727397"><ele>414.0</ele><time>2026-04-04T07:09:29Z</time></trkpt><trkpt lat="42.15951874809966" lon="12.150178568833363"><ele>415.1666666666667</ele><time>2026-04-04T07:09:32Z</time></trkpt><trkpt lat="42.15955650902325" lon="12.150264228995468"><ele>416.33333333333337</ele><time>2026-04-04T07:09:36Z</time></trkpt><trkpt lat="42.15954749587842" lon="12.15037134532431"><ele>417.5</ele><time>2026-04-04T07:09:40Z</time></trkpt><trkpt lat="42.15957503198853" lon="12.150451073326412"><ele>418.6666666666667</ele><time>2026-04-04T07:09:43Z</time></trkpt><trkpt lat="42.15961016597561" lon="12.150553973907936"><ele>419.83333333333337</ele><time>2026-04-04T07:09:47Z</time></trkpt><trkpt lat="42.15964214771524" lon="12.150657376914028"><ele>421.0</ele><time>2026-04-04T07:09:51Z</time></trkpt><trkpt lat="42.15967209072063" lon="12.150734937366844"><ele>421.8571428571429</ele><time>2026-04-04T07:09:54Z</time></trkpt><trkpt lat="42.159701447120916" lon="12.150832226952447"><ele>422.7142857142857</ele><time>2026-04-04T07:09:58Z</time></trkpt><trkpt lat="42.15971114027716" lon="12.150937879800031"><ele>423.57142857142856</ele><time>2026-04-04T07:10:02Z</time></trkpt><trkpt lat="42.15972207865053" lon="12.151022021284366"><ele>424.42857142857144</ele><time>2026-04-04T07:10:05Z</time></trkpt><trkpt lat="42.15978230540583" lon="12.151096936267331"><ele>425.2857142857143</ele><time>2026-04-04T07:10:09Z</time></trkpt><trkpt lat="42.15985925687931" lon="12.151104520086891"><ele>426.14285714285717</ele><time>2026-04-04T07:10:14Z</time></trkpt><trkpt lat="42.15992549880415" lon="12.151127478070212"><ele>427.0</ele><time>2026-04-04T07:10:18Z</time></trkpt><trkpt lat="42.15997386672529" lon="12.151055339047991"><ele>427.00000000000006</ele><time>2026-04-04T07:10:22Z</time></trkpt><trkpt lat="42.160034796261456" lon="12.150987205540973"><ele>427.0</ele><time>2026-04-04T07:10:26Z</time></trkpt><trkpt lat="42.160057947425166" lon="12.15089803557511"><ele>427.0</ele><time>2026-04-04T07:10:30Z</time></trkpt><trkpt lat="42.16008618147201" lon="12.150792727601523"><ele>427.0</ele><time>2026-04-04T07:10:34Z</time></trkpt><trkpt lat="42.16008794517828" lon="12.150693533834389"><ele>427.00000000000006</ele><time>2026-04-04T07:10:38Z</time></trkpt><trkpt lat="42.16009118959023" lon="12.150602604715138"><ele>427.0</ele><time>2026-04-04T07:10:42Z</time></trkpt><trkpt lat="42.16010697119868" lon="12.150497536479369"><ele>427.2857142857143</ele><time>2026-04-04T07:10:46Z</time></trkpt><trkpt lat="42.16011953722774" lon="12.150410872175074"><ele>427.57142857142856</ele><time>2026-04-04T07:10:50Z</time></trkpt><trkpt lat="42.16014000169692" lon="12.150318110724204"><ele>427.8571428571429</ele><time>2026-04-04T07:10:54Z</time></trkpt><trkpt lat="42.16016292504731" lon="12.150230574774504"><ele>428.1428571428571</ele><time>2026-04-04T07:10:57Z</time></trkpt><trkpt lat="42.1601959487127" lon="12.150153787183969"><ele>428.42857142857144</ele><time>2026-04-04T07:11:00Z</time></trkpt><trkpt lat="42.16023355603899" lon="12.150082657452844"><ele>428.7142857142857</ele><time>2026-04-04T07:11:03Z</time></trkpt><trkpt lat="42.160284482314815" lon="12.150010136856757"><ele>429.0</ele><time>2026-04-04T07:11:07Z</time></trkpt><trkpt lat="42.16037062185682" lon="12.149981462192024"><ele>429.0</ele><time>2026-04-04T07:17:44Z</time></trkpt><trkpt lat="42.16044027842602" lon="12.150015786483717"><ele>429.0</ele><time>2026-04-04T07:17:53Z</time></trkpt><trkpt lat="42.16044880305329" lon="12.150106987438836"><ele>429.0</ele><time>2026-04-04T07:17:57Z</time></trkpt><trkpt lat="42.16046009430928" lon="12.15021975880933"><ele>429.0</ele><time>2026-04-04T07:18:02Z</time></trkpt><trkpt lat="42.16046873959373" lon="12.150318229469672"><ele>429.0</ele><time>2026-04-04T07:18:05Z</time></trkpt><trkpt lat="42.16048361024361" lon="12.15042094517598"><ele>429.0</ele><time>2026-04-04T07:18:08Z</time></trkpt><trkpt lat="42.16050807231198" lon="12.150499442053574"><ele>429.0</ele><time>2026-04-04T07:18:11Z</time></trkpt><trkpt lat="42.16051584501824" lon="12.15060228179382"><ele>429.0</ele><time>2026-04-04T07:18:15Z</time></trkpt><trkpt lat="42.16053577022085" lon="12.15069171213858"><ele>429.0</ele><time>2026-04-04T07:18:19Z</time></trkpt><trkpt lat="42.16056588714437" lon="12.150785295675583"><ele>429.0</ele><time>2026-04-04T07:18:22Z</time></trkpt><trkpt lat="42.160599103453784" lon="12.150860186922056"><ele>429.0</ele><time>2026-04-04T07:18:24Z</time></trkpt><trkpt lat="42.1606296977642" lon="12.150951655891278"><ele>429.0</ele><time>2026-04-04T07:18:27Z</time></trkpt><trkpt lat="42.16064280476619" lon="12.151052087765665"><ele>429.0</ele><time>2026-04-04T07:18:30Z</time></trkpt><trkpt lat="42.16066409675061" lon="12.151151427901347"><ele>429.0</ele><time>2026-04-04T07:18:33Z</time></trkpt><trkpt lat="42.16070479280727" lon="12.151226715430989"><ele>431.14285714285717</ele><time>2026-04-04T07:18:36Z</time></trkpt><trkpt lat="42.16072275412041" lon="12.151314894220777"><ele>433.28571428571433</ele><time>2026-04-04T07:18:39Z</time></trkpt><trkpt lat="42.16074295790484" lon="12.151400085035409"><ele>435.42857142857144</ele><time>2026-04-04T07:18:42Z</time></trkpt><trkpt lat="42.16076743418215" lon="12.151484465014052"><ele>437.57142857142856</ele><time>2026-04-04T07:18:45Z</time></trkpt><trkpt lat="42.160780304567155" lon="12.151568080022898"><ele>439.7142857142857</ele><time>2026-04-04T07:18:48Z</time></trkpt><trkpt lat="42.160806876796194" lon="12.151655905391742"><ele>441.85714285714283</ele><time>2026-04-04T07:18:51Z</time></trkpt><trkpt lat="42.1608302321523" lon="12.151739456738946"><ele>444.0</ele><time>2026-04-04T07:18:54Z</time></trkpt><trkpt lat="42.16085161030105" lon="12.151851168088188"><ele>444.1428571428571</ele><time>2026-04-04T07:18:58Z</time></trkpt><trkpt lat="42.160875181863176" lon="12.15195149300318"><ele>444.28571428571433</ele><time>2026-04-04T07:19:02Z</time></trkpt><trkpt lat="42.16089183913427" lon="12.152033460946402"><ele>444.42857142857144</ele><time>2026-04-04T07:19:05Z</time></trkpt><trkpt lat="42.16091111148403" lon="12.152128633276883"><ele>444.57142857142856</ele><time>2026-04-04T07:19:08Z</time></trkpt><trkpt lat="42.16093547463702" lon="12.152210712607996"><ele>444.71428571428567</ele><time>2026-04-04T07:19:11Z</time></trkpt><trkpt lat="42.160956353309274" lon="12.152295913216243"><ele>444.8571428571429</ele><time>2026-04-04T07:19:14Z</time></trkpt><trkpt lat="42.16099009398041" lon="12.152377504573952"><ele>445.0</ele><time>2026-04-04T07:19:17Z</time></trkpt><trkpt lat="42.16099986457948" lon="12.152461806252777"><ele>445.42857142857144</ele><time>2026-04-04T07:19:20Z</time></trkpt><trkpt lat="42.16102651880403" lon="12.152570708896384"><ele>445.85714285714283</ele><time>2026-04-04T07:19:24Z</time></trkpt><trkpt lat="42.161044995633475" lon="12.152658661510568"><ele>446.2857142857143</ele><time>2026-04-04T07:19:27Z</time></trkpt><trkpt lat="42.16106282851063" lon="12.152747544939563"><ele>446.7142857142857</ele><time>2026-04-04T07:19:30Z</time></trkpt><trkpt lat="42.16108746696085" lon="12.152830324522716"><ele>447.1428571428571</ele><time>2026-04-04T07:19:33Z</time></trkpt><trkpt lat="42.16111420773637" lon="12.152941836377591"><ele>447.57142857142856</ele><time>2026-04-04T07:19:37Z</time></trkpt><trkpt lat="42.16113653065922" lon="12.153038401162538"><ele>448.0</ele><time>2026-04-04T07:19:40Z</time></trkpt><trkpt lat="42.16115348971348" lon="12.153124274474894"><ele>448.8571428571429</ele><time>2026-04-04T07:19:43Z</time></trkpt><trkpt lat="42.161186227174305" lon="12.15320923049706"><ele>449.7142857142857</ele><time>2026-04-04T07:19:46Z</time></trkpt><trkpt lat="42.161192427593775" lon="12.1532971530333"><ele>450.57142857142856</ele><time>2026-04-04T07:19:49Z</time></trkpt><trkpt lat="42.16123273754121" lon="12.153373789824192"><ele>451.42857142857144</ele><time>2026-04-04T07:19:52Z</time></trkpt><trkpt lat="42.16124190298706" lon="12.15348228190091"><ele>452.28571428571433</ele><time>2026-04-04T07:19:55Z</time></trkpt><trkpt lat="42.16126939338698" lon="12.153584684489843"><ele>453.14285714285717</ele><time>2026-04-04T07:19:58Z</time></trkpt><trkpt lat="42.16128335850548" lon="12.153674137159452"><ele>454.0</ele><time>2026-04-04T07:20:01Z</time></trkpt><trkpt lat="42.16130374146169" lon="12.153759396196252"><ele>454.0</ele><time>2026-04-04T07:20:04Z</time></trkpt><trkpt lat="42.16134248901715" lon="12.153846319925417"><ele>454.0</ele><time>2026-04-04T07:20:07Z</time></trkpt><trkpt lat="42.16138192560817" lon="12.153951205703788"><ele>454.0</ele><time>2026-04-04T07:20:10Z</time></trkpt><trkpt lat="42.161426634133946" lon="12.154066196817624"><ele>454.0</ele><time>2026-04-04T07:20:13Z</time></trkpt><trkpt lat="42.16148957998497" lon="12.154190750544418"><ele>454.0</ele><time>2026-04-04T07:20:16Z</time></trkpt><trkpt lat="42.16151438816271" lon="12.15431861624224"><ele>455.33333333333337</ele><time>2026-04-04T07:20:18Z</time></trkpt><trkpt lat="42.161563655103805" lon="12.154425098891993"><ele>456.6666666666667</ele><time>2026-04-04T07:20:20Z</time></trkpt><trkpt lat="42.161590757537006" lon="12.154512316422315"><ele>458.0</ele><time>2026-04-04T07:20:22Z</time></trkpt><trkpt lat="42.16165081555251" lon="12.154582194671995"><ele>459.33333333333337</ele><time>2026-04-04T07:20:24Z</time></trkpt><trkpt lat="42.16169992827661" lon="12.15466654465126"><ele>460.6666666666667</ele><time>2026-04-04T07:20:26Z</time></trkpt><trkpt lat="42.16174827754055" lon="12.154746659781242"><ele>462.0</ele><time>2026-04-04T07:20:28Z</time></trkpt><trkpt lat="42.1617766530065" lon="12.154853644560783"><ele>461.8</ele><time>2026-04-04T07:20:30Z</time></trkpt><trkpt lat="42.16180883756088" lon="12.15495886713708"><ele>461.6</ele><time>2026-04-04T07:20:33Z</time></trkpt><trkpt lat="42.16189097968534" lon="12.155083876906083"><ele>461.40000000000003</ele><time>2026-04-04T07:20:35Z</time></trkpt><trkpt lat="42.16191886671309" lon="12.155173299625725"><ele>461.20000000000005</ele><time>2026-04-04T07:20:38Z</time></trkpt><trkpt lat="42.16195738570966" lon="12.155277246263555"><ele>461.0</ele><time>2026-04-04T07:20:40Z</time></trkpt><trkpt lat="42.16198522288085" lon="12.155397697867462"><ele>460.99999999999994</ele><time>2026-04-04T07:20:43Z</time></trkpt><trkpt lat="42.1620315277061" lon="12.15548447026254"><ele>461.0</ele><time>2026-04-04T07:20:45Z</time></trkpt><trkpt lat="42.16206205858642" lon="12.155561568310384"><ele>461.0</ele><time>2026-04-04T07:20:47Z</time></trkpt><trkpt lat="42.16211971489119" lon="12.155673459897756"><ele>461.0</ele><time>2026-04-04T07:20:50Z</time></trkpt><trkpt lat="42.16215654290097" lon="12.155759237436566"><ele>460.99999999999994</ele><time>2026-04-04T07:20:52Z</time></trkpt><trkpt lat="42.16219086827351" lon="12.155847251858184"><ele>461.0</ele><time>2026-04-04T07:20:54Z</time></trkpt><trkpt lat="42.16224470679337" lon="12.155958591865485"><ele>460.8333333333333</ele><time>2026-04-04T07:20:57Z</time></trkpt><trkpt lat="42.16230380706965" lon="12.156036916979701"><ele>460.66666666666663</ele><time>2026-04-04T07:20:59Z</time></trkpt><trkpt lat="42.162356829739785" lon="12.156131115357514"><ele>460.5</ele><time>2026-04-04T07:21:02Z</time></trkpt><trkpt lat="42.162395512500524" lon="12.156201334064379"><ele>460.33333333333337</ele><time>2026-04-04T07:21:04Z</time></trkpt><trkpt lat="42.16244789314946" lon="12.156288248708712"><ele>460.1666666666667</ele><time>2026-04-04T07:21:07Z</time></trkpt><trkpt lat="42.16248451689828" lon="12.156361828785458"><ele>460.0</ele><time>2026-04-04T07:21:09Z</time></trkpt><trkpt lat="42.16251342040304" lon="12.156461323709488"><ele>461.6666666666667</ele><time>2026-04-04T07:21:11Z</time></trkpt><trkpt lat="42.16255106305514" lon="12.156583152375429"><ele>463.33333333333337</ele><time>2026-04-04T07:21:14Z</time></trkpt><trkpt lat="42.16260601746537" lon="12.156678059348213"><ele>465.0</ele><time>2026-04-04T07:21:16Z</time></trkpt><trkpt lat="42.16264446622838" lon="12.156765529983177"><ele>466.66666666666663</ele><time>2026-04-04T07:21:18Z</time></trkpt><trkpt lat="42.16268624461569" lon="12.156883383357492"><ele>468.3333333333333</ele><time>2026-04-04T07:21:21Z</time></trkpt><trkpt lat="42.16272685781382" lon="12.156971401530779"><ele>470.0</ele><time>2026-04-04T07:21:23Z</time></trkpt><trkpt lat="42.16277089855259" lon="12.15708252275959"><ele>470.0</ele><time>2026-04-04T07:21:25Z</time></trkpt><trkpt lat="42.162814728942486" lon="12.157197611269948"><ele>470.0</ele><time>2026-04-04T07:21:27Z</time></trkpt><trkpt lat="42.16288384156581" lon="12.157315066153096"><ele>470.0</ele><time>2026-04-04T07:21:29Z</time></trkpt><trkpt lat="42.16293481789541" lon="12.157435409429612"><ele>470.0</ele><time>2026-04-04T07:21:31Z</time></trkpt><trkpt lat="42.16299112191245" lon="12.157497554939171"><ele>470.0</ele><time>2026-04-04T07:21:32Z</time></trkpt><trkpt lat="42.163048304916614" lon="12.157556646444743"><ele>470.85714285714283</ele><time>2026-04-04T07:21:33Z</time></trkpt><trkpt lat="42.163104525208695" lon="12.157615848386941"><ele>471.71428571428567</ele><time>2026-04-04T07:21:34Z</time></trkpt><trkpt lat="42.163148985792" lon="12.157680861748581"><ele>472.57142857142856</ele><time>2026-04-04T07:21:35Z</time></trkpt><trkpt lat="42.163182873452776" lon="12.157766137002008"><ele>473.42857142857144</ele><time>2026-04-04T07:21:36Z</time></trkpt><trkpt lat="42.1632288710331" lon="12.157844247705304"><ele>474.2857142857143</ele><time>2026-04-04T07:21:37Z</time></trkpt><trkpt lat="42.16326555486104" lon="12.15791796321956"><ele>475.1428571428571</ele><time>2026-04-04T07:21:38Z</time></trkpt><trkpt lat="42.163310079199746" lon="12.157994029231062"><ele>476.0</ele><time>2026-04-04T07:21:39Z</time></trkpt><trkpt lat="42.1633540952293" lon="12.15807163290531"><ele>474.16666666666663</ele><time>2026-04-04T07:21:40Z</time></trkpt><trkpt lat="42.163430699014015" lon="12.15822002179316"><ele>472.3333333333333</ele><time>2026-04-04T07:21:42Z</time></trkpt><trkpt lat="42.16348084073173" lon="12.158368624141128"><ele>470.5</ele><time>2026-04-04T07:21:44Z</time></trkpt><trkpt lat="42.16350908708936" lon="12.158445478220719"><ele>468.66666666666663</ele><time>2026-04-04T07:21:45Z</time></trkpt><trkpt lat="42.16353774557665" lon="12.158526320292484"><ele>466.8333333333333</ele><time>2026-04-04T07:21:46Z</time></trkpt><trkpt lat="42.16357486415654" lon="12.158596725308755"><ele>465.0</ele><time>2026-04-04T07:21:47Z</time></trkpt><trkpt lat="42.163602135932166" lon="12.158673683713559"><ele>465.0</ele><time>2026-04-04T07:21:48Z</time></trkpt><trkpt lat="42.16364006114908" lon="12.158746229964812"><ele>465.0</ele><time>2026-04-04T07:21:49Z</time></trkpt><trkpt lat="42.16370443654286" lon="12.1588806359543"><ele>465.0</ele><time>2026-04-04T07:21:51Z</time></trkpt><trkpt lat="42.16374399826897" lon="12.158950832146033"><ele>465.0</ele><time>2026-04-04T07:21:52Z</time></trkpt><trkpt lat="42.163785792467564" lon="12.159014387795686"><ele>465.0</ele><time>2026-04-04T07:21:53Z</time></trkpt><trkpt lat="42.16382382720422" lon="12.159083380890472"><ele>465.0</ele><time>2026-04-04T07:21:54Z</time></trkpt><trkpt lat="42.16386895811984" lon="12.159153030629783"><ele>465.0</ele><time>2026-04-04T07:21:55Z</time></trkpt><trkpt lat="42.16394786034201" lon="12.159269080803586"><ele>466.0</ele><time>2026-04-04T07:21:57Z</time></trkpt><trkpt lat="42.16399923952728" lon="12.159387986440432"><ele>467.0</ele><time>2026-04-04T07:21:59Z</time></trkpt><trkpt lat="42.1640456511425" lon="12.15945703751513"><ele>468.0</ele><time>2026-04-04T07:22:00Z</time></trkpt><trkpt lat="42.16408334865792" lon="12.159561556283766"><ele>469.0</ele><time>2026-04-04T07:22:02Z</time></trkpt><trkpt lat="42.16414931816876" lon="12.159671868511994"><ele>470.0</ele><time>2026-04-04T07:22:04Z</time></trkpt><trkpt lat="42.16421811737478" lon="12.159819551684961"><ele>468.4</ele><time>2026-04-04T07:22:06Z</time></trkpt><trkpt lat="42.16423514098969" lon="12.159905661134468"><ele>466.8</ele><time>2026-04-04T07:22:07Z</time></trkpt><trkpt lat="42.164277199890876" lon="12.16006135710276"><ele>465.20000000000005</ele><time>2026-04-04T07:22:09Z</time></trkpt><trkpt lat="42.16433009793645" lon="12.160122190155628"><ele>463.6</ele><time>2026-04-04T07:22:10Z</time></trkpt><trkpt lat="42.16439586043323" lon="12.160246798097296"><ele>462.0</ele><time>2026-04-04T07:22:12Z</time></trkpt><trkpt lat="42.16445038347844" lon="12.16040786000501"><ele>462.0</ele><time>2026-04-04T07:22:14Z</time></trkpt><trkpt lat="42.16448442802132" lon="12.160559618569284"><ele>462.00000000000006</ele><time>2026-04-04T07:22:16Z</time></trkpt><trkpt lat="42.16455382475381" lon="12.160704866371285"><ele>462.00000000000006</ele><time>2026-04-04T07:22:18Z</time></trkpt><trkpt lat="42.16458237811006" lon="12.16078586614632"><ele>462.0</ele><time>2026-04-04T07:22:19Z</time></trkpt><trkpt lat="42.16462193876679" lon="12.160857035720342"><ele>462.0</ele><time>2026-04-04T07:22:20Z</time></trkpt><trkpt lat="42.164651616190405" lon="12.160965260713745"><ele>462.5</ele><time>2026-04-04T07:22:21Z</time></trkpt><trkpt lat="42.164691664473565" lon="12.161034825786123"><ele>463.0</ele><time>2026-04-04T07:22:22Z</time></trkpt><trkpt lat="42.16476498703004" lon="12.161152337235706"><ele>463.5</ele><time>2026-04-04T07:22:24Z</time></trkpt><trkpt lat="42.164817167705195" lon="12.161207327609926"><ele>464.0</ele><time>2026-04-04T07:22:25Z</time></trkpt><trkpt lat="42.164866756812586" lon="12.161262632967796"><ele>464.5</ele><time>2026-04-04T07:22:26Z</time></trkpt><trkpt lat="42.16495764336736" lon="12.161357020693305"><ele>465.0</ele><time>2026-04-04T07:22:28Z</time></trkpt><trkpt lat="42.16501578324308" lon="12.161408853053665"><ele>465.0</ele><time>2026-04-04T07:22:29Z</time></trkpt><trkpt lat="42.16506982269935" lon="12.161502307084405"><ele>465.0</ele><time>2026-04-04T07:22:31Z</time></trkpt><trkpt lat="42.16512928995225" lon="12.1615879699682"><ele>465.0</ele><time>2026-04-04T07:22:33Z</time></trkpt><trkpt lat="42.1652025263062" lon="12.161696653626615"><ele>465.0</ele><time>2026-04-04T07:22:35Z</time></trkpt><trkpt lat="42.16527653724606" lon="12.16178407365785"><ele>465.0</ele><time>2026-04-04T07:22:37Z</time></trkpt><trkpt lat="42.1653297490629" lon="12.161897638273793"><ele>463.1666666666667</ele><time>2026-04-04T07:22:39Z</time></trkpt><trkpt lat="42.165376211437895" lon="12.161963362557868"><ele>461.33333333333337</ele><time>2026-04-04T07:22:40Z</time></trkpt><trkpt lat="42.16545317511912" lon="12.162050871635842"><ele>459.5</ele><time>2026-04-04T07:22:41Z</time></trkpt><trkpt lat="42.165500643111855" lon="12.162125000811441"><ele>457.6666666666667</ele><time>2026-04-04T07:22:42Z</time></trkpt><trkpt lat="42.165584876763894" lon="12.162267277164565"><ele>455.83333333333337</ele><time>2026-04-04T07:22:44Z</time></trkpt><trkpt lat="42.165623527688105" lon="12.162350728063057"><ele>454.0</ele><time>2026-04-04T07:22:45Z</time></trkpt><trkpt lat="42.16569163014448" lon="12.162426978112373"><ele>454.00000000000006</ele><time>2026-04-04T07:22:46Z</time></trkpt><trkpt lat="42.16574200794391" lon="12.1624955869922"><ele>454.0</ele><time>2026-04-04T07:22:47Z</time></trkpt><trkpt lat="42.165793836116436" lon="12.162566482332819"><ele>454.0</ele><time>2026-04-04T07:22:48Z</time></trkpt><trkpt lat="42.16582774887951" lon="12.162658905518567"><ele>454.0</ele><time>2026-04-04T07:22:49Z</time></trkpt><trkpt lat="42.16585024273556" lon="12.1627441441055"><ele>454.00000000000006</ele><time>2026-04-04T07:22:50Z</time></trkpt><trkpt lat="42.165896090659125" lon="12.162810244683712"><ele>454.0</ele><time>2026-04-04T07:22:51Z</time></trkpt><trkpt lat="42.1659638109605" lon="12.162944457452834"><ele>454.0</ele><time>2026-04-04T07:22:53Z</time></trkpt><trkpt lat="42.166034893860875" lon="12.163057482262312"><ele>454.0</ele><time>2026-04-04T07:22:55Z</time></trkpt><trkpt lat="42.166087157403425" lon="12.163175077809875"><ele>454.0</ele><time>2026-04-04T07:22:57Z</time></trkpt><trkpt lat="42.166136748973656" lon="12.163296694368215"><ele>454.0</ele><time>2026-04-04T07:22:59Z</time></trkpt><trkpt lat="42.16616938224468" lon="12.163425546533313"><ele>454.0</ele><time>2026-04-04T07:23:01Z</time></trkpt><trkpt lat="42.16622138192236" lon="12.163545496770165"><ele>451.6</ele><time>2026-04-04T07:23:03Z</time></trkpt><trkpt lat="42.166289027789524" lon="12.163623066579667"><ele>449.2</ele><time>2026-04-04T07:23:05Z</time></trkpt><trkpt lat="42.166367217502554" lon="12.163705181019905"><ele>446.80000000000007</ele><time>2026-04-04T07:23:07Z</time></trkpt><trkpt lat="42.16640044110806" lon="12.163821015837268"><ele>444.40000000000003</ele><time>2026-04-04T07:23:09Z</time></trkpt><trkpt lat="42.166436056068825" lon="12.163952721652537"><ele>442.0</ele><time>2026-04-04T07:23:11Z</time></trkpt><trkpt lat="42.166467272229404" lon="12.164076769150562"><ele>441.6</ele><time>2026-04-04T07:23:13Z</time></trkpt><trkpt lat="42.16652040433608" lon="12.164210276966324"><ele>441.20000000000005</ele><time>2026-04-04T07:23:15Z</time></trkpt><trkpt lat="42.16657054842161" lon="12.164299152577826"><ele>440.8</ele><time>2026-04-04T07:23:17Z</time></trkpt><trkpt lat="42.166620037109375" lon="12.164399008627536"><ele>440.4</ele><time>2026-04-04T07:23:19Z</time></trkpt><trkpt lat="42.16665298491444" lon="12.164479566354803"><ele>440.0</ele><time>2026-04-04T07:23:21Z</time></trkpt><trkpt lat="42.16673795306373" lon="12.164609850895635"><ele>439.99999999999994</ele><time>2026-04-04T07:23:23Z</time></trkpt><trkpt lat="42.166775902198125" lon="12.164686123255496"><ele>440.0</ele><time>2026-04-04T07:23:24Z</time></trkpt><trkpt lat="42.16682054725888" lon="12.164766613265343"><ele>440.0</ele><time>2026-04-04T07:23:25Z</time></trkpt><trkpt lat="42.16685937116318" lon="12.164851660814007"><ele>440.0</ele><time>2026-04-04T07:23:26Z</time></trkpt><trkpt lat="42.166895859549754" lon="12.164937237017933"><ele>439.99999999999994</ele><time>2026-04-04T07:23:27Z</time></trkpt><trkpt lat="42.16694154608492" lon="12.165047432022002"><ele>440.0</ele><time>2026-04-04T07:23:29Z</time></trkpt><trkpt lat="42.16693278922096" lon="12.165173526942814"><ele>438.4</ele><time>2026-04-04T07:23:31Z</time></trkpt><trkpt lat="42.166926804806046" lon="12.165318501506563"><ele>436.8</ele><time>2026-04-04T07:23:33Z</time></trkpt><trkpt lat="42.16692999702369" lon="12.1654573286237"><ele>435.20000000000005</ele><time>2026-04-04T07:23:35Z</time></trkpt><trkpt lat="42.16694036255461" lon="12.165610783952046"><ele>433.6</ele><time>2026-04-04T07:23:37Z</time></trkpt><trkpt lat="42.16694520550876" lon="12.165725317417046"><ele>432.0</ele><time>2026-04-04T07:23:39Z</time></trkpt><trkpt lat="42.16697221786321" lon="12.165855502305892"><ele>432.0</ele><time>2026-04-04T07:23:41Z</time></trkpt><trkpt lat="42.166982139975175" lon="12.165989371058583"><ele>432.00000000000006</ele><time>2026-04-04T07:23:43Z</time></trkpt><trkpt lat="42.166987884676935" lon="12.166128060202011"><ele>432.00000000000006</ele><time>2026-04-04T07:23:45Z</time></trkpt><trkpt lat="42.16701358529403" lon="12.166268161492344"><ele>432.0</ele><time>2026-04-04T07:23:47Z</time></trkpt><trkpt lat="42.16701034444752" lon="12.166407306586844"><ele>432.0</ele><time>2026-04-04T07:23:49Z</time></trkpt><trkpt lat="42.167007026702706" lon="12.166495670298726"><ele>432.0</ele><time>2026-04-04T07:23:50Z</time></trkpt><trkpt lat="42.16705964318653" lon="12.166554848895831"><ele>432.00000000000006</ele><time>2026-04-04T07:23:51Z</time></trkpt><trkpt lat="42.16706024489464" lon="12.166697126759995"><ele>432.00000000000006</ele><time>2026-04-04T07:23:53Z</time></trkpt><trkpt lat="42.1670912242177" lon="12.166787415174953"><ele>432.0</ele><time>2026-04-04T07:23:54Z</time></trkpt><trkpt lat="42.1671097961224" lon="12.166924457803834"><ele>432.0</ele><time>2026-04-04T07:23:56Z</time></trkpt><trkpt lat="42.167086852917244" lon="12.167058026048238"><ele>432.0</ele><time>2026-04-04T07:23:58Z</time></trkpt><trkpt lat="42.16704476832411" lon="12.167181940145717"><ele>432.00000000000006</ele><time>2026-04-04T07:24:00Z</time></trkpt><trkpt lat="42.16701445864155" lon="12.16730713178603"><ele>432.00000000000006</ele><time>2026-04-04T07:24:02Z</time></trkpt><trkpt lat="42.16694996827869" lon="12.167384765711192"><ele>432.0</ele><time>2026-04-04T07:24:04Z</time></trkpt><trkpt lat="42.16693912625891" lon="12.167536126394861"><ele>432.0</ele><time>2026-04-04T07:24:06Z</time></trkpt><trkpt lat="42.166881720016015" lon="12.167633792649356"><ele>432.3333333333333</ele><time>2026-04-04T07:24:08Z</time></trkpt><trkpt lat="42.166825130303685" lon="12.167732379384182"><ele>432.66666666666663</ele><time>2026-04-04T07:24:10Z</time></trkpt><trkpt lat="42.166785076250626" lon="12.167808487348715"><ele>433.0</ele><time>2026-04-04T07:24:12Z</time></trkpt><trkpt lat="42.16676532378063" lon="12.167902216311438"><ele>433.3333333333333</ele><time>2026-04-04T07:24:14Z</time></trkpt><trkpt lat="42.16669233284409" lon="12.167999815506132"><ele>433.66666666666663</ele><time>2026-04-04T07:24:16Z</time></trkpt><trkpt lat="42.166637012162354" lon="12.16809714213946"><ele>434.0</ele><time>2026-04-04T07:24:18Z</time></trkpt><trkpt lat="42.166567935968935" lon="12.168171668828412"><ele>434.66666666666663</ele><time>2026-04-04T07:24:20Z</time></trkpt><trkpt lat="42.16650271316994" lon="12.168246348152689"><ele>435.3333333333333</ele><time>2026-04-04T07:24:22Z</time></trkpt><trkpt lat="42.16646296324331" lon="12.16831520753027"><ele>436.0</ele><time>2026-04-04T07:24:23Z</time></trkpt><trkpt lat="42.16638790983142" lon="12.168361537784806"><ele>436.66666666666663</ele><time>2026-04-04T07:24:25Z</time></trkpt><trkpt lat="42.16631091990239" lon="12.168440107395124"><ele>437.3333333333333</ele><time>2026-04-04T07:24:27Z</time></trkpt><trkpt lat="42.166246661264275" lon="12.168490847698429"><ele>438.0</ele><time>2026-04-04T07:24:29Z</time></trkpt><trkpt lat="42.16619827857415" lon="12.168627723438165"><ele>438.0</ele><time>2026-04-04T07:24:31Z</time></trkpt><trkpt lat="42.16617025067431" lon="12.168739036979428"><ele>438.0</ele><time>2026-04-04T07:24:33Z</time></trkpt><trkpt lat="42.166141921874306" lon="12.168870765569828"><ele>438.0</ele><time>2026-04-04T07:24:35Z</time></trkpt><trkpt lat="42.16614651120744" lon="12.168999259709755"><ele>438.0</ele><time>2026-04-04T07:24:37Z</time></trkpt><trkpt lat="42.166143990449534" lon="12.169105045007637"><ele>438.0</ele><time>2026-04-04T07:24:39Z</time></trkpt><trkpt lat="42.16614773881942" lon="12.16921721544075"><ele>438.0</ele><time>2026-04-04T07:24:41Z</time></trkpt><trkpt lat="42.16610354900331" lon="12.16927909186173"><ele>438.0</ele><time>2026-04-04T07:24:43Z</time></trkpt><trkpt lat="42.16611091973972" lon="12.169373145319264"><ele>437.99999999999994</ele><time>2026-04-04T07:24:45Z</time></trkpt><trkpt lat="42.1661214189" lon="12.169468770687857"><ele>437.99999999999994</ele><time>2026-04-04T07:24:48Z</time></trkpt><trkpt lat="42.166153027624205" lon="12.169574518997006"><ele>438.0</ele><time>2026-04-04T07:24:50Z</time></trkpt><trkpt lat="42.166171632031315" lon="12.169688509598608"><ele>438.0</ele><time>2026-04-04T07:24:54Z</time></trkpt><trkpt lat="42.16626035555855" lon="12.169889838842375"><ele>438.0</ele><time>2026-04-04T07:25:01Z</time></trkpt><trkpt lat="42.16627695820192" lon="12.169988057475509"><ele>438.0</ele><time>2026-04-04T07:25:05Z</time></trkpt><trkpt lat="42.16630258014448" lon="12.170067860649468"><ele>438.0</ele><time>2026-04-04T07:25:08Z</time></trkpt><trkpt lat="42.16630779660368" lon="12.170163331014871"><ele>438.0</ele><time>2026-04-04T07:25:12Z</time></trkpt><trkpt lat="42.16632987442622" lon="12.17026187403206"><ele>438.0</ele><time>2026-04-04T07:25:16Z</time></trkpt><trkpt lat="42.166350068804974" lon="12.170365285130684"><ele>438.0</ele><time>2026-04-04T07:25:20Z</time></trkpt><trkpt lat="42.166381363146925" lon="12.170487522812047"><ele>438.0</ele><time>2026-04-04T07:25:24Z</time></trkpt><trkpt lat="42.16640833770593" lon="12.170582527727728"><ele>438.0</ele><time>2026-04-04T07:25:27Z</time></trkpt><trkpt lat="42.16646092636577" lon="12.170634167838013"><ele>438.0</ele><time>2026-04-04T07:25:29Z</time></trkpt><trkpt lat="42.16645500836692" lon="12.170731602127749"><ele>438.0</ele><time>2026-04-04T07:25:32Z</time></trkpt><trkpt lat="42.166487719830265" lon="12.170831249142061"><ele>438.0</ele><time>2026-04-04T07:25:36Z</time></trkpt><trkpt lat="42.16651076759788" lon="12.170924500959533"><ele>438.0</ele><time>2026-04-04T07:25:40Z</time></trkpt><trkpt lat="42.1665202578659" lon="12.171022055250525"><ele>438.0</ele><time>2026-04-04T07:25:44Z</time></trkpt><trkpt lat="42.16656656604706" lon="12.171104761108205"><ele>439.5</ele><time>2026-04-04T07:25:47Z</time></trkpt><trkpt lat="42.16656195206574" lon="12.171207774562722"><ele>441.0</ele><time>2026-04-04T07:25:51Z</time></trkpt><trkpt lat="42.16657063489086" lon="12.171319033607706"><ele>442.5</ele><time>2026-04-04T07:25:55Z</time></trkpt><trkpt lat="42.1665686477625" lon="12.171431732497375"><ele>444.0</ele><time>2026-04-04T07:25:59Z</time></trkpt><trkpt lat="42.16655189055038" lon="12.171516929003191"><ele>445.5</ele><time>2026-04-04T07:26:02Z</time></trkpt><trkpt lat="42.16654012076789" lon="12.171603914386877"><ele>447.0</ele><time>2026-04-04T07:26:05Z</time></trkpt><trkpt lat="42.16652580993185" lon="12.171711967252607"><ele>447.4285714285714</ele><time>2026-04-04T07:26:09Z</time></trkpt><trkpt lat="42.16652341774625" lon="12.17179757921796"><ele>447.8571428571429</ele><time>2026-04-04T07:26:12Z</time></trkpt><trkpt lat="42.16653421244933" lon="12.171886386242289"><ele>448.28571428571433</ele><time>2026-04-04T07:26:14Z</time></trkpt><trkpt lat="42.16654016608841" lon="12.171981054464553"><ele>448.7142857142857</ele><time>2026-04-04T07:26:17Z</time></trkpt><trkpt lat="42.16655627214801" lon="12.172081991642122"><ele>449.14285714285717</ele><time>2026-04-04T07:26:20Z</time></trkpt><trkpt lat="42.16655915866172" lon="12.172187800294378"><ele>449.5714285714286</ele><time>2026-04-04T07:26:24Z</time></trkpt><trkpt lat="42.16655696919599" lon="12.172300889791902"><ele>450.00000000000006</ele><time>2026-04-04T07:26:28Z</time></trkpt><trkpt lat="42.1665624396347" lon="12.172422866452603"><ele>450.5</ele><time>2026-04-04T07:26:32Z</time></trkpt><trkpt lat="42.166563498013744" lon="12.172543851152422"><ele>451.0</ele><time>2026-04-04T07:26:34Z</time></trkpt><trkpt lat="42.16658487624267" lon="12.172685594261335"><ele>451.5</ele><time>2026-04-04T07:26:37Z</time></trkpt><trkpt lat="42.166601637365794" lon="12.172770374692686"><ele>452.0</ele><time>2026-04-04T07:26:39Z</time></trkpt><trkpt lat="42.16663712641448" lon="12.172897541750528"><ele>452.5</ele><time>2026-04-04T07:26:42Z</time></trkpt><trkpt lat="42.16667632923163" lon="12.172995431665939"><ele>453.0</ele><time>2026-04-04T07:26:44Z</time></trkpt><trkpt lat="42.16670476952341" lon="12.17307398187249"><ele>453.0</ele><time>2026-04-04T07:26:46Z</time></trkpt><trkpt lat="42.16674751082767" lon="12.173147210455078"><ele>453.0</ele><time>2026-04-04T07:26:48Z</time></trkpt><trkpt lat="42.166789248313236" lon="12.173227911490283"><ele>453.0</ele><time>2026-04-04T07:26:50Z</time></trkpt><trkpt lat="42.16684987503528" lon="12.173324876592657"><ele>453.0</ele><time>2026-04-04T07:26:53Z</time></trkpt><trkpt lat="42.16688522703366" lon="12.17340864483301"><ele>453.0</ele><time>2026-04-04T07:26:55Z</time></trkpt><trkpt lat="42.16692577237924" lon="12.173511178396108"><ele>453.0</ele><time>2026-04-04T07:26:57Z</time></trkpt><trkpt lat="42.16699657767852" lon="12.173613105245304"><ele>452.99999999999994</ele><time>2026-04-04T07:26:59Z</time></trkpt><trkpt lat="42.16702385630564" lon="12.173690387704315"><ele>453.0</ele><time>2026-04-04T07:27:01Z</time></trkpt><trkpt lat="42.16706467469497" lon="12.173772930916877"><ele>452.99999999999994</ele><time>2026-04-04T07:27:03Z</time></trkpt><trkpt lat="42.1671051611455" lon="12.173865472067579"><ele>452.99999999999994</ele><time>2026-04-04T07:27:05Z</time></trkpt><trkpt lat="42.167147381134676" lon="12.173969522035256"><ele>453.0</ele><time>2026-04-04T07:27:08Z</time></trkpt><trkpt lat="42.1671892763272" lon="12.174034940878704"><ele>452.99999999999994</ele><time>2026-04-04T07:27:10Z</time></trkpt><trkpt lat="42.167185961221215" lon="12.174126042455304"><ele>452.99999999999994</ele><time>2026-04-04T07:27:13Z</time></trkpt><trkpt lat="42.167192136783385" lon="12.174238430266378"><ele>453.0</ele><time>2026-04-04T07:27:17Z</time></trkpt><trkpt lat="42.16719289799476" lon="12.174360060231718"><ele>452.99999999999994</ele><time>2026-04-04T07:27:20Z</time></trkpt><trkpt lat="42.16717898353538" lon="12.174504773830355"><ele>452.99999999999994</ele><time>2026-04-04T07:27:22Z</time></trkpt><trkpt lat="42.167160983318375" lon="12.174611656100721"><ele>453.0</ele><time>2026-04-04T07:27:24Z</time></trkpt><trkpt lat="42.16716670743144" lon="12.174762147982849"><ele>453.0</ele><time>2026-04-04T07:27:26Z</time></trkpt><trkpt lat="42.1671425781242" lon="12.174859414909116"><ele>452.6666666666667</ele><time>2026-04-04T07:27:29Z</time></trkpt><trkpt lat="42.16713456275031" lon="12.174982659329421"><ele>452.33333333333337</ele><time>2026-04-04T07:27:31Z</time></trkpt><trkpt lat="42.16712106759177" lon="12.175096828457153"><ele>452.0</ele><time>2026-04-04T07:27:33Z</time></trkpt><trkpt lat="42.16709876684603" lon="12.175232236375095"><ele>451.6666666666667</ele><time>2026-04-04T07:27:36Z</time></trkpt><trkpt lat="42.16708232993687" lon="12.175323818466836"><ele>451.33333333333337</ele><time>2026-04-04T07:27:37Z</time></trkpt><trkpt lat="42.167062218639764" lon="12.175448601212368"><ele>451.0</ele><time>2026-04-04T07:27:39Z</time></trkpt><trkpt lat="42.16703695814484" lon="12.17552913991392"><ele>451.00000000000006</ele><time>2026-04-04T07:27:42Z</time></trkpt><trkpt lat="42.16700267346764" lon="12.175624591889258"><ele>451.0</ele><time>2026-04-04T07:27:44Z</time></trkpt><trkpt lat="42.16695357505752" lon="12.175682329641816"><ele>451.0</ele><time>2026-04-04T07:27:47Z</time></trkpt><trkpt lat="42.16690020431009" lon="12.175819356037424"><ele>451.0</ele><time>2026-04-04T07:27:49Z</time></trkpt><trkpt lat="42.16685320999876" lon="12.175920172491434"><ele>451.00000000000006</ele><time>2026-04-04T07:27:51Z</time></trkpt><trkpt lat="42.1668181388348" lon="12.176011144019927"><ele>451.0</ele><time>2026-04-04T07:27:53Z</time></trkpt><trkpt lat="42.166765285993" lon="12.176126358738822"><ele>449.83333333333337</ele><time>2026-04-04T07:27:55Z</time></trkpt><trkpt lat="42.16670249053588" lon="12.176212347277328"><ele>448.6666666666667</ele><time>2026-04-04T07:27:58Z</time></trkpt><trkpt lat="42.16666238292905" lon="12.176278190483004"><ele>447.5</ele><time>2026-04-04T07:27:59Z</time></trkpt><trkpt lat="42.166599012043854" lon="12.176363224442893"><ele>446.33333333333337</ele><time>2026-04-04T07:28:03Z</time></trkpt><trkpt lat="42.166513664819234" lon="12.17645593021133"><ele>445.1666666666667</ele><time>2026-04-04T07:28:05Z</time></trkpt><trkpt lat="42.16644820083028" lon="12.176473223970577"><ele>444.0</ele><time>2026-04-04T07:28:07Z</time></trkpt><trkpt lat="42.16637444705537" lon="12.176529932042111"><ele>443.0</ele><time>2026-04-04T07:28:09Z</time></trkpt><trkpt lat="42.16630416618993" lon="12.176648696234826"><ele>442.0</ele><time>2026-04-04T07:28:11Z</time></trkpt><trkpt lat="42.16624804730703" lon="12.176718502154372"><ele>441.0</ele><time>2026-04-04T07:28:12Z</time></trkpt><trkpt lat="42.166170753625266" lon="12.176789626939811"><ele>440.0</ele><time>2026-04-04T07:28:15Z</time></trkpt><trkpt lat="42.16611805089679" lon="12.176878265154459"><ele>439.0</ele><time>2026-04-04T07:28:19Z</time></trkpt><trkpt lat="42.16609472689089" lon="12.176971714723955"><ele>438.0</ele><time>2026-04-04T07:28:21Z</time></trkpt><trkpt lat="42.16609025917118" lon="12.177070816036938"><ele>438.0</ele><time>2026-04-04T07:28:24Z</time></trkpt><trkpt lat="42.16611152031258" lon="12.177200698781087"><ele>438.0</ele><time>2026-04-04T07:28:27Z</time></trkpt><trkpt lat="42.166128340394515" lon="12.177314155668784"><ele>438.0</ele><time>2026-04-04T07:28:31Z</time></trkpt><trkpt lat="42.16616903963297" lon="12.17739280992819"><ele>438.0</ele><time>2026-04-04T07:29:07Z</time></trkpt><trkpt lat="42.16620229841925" lon="12.177468485829506"><ele>438.0</ele><time>2026-04-04T07:29:13Z</time></trkpt><trkpt lat="42.16624326668029" lon="12.177550454311131"><ele>438.0</ele><time>2026-04-04T07:29:20Z</time></trkpt><trkpt lat="42.166270902762484" lon="12.177638907239821"><ele>438.0</ele><time>2026-04-04T07:29:26Z</time></trkpt><trkpt lat="42.166228767309676" lon="12.177702294314955"><ele>438.0</ele><time>2026-04-04T07:29:41Z</time></trkpt><trkpt lat="42.16625166341414" lon="12.177785445469405"><ele>438.0</ele><time>2026-04-04T07:29:47Z</time></trkpt><trkpt lat="42.1662883136339" lon="12.177875013767174"><ele>438.0</ele><time>2026-04-04T07:29:50Z</time></trkpt><trkpt lat="42.16631643068962" lon="12.17797123652617"><ele>438.0</ele><time>2026-04-04T07:29:53Z</time></trkpt><trkpt lat="42.16633399780736" lon="12.17806795497663"><ele>438.0</ele><time>2026-04-04T07:29:57Z</time></trkpt><trkpt lat="42.166335048732904" lon="12.178164456060433"><ele>438.0</ele><time>2026-04-04T07:30:01Z</time></trkpt><trkpt lat="42.16633650221126" lon="12.178280229150708"><ele>438.0</ele><time>2026-04-04T07:30:04Z</time></trkpt><trkpt lat="42.16631008983773" lon="12.178374407898156"><ele>438.0</ele><time>2026-04-04T07:30:07Z</time></trkpt><trkpt lat="42.16628648202845" lon="12.178502955547422"><ele>438.0</ele><time>2026-04-04T07:30:11Z</time></trkpt><trkpt lat="42.1662533355854" lon="12.17860298221734"><ele>438.0</ele><time>2026-04-04T07:30:14Z</time></trkpt><trkpt lat="42.16624096161825" lon="12.178694713734469"><ele>438.0</ele><time>2026-04-04T07:30:17Z</time></trkpt><trkpt lat="42.16620460018536" lon="12.178772004547065"><ele>438.0</ele><time>2026-04-04T07:30:20Z</time></trkpt><trkpt lat="42.166184964267" lon="12.178865108284084"><ele>438.0</ele><time>2026-04-04T07:30:23Z</time></trkpt><trkpt lat="42.16614845040542" lon="12.178976480666124"><ele>438.0</ele><time>2026-04-04T07:30:27Z</time></trkpt><trkpt lat="42.16611093684204" lon="12.179077833718125"><ele>438.0</ele><time>2026-04-04T07:30:31Z</time></trkpt><trkpt lat="42.1660938043865" lon="12.179171883691394"><ele>438.0</ele><time>2026-04-04T07:30:34Z</time></trkpt><trkpt lat="42.166083081281016" lon="12.179268078049228"><ele>438.0</ele><time>2026-04-04T07:30:37Z</time></trkpt><trkpt lat="42.16604419668946" lon="12.179353287117076"><ele>438.0</ele><time>2026-04-04T07:30:41Z</time></trkpt><trkpt lat="42.165990434745765" lon="12.179454674109303"><ele>437.6666666666667</ele><time>2026-04-04T07:30:47Z</time></trkpt><trkpt lat="42.165963317200884" lon="12.179575504930897"><ele>437.33333333333337</ele><time>2026-04-04T07:30:51Z</time></trkpt><trkpt lat="42.16592832300455" lon="12.1796467760289"><ele>437.0</ele><time>2026-04-04T07:30:54Z</time></trkpt><trkpt lat="42.16587282452471" lon="12.179740547590198"><ele>436.6666666666667</ele><time>2026-04-04T07:30:58Z</time></trkpt><trkpt lat="42.165827181987595" lon="12.179812408661236"><ele>436.33333333333337</ele><time>2026-04-04T07:31:00Z</time></trkpt><trkpt lat="42.16579135246812" lon="12.179908652411799"><ele>436.0</ele><time>2026-04-04T07:31:04Z</time></trkpt><trkpt lat="42.16575345939903" lon="12.179987169610333"><ele>437.1666666666667</ele><time>2026-04-04T07:31:07Z</time></trkpt><trkpt lat="42.16568168345034" lon="12.180058418391246"><ele>438.33333333333337</ele><time>2026-04-04T07:31:11Z</time></trkpt><trkpt lat="42.16562818655997" lon="12.180122895168688"><ele>439.5</ele><time>2026-04-04T07:31:16Z</time></trkpt><trkpt lat="42.16556067923132" lon="12.180203534963919"><ele>440.66666666666663</ele><time>2026-04-04T07:31:19Z</time></trkpt><trkpt lat="42.16552534104488" lon="12.180286837420473"><ele>441.8333333333333</ele><time>2026-04-04T07:31:23Z</time></trkpt><trkpt lat="42.16547235799043" lon="12.18033477805535"><ele>443.0</ele><time>2026-04-04T07:31:26Z</time></trkpt><trkpt lat="42.16541049174393" lon="12.180390938536338"><ele>443.0</ele><time>2026-04-04T07:31:34Z</time></trkpt><trkpt lat="42.16535509990179" lon="12.180437906540153"><ele>443.0</ele><time>2026-04-04T07:31:38Z</time></trkpt><trkpt lat="42.16528610442725" lon="12.180461118435892"><ele>443.0</ele><time>2026-04-04T07:31:41Z</time></trkpt><trkpt lat="42.16521209954141" lon="12.180485340805605"><ele>443.0</ele><time>2026-04-04T07:31:45Z</time></trkpt><trkpt lat="42.16514161986361" lon="12.18052121776121"><ele>443.0</ele><time>2026-04-04T07:31:49Z</time></trkpt><trkpt lat="42.16506288490929" lon="12.180556711709624"><ele>443.0</ele><time>2026-04-04T07:31:53Z</time></trkpt><trkpt lat="42.1650011104976" lon="12.18058566427142"><ele>443.0</ele><time>2026-04-04T07:31:56Z</time></trkpt><trkpt lat="42.16493790366973" lon="12.180618485869857"><ele>442.99999999999994</ele><time>2026-04-04T07:32:00Z</time></trkpt><trkpt lat="42.16487664525065" lon="12.18066896300955"><ele>443.0</ele><time>2026-04-04T07:32:03Z</time></trkpt><trkpt lat="42.164799688220945" lon="12.18069852450549"><ele>443.0</ele><time>2026-04-04T07:32:07Z</time></trkpt><trkpt lat="42.16472858574367" lon="12.18074026942394"><ele>443.0</ele><time>2026-04-04T07:32:11Z</time></trkpt><trkpt lat="42.16465604427256" lon="12.180764222568476"><ele>442.99999999999994</ele><time>2026-04-04T07:32:15Z</time></trkpt><trkpt lat="42.164572579714644" lon="12.180802992784484"><ele>443.0</ele><time>2026-04-04T07:32:19Z</time></trkpt><trkpt lat="42.164508572083406" lon="12.180835298243604"><ele>443.0</ele><time>2026-04-04T07:32:23Z</time></trkpt><trkpt lat="42.164567694691655" lon="12.180777546509628"><ele>443.0</ele><time>2026-04-04T07:34:34Z</time></trkpt><trkpt lat="42.164627245046816" lon="12.180748495116507"><ele>443.0</ele><time>2026-04-04T07:34:36Z</time></trkpt><trkpt lat="42.16470524536131" lon="12.180677239083856"><ele>443.0</ele><time>2026-04-04T07:34:39.999Z</time></trkpt><trkpt lat="42.16476500147016" lon="12.18063855104035"><ele>443.0</ele><time>2026-04-04T07:34:41.999Z</time></trkpt><trkpt lat="42.16482372314397" lon="12.180607376658367"><ele>443.0</ele><time>2026-04-04T07:34:44.999Z</time></trkpt><trkpt lat="42.164898149070474" lon="12.180583279432696"><ele>443.0</ele><time>2026-04-04T07:34:47.999Z</time></trkpt><trkpt lat="42.164968809480264" lon="12.180552676432471"><ele>442.99999999999994</ele><time>2026-04-04T07:34:50Z</time></trkpt><trkpt lat="42.165035338975486" lon="12.180495021757443"><ele>443.0</ele><time>2026-04-04T07:34:53Z</time></trkpt><trkpt lat="42.16511106705932" lon="12.180468802276268"><ele>443.0</ele><time>2026-04-04T07:34:55Z</time></trkpt><trkpt lat="42.16519221925171" lon="12.180442957527548"><ele>443.0</ele><time>2026-04-04T07:34:58Z</time></trkpt><trkpt lat="42.165272607868424" lon="12.180419490593597"><ele>442.99999999999994</ele><time>2026-04-04T07:35:00Z</time></trkpt><trkpt lat="42.16534414926382" lon="12.180394963271755"><ele>443.0</ele><time>2026-04-04T07:35:02Z</time></trkpt><trkpt lat="42.16541142864777" lon="12.180352756728787"><ele>442.99999999999994</ele><time>2026-04-04T07:35:05Z</time></trkpt><trkpt lat="42.16547623238402" lon="12.180297057642687"><ele>443.0</ele><time>2026-04-04T07:35:08Z</time></trkpt><trkpt lat="42.16553663346584" lon="12.180227283140324"><ele>443.0</ele><time>2026-04-04T07:35:12Z</time></trkpt><trkpt lat="42.165600234376384" lon="12.180160460835825"><ele>443.0</ele><time>2026-04-04T07:35:14Z</time></trkpt><trkpt lat="42.1656678592546" lon="12.180068630607948"><ele>442.99999999999994</ele><time>2026-04-04T07:35:17Z</time></trkpt><trkpt lat="42.16574697615013" lon="12.179998790203335"><ele>443.0</ele><time>2026-04-04T07:35:20Z</time></trkpt><trkpt lat="42.16579706208204" lon="12.179909330700884"><ele>441.8333333333333</ele><time>2026-04-04T07:35:22Z</time></trkpt><trkpt lat="42.16583550232854" lon="12.179793796155804"><ele>440.66666666666663</ele><time>2026-04-04T07:35:25Z</time></trkpt><trkpt lat="42.16592826985715" lon="12.179755949707403"><ele>439.5</ele><time>2026-04-04T07:35:28Z</time></trkpt><trkpt lat="42.165948047256215" lon="12.179668444241555"><ele>438.33333333333337</ele><time>2026-04-04T07:35:31Z</time></trkpt><trkpt lat="42.16597455036707" lon="12.17956753391637"><ele>437.1666666666667</ele><time>2026-04-04T07:35:34Z</time></trkpt><trkpt lat="42.16598800262592" lon="12.179462953940366"><ele>436.0</ele><time>2026-04-04T07:35:37Z</time></trkpt><trkpt lat="42.165996083708215" lon="12.179375592134058"><ele>436.0</ele><time>2026-04-04T07:35:41Z</time></trkpt><trkpt lat="42.16601689098833" lon="12.17927574941748"><ele>436.0</ele><time>2026-04-04T07:35:45Z</time></trkpt><trkpt lat="42.166041799847555" lon="12.179188819236686"><ele>436.0</ele><time>2026-04-04T07:35:48Z</time></trkpt><trkpt lat="42.16608000329368" lon="12.17911286830919"><ele>436.0</ele><time>2026-04-04T07:35:51Z</time></trkpt><trkpt lat="42.16607609682545" lon="12.179026936167672"><ele>436.0</ele><time>2026-04-04T07:35:54Z</time></trkpt><trkpt lat="42.166114763030336" lon="12.178917439943435"><ele>436.0</ele><time>2026-04-04T07:35:56Z</time></trkpt><trkpt lat="42.166154088381454" lon="12.178849306179833"><ele>436.0</ele><time>2026-04-04T07:35:58Z</time></trkpt><trkpt lat="42.166148308639265" lon="12.178745776149253"><ele>436.14285714285717</ele><time>2026-04-04T07:36:02Z</time></trkpt><trkpt lat="42.1661950349952" lon="12.178679248941952"><ele>436.28571428571433</ele><time>2026-04-04T07:36:04Z</time></trkpt><trkpt lat="42.16624195391502" lon="12.178591739389335"><ele>436.42857142857144</ele><time>2026-04-04T07:36:08Z</time></trkpt><trkpt lat="42.1662466472182" lon="12.178503977102423"><ele>436.57142857142856</ele><time>2026-04-04T07:36:11Z</time></trkpt><trkpt lat="42.16627734953432" lon="12.178423228279595"><ele>436.7142857142857</ele><time>2026-04-04T07:36:14Z</time></trkpt><trkpt lat="42.16632034348251" lon="12.178340312911516"><ele>436.85714285714283</ele><time>2026-04-04T07:36:16Z</time></trkpt><trkpt lat="42.16630302611365" lon="12.178246708825132"><ele>437.0</ele><time>2026-04-04T07:36:19Z</time></trkpt><trkpt lat="42.16632500898977" lon="12.178160573491848"><ele>436.99999999999994</ele><time>2026-04-04T07:36:21Z</time></trkpt><trkpt lat="42.166310645655024" lon="12.17805131676179"><ele>437.0</ele><time>2026-04-04T07:36:25Z</time></trkpt><trkpt lat="42.16627672536935" lon="12.177933775678772"><ele>437.0</ele><time>2026-04-04T07:36:28Z</time></trkpt><trkpt lat="42.16625737152538" lon="12.177837480290139"><ele>437.0</ele><time>2026-04-04T07:36:31Z</time></trkpt><trkpt lat="42.16622810845878" lon="12.177750166878562"><ele>436.99999999999994</ele><time>2026-04-04T07:36:34Z</time></trkpt><trkpt lat="42.166199082526155" lon="12.1776558814447"><ele>437.0</ele><time>2026-04-04T07:36:37Z</time></trkpt><trkpt lat="42.1662519454967" lon="12.177572421272176"><ele>436.99999999999994</ele><time>2026-04-04T07:36:41Z</time></trkpt><trkpt lat="42.1663128477364" lon="12.17752679651252"><ele>437.0</ele><time>2026-04-04T07:36:44Z</time></trkpt><trkpt lat="42.1663815562892" lon="12.177482871285708"><ele>437.0</ele><time>2026-04-04T07:36:46Z</time></trkpt><trkpt lat="42.166439542929666" lon="12.177413239205373"><ele>437.0</ele><time>2026-04-04T07:36:49Z</time></trkpt><trkpt lat="42.16648911225091" lon="12.177321754463515"><ele>436.99999999999994</ele><time>2026-04-04T07:36:52Z</time></trkpt><trkpt lat="42.16652221832335" lon="12.177203202884964"><ele>437.0</ele><time>2026-04-04T07:36:55Z</time></trkpt><trkpt lat="42.16657036153228" lon="12.177126335814776"><ele>436.49999999999994</ele><time>2026-04-04T07:36:58Z</time></trkpt><trkpt lat="42.16660389915626" lon="12.177048919150396"><ele>436.0</ele><time>2026-04-04T07:37:00Z</time></trkpt><trkpt lat="42.1666492438397" lon="12.17697486496512"><ele>435.5</ele><time>2026-04-04T07:37:03Z</time></trkpt><trkpt lat="42.16668825178485" lon="12.176884202646342"><ele>435.0</ele><time>2026-04-04T07:37:06Z</time></trkpt><trkpt lat="42.16674636955087" lon="12.176785063875645"><ele>434.49999999999994</ele><time>2026-04-04T07:37:09Z</time></trkpt><trkpt lat="42.16673625046067" lon="12.176694641803014"><ele>434.0</ele><time>2026-04-04T07:37:12Z</time></trkpt><trkpt lat="42.16676614945174" lon="12.176595929606057"><ele>433.99999999999994</ele><time>2026-04-04T07:37:15Z</time></trkpt><trkpt lat="42.16683226506116" lon="12.17652683727656"><ele>434.0</ele><time>2026-04-04T07:37:18Z</time></trkpt><trkpt lat="42.16688897566252" lon="12.176477233632818"><ele>434.0</ele><time>2026-04-04T07:37:20Z</time></trkpt><trkpt lat="42.16695503528975" lon="12.176441329898388"><ele>434.0</ele><time>2026-04-04T07:37:22Z</time></trkpt><trkpt lat="42.167026617369324" lon="12.176425381144156"><ele>433.99999999999994</ele><time>2026-04-04T07:37:24Z</time></trkpt><trkpt lat="42.16709084576243" lon="12.176345452463666"><ele>434.0</ele><time>2026-04-04T07:37:27Z</time></trkpt><trkpt lat="42.167143912044615" lon="12.176285544203605"><ele>435.42857142857144</ele><time>2026-04-04T07:37:29Z</time></trkpt><trkpt lat="42.16720687885539" lon="12.176240464815944"><ele>436.8571428571429</ele><time>2026-04-04T07:37:31Z</time></trkpt><trkpt lat="42.16724558796891" lon="12.176151475304627"><ele>438.2857142857143</ele><time>2026-04-04T07:37:34Z</time></trkpt><trkpt lat="42.167271167244884" lon="12.176040808253893"><ele>439.7142857142857</ele><time>2026-04-04T07:37:39Z</time></trkpt><trkpt lat="42.167286436466426" lon="12.175954848119927"><ele>441.14285714285717</ele><time>2026-04-04T07:37:42Z</time></trkpt><trkpt lat="42.16728282498337" lon="12.17586719762732"><ele>442.57142857142856</ele><time>2026-04-04T07:37:45Z</time></trkpt><trkpt lat="42.16730625954699" lon="12.175774603728723"><ele>444.0</ele><time>2026-04-04T07:37:49Z</time></trkpt><trkpt lat="42.16733158089454" lon="12.175690315916109"><ele>443.3333333333333</ele><time>2026-04-04T07:37:53Z</time></trkpt><trkpt lat="42.16738417760433" lon="12.175590032578457"><ele>442.66666666666663</ele><time>2026-04-04T07:37:57Z</time></trkpt><trkpt lat="42.167406933921015" lon="12.175486778420924"><ele>442.0</ele><time>2026-04-04T07:38:00Z</time></trkpt><trkpt lat="42.16741344196029" lon="12.175375082416776"><ele>441.3333333333333</ele><time>2026-04-04T07:38:05Z</time></trkpt><trkpt lat="42.16736785307086" lon="12.1753051077506"><ele>440.66666666666663</ele><time>2026-04-04T07:38:08Z</time></trkpt><trkpt lat="42.167368812403545" lon="12.175194660929911"><ele>440.0</ele><time>2026-04-04T07:38:11Z</time></trkpt><trkpt lat="42.16737614665992" lon="12.175102166494058"><ele>439.99999999999994</ele><time>2026-04-04T07:38:14Z</time></trkpt><trkpt lat="42.16740743488404" lon="12.175021363263927"><ele>440.0</ele><time>2026-04-04T07:38:17Z</time></trkpt><trkpt lat="42.167439043724826" lon="12.174922411330297"><ele>440.0</ele><time>2026-04-04T07:38:20Z</time></trkpt><trkpt lat="42.16747480184685" lon="12.174849199858667"><ele>440.0</ele><time>2026-04-04T07:38:23Z</time></trkpt><trkpt lat="42.167499625735964" lon="12.174768754815824"><ele>440.0</ele><time>2026-04-04T07:38:26Z</time></trkpt><trkpt lat="42.16753816172649" lon="12.174669785925143"><ele>439.99999999999994</ele><time>2026-04-04T07:38:30Z</time></trkpt><trkpt lat="42.16755262848794" lon="12.174569800640816"><ele>440.0</ele><time>2026-04-04T07:38:33Z</time></trkpt><trkpt lat="42.16756660148436" lon="12.17447001173307"><ele>440.8333333333333</ele><time>2026-04-04T07:38:36Z</time></trkpt><trkpt lat="42.16757083799933" lon="12.174333395702224"><ele>441.66666666666663</ele><time>2026-04-04T07:38:39Z</time></trkpt><trkpt lat="42.16756538745082" lon="12.174247860818367"><ele>442.5</ele><time>2026-04-04T07:38:41Z</time></trkpt><trkpt lat="42.16756188476667" lon="12.174130154989589"><ele>443.33333333333337</ele><time>2026-04-04T07:38:44Z</time></trkpt><trkpt lat="42.167563698031756" lon="12.174027631127492"><ele>444.1666666666667</ele><time>2026-04-04T07:38:47Z</time></trkpt><trkpt lat="42.167531833461226" lon="12.173938662558966"><ele>445.0</ele><time>2026-04-04T07:38:50Z</time></trkpt><trkpt lat="42.16753251561084" lon="12.173837345839802"><ele>445.00000000000006</ele><time>2026-04-04T07:38:54Z</time></trkpt><trkpt lat="42.16748559212025" lon="12.173750698853704"><ele>445.0</ele><time>2026-04-04T07:38:56Z</time></trkpt><trkpt lat="42.167451117471266" lon="12.173642370539858"><ele>445.0</ele><time>2026-04-04T07:38:58Z</time></trkpt><trkpt lat="42.16746661289797" lon="12.173556691642718"><ele>445.0</ele><time>2026-04-04T07:39:00Z</time></trkpt><trkpt lat="42.16752571706789" lon="12.17348154387845"><ele>445.00000000000006</ele><time>2026-04-04T07:39:02Z</time></trkpt><trkpt lat="42.16759112593009" lon="12.173411336915557"><ele>445.0</ele><time>2026-04-04T07:39:05Z</time></trkpt><trkpt lat="42.16766408639346" lon="12.173344000514735"><ele>445.00000000000006</ele><time>2026-04-04T07:39:08Z</time></trkpt><trkpt lat="42.1677354410256" lon="12.17328019241655"><ele>445.0</ele><time>2026-04-04T07:39:10Z</time></trkpt><trkpt lat="42.167775784337564" lon="12.17321314366064"><ele>445.0</ele><time>2026-04-04T07:39:14Z</time></trkpt><trkpt lat="42.167833662928714" lon="12.173139493743186"><ele>445.0</ele><time>2026-04-04T07:39:16Z</time></trkpt><trkpt lat="42.16790435002569" lon="12.173075737300167"><ele>445.00000000000006</ele><time>2026-04-04T07:39:21Z</time></trkpt><trkpt lat="42.16797094081811" lon="12.1730040320184"><ele>445.0</ele><time>2026-04-04T07:39:24Z</time></trkpt><trkpt lat="42.168050456484465" lon="12.17295989905013"><ele>444.83333333333337</ele><time>2026-04-04T07:39:26Z</time></trkpt><trkpt lat="42.16812800360473" lon="12.172918378159721"><ele>444.6666666666667</ele><time>2026-04-04T07:39:29Z</time></trkpt><trkpt lat="42.16816340758907" lon="12.17284711491872"><ele>444.5</ele><time>2026-04-04T07:39:32Z</time></trkpt><trkpt lat="42.168234922375476" lon="12.172800601617803"><ele>444.33333333333337</ele><time>2026-04-04T07:39:34Z</time></trkpt><trkpt lat="42.168302639152884" lon="12.172754265183618"><ele>444.1666666666667</ele><time>2026-04-04T07:39:36Z</time></trkpt><trkpt lat="42.16837169854335" lon="12.172681584948712"><ele>444.0</ele><time>2026-04-04T07:39:39Z</time></trkpt><trkpt lat="42.16846470312011" lon="12.172614250177945"><ele>443.3333333333333</ele><time>2026-04-04T07:39:41Z</time></trkpt><trkpt lat="42.16851583790089" lon="12.17256194030983"><ele>442.66666666666663</ele><time>2026-04-04T07:39:43Z</time></trkpt><trkpt lat="42.168586003331036" lon="12.172509057329505"><ele>442.0</ele><time>2026-04-04T07:39:45Z</time></trkpt><trkpt lat="42.168643821168054" lon="12.172472788816819"><ele>441.3333333333333</ele><time>2026-04-04T07:39:47Z</time></trkpt><trkpt lat="42.16872280954134" lon="12.1724197245077"><ele>440.66666666666663</ele><time>2026-04-04T07:39:50Z</time></trkpt><trkpt lat="42.16881020538688" lon="12.172358755242756"><ele>440.0</ele><time>2026-04-04T07:39:53Z</time></trkpt><trkpt lat="42.1688682498459" lon="12.172280267848553"><ele>440.0</ele><time>2026-04-04T07:39:57Z</time></trkpt><trkpt lat="42.16890877453491" lon="12.172201134949267"><ele>440.0</ele><time>2026-04-04T07:39:59Z</time></trkpt><trkpt lat="42.16901677503738" lon="12.172097927937394"><ele>440.0</ele><time>2026-04-04T07:40:01Z</time></trkpt><trkpt lat="42.16908610753619" lon="12.172053548970002"><ele>440.0</ele><time>2026-04-04T07:40:02Z</time></trkpt><trkpt lat="42.169156442871284" lon="12.171984275221082"><ele>440.0</ele><time>2026-04-04T07:40:04Z</time></trkpt><trkpt lat="42.16926281431777" lon="12.171919755131723"><ele>438.99999999999994</ele><time>2026-04-04T07:40:06Z</time></trkpt><trkpt lat="42.16933905235438" lon="12.171887791693887"><ele>438.0</ele><time>2026-04-04T07:40:08Z</time></trkpt><trkpt lat="42.16942072585734" lon="12.171897260477431"><ele>437.0</ele><time>2026-04-04T07:40:11Z</time></trkpt><trkpt lat="42.169492587076654" lon="12.171947243074626"><ele>436.0</ele><time>2026-04-04T07:40:13Z</time></trkpt><trkpt lat="42.169540864095254" lon="12.172006745167504"><ele>434.99999999999994</ele><time>2026-04-04T07:40:15Z</time></trkpt><trkpt lat="42.1696013297031" lon="12.172081298012701"><ele>434.0</ele><time>2026-04-04T07:40:18Z</time></trkpt><trkpt lat="42.169659950083435" lon="12.17215495921022"><ele>433.99999999999994</ele><time>2026-04-04T07:40:21Z</time></trkpt><trkpt lat="42.16971562936008" lon="12.172231962316634"><ele>434.0</ele><time>2026-04-04T07:40:23Z</time></trkpt><trkpt lat="42.16977863386442" lon="12.172299814732286"><ele>434.0</ele><time>2026-04-04T07:40:25Z</time></trkpt><trkpt lat="42.16983247080172" lon="12.172378946129331"><ele>434.0</ele><time>2026-04-04T07:40:27Z</time></trkpt><trkpt lat="42.16988642391929" lon="12.17243957791007"><ele>433.99999999999994</ele><time>2026-04-04T07:40:29Z</time></trkpt><trkpt lat="42.169947876079476" lon="12.172480945467118"><ele>434.0</ele><time>2026-04-04T07:40:31Z</time></trkpt><trkpt lat="42.170015214646185" lon="12.172531117128074"><ele>433.8333333333333</ele><time>2026-04-04T07:40:34Z</time></trkpt><trkpt lat="42.170091002673395" lon="12.1726115088594"><ele>433.66666666666663</ele><time>2026-04-04T07:40:36Z</time></trkpt><trkpt lat="42.17015316116967" lon="12.172672472924985"><ele>433.5</ele><time>2026-04-04T07:40:38Z</time></trkpt><trkpt lat="42.170206005348426" lon="12.172743860573203"><ele>433.33333333333337</ele><time>2026-04-04T07:40:40Z</time></trkpt><trkpt lat="42.17027508488548" lon="12.17282051136026"><ele>433.1666666666667</ele><time>2026-04-04T07:40:42Z</time></trkpt><trkpt lat="42.17034809147507" lon="12.172890487374698"><ele>433.0</ele><time>2026-04-04T07:40:44Z</time></trkpt><trkpt lat="42.17041972486785" lon="12.172957156671826"><ele>433.00000000000006</ele><time>2026-04-04T07:40:46Z</time></trkpt><trkpt lat="42.1704882645564" lon="12.173014432100427"><ele>433.0</ele><time>2026-04-04T07:40:48Z</time></trkpt><trkpt lat="42.17055523266316" lon="12.173076597060541"><ele>433.0</ele><time>2026-04-04T07:40:50Z</time></trkpt><trkpt lat="42.17061776141304" lon="12.173135054053512"><ele>433.0</ele><time>2026-04-04T07:40:52Z</time></trkpt><trkpt lat="42.17066635897298" lon="12.173192314226727"><ele>433.00000000000006</ele><time>2026-04-04T07:40:54Z</time></trkpt><trkpt lat="42.170739747494004" lon="12.173255622124659"><ele>433.0</ele><time>2026-04-04T07:40:57Z</time></trkpt><trkpt lat="42.17082580491637" lon="12.173286110589233"><ele>432.50000000000006</ele><time>2026-04-04T07:41:00Z</time></trkpt><trkpt lat="42.17091441658245" lon="12.173325306157478"><ele>432.0</ele><time>2026-04-04T07:41:03Z</time></trkpt><trkpt lat="42.17097783447431" lon="12.173383993546237"><ele>431.5</ele><time>2026-04-04T07:41:05Z</time></trkpt><trkpt lat="42.171051443650285" lon="12.173458708197678"><ele>431.0</ele><time>2026-04-04T07:41:07Z</time></trkpt><trkpt lat="42.171098771090335" lon="12.173517096205911"><ele>430.50000000000006</ele><time>2026-04-04T07:41:09Z</time></trkpt><trkpt lat="42.17116054037725" lon="12.17358255834322"><ele>430.0</ele><time>2026-04-04T07:41:12Z</time></trkpt><trkpt lat="42.171213691841885" lon="12.173649387292901"><ele>430.0</ele><time>2026-04-04T07:41:14Z</time></trkpt><trkpt lat="42.171335655575106" lon="12.173739915462074"><ele>430.0</ele><time>2026-04-04T07:41:15Z</time></trkpt><trkpt lat="42.17140435488711" lon="12.173802981245279"><ele>430.0</ele><time>2026-04-04T07:41:17Z</time></trkpt><trkpt lat="42.17148099912148" lon="12.173874096853888"><ele>430.0</ele><time>2026-04-04T07:41:19Z</time></trkpt><trkpt lat="42.17153990051812" lon="12.173958599757881"><ele>430.0</ele><time>2026-04-04T07:41:21Z</time></trkpt><trkpt lat="42.17160668482012" lon="12.174041941925756"><ele>429.00000000000006</ele><time>2026-04-04T07:41:23Z</time></trkpt><trkpt lat="42.17168222903729" lon="12.174131368988274"><ele>428.0</ele><time>2026-04-04T07:41:25Z</time></trkpt><trkpt lat="42.17175567850282" lon="12.174225083046469"><ele>427.0</ele><time>2026-04-04T07:41:27Z</time></trkpt><trkpt lat="42.17179229931026" lon="12.17429654299367"><ele>426.0</ele><time>2026-04-04T07:41:28Z</time></trkpt><trkpt lat="42.171842867181915" lon="12.174374226229528"><ele>425.00000000000006</ele><time>2026-04-04T07:41:29Z</time></trkpt><trkpt lat="42.17188872286429" lon="12.17443336643914"><ele>424.0</ele><time>2026-04-04T07:41:30Z</time></trkpt><trkpt lat="42.17195961804072" lon="12.174571523315922"><ele>424.0</ele><time>2026-04-04T07:41:32Z</time></trkpt><trkpt lat="42.171991745861135" lon="12.174644740947995"><ele>424.0</ele><time>2026-04-04T07:41:33Z</time></trkpt><trkpt lat="42.172023209846905" lon="12.174725715989855"><ele>424.0</ele><time>2026-04-04T07:41:34Z</time></trkpt><trkpt lat="42.17206745542258" lon="12.174793102207667"><ele>424.0</ele><time>2026-04-04T07:41:35Z</time></trkpt><trkpt lat="42.17212001892229" lon="12.174851448032936"><ele>424.0</ele><time>2026-04-04T07:41:36Z</time></trkpt><trkpt lat="42.172200863543004" lon="12.174955103542487"><ele>424.0</ele><time>2026-04-04T07:41:38Z</time></trkpt><trkpt lat="42.17224692014115" lon="12.175018363783893"><ele>424.0</ele><time>2026-04-04T07:41:39Z</time></trkpt><trkpt lat="42.17232638539292" lon="12.175141185975617"><ele>423.2</ele><time>2026-04-04T07:41:41Z</time></trkpt><trkpt lat="42.17240128514838" lon="12.175258493157964"><ele>422.4</ele><time>2026-04-04T07:41:43Z</time></trkpt><trkpt lat="42.17248597652801" lon="12.175354814092524"><ele>421.6</ele><time>2026-04-04T07:41:45Z</time></trkpt><trkpt lat="42.172562391149974" lon="12.1754580019326"><ele>420.8</ele><time>2026-04-04T07:41:47Z</time></trkpt><trkpt lat="42.17263521306109" lon="12.175576178808514"><ele>420.0</ele><time>2026-04-04T07:41:49Z</time></trkpt><trkpt lat="42.172690245413804" lon="12.175679175643587"><ele>419.8</ele><time>2026-04-04T07:41:51Z</time></trkpt><trkpt lat="42.172755405653035" lon="12.175785369846249"><ele>419.6</ele><time>2026-04-04T07:41:53Z</time></trkpt><trkpt lat="42.172795751441065" lon="12.175876509187209"><ele>419.4</ele><time>2026-04-04T07:41:55Z</time></trkpt><trkpt lat="42.17286314905493" lon="12.176007307816906"><ele>419.2</ele><time>2026-04-04T07:41:57Z</time></trkpt><trkpt lat="42.17290642942009" lon="12.17607155753405"><ele>419.0</ele><time>2026-04-04T07:41:58Z</time></trkpt><trkpt lat="42.172963586295054" lon="12.17617359988676"><ele>419.0</ele><time>2026-04-04T07:42:00Z</time></trkpt><trkpt lat="42.172991383207986" lon="12.176250710007048"><ele>419.0</ele><time>2026-04-04T07:42:02Z</time></trkpt><trkpt lat="42.1731367519488" lon="12.176459537829848"><ele>419.0</ele><time>2026-04-04T07:42:05Z</time></trkpt><trkpt lat="42.17321008445631" lon="12.176586415995"><ele>419.0</ele><time>2026-04-04T07:42:07Z</time></trkpt><trkpt lat="42.1732410860614" lon="12.176719599440151"><ele>418.6</ele><time>2026-04-04T07:42:09Z</time></trkpt><trkpt lat="42.17329284717158" lon="12.176840362267383"><ele>418.2</ele><time>2026-04-04T07:42:11Z</time></trkpt><trkpt lat="42.173323070770564" lon="12.176984368174832"><ele>417.8</ele><time>2026-04-04T07:42:13Z</time></trkpt><trkpt lat="42.17336275229854" lon="12.177118595571432"><ele>417.40000000000003</ele><time>2026-04-04T07:42:15Z</time></trkpt><trkpt lat="42.17339941139409" lon="12.1772337043767"><ele>417.0</ele><time>2026-04-04T07:42:17Z</time></trkpt><trkpt lat="42.1734382482986" lon="12.177327449116197"><ele>417.5714285714286</ele><time>2026-04-04T07:42:19Z</time></trkpt><trkpt lat="42.17344310327091" lon="12.177439565445482"><ele>418.1428571428571</ele><time>2026-04-04T07:42:21Z</time></trkpt><trkpt lat="42.17345865736731" lon="12.177547355362089"><ele>418.7142857142857</ele><time>2026-04-04T07:42:23Z</time></trkpt><trkpt lat="42.173481035245636" lon="12.177629659666874"><ele>419.28571428571433</ele><time>2026-04-04T07:42:24Z</time></trkpt><trkpt lat="42.1734309084695" lon="12.177689145674329"><ele>419.8571428571429</ele><time>2026-04-04T07:42:27Z</time></trkpt><trkpt lat="42.173400862577616" lon="12.177768357794802"><ele>420.42857142857144</ele><time>2026-04-04T07:42:29Z</time></trkpt><trkpt lat="42.17334608652724" lon="12.177856958264195"><ele>421.0</ele><time>2026-04-04T07:42:32Z</time></trkpt><trkpt lat="42.17329414739206" lon="12.177930940156342"><ele>421.00000000000006</ele><time>2026-04-04T07:42:34Z</time></trkpt><trkpt lat="42.17322118163744" lon="12.177994360856605"><ele>421.0</ele><time>2026-04-04T07:42:37Z</time></trkpt><trkpt lat="42.17315064201627" lon="12.178077620684595"><ele>421.0</ele><time>2026-04-04T07:42:40Z</time></trkpt><trkpt lat="42.17311185781898" lon="12.178148784207698"><ele>421.0</ele><time>2026-04-04T07:42:42Z</time></trkpt><trkpt lat="42.17309009703482" lon="12.178255293794258"><ele>421.00000000000006</ele><time>2026-04-04T07:42:44Z</time></trkpt><trkpt lat="42.173095258187466" lon="12.178370898446742"><ele>421.0</ele><time>2026-04-04T07:42:46Z</time></trkpt><trkpt lat="42.1731099210852" lon="12.178515117401925"><ele>420.6666666666667</ele><time>2026-04-04T07:42:49Z</time></trkpt><trkpt lat="42.173109377691816" lon="12.17863252953296"><ele>420.33333333333337</ele><time>2026-04-04T07:42:51Z</time></trkpt><trkpt lat="42.17313611381561" lon="12.178731048659888"><ele>420.0</ele><time>2026-04-04T07:42:53Z</time></trkpt><trkpt lat="42.17319102854087" lon="12.178851075575878"><ele>419.66666666666663</ele><time>2026-04-04T07:42:56Z</time></trkpt><trkpt lat="42.17322670976226" lon="12.17896404311114"><ele>419.3333333333333</ele><time>2026-04-04T07:42:58Z</time></trkpt><trkpt lat="42.17324442439314" lon="12.179079232832358"><ele>419.0</ele><time>2026-04-04T07:43:00Z</time></trkpt><trkpt lat="42.17325759717142" lon="12.179177531183814"><ele>418.8333333333333</ele><time>2026-04-04T07:43:02Z</time></trkpt><trkpt lat="42.173261180173704" lon="12.179280307820845"><ele>418.66666666666663</ele><time>2026-04-04T07:43:04Z</time></trkpt><trkpt lat="42.17326254575725" lon="12.179431617725534"><ele>418.5</ele><time>2026-04-04T07:43:06Z</time></trkpt><trkpt lat="42.17325103678737" lon="12.179565851738914"><ele>418.33333333333337</ele><time>2026-04-04T07:43:08Z</time></trkpt><trkpt lat="42.17323981741801" lon="12.179651920750477"><ele>418.1666666666667</ele><time>2026-04-04T07:43:09Z</time></trkpt><trkpt lat="42.1732326435202" lon="12.179742351352276"><ele>418.0</ele><time>2026-04-04T07:43:10Z</time></trkpt><trkpt lat="42.173174014228074" lon="12.179891337215514"><ele>421.2857142857143</ele><time>2026-04-04T07:43:12Z</time></trkpt><trkpt lat="42.17314738793453" lon="12.17997836659516"><ele>424.57142857142856</ele><time>2026-04-04T07:43:13Z</time></trkpt><trkpt lat="42.1731190365599" lon="12.1800598376409"><ele>427.8571428571429</ele><time>2026-04-04T07:43:14Z</time></trkpt><trkpt lat="42.17308364109786" lon="12.180133653439194"><ele>431.1428571428571</ele><time>2026-04-04T07:43:15Z</time></trkpt><trkpt lat="42.17307176793929" lon="12.180218989080764"><ele>434.42857142857144</ele><time>2026-04-04T07:43:16Z</time></trkpt><trkpt lat="42.173091062372194" lon="12.180306643526354"><ele>437.7142857142857</ele><time>2026-04-04T07:43:17Z</time></trkpt><trkpt lat="42.17311890047137" lon="12.18040696137564"><ele>441.0</ele><time>2026-04-04T07:43:18Z</time></trkpt><trkpt lat="42.1731701406724" lon="12.1805505373894"><ele>436.0</ele><time>2026-04-04T07:43:20Z</time></trkpt><trkpt lat="42.17322203357459" lon="12.180670115871306"><ele>431.0</ele><time>2026-04-04T07:43:22Z</time></trkpt><trkpt lat="42.17323753313525" lon="12.180803010181913"><ele>426.0</ele><time>2026-04-04T07:43:24Z</time></trkpt><trkpt lat="42.17327071680243" lon="12.180934795595189"><ele>421.0</ele><time>2026-04-04T07:43:26Z</time></trkpt><trkpt lat="42.173299370399924" lon="12.181050095255289"><ele>416.0</ele><time>2026-04-04T07:43:28Z</time></trkpt><trkpt lat="42.173348674209215" lon="12.181178733206073"><ele>416.0</ele><time>2026-04-04T07:43:30Z</time></trkpt><trkpt lat="42.17340790252286" lon="12.181304251074684"><ele>416.0</ele><time>2026-04-04T07:43:32Z</time></trkpt><trkpt lat="42.173461784927646" lon="12.181408120409644"><ele>416.0</ele><time>2026-04-04T07:43:34Z</time></trkpt><trkpt lat="42.173518149849336" lon="12.181551064504601"><ele>416.0</ele><time>2026-04-04T07:43:36Z</time></trkpt><trkpt lat="42.17354649600551" lon="12.18166555893405"><ele>416.0</ele><time>2026-04-04T07:43:38Z</time></trkpt><trkpt lat="42.17357533088794" lon="12.1817443998262"><ele>416.66666666666663</ele><time>2026-04-04T07:43:39Z</time></trkpt><trkpt lat="42.17360632820985" lon="12.181829352472906"><ele>417.3333333333333</ele><time>2026-04-04T07:43:40Z</time></trkpt><trkpt lat="42.17363567123528" lon="12.181928118895959"><ele>418.0</ele><time>2026-04-04T07:43:41Z</time></trkpt><trkpt lat="42.17363154541634" lon="12.182029943051765"><ele>418.66666666666663</ele><time>2026-04-04T07:43:42Z</time></trkpt><trkpt lat="42.17362413027747" lon="12.182124958663358"><ele>419.3333333333333</ele><time>2026-04-04T07:43:43Z</time></trkpt><trkpt lat="42.17364354340977" lon="12.182299660922283"><ele>420.0</ele><time>2026-04-04T07:43:45Z</time></trkpt><trkpt lat="42.173653728278985" lon="12.182406119805103"><ele>418.6666666666667</ele><time>2026-04-04T07:43:46Z</time></trkpt><trkpt lat="42.1736452125198" lon="12.182491492725228"><ele>417.33333333333337</ele><time>2026-04-04T07:43:47Z</time></trkpt><trkpt lat="42.17362114253451" lon="12.182650074282313"><ele>416.0</ele><time>2026-04-04T07:43:49Z</time></trkpt><trkpt lat="42.17355667678136" lon="12.182773770932416"><ele>414.6666666666667</ele><time>2026-04-04T07:43:51Z</time></trkpt><trkpt lat="42.17353294331097" lon="12.182861051602769"><ele>413.33333333333337</ele><time>2026-04-04T07:43:52Z</time></trkpt><trkpt lat="42.173518732622824" lon="12.182967574332102"><ele>412.0</ele><time>2026-04-04T07:43:53Z</time></trkpt><trkpt lat="42.173488060165795" lon="12.183060750563833"><ele>412.00000000000006</ele><time>2026-04-04T07:43:54Z</time></trkpt><trkpt lat="42.17348034901533" lon="12.183166249044469"><ele>412.0</ele><time>2026-04-04T07:43:55Z</time></trkpt><trkpt lat="42.17350478955945" lon="12.18327098110196"><ele>412.0</ele><time>2026-04-04T07:43:56Z</time></trkpt><trkpt lat="42.17354713797688" lon="12.183404870016524"><ele>412.0</ele><time>2026-04-04T07:43:58Z</time></trkpt><trkpt lat="42.17357317267042" lon="12.183491308009085"><ele>412.00000000000006</ele><time>2026-04-04T07:43:59Z</time></trkpt><trkpt lat="42.17359226805053" lon="12.183574552905013"><ele>412.0</ele><time>2026-04-04T07:44:00Z</time></trkpt><trkpt lat="42.1736019079431" lon="12.183730447906031"><ele>410.20000000000005</ele><time>2026-04-04T07:44:02Z</time></trkpt><trkpt lat="42.173592441311875" lon="12.183886666696457"><ele>408.4</ele><time>2026-04-04T07:44:04Z</time></trkpt><trkpt lat="42.17355219194827" lon="12.184018192220222"><ele>406.6</ele><time>2026-04-04T07:44:06Z</time></trkpt><trkpt lat="42.173511549414215" lon="12.184095724984434"><ele>404.79999999999995</ele><time>2026-04-04T07:44:07Z</time></trkpt><trkpt lat="42.17347565218402" lon="12.184248836094726"><ele>403.0</ele><time>2026-04-04T07:44:09Z</time></trkpt><trkpt lat="42.17344346948164" lon="12.1844084343021"><ele>401.50000000000006</ele><time>2026-04-04T07:44:11Z</time></trkpt><trkpt lat="42.173423071464185" lon="12.184490589766758"><ele>400.0</ele><time>2026-04-04T07:44:12Z</time></trkpt><trkpt lat="42.173405512981105" lon="12.184657985580747"><ele>398.5</ele><time>2026-04-04T07:44:14Z</time></trkpt><trkpt lat="42.17341615035758" lon="12.184751385010166"><ele>397.0</ele><time>2026-04-04T07:44:15Z</time></trkpt><trkpt lat="42.173419210005314" lon="12.184838650025496"><ele>395.50000000000006</ele><time>2026-04-04T07:44:16Z</time></trkpt><trkpt lat="42.173446905548154" lon="12.184927091880585"><ele>394.0</ele><time>2026-04-04T07:44:17Z</time></trkpt><trkpt lat="42.17350508717725" lon="12.185069213580936"><ele>392.83333333333337</ele><time>2026-04-04T07:44:19Z</time></trkpt><trkpt lat="42.17353006586973" lon="12.185153613125971"><ele>391.6666666666667</ele><time>2026-04-04T07:44:20Z</time></trkpt><trkpt lat="42.17355876959215" lon="12.185235126801969"><ele>390.5</ele><time>2026-04-04T07:44:21Z</time></trkpt><trkpt lat="42.17359909367739" lon="12.185318051890508"><ele>389.33333333333337</ele><time>2026-04-04T07:44:22Z</time></trkpt><trkpt lat="42.173662520676245" lon="12.185413766679009"><ele>388.1666666666667</ele><time>2026-04-04T07:44:23Z</time></trkpt><trkpt lat="42.17370194597541" lon="12.18550652222014"><ele>387.0</ele><time>2026-04-04T07:44:24Z</time></trkpt><trkpt lat="42.17374685058973" lon="12.185582106670823"><ele>387.0</ele><time>2026-04-04T07:44:25Z</time></trkpt><trkpt lat="42.173782481273314" lon="12.185659291865699"><ele>387.0</ele><time>2026-04-04T07:44:26Z</time></trkpt><trkpt lat="42.17382743514975" lon="12.185726896909117"><ele>387.0</ele><time>2026-04-04T07:44:27Z</time></trkpt><trkpt lat="42.17387332444681" lon="12.1858007436719"><ele>387.0</ele><time>2026-04-04T07:44:28Z</time></trkpt><trkpt lat="42.1739166795946" lon="12.185888797312229"><ele>387.0</ele><time>2026-04-04T07:44:29Z</time></trkpt><trkpt lat="42.17398303720184" lon="12.18598296497011"><ele>387.0</ele><time>2026-04-04T07:44:30Z</time></trkpt><trkpt lat="42.17404130699261" lon="12.186074562591962"><ele>383.3333333333333</ele><time>2026-04-04T07:44:31Z</time></trkpt><trkpt lat="42.174102885133216" lon="12.186162093273941"><ele>379.6666666666667</ele><time>2026-04-04T07:44:32Z</time></trkpt><trkpt lat="42.17415822809568" lon="12.186256083739295"><ele>376.0</ele><time>2026-04-04T07:44:33Z</time></trkpt><trkpt lat="42.17421387191532" lon="12.186349664153946"><ele>372.33333333333337</ele><time>2026-04-04T07:44:34Z</time></trkpt><trkpt lat="42.174277494731136" lon="12.186446331358713"><ele>368.6666666666667</ele><time>2026-04-04T07:44:35Z</time></trkpt><trkpt lat="42.17433356297439" lon="12.186531720597753"><ele>365.0</ele><time>2026-04-04T07:44:36Z</time></trkpt><trkpt lat="42.17438333287254" lon="12.186623010371937"><ele>365.0</ele><time>2026-04-04T07:44:37Z</time></trkpt><trkpt lat="42.17443301596054" lon="12.18671255144805"><ele>365.0</ele><time>2026-04-04T07:44:38Z</time></trkpt><trkpt lat="42.1744852232235" lon="12.186814188981748"><ele>365.0</ele><time>2026-04-04T07:44:39Z</time></trkpt><trkpt lat="42.17451541580788" lon="12.186915636845988"><ele>365.0</ele><time>2026-04-04T07:44:40Z</time></trkpt><trkpt lat="42.17455139517943" lon="12.18702128470146"><ele>365.0</ele><time>2026-04-04T07:44:41Z</time></trkpt><trkpt lat="42.17457057207466" lon="12.18712583318417"><ele>365.0</ele><time>2026-04-04T07:44:42Z</time></trkpt><trkpt lat="42.17458767843015" lon="12.187236011261863"><ele>365.0</ele><time>2026-04-04T07:44:43Z</time></trkpt><trkpt lat="42.17460465483777" lon="12.1873431029333"><ele>365.0</ele><time>2026-04-04T07:44:44Z</time></trkpt><trkpt lat="42.174636261792514" lon="12.187456818494603"><ele>365.0</ele><time>2026-04-04T07:44:45Z</time></trkpt><trkpt lat="42.17467012009345" lon="12.1875428307443"><ele>365.0</ele><time>2026-04-04T07:44:46Z</time></trkpt><trkpt lat="42.17471046832328" lon="12.187646200339083"><ele>365.0</ele><time>2026-04-04T07:44:48Z</time></trkpt><trkpt lat="42.17478033515921" lon="12.187749359371416"><ele>365.0</ele><time>2026-04-04T07:44:50Z</time></trkpt><trkpt lat="42.17481824654004" lon="12.187860261521111"><ele>366.83333333333337</ele><time>2026-04-04T07:44:52Z</time></trkpt><trkpt lat="42.17483764424408" lon="12.187953338195262"><ele>368.6666666666667</ele><time>2026-04-04T07:44:54Z</time></trkpt><trkpt lat="42.17482345201604" lon="12.188093753179901"><ele>370.5</ele><time>2026-04-04T07:44:56Z</time></trkpt><trkpt lat="42.17483484169588" lon="12.188236828978226"><ele>372.3333333333333</ele><time>2026-04-04T07:44:58Z</time></trkpt><trkpt lat="42.1748456187366" lon="12.188339004138282"><ele>374.16666666666663</ele><time>2026-04-04T07:44:59Z</time></trkpt><trkpt lat="42.17483548846991" lon="12.188442024786502"><ele>376.0</ele><time>2026-04-04T07:45:00Z</time></trkpt><trkpt lat="42.1748484601985" lon="12.188594351059052"><ele>378.20000000000005</ele><time>2026-04-04T07:45:02Z</time></trkpt><trkpt lat="42.17484664292793" lon="12.188764106677363"><ele>380.40000000000003</ele><time>2026-04-04T07:45:04Z</time></trkpt><trkpt lat="42.174863465888215" lon="12.18886758931953"><ele>382.6</ele><time>2026-04-04T07:45:05Z</time></trkpt><trkpt lat="42.17488738599887" lon="12.189032531195249"><ele>384.8</ele><time>2026-04-04T07:45:07Z</time></trkpt><trkpt lat="42.17490977557612" lon="12.189189064038526"><ele>387.0</ele><time>2026-04-04T07:45:09Z</time></trkpt><trkpt lat="42.174946556111806" lon="12.189270079504185"><ele>382.6666666666667</ele><time>2026-04-04T07:45:10Z</time></trkpt><trkpt lat="42.17497748928006" lon="12.189348779070235"><ele>378.3333333333333</ele><time>2026-04-04T07:45:11Z</time></trkpt><trkpt lat="42.17504016000986" lon="12.189476970433399"><ele>374.0</ele><time>2026-04-04T07:45:13Z</time></trkpt><trkpt lat="42.17508925970852" lon="12.189540508994796"><ele>369.66666666666663</ele><time>2026-04-04T07:45:15Z</time></trkpt><trkpt lat="42.17511231542" lon="12.189627104928233"><ele>365.3333333333333</ele><time>2026-04-04T07:45:26Z</time></trkpt><trkpt lat="42.17514577881193" lon="12.189701745447564"><ele>361.0</ele><time>2026-04-04T07:45:28Z</time></trkpt><trkpt lat="42.17516005485532" lon="12.189799468505928"><ele>360.0</ele><time>2026-04-04T07:45:30Z</time></trkpt><trkpt lat="42.17515845094043" lon="12.18988826174226"><ele>359.0</ele><time>2026-04-04T07:45:32Z</time></trkpt><trkpt lat="42.17514997709205" lon="12.189974269759071"><ele>358.0</ele><time>2026-04-04T07:45:34Z</time></trkpt><trkpt lat="42.17512794375658" lon="12.19007429438563"><ele>357.0</ele><time>2026-04-04T07:45:36Z</time></trkpt><trkpt lat="42.1750977492053" lon="12.190192390696483"><ele>356.0</ele><time>2026-04-04T07:45:38Z</time></trkpt><trkpt lat="42.175044217763144" lon="12.190290342259669"><ele>355.0</ele><time>2026-04-04T07:45:40Z</time></trkpt><trkpt lat="42.175086600605454" lon="12.190356308739885"><ele>355.0</ele><time>2026-04-04T07:45:44Z</time></trkpt><trkpt lat="42.17511684745137" lon="12.190450648389875"><ele>355.0</ele><time>2026-04-04T07:45:48Z</time></trkpt><trkpt lat="42.175057286251715" lon="12.19037660605504"><ele>355.0</ele><time>2026-04-04T07:46:11Z</time></trkpt><trkpt lat="42.174994357508886" lon="12.190369768873925"><ele>355.0</ele><time>2026-04-04T07:46:17Z</time></trkpt><trkpt lat="42.174973114508404" lon="12.190521343193792"><ele>355.0</ele><time>2026-04-04T07:46:56Z</time></trkpt><trkpt lat="42.175000814603806" lon="12.190626682102565"><ele>355.0</ele><time>2026-04-04T07:47:01Z</time></trkpt><trkpt lat="42.17505781556365" lon="12.190666520840864"><ele>352.66666666666663</ele><time>2026-04-04T07:47:03Z</time></trkpt><trkpt lat="42.1751072406959" lon="12.190723851016314"><ele>350.3333333333333</ele><time>2026-04-04T07:47:05Z</time></trkpt><trkpt lat="42.1751685369518" lon="12.1907687881381"><ele>348.0</ele><time>2026-04-04T07:47:07Z</time></trkpt><trkpt lat="42.175221991472895" lon="12.190828563477092"><ele>345.6666666666667</ele><time>2026-04-04T07:47:09Z</time></trkpt><trkpt lat="42.17527211662679" lon="12.1909097564185"><ele>343.33333333333337</ele><time>2026-04-04T07:47:11Z</time></trkpt><trkpt lat="42.17532329119506" lon="12.191014219176486"><ele>341.0</ele><time>2026-04-04T07:47:13Z</time></trkpt><trkpt lat="42.17535618630982" lon="12.191115145462618"><ele>341.0</ele><time>2026-04-04T07:47:15Z</time></trkpt><trkpt lat="42.17540335430327" lon="12.191198436500931"><ele>341.0</ele><time>2026-04-04T07:47:17Z</time></trkpt><trkpt lat="42.17544234326094" lon="12.19129082787744"><ele>341.0</ele><time>2026-04-04T07:47:19Z</time></trkpt><trkpt lat="42.17547802556318" lon="12.191382527939151"><ele>341.0</ele><time>2026-04-04T07:47:21Z</time></trkpt><trkpt lat="42.17551286013822" lon="12.191454761946432"><ele>341.0</ele><time>2026-04-04T07:47:23Z</time></trkpt><trkpt lat="42.175547693836236" lon="12.191544628033252"><ele>341.0</ele><time>2026-04-04T07:47:25Z</time></trkpt><trkpt lat="42.17559256524129" lon="12.191653476509156"><ele>340.33333333333337</ele><time>2026-04-04T07:47:27Z</time></trkpt><trkpt lat="42.17563503729205" lon="12.191759545250754"><ele>339.6666666666667</ele><time>2026-04-04T07:47:29Z</time></trkpt><trkpt lat="42.17567243505451" lon="12.191851534965286"><ele>339.0</ele><time>2026-04-04T07:47:31Z</time></trkpt><trkpt lat="42.17572411411605" lon="12.191960665527663"><ele>338.3333333333333</ele><time>2026-04-04T07:47:33Z</time></trkpt><trkpt lat="42.17577091320085" lon="12.192066836061645"><ele>337.66666666666663</ele><time>2026-04-04T07:47:35Z</time></trkpt><trkpt lat="42.1758189421757" lon="12.192169046360306"><ele>337.0</ele><time>2026-04-04T07:47:37Z</time></trkpt><trkpt lat="42.17586080876666" lon="12.19227774009196"><ele>336.6</ele><time>2026-04-04T07:47:39Z</time></trkpt><trkpt lat="42.175884335208494" lon="12.192402638937466"><ele>336.20000000000005</ele><time>2026-04-04T07:47:41Z</time></trkpt><trkpt lat="42.17592881278721" lon="12.192519350857424"><ele>335.8</ele><time>2026-04-04T07:47:43Z</time></trkpt><trkpt lat="42.1759771423598" lon="12.192636899700863"><ele>335.4</ele><time>2026-04-04T07:47:45Z</time></trkpt><trkpt lat="42.17602253875354" lon="12.1927524435977"><ele>335.0</ele><time>2026-04-04T07:47:47Z</time></trkpt><trkpt lat="42.17606826976695" lon="12.192873733172124"><ele>335.0</ele><time>2026-04-04T07:47:49Z</time></trkpt><trkpt lat="42.17612160231432" lon="12.192989939800247"><ele>335.0</ele><time>2026-04-04T07:47:51Z</time></trkpt><trkpt lat="42.17616387018089" lon="12.193108217753453"><ele>335.0</ele><time>2026-04-04T07:47:53Z</time></trkpt><trkpt lat="42.176200463225754" lon="12.193227371809709"><ele>335.0</ele><time>2026-04-04T07:47:55Z</time></trkpt><trkpt lat="42.176238076020795" lon="12.193346904314152"><ele>335.0</ele><time>2026-04-04T07:47:57Z</time></trkpt><trkpt lat="42.17628243520338" lon="12.193460479674401"><ele>334.6</ele><time>2026-04-04T07:47:59Z</time></trkpt><trkpt lat="42.176325927300276" lon="12.193576084643555"><ele>334.2</ele><time>2026-04-04T07:48:01Z</time></trkpt><trkpt lat="42.17636892491899" lon="12.19369078585965"><ele>333.79999999999995</ele><time>2026-04-04T07:48:03Z</time></trkpt><trkpt lat="42.17641041318342" lon="12.193799923529106"><ele>333.4</ele><time>2026-04-04T07:48:05Z</time></trkpt><trkpt lat="42.17645172407624" lon="12.193906613778276"><ele>333.0</ele><time>2026-04-04T07:48:07Z</time></trkpt><trkpt lat="42.17648970346924" lon="12.194013158030693"><ele>333.2</ele><time>2026-04-04T07:48:09Z</time></trkpt><trkpt lat="42.17653491689985" lon="12.194122014542373"><ele>333.4</ele><time>2026-04-04T07:48:11Z</time></trkpt><trkpt lat="42.17658566492429" lon="12.194250289874327"><ele>333.59999999999997</ele><time>2026-04-04T07:48:13Z</time></trkpt><trkpt lat="42.17662436570723" lon="12.194400393270916"><ele>333.79999999999995</ele><time>2026-04-04T07:48:15Z</time></trkpt><trkpt lat="42.17666808831937" lon="12.194461907031434"><ele>334.0</ele><time>2026-04-04T07:48:16Z</time></trkpt><trkpt lat="42.17672396279943" lon="12.194592213052955"><ele>334.0</ele><time>2026-04-04T07:48:18Z</time></trkpt><trkpt lat="42.17676282093316" lon="12.19472655025233"><ele>334.0</ele><time>2026-04-04T07:48:20Z</time></trkpt><trkpt lat="42.176826548599756" lon="12.194842445381786"><ele>334.0</ele><time>2026-04-04T07:48:22Z</time></trkpt><trkpt lat="42.176886759686944" lon="12.194963697883791"><ele>334.0</ele><time>2026-04-04T07:48:24Z</time></trkpt><trkpt lat="42.176950964246856" lon="12.195088493306956"><ele>334.0</ele><time>2026-04-04T07:48:26Z</time></trkpt><trkpt lat="42.17700296669762" lon="12.195205713435683"><ele>333.0</ele><time>2026-04-04T07:48:28Z</time></trkpt><trkpt lat="42.17704893627816" lon="12.195267745690174"><ele>332.0</ele><time>2026-04-04T07:48:29Z</time></trkpt><trkpt lat="42.17711374327297" lon="12.195396184057346"><ele>331.0</ele><time>2026-04-04T07:48:31Z</time></trkpt><trkpt lat="42.17717216691302" lon="12.1955263219482"><ele>330.0</ele><time>2026-04-04T07:48:33Z</time></trkpt><trkpt lat="42.17720965330541" lon="12.195594634222424"><ele>329.0</ele><time>2026-04-04T07:48:34Z</time></trkpt><trkpt lat="42.17728740974195" lon="12.19571656782563"><ele>329.0</ele><time>2026-04-04T07:48:36Z</time></trkpt><trkpt lat="42.17737076487679" lon="12.195845985992223"><ele>329.0</ele><time>2026-04-04T07:48:38Z</time></trkpt><trkpt lat="42.17740760023948" lon="12.195919819813954"><ele>329.0</ele><time>2026-04-04T07:48:39Z</time></trkpt><trkpt lat="42.177444009396986" lon="12.195998817064241"><ele>329.0</ele><time>2026-04-04T07:48:40Z</time></trkpt><trkpt lat="42.17748049024261" lon="12.196071268033494"><ele>329.0</ele><time>2026-04-04T07:48:41Z</time></trkpt><trkpt lat="42.17751912861874" lon="12.196147380525222"><ele>329.0</ele><time>2026-04-04T07:48:42Z</time></trkpt><trkpt lat="42.17759824916095" lon="12.1962849682946"><ele>329.0</ele><time>2026-04-04T07:48:44Z</time></trkpt><trkpt lat="42.17767382464168" lon="12.196412093518818"><ele>329.0</ele><time>2026-04-04T07:48:46Z</time></trkpt><trkpt lat="42.177750083830006" lon="12.19653409494297"><ele>329.0</ele><time>2026-04-04T07:48:48Z</time></trkpt><trkpt lat="42.177811445515324" lon="12.19666815213037"><ele>329.0</ele><time>2026-04-04T07:48:50Z</time></trkpt><trkpt lat="42.17787116551888" lon="12.196793772287892"><ele>328.4</ele><time>2026-04-04T07:48:52Z</time></trkpt><trkpt lat="42.17792558566487" lon="12.196924549271918"><ele>327.79999999999995</ele><time>2026-04-04T07:48:54Z</time></trkpt><trkpt lat="42.17797430310163" lon="12.197047202973248"><ele>327.20000000000005</ele><time>2026-04-04T07:48:56Z</time></trkpt><trkpt lat="42.178022380736586" lon="12.197171308019227"><ele>326.6</ele><time>2026-04-04T07:48:58Z</time></trkpt><trkpt lat="42.17806853577503" lon="12.197293069975494"><ele>326.0</ele><time>2026-04-04T07:49:00Z</time></trkpt><trkpt lat="42.17811985789837" lon="12.197419556093509"><ele>325.4</ele><time>2026-04-04T07:49:02Z</time></trkpt><trkpt lat="42.1781637398799" lon="12.197544228797753"><ele>324.8</ele><time>2026-04-04T07:49:04Z</time></trkpt><trkpt lat="42.17820185310587" lon="12.19766503827669"><ele>324.2</ele><time>2026-04-04T07:49:06Z</time></trkpt><trkpt lat="42.178234773442625" lon="12.197788070136241"><ele>323.59999999999997</ele><time>2026-04-04T07:49:08Z</time></trkpt><trkpt lat="42.178277988708786" lon="12.197910411396691"><ele>323.0</ele><time>2026-04-04T07:49:10Z</time></trkpt><trkpt lat="42.17832187863806" lon="12.198040127061219"><ele>324.59999999999997</ele><time>2026-04-04T07:49:12Z</time></trkpt><trkpt lat="42.17835850400461" lon="12.19816301549323"><ele>326.2</ele><time>2026-04-04T07:49:14Z</time></trkpt><trkpt lat="42.178396717998666" lon="12.19830377334286"><ele>327.8</ele><time>2026-04-04T07:49:16Z</time></trkpt><trkpt lat="42.178431540919284" lon="12.198422773026714"><ele>329.4</ele><time>2026-04-04T07:49:18Z</time></trkpt><trkpt lat="42.17847193231508" lon="12.198549729825364"><ele>331.0</ele><time>2026-04-04T07:49:20Z</time></trkpt><trkpt lat="42.178507938618125" lon="12.198667348011067"><ele>331.20000000000005</ele><time>2026-04-04T07:49:22Z</time></trkpt><trkpt lat="42.178545651495284" lon="12.198805530550615"><ele>331.40000000000003</ele><time>2026-04-04T07:49:24Z</time></trkpt><trkpt lat="42.17858788020085" lon="12.198932569928113"><ele>331.6</ele><time>2026-04-04T07:49:26Z</time></trkpt><trkpt lat="42.178618961566656" lon="12.199074745315643"><ele>331.8</ele><time>2026-04-04T07:49:28Z</time></trkpt><trkpt lat="42.17865175851057" lon="12.199221696370378"><ele>332.0</ele><time>2026-04-04T07:49:30Z</time></trkpt><trkpt lat="42.17869566587094" lon="12.199356537636199"><ele>331.20000000000005</ele><time>2026-04-04T07:49:32Z</time></trkpt><trkpt lat="42.17873189173143" lon="12.199488253735272"><ele>330.4</ele><time>2026-04-04T07:49:34Z</time></trkpt><trkpt lat="42.17877347187573" lon="12.199626469825441"><ele>329.6</ele><time>2026-04-04T07:49:36Z</time></trkpt><trkpt lat="42.17881120965858" lon="12.19975606790435"><ele>328.79999999999995</ele><time>2026-04-04T07:49:38Z</time></trkpt><trkpt lat="42.17884899798705" lon="12.199886793198479"><ele>328.0</ele><time>2026-04-04T07:49:40Z</time></trkpt><trkpt lat="42.17889170985349" lon="12.200016190705538"><ele>327.59999999999997</ele><time>2026-04-04T07:49:42Z</time></trkpt><trkpt lat="42.17892056196199" lon="12.200142207777356"><ele>327.2</ele><time>2026-04-04T07:49:44Z</time></trkpt><trkpt lat="42.17896235729369" lon="12.200281388209048"><ele>326.8</ele><time>2026-04-04T07:49:46Z</time></trkpt><trkpt lat="42.178999473712764" lon="12.200389834518267"><ele>326.4</ele><time>2026-04-04T07:49:48Z</time></trkpt><trkpt lat="42.179033353403426" lon="12.200497228776968"><ele>326.0</ele><time>2026-04-04T07:49:50Z</time></trkpt><trkpt lat="42.179069609327186" lon="12.200637256750003"><ele>327.6</ele><time>2026-04-04T07:49:52Z</time></trkpt><trkpt lat="42.179116133090915" lon="12.20078303591306"><ele>329.20000000000005</ele><time>2026-04-04T07:49:54Z</time></trkpt><trkpt lat="42.17915230677776" lon="12.200905228792537"><ele>330.79999999999995</ele><time>2026-04-04T07:49:56Z</time></trkpt><trkpt lat="42.17919732049061" lon="12.201046341249423"><ele>332.4</ele><time>2026-04-04T07:49:58Z</time></trkpt><trkpt lat="42.179239891450706" lon="12.20118532524279"><ele>334.0</ele><time>2026-04-04T07:50:00Z</time></trkpt><trkpt lat="42.179287179738026" lon="12.201331013558395"><ele>334.0</ele><time>2026-04-04T07:50:02Z</time></trkpt><trkpt lat="42.17932556986419" lon="12.201467253118004"><ele>334.0</ele><time>2026-04-04T07:50:04Z</time></trkpt><trkpt lat="42.17937464259508" lon="12.20160924313521"><ele>334.0</ele><time>2026-04-04T07:50:06Z</time></trkpt><trkpt lat="42.17942454103624" lon="12.201756694616638"><ele>334.0</ele><time>2026-04-04T07:50:08Z</time></trkpt><trkpt lat="42.17947218405029" lon="12.201889884627665"><ele>333.0</ele><time>2026-04-04T07:50:10Z</time></trkpt><trkpt lat="42.1795157843038" lon="12.202026665813525"><ele>332.0</ele><time>2026-04-04T07:50:12Z</time></trkpt><trkpt lat="42.17956183339196" lon="12.202161537249355"><ele>331.0</ele><time>2026-04-04T07:50:14Z</time></trkpt><trkpt lat="42.17960554533404" lon="12.20229435649063"><ele>330.0</ele><time>2026-04-04T07:50:16Z</time></trkpt><trkpt lat="42.17965146051769" lon="12.202426876871069"><ele>329.0</ele><time>2026-04-04T07:50:18Z</time></trkpt><trkpt lat="42.179696374229785" lon="12.202563831704103"><ele>329.1666666666667</ele><time>2026-04-04T07:50:20Z</time></trkpt><trkpt lat="42.1797309625405" lon="12.202702705425644"><ele>329.33333333333337</ele><time>2026-04-04T07:50:22Z</time></trkpt><trkpt lat="42.179793990918654" lon="12.202821126765208"><ele>329.5</ele><time>2026-04-04T07:50:24Z</time></trkpt><trkpt lat="42.179817719751505" lon="12.202936917576311"><ele>329.6666666666667</ele><time>2026-04-04T07:50:26Z</time></trkpt><trkpt lat="42.179854409111286" lon="12.203013697477761"><ele>329.8333333333333</ele><time>2026-04-04T07:50:28Z</time></trkpt><trkpt lat="42.17988196105116" lon="12.203104534822442"><ele>330.0</ele><time>2026-04-04T07:50:29Z</time></trkpt><trkpt lat="42.17992159363129" lon="12.203228418334099"><ele>330.0</ele><time>2026-04-04T07:50:31Z</time></trkpt><trkpt lat="42.17996229643817" lon="12.20334435585194"><ele>330.0</ele><time>2026-04-04T07:50:33Z</time></trkpt><trkpt lat="42.18000613376647" lon="12.20344091354219"><ele>330.0</ele><time>2026-04-04T07:50:35Z</time></trkpt><trkpt lat="42.180049901745626" lon="12.203545508083153"><ele>330.0</ele><time>2026-04-04T07:50:37Z</time></trkpt><trkpt lat="42.1800880741131" lon="12.203660589970028"><ele>330.0</ele><time>2026-04-04T07:50:39Z</time></trkpt><trkpt lat="42.18012719813556" lon="12.203784876735732"><ele>330.0</ele><time>2026-04-04T07:50:41Z</time></trkpt><trkpt lat="42.18016656146085" lon="12.203909209520553"><ele>330.0</ele><time>2026-04-04T07:50:43Z</time></trkpt><trkpt lat="42.180204077573954" lon="12.204037433894086"><ele>330.0</ele><time>2026-04-04T07:50:45Z</time></trkpt><trkpt lat="42.18024600167178" lon="12.204162562627827"><ele>330.0</ele><time>2026-04-04T07:50:47Z</time></trkpt><trkpt lat="42.180290430727034" lon="12.20428769051752"><ele>330.0</ele><time>2026-04-04T07:50:49Z</time></trkpt><trkpt lat="42.18033708322889" lon="12.204399704400286"><ele>328.8</ele><time>2026-04-04T07:50:51Z</time></trkpt><trkpt lat="42.18037218927213" lon="12.20452044815945"><ele>327.6</ele><time>2026-04-04T07:50:53Z</time></trkpt><trkpt lat="42.18041228507699" lon="12.204653095738502"><ele>326.4</ele><time>2026-04-04T07:50:55Z</time></trkpt><trkpt lat="42.18044019051301" lon="12.204768574506218"><ele>325.2</ele><time>2026-04-04T07:50:57Z</time></trkpt><trkpt lat="42.180473273417654" lon="12.20488179909127"><ele>324.0</ele><time>2026-04-04T07:50:59Z</time></trkpt><trkpt lat="42.180515554833306" lon="12.204987311811685"><ele>323.6666666666667</ele><time>2026-04-04T07:51:01Z</time></trkpt><trkpt lat="42.18054984163057" lon="12.205103966039072"><ele>323.3333333333333</ele><time>2026-04-04T07:51:03Z</time></trkpt><trkpt lat="42.180586428215854" lon="12.205210763144965"><ele>323.0</ele><time>2026-04-04T07:51:05Z</time></trkpt><trkpt lat="42.18061735882569" lon="12.205295771177926"><ele>322.66666666666663</ele><time>2026-04-04T07:51:07Z</time></trkpt><trkpt lat="42.18065504015989" lon="12.205380409901462"><ele>322.3333333333333</ele><time>2026-04-04T07:51:10Z</time></trkpt><trkpt lat="42.1806877105655" lon="12.20548285985894"><ele>322.0</ele><time>2026-04-04T07:51:13Z</time></trkpt><trkpt lat="42.18071443860371" lon="12.205575710262048"><ele>323.16666666666663</ele><time>2026-04-04T07:51:50Z</time></trkpt><trkpt lat="42.18073899729006" lon="12.205654698077769"><ele>324.3333333333333</ele><time>2026-04-04T07:51:53Z</time></trkpt><trkpt lat="42.18077374461127" lon="12.205748992914533"><ele>325.5</ele><time>2026-04-04T07:51:56Z</time></trkpt><trkpt lat="42.18080928495909" lon="12.20585795547693"><ele>326.6666666666667</ele><time>2026-04-04T07:51:59Z</time></trkpt><trkpt lat="42.18084262746718" lon="12.205962258967462"><ele>327.83333333333337</ele><time>2026-04-04T07:52:02Z</time></trkpt><trkpt lat="42.18088266997691" lon="12.206075376533784"><ele>329.0</ele><time>2026-04-04T07:52:05Z</time></trkpt><trkpt lat="42.18091028040494" lon="12.206160030530032"><ele>329.0</ele><time>2026-04-04T07:52:07Z</time></trkpt><trkpt lat="42.18094695632648" lon="12.206253169533174"><ele>329.0</ele><time>2026-04-04T07:52:09Z</time></trkpt><trkpt lat="42.18096987097871" lon="12.206347479530272"><ele>329.0</ele><time>2026-04-04T07:52:11Z</time></trkpt><trkpt lat="42.18100086285022" lon="12.206443098456058"><ele>329.0</ele><time>2026-04-04T07:52:13Z</time></trkpt><trkpt lat="42.18103054914357" lon="12.20653946305187"><ele>329.0</ele><time>2026-04-04T07:52:15Z</time></trkpt><trkpt lat="42.18105926298487" lon="12.206631296865433"><ele>329.0</ele><time>2026-04-04T07:52:17Z</time></trkpt><trkpt lat="42.18108647362937" lon="12.206732110267009"><ele>329.0</ele><time>2026-04-04T07:52:19Z</time></trkpt><trkpt lat="42.18110929558063" lon="12.206829858177116"><ele>329.0</ele><time>2026-04-04T07:52:21Z</time></trkpt><trkpt lat="42.181104708266325" lon="12.206938588086443"><ele>329.0</ele><time>2026-04-04T07:52:23Z</time></trkpt><trkpt lat="42.18110590953404" lon="12.207055976032576"><ele>329.0</ele><time>2026-04-04T07:52:25Z</time></trkpt><trkpt lat="42.181079627356766" lon="12.207175085945762"><ele>329.0</ele><time>2026-04-04T07:52:27Z</time></trkpt><trkpt lat="42.18105232813458" lon="12.207299664495428"><ele>329.0</ele><time>2026-04-04T07:52:29Z</time></trkpt><trkpt lat="42.181016348719226" lon="12.207425259035166"><ele>329.1666666666667</ele><time>2026-04-04T07:52:31Z</time></trkpt><trkpt lat="42.180981753009995" lon="12.207542443950642"><ele>329.33333333333337</ele><time>2026-04-04T07:52:33Z</time></trkpt><trkpt lat="42.18098294191431" lon="12.207660457810725"><ele>329.5</ele><time>2026-04-04T07:52:35Z</time></trkpt><trkpt lat="42.180975196559444" lon="12.207766038484456"><ele>329.6666666666667</ele><time>2026-04-04T07:52:37Z</time></trkpt><trkpt lat="42.18094285654687" lon="12.207868187934434"><ele>329.8333333333333</ele><time>2026-04-04T07:52:39Z</time></trkpt><trkpt lat="42.18092245493553" lon="12.207976582620237"><ele>330.0</ele><time>2026-04-04T07:52:41Z</time></trkpt><trkpt lat="42.18089190225974" lon="12.208095145675092"><ele>330.4</ele><time>2026-04-04T07:52:43Z</time></trkpt><trkpt lat="42.18085913853961" lon="12.20823199828588"><ele>330.8</ele><time>2026-04-04T07:52:45Z</time></trkpt><trkpt lat="42.18082247346038" lon="12.208380113447957"><ele>331.20000000000005</ele><time>2026-04-04T07:52:47Z</time></trkpt><trkpt lat="42.18079362571733" lon="12.208459322495575"><ele>331.6</ele><time>2026-04-04T07:52:48Z</time></trkpt><trkpt lat="42.180745032530254" lon="12.208618739538995"><ele>332.0</ele><time>2026-04-04T07:52:50Z</time></trkpt><trkpt lat="42.180725086935674" lon="12.208703510272256"><ele>332.0</ele><time>2026-04-04T07:52:51Z</time></trkpt><trkpt lat="42.18070071367351" lon="12.208788363188306"><ele>332.0</ele><time>2026-04-04T07:52:52Z</time></trkpt><trkpt lat="42.180672000580955" lon="12.208881909281972"><ele>332.0</ele><time>2026-04-04T07:52:53Z</time></trkpt><trkpt lat="42.180637026144375" lon="12.208967566155529"><ele>332.0</ele><time>2026-04-04T07:52:54Z</time></trkpt><trkpt lat="42.1806031105426" lon="12.209040741393716"><ele>332.0</ele><time>2026-04-04T07:52:55Z</time></trkpt><trkpt lat="42.18053820452366" lon="12.209113483519333"><ele>332.0</ele><time>2026-04-04T07:52:57Z</time></trkpt><trkpt lat="42.180490291108654" lon="12.20917024654049"><ele>332.0</ele><time>2026-04-04T07:53:01Z</time></trkpt><trkpt lat="42.18053574770398" lon="12.209103497518717"><ele>331.7142857142857</ele><time>2026-04-04T07:53:13Z</time></trkpt><trkpt lat="42.1805954084004" lon="12.209140719066744"><ele>331.42857142857144</ele><time>2026-04-04T07:53:20Z</time></trkpt><trkpt lat="42.18057811509362" lon="12.209223790459825"><ele>331.14285714285717</ele><time>2026-04-04T07:53:27Z</time></trkpt><trkpt lat="42.18053380077921" lon="12.209288954966098"><ele>330.8571428571429</ele><time>2026-04-04T07:53:38Z</time></trkpt><trkpt lat="42.180500897989525" lon="12.209381199449393"><ele>330.57142857142856</ele><time>2026-04-04T07:54:01Z</time></trkpt><trkpt lat="42.18044168969036" lon="12.20942327621292"><ele>330.28571428571433</ele><time>2026-04-04T07:54:09Z</time></trkpt><trkpt lat="42.18037904648986" lon="12.209438814416437"><ele>330.0</ele><time>2026-04-04T07:54:17Z</time></trkpt><trkpt lat="42.180316139435405" lon="12.209396872591524"><ele>330.0</ele><time>2026-04-04T07:54:25Z</time></trkpt><trkpt lat="42.180279340129495" lon="12.209304501289523"><ele>330.0</ele><time>2026-04-04T07:54:29Z</time></trkpt><trkpt lat="42.1802629946213" lon="12.209218941986467"><ele>330.0</ele><time>2026-04-04T07:54:32Z</time></trkpt><trkpt lat="42.18020692358922" lon="12.209173432718982"><ele>330.0</ele><time>2026-04-04T07:54:34Z</time></trkpt><trkpt lat="42.18013893975858" lon="12.209130874643865"><ele>330.0</ele><time>2026-04-04T07:54:37Z</time></trkpt><trkpt lat="42.18006014940769" lon="12.209056981394317"><ele>330.0</ele><time>2026-04-04T07:54:40Z</time></trkpt><trkpt lat="42.17996527562657" lon="12.209012796903762"><ele>329.8333333333333</ele><time>2026-04-04T07:54:43Z</time></trkpt><trkpt lat="42.179866016486045" lon="12.208977353404553"><ele>329.6666666666667</ele><time>2026-04-04T07:54:45Z</time></trkpt><trkpt lat="42.17979057928559" lon="12.208950617801092"><ele>329.5</ele><time>2026-04-04T07:54:47Z</time></trkpt><trkpt lat="42.17971494517948" lon="12.208934563219028"><ele>329.33333333333337</ele><time>2026-04-04T07:54:49Z</time></trkpt><trkpt lat="42.179643552698984" lon="12.208920629678174"><ele>329.1666666666667</ele><time>2026-04-04T07:54:51Z</time></trkpt><trkpt lat="42.17957125316543" lon="12.208913061071929"><ele>329.0</ele><time>2026-04-04T07:54:53Z</time></trkpt><trkpt lat="42.17949986276533" lon="12.208922143339317"><ele>329.0</ele><time>2026-04-04T07:54:55Z</time></trkpt><trkpt lat="42.17942475165606" lon="12.208920278760308"><ele>329.0</ele><time>2026-04-04T07:54:57Z</time></trkpt><trkpt lat="42.17935153344898" lon="12.208923889688823"><ele>329.0</ele><time>2026-04-04T07:54:59Z</time></trkpt><trkpt lat="42.17927998561815" lon="12.208935711213638"><ele>329.0</ele><time>2026-04-04T07:55:01Z</time></trkpt><trkpt lat="42.17920567116042" lon="12.208941286310978"><ele>329.0</ele><time>2026-04-04T07:55:03Z</time></trkpt><trkpt lat="42.179125470511536" lon="12.208958050941659"><ele>329.0</ele><time>2026-04-04T07:55:05Z</time></trkpt><trkpt lat="42.179038085627376" lon="12.20897124457465"><ele>328.83333333333337</ele><time>2026-04-04T07:55:07Z</time></trkpt><trkpt lat="42.17896443884407" lon="12.208968362567573"><ele>328.6666666666667</ele><time>2026-04-04T07:55:09Z</time></trkpt><trkpt lat="42.17889552409733" lon="12.208961086712474"><ele>328.5</ele><time>2026-04-04T07:55:11Z</time></trkpt><trkpt lat="42.17881780904153" lon="12.20899924115231"><ele>328.3333333333333</ele><time>2026-04-04T07:55:13Z</time></trkpt><trkpt lat="42.178746686487194" lon="12.209014283760014"><ele>328.16666666666663</ele><time>2026-04-04T07:55:15Z</time></trkpt><trkpt lat="42.178671210606396" lon="12.209022301375969"><ele>328.0</ele><time>2026-04-04T07:55:17Z</time></trkpt><trkpt lat="42.17859364249529" lon="12.208993816718023"><ele>328.0</ele><time>2026-04-04T07:55:19Z</time></trkpt><trkpt lat="42.17849212537112" lon="12.2089930865918"><ele>328.0</ele><time>2026-04-04T07:55:21Z</time></trkpt><trkpt lat="42.17840965053326" lon="12.208983042221703"><ele>328.0</ele><time>2026-04-04T07:55:23Z</time></trkpt><trkpt lat="42.17832498909371" lon="12.20895373878392"><ele>328.0</ele><time>2026-04-04T07:55:25Z</time></trkpt><trkpt lat="42.17823903741016" lon="12.20894435325648"><ele>328.0</ele><time>2026-04-04T07:55:27Z</time></trkpt><trkpt lat="42.17815314509406" lon="12.208897193601633"><ele>327.79999999999995</ele><time>2026-04-04T07:55:29Z</time></trkpt><trkpt lat="42.1780560538214" lon="12.208883828667467"><ele>327.6</ele><time>2026-04-04T07:55:31Z</time></trkpt><trkpt lat="42.1779919828915" lon="12.208873157254608"><ele>327.4</ele><time>2026-04-04T07:55:32Z</time></trkpt><trkpt lat="42.17789926948493" lon="12.208850285736812"><ele>327.20000000000005</ele><time>2026-04-04T07:55:34Z</time></trkpt><trkpt lat="42.177767973257616" lon="12.208827555956555"><ele>327.0</ele><time>2026-04-04T07:55:36Z</time></trkpt><trkpt lat="42.17765079566508" lon="12.208807055943197"><ele>327.0</ele><time>2026-04-04T07:55:38Z</time></trkpt><trkpt lat="42.1775460941561" lon="12.208780344374926"><ele>327.0</ele><time>2026-04-04T07:55:40Z</time></trkpt><trkpt lat="42.1774275122073" lon="12.20874571152145"><ele>327.0</ele><time>2026-04-04T07:55:42Z</time></trkpt><trkpt lat="42.17733049811133" lon="12.20868850299562"><ele>327.0</ele><time>2026-04-04T07:55:44Z</time></trkpt><trkpt lat="42.17726600464198" lon="12.208736050281704"><ele>327.0</ele><time>2026-04-04T07:55:45Z</time></trkpt><trkpt lat="42.17716702104081" lon="12.208713324102717"><ele>327.8</ele><time>2026-04-04T07:55:47Z</time></trkpt><trkpt lat="42.17709909645115" lon="12.20871212827867"><ele>328.6</ele><time>2026-04-04T07:55:48Z</time></trkpt><trkpt lat="42.17698241826081" lon="12.208708842795582"><ele>329.40000000000003</ele><time>2026-04-04T07:55:50Z</time></trkpt><trkpt lat="42.17687498446338" lon="12.208732618333384"><ele>330.20000000000005</ele><time>2026-04-04T07:55:52Z</time></trkpt><trkpt lat="42.176761901694334" lon="12.208756819197623"><ele>331.0</ele><time>2026-04-04T07:55:54Z</time></trkpt><trkpt lat="42.17666162483519" lon="12.208781667362802"><ele>331.0</ele><time>2026-04-04T07:55:56Z</time></trkpt><trkpt lat="42.176591581704464" lon="12.208841913963246"><ele>331.0</ele><time>2026-04-04T07:55:58Z</time></trkpt><trkpt lat="42.1765722234022" lon="12.20896481107632"><ele>331.0</ele><time>2026-04-04T07:56:02Z</time></trkpt><trkpt lat="42.17659592002523" lon="12.209068258731046"><ele>331.0</ele><time>2026-04-04T07:56:05Z</time></trkpt><trkpt lat="42.176579011260465" lon="12.209157766167413"><ele>331.0</ele><time>2026-04-04T07:56:08Z</time></trkpt><trkpt lat="42.17657200571087" lon="12.209249125142172"><ele>331.0</ele><time>2026-04-04T07:56:11Z</time></trkpt><trkpt lat="42.17656932585512" lon="12.209355545394505"><ele>333.3333333333333</ele><time>2026-04-04T07:56:15Z</time></trkpt><trkpt lat="42.17656127887168" lon="12.209446064823412"><ele>335.66666666666663</ele><time>2026-04-04T07:56:17Z</time></trkpt><trkpt lat="42.17655271838472" lon="12.20955977579671"><ele>338.0</ele><time>2026-04-04T07:56:21Z</time></trkpt><trkpt lat="42.17656121039856" lon="12.209652441563836"><ele>340.3333333333333</ele><time>2026-04-04T07:56:24Z</time></trkpt><trkpt lat="42.17656386538045" lon="12.209765919755634"><ele>342.6666666666667</ele><time>2026-04-04T07:56:28Z</time></trkpt><trkpt lat="42.17657351464155" lon="12.209872885361655"><ele>345.0</ele><time>2026-04-04T07:56:31Z</time></trkpt><trkpt lat="42.176580621601424" lon="12.209968496483672"><ele>346.3333333333333</ele><time>2026-04-04T07:56:34Z</time></trkpt><trkpt lat="42.17658181071768" lon="12.210069290396726"><ele>347.6666666666667</ele><time>2026-04-04T07:56:37Z</time></trkpt><trkpt lat="42.17657867417648" lon="12.210170273381017"><ele>349.0</ele><time>2026-04-04T07:56:40Z</time></trkpt><trkpt lat="42.176572301846825" lon="12.210284710061387"><ele>350.33333333333337</ele><time>2026-04-04T07:56:43Z</time></trkpt><trkpt lat="42.17657549779778" lon="12.210394581590494"><ele>351.6666666666667</ele><time>2026-04-04T07:56:46Z</time></trkpt><trkpt lat="42.17657216795753" lon="12.210518306988806"><ele>353.0</ele><time>2026-04-04T07:56:49Z</time></trkpt><trkpt lat="42.17657602369351" lon="12.210637210295106"><ele>352.1666666666667</ele><time>2026-04-04T07:56:52Z</time></trkpt><trkpt lat="42.1765668452309" lon="12.21072863439693"><ele>351.33333333333337</ele><time>2026-04-04T07:56:54Z</time></trkpt><trkpt lat="42.17656233894607" lon="12.210849641246428"><ele>350.5</ele><time>2026-04-04T07:56:57Z</time></trkpt><trkpt lat="42.17655114228531" lon="12.210944828432913"><ele>349.6666666666667</ele><time>2026-04-04T07:56:59Z</time></trkpt><trkpt lat="42.176541155030776" lon="12.211054551752053"><ele>348.8333333333333</ele><time>2026-04-04T07:57:01Z</time></trkpt><trkpt lat="42.17654077588499" lon="12.211160090131704"><ele>348.0</ele><time>2026-04-04T07:57:03Z</time></trkpt><trkpt lat="42.17654086712238" lon="12.21125463207032"><ele>348.0</ele><time>2026-04-04T07:57:05Z</time></trkpt><trkpt lat="42.176541158002884" lon="12.211361509737568"><ele>348.0</ele><time>2026-04-04T07:57:07Z</time></trkpt><trkpt lat="42.17654944191884" lon="12.211475146727457"><ele>348.0</ele><time>2026-04-04T07:57:10Z</time></trkpt><trkpt lat="42.176554909999496" lon="12.211596804375633"><ele>348.0</ele><time>2026-04-04T07:57:12Z</time></trkpt><trkpt lat="42.17653807172126" lon="12.211696521805283"><ele>348.0</ele><time>2026-04-04T07:57:14Z</time></trkpt><trkpt lat="42.176544267439546" lon="12.211796405683637"><ele>348.0</ele><time>2026-04-04T07:57:16Z</time></trkpt><trkpt lat="42.17654497925989" lon="12.211917492679785"><ele>347.0</ele><time>2026-04-04T07:57:18Z</time></trkpt><trkpt lat="42.17653797962403" lon="12.212046252518695"><ele>346.0</ele><time>2026-04-04T07:57:20Z</time></trkpt><trkpt lat="42.17652373882852" lon="12.212141727785186"><ele>345.0</ele><time>2026-04-04T07:57:22Z</time></trkpt><trkpt lat="42.17653912623909" lon="12.212233769658612"><ele>344.0</ele><time>2026-04-04T07:57:24Z</time></trkpt><trkpt lat="42.17654709368108" lon="12.212333011536813"><ele>343.0</ele><time>2026-04-04T07:57:26Z</time></trkpt><trkpt lat="42.17654027763026" lon="12.212421458064162"><ele>342.0</ele><time>2026-04-04T07:57:28Z</time></trkpt><trkpt lat="42.17650916450083" lon="12.212542104189085"><ele>341.8333333333333</ele><time>2026-04-04T07:57:31Z</time></trkpt><trkpt lat="42.17649236532627" lon="12.212629706447549"><ele>341.6666666666667</ele><time>2026-04-04T07:57:33Z</time></trkpt><trkpt lat="42.17648193149513" lon="12.212753289721833"><ele>341.5</ele><time>2026-04-04T07:57:36Z</time></trkpt><trkpt lat="42.176477396038074" lon="12.212846105871257"><ele>341.33333333333337</ele><time>2026-04-04T07:57:38Z</time></trkpt><trkpt lat="42.17647285339187" lon="12.21293350294509"><ele>341.1666666666667</ele><time>2026-04-04T07:57:40Z</time></trkpt><trkpt lat="42.17647027662346" lon="12.213065067811902"><ele>341.0</ele><time>2026-04-04T07:57:43Z</time></trkpt><trkpt lat="42.17646792036618" lon="12.213193362340274"><ele>341.6666666666667</ele><time>2026-04-04T07:57:46Z</time></trkpt><trkpt lat="42.176469468442065" lon="12.213279645714772"><ele>342.33333333333337</ele><time>2026-04-04T07:57:48Z</time></trkpt><trkpt lat="42.17646678068695" lon="12.213389936367362"><ele>343.0</ele><time>2026-04-04T07:57:51Z</time></trkpt><trkpt lat="42.176518536256275" lon="12.213460286308683"><ele>343.6666666666667</ele><time>2026-04-04T08:00:55Z</time></trkpt><trkpt lat="42.17659936927501" lon="12.213503935607445"><ele>344.3333333333333</ele><time>2026-04-04T08:00:59Z</time></trkpt><trkpt lat="42.17667014248419" lon="12.213514190900831"><ele>345.0</ele><time>2026-04-04T08:01:01Z</time></trkpt><trkpt lat="42.176758487411455" lon="12.2135217275621"><ele>345.1666666666667</ele><time>2026-04-04T08:01:03Z</time></trkpt><trkpt lat="42.176830396403396" lon="12.21353414268521"><ele>345.3333333333333</ele><time>2026-04-04T08:01:05Z</time></trkpt><trkpt lat="42.17690766082068" lon="12.213533591085582"><ele>345.5</ele><time>2026-04-04T08:01:07Z</time></trkpt><trkpt lat="42.17698716788329" lon="12.213534352360247"><ele>345.66666666666663</ele><time>2026-04-04T08:01:09Z</time></trkpt><trkpt lat="42.17706899203999" lon="12.213535166108333"><ele>345.8333333333333</ele><time>2026-04-04T08:01:11Z</time></trkpt><trkpt lat="42.177144034736706" lon="12.21354018585493"><ele>346.0</ele><time>2026-04-04T08:01:13Z</time></trkpt><trkpt lat="42.17722456600951" lon="12.213537345530534"><ele>346.0</ele><time>2026-04-04T08:01:15Z</time></trkpt><trkpt lat="42.17729697796104" lon="12.21354139391339"><ele>346.0</ele><time>2026-04-04T08:01:17Z</time></trkpt><trkpt lat="42.17737015914964" lon="12.213547960029105"><ele>346.0</ele><time>2026-04-04T08:01:19Z</time></trkpt><trkpt lat="42.1774501030053" lon="12.213552249343284"><ele>346.0</ele><time>2026-04-04T08:01:21Z</time></trkpt><trkpt lat="42.177531134278006" lon="12.213554503046645"><ele>346.0</ele><time>2026-04-04T08:01:23Z</time></trkpt><trkpt lat="42.17761179836354" lon="12.21355021471231"><ele>346.0</ele><time>2026-04-04T08:01:25Z</time></trkpt><trkpt lat="42.17769437425814" lon="12.213556783983211"><ele>346.5</ele><time>2026-04-04T08:01:27Z</time></trkpt><trkpt lat="42.17777451752099" lon="12.213562373622493"><ele>347.0</ele><time>2026-04-04T08:01:29Z</time></trkpt><trkpt lat="42.177850360927216" lon="12.213566215141299"><ele>347.5</ele><time>2026-04-04T08:01:31Z</time></trkpt><trkpt lat="42.17792085634029" lon="12.213581986535072"><ele>348.0</ele><time>2026-04-04T08:01:33Z</time></trkpt><trkpt lat="42.17799455883047" lon="12.21357217008336"><ele>348.5</ele><time>2026-04-04T08:01:35Z</time></trkpt><trkpt lat="42.1780682814662" lon="12.213574899176045"><ele>349.0</ele><time>2026-04-04T08:01:37Z</time></trkpt><trkpt lat="42.17815138785027" lon="12.213576285281276"><ele>349.66666666666663</ele><time>2026-04-04T08:01:39Z</time></trkpt><trkpt lat="42.178227223788646" lon="12.213575158129013"><ele>350.3333333333333</ele><time>2026-04-04T08:01:41Z</time></trkpt><trkpt lat="42.17830629195419" lon="12.213572551188404"><ele>351.0</ele><time>2026-04-04T08:01:43Z</time></trkpt><trkpt lat="42.17840204993131" lon="12.21358849398895"><ele>351.6666666666667</ele><time>2026-04-04T08:01:46Z</time></trkpt><trkpt lat="42.17848080934569" lon="12.213585938306693"><ele>352.33333333333337</ele><time>2026-04-04T08:01:48Z</time></trkpt><trkpt lat="42.17857293693546" lon="12.213595215852974"><ele>353.0</ele><time>2026-04-04T08:01:51Z</time></trkpt><trkpt lat="42.178661196471474" lon="12.213595747836097"><ele>353.0</ele><time>2026-04-04T08:01:53Z</time></trkpt><trkpt lat="42.17872724224059" lon="12.213597117984587"><ele>353.0</ele><time>2026-04-04T08:01:55Z</time></trkpt><trkpt lat="42.178793033235465" lon="12.213596391171281"><ele>353.0</ele><time>2026-04-04T08:01:57Z</time></trkpt><trkpt lat="42.17885592813305" lon="12.213601705961452"><ele>353.0</ele><time>2026-04-04T08:01:59Z</time></trkpt><trkpt lat="42.178951437114684" lon="12.213605151874718"><ele>353.0</ele><time>2026-04-04T08:02:02Z</time></trkpt><trkpt lat="42.179030995784665" lon="12.213604583413845"><ele>353.0</ele><time>2026-04-04T08:02:05Z</time></trkpt><trkpt lat="42.1791158471104" lon="12.213604456687486"><ele>354.0</ele><time>2026-04-04T08:02:08Z</time></trkpt><trkpt lat="42.17920568605144" lon="12.213602165712832"><ele>355.0</ele><time>2026-04-04T08:02:11Z</time></trkpt><trkpt lat="42.17928326500568" lon="12.21361007408457"><ele>356.0</ele><time>2026-04-04T08:02:14Z</time></trkpt><trkpt lat="42.17936277267549" lon="12.213610784415787"><ele>357.0</ele><time>2026-04-04T08:02:17Z</time></trkpt><trkpt lat="42.179426031396986" lon="12.213613057723583"><ele>358.0</ele><time>2026-04-04T08:02:19Z</time></trkpt><trkpt lat="42.17949877790422" lon="12.213624000291324"><ele>359.0</ele><time>2026-04-04T08:02:22Z</time></trkpt><trkpt lat="42.179580019033544" lon="12.213639532593211"><ele>359.0</ele><time>2026-04-04T08:02:25Z</time></trkpt><trkpt lat="42.17967808567887" lon="12.213656491069216"><ele>359.0</ele><time>2026-04-04T08:02:28Z</time></trkpt><trkpt lat="42.179768357125205" lon="12.213674269367381"><ele>359.0</ele><time>2026-04-04T08:02:31Z</time></trkpt><trkpt lat="42.17985684171877" lon="12.213695355419606"><ele>359.0</ele><time>2026-04-04T08:02:34Z</time></trkpt><trkpt lat="42.17992728133425" lon="12.213711033131595"><ele>359.0</ele><time>2026-04-04T08:02:36Z</time></trkpt><trkpt lat="42.179999025851075" lon="12.213715969267962"><ele>359.0</ele><time>2026-04-04T08:02:38Z</time></trkpt><trkpt lat="42.180096624267854" lon="12.2137488310737"><ele>359.0</ele><time>2026-04-04T08:02:41Z</time></trkpt><trkpt lat="42.18017024218466" lon="12.213766660505273"><ele>359.0</ele><time>2026-04-04T08:02:43Z</time></trkpt><trkpt lat="42.180259829619146" lon="12.213792977792572"><ele>359.0</ele><time>2026-04-04T08:02:45Z</time></trkpt><trkpt lat="42.18037282104749" lon="12.213815567502497"><ele>359.0</ele><time>2026-04-04T08:02:47Z</time></trkpt><trkpt lat="42.18046904284275" lon="12.21381350709245"><ele>359.0</ele><time>2026-04-04T08:02:49Z</time></trkpt><trkpt lat="42.1805759981914" lon="12.21382617101359"><ele>359.0</ele><time>2026-04-04T08:02:51Z</time></trkpt><trkpt lat="42.180663694803876" lon="12.21386955065276"><ele>359.0</ele><time>2026-04-04T08:02:53Z</time></trkpt><trkpt lat="42.180747363607935" lon="12.213935430052286"><ele>359.0</ele><time>2026-04-04T08:02:57Z</time></trkpt><trkpt lat="42.180824637586966" lon="12.213951782039443"><ele>359.0</ele><time>2026-04-04T08:02:58Z</time></trkpt><trkpt lat="42.180945553954594" lon="12.213969594638245"><ele>359.0</ele><time>2026-04-04T08:03:00Z</time></trkpt><trkpt lat="42.18105439701309" lon="12.214004436847082"><ele>358.79999999999995</ele><time>2026-04-04T08:03:02Z</time></trkpt><trkpt lat="42.18115741431195" lon="12.21403186002245"><ele>358.59999999999997</ele><time>2026-04-04T08:03:04Z</time></trkpt><trkpt lat="42.181254650504954" lon="12.214065848144907"><ele>358.4</ele><time>2026-04-04T08:03:06Z</time></trkpt><trkpt lat="42.18136089325566" lon="12.214082980437396"><ele>358.2</ele><time>2026-04-04T08:03:08Z</time></trkpt><trkpt lat="42.1814249220056" lon="12.214107083830575"><ele>358.0</ele><time>2026-04-04T08:03:11Z</time></trkpt><trkpt lat="42.18150542909197" lon="12.214128132785138"><ele>357.3333333333333</ele><time>2026-04-04T08:03:14Z</time></trkpt><trkpt lat="42.181589411830565" lon="12.214160213807297"><ele>356.66666666666663</ele><time>2026-04-04T08:03:17Z</time></trkpt><trkpt lat="42.181653066883435" lon="12.214171847503668"><ele>356.0</ele><time>2026-04-04T08:03:18Z</time></trkpt><trkpt lat="42.181741851508505" lon="12.214179426976482"><ele>355.3333333333333</ele><time>2026-04-04T08:03:20Z</time></trkpt><trkpt lat="42.18181353443419" lon="12.21419713878019"><ele>354.6666666666667</ele><time>2026-04-04T08:03:22Z</time></trkpt><trkpt lat="42.1818831172193" lon="12.214221856161345"><ele>354.0</ele><time>2026-04-04T08:03:24Z</time></trkpt><trkpt lat="42.1819669213566" lon="12.214236766928243"><ele>354.0</ele><time>2026-04-04T08:03:26Z</time></trkpt><trkpt lat="42.182043104929036" lon="12.214254998660143"><ele>354.0</ele><time>2026-04-04T08:03:28Z</time></trkpt><trkpt lat="42.18212996563325" lon="12.21427988828175"><ele>354.0</ele><time>2026-04-04T08:03:31Z</time></trkpt><trkpt lat="42.18219327628639" lon="12.214308518429768"><ele>354.0</ele><time>2026-04-04T08:03:33Z</time></trkpt><trkpt lat="42.18227745501266" lon="12.214318257304097"><ele>354.0</ele><time>2026-04-04T08:03:35Z</time></trkpt><trkpt lat="42.182356065964626" lon="12.214335279964933"><ele>354.0</ele><time>2026-04-04T08:03:37Z</time></trkpt><trkpt lat="42.18243118737196" lon="12.214356430984221"><ele>354.0</ele><time>2026-04-04T08:03:39Z</time></trkpt><trkpt lat="42.182513733833524" lon="12.21437658860633"><ele>354.0</ele><time>2026-04-04T08:03:41Z</time></trkpt><trkpt lat="42.18258156421697" lon="12.214402954368442"><ele>354.0</ele><time>2026-04-04T08:03:43Z</time></trkpt><trkpt lat="42.182656660205005" lon="12.214413200524753"><ele>354.0</ele><time>2026-04-04T08:03:45Z</time></trkpt><trkpt lat="42.18274386469044" lon="12.214427067614121"><ele>354.0</ele><time>2026-04-04T08:03:47Z</time></trkpt><trkpt lat="42.18280568673383" lon="12.214456349443505"><ele>354.0</ele><time>2026-04-04T08:03:49Z</time></trkpt><trkpt lat="42.18288361577792" lon="12.214473731890456"><ele>354.0</ele><time>2026-04-04T08:03:51Z</time></trkpt><trkpt lat="42.182965218990105" lon="12.214489705192067"><ele>354.0</ele><time>2026-04-04T08:03:53Z</time></trkpt><trkpt lat="42.18302870503437" lon="12.214507409894553"><ele>354.0</ele><time>2026-04-04T08:03:55Z</time></trkpt><trkpt lat="42.18310056464946" lon="12.214531538643866"><ele>354.0</ele><time>2026-04-04T08:03:57Z</time></trkpt><trkpt lat="42.1831811845992" lon="12.214549116948898"><ele>354.0</ele><time>2026-04-04T08:03:59Z</time></trkpt><trkpt lat="42.18326709167439" lon="12.214562313899673"><ele>354.0</ele><time>2026-04-04T08:04:01Z</time></trkpt><trkpt lat="42.18334701365675" lon="12.21457768231477"><ele>354.1666666666667</ele><time>2026-04-04T08:04:03Z</time></trkpt><trkpt lat="42.1834220657353" lon="12.214603307244783"><ele>354.3333333333333</ele><time>2026-04-04T08:04:05Z</time></trkpt><trkpt lat="42.183501079483605" lon="12.214626561798458"><ele>354.5</ele><time>2026-04-04T08:04:07Z</time></trkpt><trkpt lat="42.18357411867575" lon="12.214641400297154"><ele>354.66666666666663</ele><time>2026-04-04T08:04:09Z</time></trkpt><trkpt lat="42.18364480068657" lon="12.214660175417082"><ele>354.8333333333333</ele><time>2026-04-04T08:04:11Z</time></trkpt><trkpt lat="42.18372343901625" lon="12.214677949359197"><ele>355.0</ele><time>2026-04-04T08:04:13Z</time></trkpt><trkpt lat="42.183799683232806" lon="12.214697460416845"><ele>355.0</ele><time>2026-04-04T08:04:15Z</time></trkpt><trkpt lat="42.183881063043124" lon="12.214705214446264"><ele>355.0</ele><time>2026-04-04T08:04:17Z</time></trkpt><trkpt lat="42.18394451744037" lon="12.214725754671367"><ele>355.0</ele><time>2026-04-04T08:04:19Z</time></trkpt><trkpt lat="42.184040786501" lon="12.214753589018171"><ele>355.0</ele><time>2026-04-04T08:04:22Z</time></trkpt><trkpt lat="42.18411053618027" lon="12.21477539292062"><ele>355.0</ele><time>2026-04-04T08:04:24Z</time></trkpt><trkpt lat="42.18418436718545" lon="12.214795149155893"><ele>355.0</ele><time>2026-04-04T08:04:26Z</time></trkpt><trkpt lat="42.184263348986946" lon="12.214809855755428"><ele>356.3333333333333</ele><time>2026-04-04T08:04:28Z</time></trkpt><trkpt lat="42.18433413560523" lon="12.214826198142626"><ele>357.66666666666663</ele><time>2026-04-04T08:04:30Z</time></trkpt><trkpt lat="42.1844069175613" lon="12.214839805139876"><ele>359.0</ele><time>2026-04-04T08:04:32Z</time></trkpt><trkpt lat="42.18447856659497" lon="12.214855971761736"><ele>360.3333333333333</ele><time>2026-04-04T08:04:34Z</time></trkpt><trkpt lat="42.18456180002464" lon="12.214875531224529"><ele>361.6666666666667</ele><time>2026-04-04T08:04:37Z</time></trkpt><trkpt lat="42.18462469129548" lon="12.214890970467987"><ele>363.0</ele><time>2026-04-04T08:04:39Z</time></trkpt><trkpt lat="42.18471656858728" lon="12.2149095892977"><ele>363.0</ele><time>2026-04-04T08:04:42Z</time></trkpt><trkpt lat="42.18480136762544" lon="12.214928822470643"><ele>363.0</ele><time>2026-04-04T08:04:45Z</time></trkpt><trkpt lat="42.18488275526668" lon="12.214951298545369"><ele>363.0</ele><time>2026-04-04T08:04:48Z</time></trkpt><trkpt lat="42.184956205316155" lon="12.21498189990335"><ele>363.0</ele><time>2026-04-04T08:04:51Z</time></trkpt><trkpt lat="42.185019140770635" lon="12.214993642698703"><ele>363.0</ele><time>2026-04-04T08:04:54Z</time></trkpt><trkpt lat="42.18510508059965" lon="12.215020479688697"><ele>363.0</ele><time>2026-04-04T08:04:57Z</time></trkpt><trkpt lat="42.18518691706883" lon="12.215034673999265"><ele>363.1428571428571</ele><time>2026-04-04T08:05:00Z</time></trkpt><trkpt lat="42.18526954801098" lon="12.215052788453535"><ele>363.2857142857143</ele><time>2026-04-04T08:05:03Z</time></trkpt><trkpt lat="42.185337569183055" lon="12.215073244636104"><ele>363.42857142857144</ele><time>2026-04-04T08:05:06Z</time></trkpt><trkpt lat="42.185403215644406" lon="12.215088694877087"><ele>363.57142857142856</ele><time>2026-04-04T08:05:09Z</time></trkpt><trkpt lat="42.185473270257695" lon="12.215096492531693"><ele>363.7142857142857</ele><time>2026-04-04T08:05:11Z</time></trkpt><trkpt lat="42.185547524971355" lon="12.215112779071271"><ele>363.85714285714283</ele><time>2026-04-04T08:05:14Z</time></trkpt><trkpt lat="42.18561773678323" lon="12.21513537736333"><ele>364.0</ele><time>2026-04-04T08:05:17Z</time></trkpt><trkpt lat="42.18570292701481" lon="12.215145709066212"><ele>365.16666666666663</ele><time>2026-04-04T08:05:20Z</time></trkpt><trkpt lat="42.18578500166412" lon="12.215159509402469"><ele>366.3333333333333</ele><time>2026-04-04T08:05:23Z</time></trkpt><trkpt lat="42.18584789604967" lon="12.21516914259261"><ele>367.5</ele><time>2026-04-04T08:05:25Z</time></trkpt><trkpt lat="42.185932470083735" lon="12.215191339555004"><ele>368.6666666666667</ele><time>2026-04-04T08:05:29Z</time></trkpt><trkpt lat="42.18600344199599" lon="12.215218727357882"><ele>369.83333333333337</ele><time>2026-04-04T08:05:33Z</time></trkpt><trkpt lat="42.186079770931" lon="12.21522740701119"><ele>371.0</ele><time>2026-04-04T08:05:36Z</time></trkpt><trkpt lat="42.1861476108537" lon="12.215244897398343"><ele>371.0</ele><time>2026-04-04T08:05:40Z</time></trkpt><trkpt lat="42.186229747664356" lon="12.215269685005483"><ele>371.0</ele><time>2026-04-04T08:05:50Z</time></trkpt><trkpt lat="42.18629681012138" lon="12.215290900890166"><ele>371.0</ele><time>2026-04-04T08:05:53Z</time></trkpt><trkpt lat="42.18636492098996" lon="12.215301992328936"><ele>371.0</ele><time>2026-04-04T08:05:56Z</time></trkpt><trkpt lat="42.18644327182082" lon="12.215321631685747"><ele>371.0</ele><time>2026-04-04T08:06:00Z</time></trkpt><trkpt lat="42.18651648635754" lon="12.21534187877528"><ele>371.0</ele><time>2026-04-04T08:06:04Z</time></trkpt><trkpt lat="42.18658733846696" lon="12.215356897007629"><ele>371.0</ele><time>2026-04-04T08:06:07Z</time></trkpt><trkpt lat="42.18666208853875" lon="12.215358367363038"><ele>372.2857142857143</ele><time>2026-04-04T08:06:21Z</time></trkpt><trkpt lat="42.186725397874945" lon="12.215356721757175"><ele>373.57142857142856</ele><time>2026-04-04T08:06:24Z</time></trkpt><trkpt lat="42.186789831734906" lon="12.215329812299462"><ele>374.8571428571429</ele><time>2026-04-04T08:06:27Z</time></trkpt><trkpt lat="42.186864304465495" lon="12.215309778218694"><ele>376.1428571428571</ele><time>2026-04-04T08:06:30Z</time></trkpt><trkpt lat="42.186957810044944" lon="12.21526084783185"><ele>377.42857142857144</ele><time>2026-04-04T08:06:34Z</time></trkpt><trkpt lat="42.187020041811" lon="12.215237023117037"><ele>378.7142857142857</ele><time>2026-04-04T08:06:37Z</time></trkpt><trkpt lat="42.18708193810801" lon="12.215199344021185"><ele>380.0</ele><time>2026-04-04T08:06:40Z</time></trkpt><trkpt lat="42.187143051921666" lon="12.215175584624456"><ele>380.0</ele><time>2026-04-04T08:06:43Z</time></trkpt><trkpt lat="42.18721713154856" lon="12.215129767712542"><ele>380.0</ele><time>2026-04-04T08:06:47Z</time></trkpt><trkpt lat="42.18728806248596" lon="12.215111491788223"><ele>380.0</ele><time>2026-04-04T08:06:50Z</time></trkpt><trkpt lat="42.18735042326307" lon="12.215081546293304"><ele>380.0</ele><time>2026-04-04T08:06:54Z</time></trkpt><trkpt lat="42.18740961624926" lon="12.215040288158498"><ele>380.0</ele><time>2026-04-04T08:07:11Z</time></trkpt><trkpt lat="42.18750825084079" lon="12.21499625578651"><ele>380.0</ele><time>2026-04-04T08:07:22Z</time></trkpt><trkpt lat="42.187573011541566" lon="12.214975718023052"><ele>381.42857142857144</ele><time>2026-04-04T08:07:41Z</time></trkpt><trkpt lat="42.18763470237896" lon="12.214951186479896"><ele>382.8571428571429</ele><time>2026-04-04T08:07:52Z</time></trkpt><trkpt lat="42.18771942836341" lon="12.214918626971965"><ele>384.2857142857143</ele><time>2026-04-04T08:08:06Z</time></trkpt><trkpt lat="42.1877772393042" lon="12.214876541709014"><ele>385.7142857142857</ele><time>2026-04-04T08:08:15Z</time></trkpt><trkpt lat="42.18784376580453" lon="12.214873367348"><ele>387.1428571428571</ele><time>2026-04-04T08:08:21Z</time></trkpt><trkpt lat="42.18790788192521" lon="12.214854571189726"><ele>388.57142857142856</ele><time>2026-04-04T08:08:28Z</time></trkpt><trkpt lat="42.1879727418277" lon="12.214850388250737"><ele>390.0</ele><time>2026-04-04T08:08:37Z</time></trkpt><trkpt lat="42.18804026634643" lon="12.21480371441263"><ele>390.1666666666667</ele><time>2026-04-04T08:08:45Z</time></trkpt><trkpt lat="42.18810964328681" lon="12.214760462568574"><ele>390.33333333333337</ele><time>2026-04-04T08:08:48Z</time></trkpt><trkpt lat="42.18818158356624" lon="12.214727494362046"><ele>390.5</ele><time>2026-04-04T08:08:51Z</time></trkpt><trkpt lat="42.18825985560409" lon="12.21472095572674"><ele>390.6666666666667</ele><time>2026-04-04T08:08:54Z</time></trkpt><trkpt lat="42.188359310465046" lon="12.214750595944482"><ele>390.83333333333337</ele><time>2026-04-04T08:08:58Z</time></trkpt><trkpt lat="42.188434715944084" lon="12.214748731397009"><ele>391.0</ele><time>2026-04-04T08:09:02Z</time></trkpt><trkpt lat="42.18850615677098" lon="12.214754873982509"><ele>392.1666666666667</ele><time>2026-04-04T08:09:04Z</time></trkpt><trkpt lat="42.18858228070163" lon="12.214756592385147"><ele>393.33333333333337</ele><time>2026-04-04T08:09:07Z</time></trkpt><trkpt lat="42.188654678334984" lon="12.214758779930929"><ele>394.5</ele><time>2026-04-04T08:09:10Z</time></trkpt><trkpt lat="42.188738070952176" lon="12.214756058516228"><ele>395.66666666666663</ele><time>2026-04-04T08:09:13Z</time></trkpt><trkpt lat="42.18881521297166" lon="12.214761740961205"><ele>396.8333333333333</ele><time>2026-04-04T08:09:16Z</time></trkpt><trkpt lat="42.18888836691229" lon="12.21474195537997"><ele>398.0</ele><time>2026-04-04T08:09:19Z</time></trkpt><trkpt lat="42.18897873346756" lon="12.214719556625637"><ele>399.66666666666663</ele><time>2026-04-04T08:09:24Z</time></trkpt><trkpt lat="42.18906062763161" lon="12.214707489749657"><ele>401.3333333333333</ele><time>2026-04-04T08:09:27Z</time></trkpt><trkpt lat="42.18912557941843" lon="12.214646382738998"><ele>403.0</ele><time>2026-04-04T08:09:31Z</time></trkpt><trkpt lat="42.18919985867917" lon="12.214575140706986"><ele>404.66666666666663</ele><time>2026-04-04T08:09:34Z</time></trkpt><trkpt lat="42.1892727976985" lon="12.21453310405018"><ele>406.3333333333333</ele><time>2026-04-04T08:09:37Z</time></trkpt><trkpt lat="42.18932030594157" lon="12.214466594756063"><ele>408.0</ele><time>2026-04-04T08:09:39Z</time></trkpt><trkpt lat="42.18939611973473" lon="12.214400301540683"><ele>408.0</ele><time>2026-04-04T08:09:42Z</time></trkpt><trkpt lat="42.189452686401516" lon="12.21432333576541"><ele>408.0</ele><time>2026-04-04T08:09:44Z</time></trkpt><trkpt lat="42.18951362554781" lon="12.21425389454414"><ele>408.0</ele><time>2026-04-04T08:09:47Z</time></trkpt><trkpt lat="42.189595719303604" lon="12.214194505828965"><ele>408.0</ele><time>2026-04-04T08:09:50Z</time></trkpt><trkpt lat="42.18967125933465" lon="12.21412760505248"><ele>408.0</ele><time>2026-04-04T08:09:52Z</time></trkpt><trkpt lat="42.189736407522176" lon="12.214085891823574"><ele>408.0</ele><time>2026-04-04T08:09:54Z</time></trkpt><trkpt lat="42.18986600006206" lon="12.214019425417003"><ele>409.5</ele><time>2026-04-04T08:09:57Z</time></trkpt><trkpt lat="42.18993449267785" lon="12.21399430178455"><ele>411.0</ele><time>2026-04-04T08:09:59Z</time></trkpt><trkpt lat="42.189985773767496" lon="12.213935955909703"><ele>412.5</ele><time>2026-04-04T08:10:00Z</time></trkpt><trkpt lat="42.19006476046388" lon="12.213920843789403"><ele>414.0</ele><time>2026-04-04T08:10:02Z</time></trkpt><trkpt lat="42.1901439689078" lon="12.213876528081288"><ele>415.5</ele><time>2026-04-04T08:10:04Z</time></trkpt><trkpt lat="42.19023439388988" lon="12.213805001097288"><ele>417.0</ele><time>2026-04-04T08:10:06Z</time></trkpt><trkpt lat="42.19032874933846" lon="12.213727467149885"><ele>417.0</ele><time>2026-04-04T08:10:08Z</time></trkpt><trkpt lat="42.19043018152526" lon="12.213681721159684"><ele>417.0</ele><time>2026-04-04T08:10:10Z</time></trkpt><trkpt lat="42.190636430250485" lon="12.213836343472797"><ele>417.0</ele><time>2026-04-04T08:10:15Z</time></trkpt><trkpt lat="42.19072892428739" lon="12.213916707186478"><ele>417.6</ele><time>2026-04-04T08:10:17Z</time></trkpt><trkpt lat="42.190830799368314" lon="12.21399172114951"><ele>418.20000000000005</ele><time>2026-04-04T08:10:19Z</time></trkpt><trkpt lat="42.19094131011472" lon="12.21407368280909"><ele>418.8</ele><time>2026-04-04T08:10:21Z</time></trkpt><trkpt lat="42.19104709319249" lon="12.214157538012882"><ele>419.4</ele><time>2026-04-04T08:10:23Z</time></trkpt><trkpt lat="42.191114624143395" lon="12.214197377529203"><ele>420.0</ele><time>2026-04-04T08:10:24Z</time></trkpt><trkpt lat="42.1911768410743" lon="12.214235051074168"><ele>420.0</ele><time>2026-04-04T08:10:25Z</time></trkpt><trkpt lat="42.19128974398493" lon="12.214301468955732"><ele>420.0</ele><time>2026-04-04T08:10:27Z</time></trkpt><trkpt lat="42.191349785551" lon="12.214342663692332"><ele>420.0</ele><time>2026-04-04T08:10:28Z</time></trkpt><trkpt lat="42.191411665306155" lon="12.214385221979164"><ele>420.0</ele><time>2026-04-04T08:10:29Z</time></trkpt><trkpt lat="42.191468106140356" lon="12.214424511503681"><ele>420.0</ele><time>2026-04-04T08:10:30Z</time></trkpt><trkpt lat="42.191534825563544" lon="12.214453254329424"><ele>420.0</ele><time>2026-04-04T08:10:31Z</time></trkpt><trkpt lat="42.19159655181534" lon="12.214489196031064"><ele>419.0</ele><time>2026-04-04T08:10:32Z</time></trkpt><trkpt lat="42.19170587518345" lon="12.214561932014764"><ele>418.0</ele><time>2026-04-04T08:10:34Z</time></trkpt><trkpt lat="42.19180021672177" lon="12.214644015668771"><ele>417.0</ele><time>2026-04-04T08:10:36Z</time></trkpt><trkpt lat="42.19191778133068" lon="12.214717176084152"><ele>416.0</ele><time>2026-04-04T08:10:38Z</time></trkpt><trkpt lat="42.19200712839037" lon="12.214801861409429"><ele>415.0</ele><time>2026-04-04T08:10:40Z</time></trkpt><trkpt lat="42.192093477313776" lon="12.214893866158937"><ele>414.0</ele><time>2026-04-04T08:10:42Z</time></trkpt><trkpt lat="42.19218620395546" lon="12.214994861949398"><ele>413.0</ele><time>2026-04-04T08:10:44Z</time></trkpt><trkpt lat="42.192279253473316" lon="12.215088660385241"><ele>412.0</ele><time>2026-04-04T08:10:46Z</time></trkpt><trkpt lat="42.19236973884707" lon="12.215190789122474"><ele>411.75</ele><time>2026-04-04T08:10:48Z</time></trkpt><trkpt lat="42.192460775034455" lon="12.215293581182781"><ele>411.5</ele><time>2026-04-04T08:10:50Z</time></trkpt><trkpt lat="42.19255118033301" lon="12.215396676456427"><ele>411.25</ele><time>2026-04-04T08:10:52Z</time></trkpt><trkpt lat="42.192633229442926" lon="12.215501021898946"><ele>411.0</ele><time>2026-04-04T08:10:54Z</time></trkpt><trkpt lat="42.19271787059257" lon="12.215607365610799"><ele>410.8</ele><time>2026-04-04T08:10:56Z</time></trkpt><trkpt lat="42.19279205483407" lon="12.215701755177436"><ele>410.6</ele><time>2026-04-04T08:10:58Z</time></trkpt><trkpt lat="42.19286538637048" lon="12.215786464469998"><ele>410.4</ele><time>2026-04-04T08:11:00Z</time></trkpt><trkpt lat="42.192946067862025" lon="12.215856522777932"><ele>410.2</ele><time>2026-04-04T08:11:02Z</time></trkpt><trkpt lat="42.193009615566226" lon="12.21591093466618"><ele>410.0</ele><time>2026-04-04T08:11:04Z</time></trkpt><trkpt lat="42.193092395677255" lon="12.215940905012328"><ele>409.99999999999994</ele><time>2026-04-04T08:11:06Z</time></trkpt><trkpt lat="42.193160804807974" lon="12.215984997528086"><ele>410.0</ele><time>2026-04-04T08:11:08Z</time></trkpt><trkpt lat="42.193224244863515" lon="12.216020446208088"><ele>410.0</ele><time>2026-04-04T08:11:10Z</time></trkpt><trkpt lat="42.19329046894896" lon="12.216066605651829"><ele>410.0</ele><time>2026-04-04T08:11:12Z</time></trkpt><trkpt lat="42.193360623510436" lon="12.21609810721617"><ele>409.99999999999994</ele><time>2026-04-04T08:11:14Z</time></trkpt><trkpt lat="42.19345398157299" lon="12.216147677658356"><ele>410.0</ele><time>2026-04-04T08:11:17Z</time></trkpt><trkpt lat="42.193519960730484" lon="12.216186848603389"><ele>410.8333333333333</ele><time>2026-04-04T08:11:19Z</time></trkpt><trkpt lat="42.19359419443002" lon="12.216221469742827"><ele>411.66666666666663</ele><time>2026-04-04T08:11:21Z</time></trkpt><trkpt lat="42.19367876842342" lon="12.216271110246085"><ele>412.5</ele><time>2026-04-04T08:11:24Z</time></trkpt><trkpt lat="42.19376520157659" lon="12.216322767760737"><ele>413.33333333333337</ele><time>2026-04-04T08:11:27Z</time></trkpt><trkpt lat="42.193836827736945" lon="12.21635741568591"><ele>414.1666666666667</ele><time>2026-04-04T08:11:30Z</time></trkpt><trkpt lat="42.193934441980986" lon="12.216398360188952"><ele>415.0</ele><time>2026-04-04T08:11:33Z</time></trkpt><trkpt lat="42.19402775394123" lon="12.216443172858334"><ele>415.42857142857144</ele><time>2026-04-04T08:11:36Z</time></trkpt><trkpt lat="42.194091709169584" lon="12.216469078892167"><ele>415.8571428571429</ele><time>2026-04-04T08:11:38Z</time></trkpt><trkpt lat="42.19415848001401" lon="12.216497613981375"><ele>416.2857142857143</ele><time>2026-04-04T08:11:40Z</time></trkpt><trkpt lat="42.194219911843746" lon="12.216527020256834"><ele>416.7142857142857</ele><time>2026-04-04T08:11:42Z</time></trkpt><trkpt lat="42.19429360480464" lon="12.216555749355802"><ele>417.1428571428571</ele><time>2026-04-04T08:11:44Z</time></trkpt><trkpt lat="42.194358023600365" lon="12.216582970748561"><ele>417.57142857142856</ele><time>2026-04-04T08:11:46Z</time></trkpt><trkpt lat="42.1944351337881" lon="12.216611692198803"><ele>418.0</ele><time>2026-04-04T08:11:48Z</time></trkpt><trkpt lat="42.19451034592976" lon="12.216641942533158"><ele>418.50000000000006</ele><time>2026-04-04T08:11:50Z</time></trkpt><trkpt lat="42.1945755424318" lon="12.216690739139008"><ele>419.0</ele><time>2026-04-04T08:11:52Z</time></trkpt><trkpt lat="42.19467649656582" lon="12.2167518535935"><ele>419.5</ele><time>2026-04-04T08:11:55Z</time></trkpt><trkpt lat="42.19474638282864" lon="12.216778109294166"><ele>420.0</ele><time>2026-04-04T08:11:57Z</time></trkpt><trkpt lat="42.1948156605967" lon="12.216808888627527"><ele>420.50000000000006</ele><time>2026-04-04T08:11:59Z</time></trkpt><trkpt lat="42.19488132669736" lon="12.216840857183282"><ele>421.0</ele><time>2026-04-04T08:12:01Z</time></trkpt><trkpt lat="42.194944905814275" lon="12.216885257980122"><ele>421.50000000000006</ele><time>2026-04-04T08:12:04Z</time></trkpt><trkpt lat="42.195008380926126" lon="12.216912607859873"><ele>422.0</ele><time>2026-04-04T08:12:06Z</time></trkpt><trkpt lat="42.195091800663675" lon="12.216954516930102"><ele>422.5</ele><time>2026-04-04T08:12:09Z</time></trkpt><trkpt lat="42.195153116030205" lon="12.21697555949764"><ele>423.0</ele><time>2026-04-04T08:12:11Z</time></trkpt><trkpt lat="42.19523713091471" lon="12.217009471939747"><ele>423.50000000000006</ele><time>2026-04-04T08:12:14Z</time></trkpt><trkpt lat="42.19530221897002" lon="12.217007651365918"><ele>424.0</ele><time>2026-04-04T08:12:16Z</time></trkpt><trkpt lat="42.19538684263591" lon="12.217037166947483"><ele>424.00000000000006</ele><time>2026-04-04T08:12:19Z</time></trkpt><trkpt lat="42.19545699330058" lon="12.217079798436"><ele>424.0</ele><time>2026-04-04T08:12:22Z</time></trkpt><trkpt lat="42.19551577516527" lon="12.217146701315112"><ele>424.0</ele><time>2026-04-04T08:12:25Z</time></trkpt><trkpt lat="42.19559211920966" lon="12.217203174376111"><ele>424.0</ele><time>2026-04-04T08:12:28Z</time></trkpt><trkpt lat="42.195684928866434" lon="12.2172338044183"><ele>424.00000000000006</ele><time>2026-04-04T08:12:30Z</time></trkpt><trkpt lat="42.195788919549436" lon="12.217262125407629"><ele>424.0</ele><time>2026-04-04T08:12:32Z</time></trkpt><trkpt lat="42.195944447824004" lon="12.217296024296056"><ele>426.6</ele><time>2026-04-04T08:12:35Z</time></trkpt><trkpt lat="42.19604011351968" lon="12.217330567101824"><ele>429.2</ele><time>2026-04-04T08:12:37Z</time></trkpt><trkpt lat="42.19611164923823" lon="12.217360529105537"><ele>431.80000000000007</ele><time>2026-04-04T08:12:39Z</time></trkpt><trkpt lat="42.196195635887" lon="12.217389422295266"><ele>434.40000000000003</ele><time>2026-04-04T08:12:41Z</time></trkpt><trkpt lat="42.19627961600554" lon="12.21743247525569"><ele>437.0</ele><time>2026-04-04T08:12:44Z</time></trkpt><trkpt lat="42.19638651846157" lon="12.21747302315186"><ele>436.99999999999994</ele><time>2026-04-04T08:12:47Z</time></trkpt><trkpt lat="42.19647113357252" lon="12.21750925086266"><ele>437.0</ele><time>2026-04-04T08:12:50Z</time></trkpt><trkpt lat="42.196536964613635" lon="12.217530460549176"><ele>437.0</ele><time>2026-04-04T08:12:52Z</time></trkpt><trkpt lat="42.19660828493563" lon="12.217546789825652"><ele>437.0</ele><time>2026-04-04T08:12:56Z</time></trkpt><trkpt lat="42.19668519207962" lon="12.217595000152684"><ele>436.99999999999994</ele><time>2026-04-04T08:13:00Z</time></trkpt><trkpt lat="42.19678473884873" lon="12.217618185640609"><ele>437.0</ele><time>2026-04-04T08:13:02Z</time></trkpt><trkpt lat="42.196905776410574" lon="12.217643436557239"><ele>437.16666666666663</ele><time>2026-04-04T08:13:05Z</time></trkpt><trkpt lat="42.19699206594336" lon="12.21765385470884"><ele>437.3333333333333</ele><time>2026-04-04T08:13:08Z</time></trkpt><trkpt lat="42.197064790820114" lon="12.217670367210346"><ele>437.5</ele><time>2026-04-04T08:13:11Z</time></trkpt><trkpt lat="42.197148240108234" lon="12.217691405462418"><ele>437.66666666666663</ele><time>2026-04-04T08:13:13Z</time></trkpt><trkpt lat="42.19721702565594" lon="12.217687681029467"><ele>437.8333333333333</ele><time>2026-04-04T08:13:15Z</time></trkpt><trkpt lat="42.197285146168014" lon="12.217700052676832"><ele>438.0</ele><time>2026-04-04T08:13:17Z</time></trkpt><trkpt lat="42.19737105041738" lon="12.21773623971453"><ele>438.0</ele><time>2026-04-04T08:13:20Z</time></trkpt><trkpt lat="42.19745665596405" lon="12.217760216008687"><ele>438.0</ele><time>2026-04-04T08:13:23Z</time></trkpt><trkpt lat="42.19752810504943" lon="12.21776093353895"><ele>438.0</ele><time>2026-04-04T08:13:25Z</time></trkpt><trkpt lat="42.19760270114931" lon="12.21777641212219"><ele>438.0</ele><time>2026-04-04T08:13:29Z</time></trkpt><trkpt lat="42.19767982758356" lon="12.217780173557536"><ele>438.0</ele><time>2026-04-04T08:13:32Z</time></trkpt><trkpt lat="42.19775833412267" lon="12.217791864128385"><ele>438.0</ele><time>2026-04-04T08:13:35Z</time></trkpt><trkpt lat="42.19783608899792" lon="12.217792412603028"><ele>438.0</ele><time>2026-04-04T08:13:38Z</time></trkpt><trkpt lat="42.197909020010854" lon="12.217790390869188"><ele>438.0</ele><time>2026-04-04T08:13:41Z</time></trkpt><trkpt lat="42.19798137489204" lon="12.21780982341035"><ele>438.0</ele><time>2026-04-04T08:13:44Z</time></trkpt><trkpt lat="42.19805914469241" lon="12.217813673430772"><ele>438.0</ele><time>2026-04-04T08:13:47Z</time></trkpt><trkpt lat="42.19812956863602" lon="12.21781592664158"><ele>438.0</ele><time>2026-04-04T08:13:50Z</time></trkpt><trkpt lat="42.19819862835481" lon="12.217803884262391"><ele>438.0</ele><time>2026-04-04T08:13:53Z</time></trkpt><trkpt lat="42.19828358236933" lon="12.217809307458676"><ele>439.79999999999995</ele><time>2026-04-04T08:13:57Z</time></trkpt><trkpt lat="42.198374560111475" lon="12.217844243160503"><ele>441.59999999999997</ele><time>2026-04-04T08:14:00Z</time></trkpt><trkpt lat="42.198484781123184" lon="12.21783639046039"><ele>443.40000000000003</ele><time>2026-04-04T08:14:02Z</time></trkpt><trkpt lat="42.19857927240764" lon="12.217851711763982"><ele>445.20000000000005</ele><time>2026-04-04T08:14:04Z</time></trkpt><trkpt lat="42.19867612885328" lon="12.21784844557849"><ele>447.0</ele><time>2026-04-04T08:14:06Z</time></trkpt><trkpt lat="42.19875474626427" lon="12.21786353507814"><ele>446.99999999999994</ele><time>2026-04-04T08:14:08Z</time></trkpt><trkpt lat="42.19883034020108" lon="12.217883335463235"><ele>447.0</ele><time>2026-04-04T08:14:10Z</time></trkpt><trkpt lat="42.198896084617694" lon="12.217878949561339"><ele>447.0</ele><time>2026-04-04T08:14:12Z</time></trkpt><trkpt lat="42.1989759965824" lon="12.217902171035075"><ele>447.0</ele><time>2026-04-04T08:14:14Z</time></trkpt><trkpt lat="42.199061039075474" lon="12.217912667143823"><ele>447.0</ele><time>2026-04-04T08:14:17Z</time></trkpt><trkpt lat="42.199119902239616" lon="12.217958207913865"><ele>446.99999999999994</ele><time>2026-04-04T08:14:19Z</time></trkpt><trkpt lat="42.199187818661166" lon="12.217982579975226"><ele>447.0</ele><time>2026-04-04T08:14:21Z</time></trkpt><trkpt lat="42.19928169563546" lon="12.218015143341917"><ele>450.75</ele><time>2026-04-04T08:14:24Z</time></trkpt><trkpt lat="42.19938361417603" lon="12.217989509978397"><ele>454.5</ele><time>2026-04-04T08:14:27Z</time></trkpt><trkpt lat="42.19956706695038" lon="12.217998658844717"><ele>458.25</ele><time>2026-04-04T08:14:36Z</time></trkpt><trkpt lat="42.19966278725763" lon="12.217964760746174"><ele>462.0</ele><time>2026-04-04T08:14:39Z</time></trkpt><trkpt lat="42.19973262878292" lon="12.217933281619564"><ele>462.0</ele><time>2026-04-04T08:14:41Z</time></trkpt><trkpt lat="42.19980986324773" lon="12.217879844011902"><ele>462.0</ele><time>2026-04-04T08:14:44Z</time></trkpt><trkpt lat="42.199881015977255" lon="12.217834469950123"><ele>462.0</ele><time>2026-04-04T08:14:46Z</time></trkpt><trkpt lat="42.199944022884694" lon="12.217786854865675"><ele>462.0</ele><time>2026-04-04T08:14:48Z</time></trkpt><trkpt lat="42.19997191320982" lon="12.217710167514596"><ele>462.0</ele><time>2026-04-04T08:14:51Z</time></trkpt><trkpt lat="42.200039123055824" lon="12.217665035690182"><ele>462.0</ele><time>2026-04-04T08:14:54Z</time></trkpt><trkpt lat="42.20009960306465" lon="12.217597368889471"><ele>463.8333333333333</ele><time>2026-04-04T08:14:57Z</time></trkpt><trkpt lat="42.200160680014186" lon="12.217531174279848"><ele>465.66666666666663</ele><time>2026-04-04T08:15:00Z</time></trkpt><trkpt lat="42.200206268327044" lon="12.217450597296148"><ele>467.5</ele><time>2026-04-04T08:15:03Z</time></trkpt><trkpt lat="42.200285382381225" lon="12.217366915985007"><ele>469.3333333333333</ele><time>2026-04-04T08:15:06Z</time></trkpt><trkpt lat="42.20036567373649" lon="12.21730479269874"><ele>471.16666666666663</ele><time>2026-04-04T08:15:09Z</time></trkpt><trkpt lat="42.200465917387056" lon="12.217309186980664"><ele>473.0</ele><time>2026-04-04T08:15:12Z</time></trkpt><trkpt lat="42.2005465388513" lon="12.217306316791507"><ele>474.16666666666663</ele><time>2026-04-04T08:15:14Z</time></trkpt><trkpt lat="42.20063639644015" lon="12.217320750970307"><ele>475.3333333333333</ele><time>2026-04-04T08:15:17Z</time></trkpt><trkpt lat="42.20071004692913" lon="12.217313424261636"><ele>476.5</ele><time>2026-04-04T08:15:19Z</time></trkpt><trkpt lat="42.20077738556373" lon="12.217318280894355"><ele>477.66666666666663</ele><time>2026-04-04T08:15:21Z</time></trkpt><trkpt lat="42.200851495517085" lon="12.2173342312649"><ele>478.8333333333333</ele><time>2026-04-04T08:15:23Z</time></trkpt><trkpt lat="42.20093405144686" lon="12.217332717470432"><ele>480.0</ele><time>2026-04-04T08:15:25Z</time></trkpt><trkpt lat="42.201016892735005" lon="12.217355229276777"><ele>482.1666666666667</ele><time>2026-04-04T08:15:28Z</time></trkpt><trkpt lat="42.20109604999729" lon="12.217385616683538"><ele>484.33333333333337</ele><time>2026-04-04T08:15:31Z</time></trkpt><trkpt lat="42.20116893482524" lon="12.217380745915479"><ele>486.5</ele><time>2026-04-04T08:15:35Z</time></trkpt><trkpt lat="42.20123567459453" lon="12.217383540895998"><ele>488.6666666666667</ele><time>2026-04-04T08:15:38Z</time></trkpt><trkpt lat="42.20130839457374" lon="12.21740344449252"><ele>490.83333333333337</ele><time>2026-04-04T08:15:39Z</time></trkpt><trkpt lat="42.20137823966647" lon="12.217433808720417"><ele>493.0</ele><time>2026-04-04T08:15:40Z</time></trkpt><trkpt lat="42.20147928209695" lon="12.217443830069831"><ele>492.0</ele><time>2026-04-04T08:15:42Z</time></trkpt><trkpt lat="42.20157890178591" lon="12.217455558450155"><ele>490.99999999999994</ele><time>2026-04-04T08:15:44Z</time></trkpt><trkpt lat="42.20170772199079" lon="12.217529393349803"><ele>489.99999999999994</ele><time>2026-04-04T08:15:46Z</time></trkpt><trkpt lat="42.20177361974419" lon="12.217545670202862"><ele>489.0</ele><time>2026-04-04T08:15:47Z</time></trkpt><trkpt lat="42.20184714023044" lon="12.217564838279966"><ele>488.0</ele><time>2026-04-04T08:15:48Z</time></trkpt><trkpt lat="42.201914044682844" lon="12.217582834357668"><ele>487.99999999999994</ele><time>2026-04-04T08:15:49Z</time></trkpt><trkpt lat="42.20197861970793" lon="12.217600372059069"><ele>488.0</ele><time>2026-04-04T08:15:50Z</time></trkpt><trkpt lat="42.20205063967708" lon="12.217621314709831"><ele>488.0</ele><time>2026-04-04T08:15:51Z</time></trkpt><trkpt lat="42.202146010325805" lon="12.217639269037642"><ele>488.0</ele><time>2026-04-04T08:15:53Z</time></trkpt><trkpt lat="42.20206001105799" lon="12.217646955755752"><ele>487.99999999999994</ele><time>2026-04-04T08:16:00Z</time></trkpt><trkpt lat="42.20197385409773" lon="12.217621902220374"><ele>488.0</ele><time>2026-04-04T08:16:03Z</time></trkpt><trkpt lat="42.20192098911057" lon="12.217688492247479"><ele>487.99999999999994</ele><time>2026-04-04T08:16:06Z</time></trkpt><trkpt lat="42.20181882188493" lon="12.21772011640392"><ele>488.0</ele><time>2026-04-04T08:16:09Z</time></trkpt><trkpt lat="42.201727719526986" lon="12.217730356270998"><ele>488.0</ele><time>2026-04-04T08:16:13Z</time></trkpt><trkpt lat="42.201663924017694" lon="12.217754118188989"><ele>488.0</ele><time>2026-04-04T08:16:16Z</time></trkpt><trkpt lat="42.201600601302935" lon="12.217749597211123"><ele>487.99999999999994</ele><time>2026-04-04T08:16:20Z</time></trkpt><trkpt lat="42.20153241170563" lon="12.2177802494784"><ele>488.0</ele><time>2026-04-04T08:16:22Z</time></trkpt><trkpt lat="42.201488531668936" lon="12.217855737509794"><ele>488.71428571428567</ele><time>2026-04-04T08:16:24Z</time></trkpt><trkpt lat="42.201413589387045" lon="12.217852193455215"><ele>489.42857142857144</ele><time>2026-04-04T08:16:26Z</time></trkpt><trkpt lat="42.20134992289789" lon="12.217844099268847"><ele>490.1428571428571</ele><time>2026-04-04T08:16:29Z</time></trkpt><trkpt lat="42.201296534213995" lon="12.217893589474404"><ele>490.85714285714283</ele><time>2026-04-04T08:16:31Z</time></trkpt><trkpt lat="42.201218336285145" lon="12.217904689388591"><ele>491.57142857142856</ele><time>2026-04-04T08:16:34Z</time></trkpt><trkpt lat="42.201146798937046" lon="12.21793667055233"><ele>492.2857142857143</ele><time>2026-04-04T08:16:36Z</time></trkpt><trkpt lat="42.20107067846016" lon="12.217944021823818"><ele>493.0</ele><time>2026-04-04T08:16:38Z</time></trkpt><trkpt lat="42.20099505670076" lon="12.217946071091575"><ele>493.00000000000006</ele><time>2026-04-04T08:16:41Z</time></trkpt><trkpt lat="42.20091508079038" lon="12.217973878711804"><ele>493.0</ele><time>2026-04-04T08:16:44Z</time></trkpt><trkpt lat="42.2008299137342" lon="12.218013274103829"><ele>493.0</ele><time>2026-04-04T08:16:46Z</time></trkpt><trkpt lat="42.20074499736735" lon="12.218048371701888"><ele>493.0</ele><time>2026-04-04T08:16:49Z</time></trkpt><trkpt lat="42.20067904453966" lon="12.21811930531225"><ele>493.00000000000006</ele><time>2026-04-04T08:16:51Z</time></trkpt><trkpt lat="42.20061815800228" lon="12.218220769848296"><ele>493.0</ele><time>2026-04-04T08:16:54Z</time></trkpt><trkpt lat="42.20057665680083" lon="12.2183085086978"><ele>493.00000000000006</ele><time>2026-04-04T08:16:56Z</time></trkpt><trkpt lat="42.20058345222357" lon="12.218419054881338"><ele>493.0</ele><time>2026-04-04T08:16:58Z</time></trkpt><trkpt lat="42.200596870618924" lon="12.21852109316655"><ele>493.0</ele><time>2026-04-04T08:17:01Z</time></trkpt><trkpt lat="42.20066968985529" lon="12.21860188311101"><ele>493.0</ele><time>2026-04-04T08:17:04Z</time></trkpt><trkpt lat="42.20071421906795" lon="12.218684089410928"><ele>493.00000000000006</ele><time>2026-04-04T08:17:07Z</time></trkpt><trkpt lat="42.200780621123855" lon="12.218734974738712"><ele>493.0</ele><time>2026-04-04T08:17:09Z</time></trkpt><trkpt lat="42.200845422635226" lon="12.218793219688202"><ele>494.42857142857144</ele><time>2026-04-04T08:17:12Z</time></trkpt><trkpt lat="42.20091246882624" lon="12.218825624956507"><ele>495.8571428571429</ele><time>2026-04-04T08:17:14Z</time></trkpt><trkpt lat="42.20097045242282" lon="12.218861581809055"><ele>497.28571428571433</ele><time>2026-04-04T08:17:16Z</time></trkpt><trkpt lat="42.20103101021296" lon="12.218888407340069"><ele>498.7142857142857</ele><time>2026-04-04T08:17:18Z</time></trkpt><trkpt lat="42.2010967800831" lon="12.218972232357718"><ele>500.1428571428572</ele><time>2026-04-04T08:17:21Z</time></trkpt><trkpt lat="42.20114424330605" lon="12.219029685524124"><ele>501.5714285714286</ele><time>2026-04-04T08:17:23Z</time></trkpt><trkpt lat="42.20118837033527" lon="12.219108822472114"><ele>503.0</ele><time>2026-04-04T08:17:26Z</time></trkpt><trkpt lat="42.20118893770973" lon="12.219200561594329"><ele>504.42857142857144</ele><time>2026-04-04T08:17:29Z</time></trkpt><trkpt lat="42.20115399814642" lon="12.219283946334203"><ele>505.8571428571429</ele><time>2026-04-04T08:17:32Z</time></trkpt><trkpt lat="42.2011311596133" lon="12.21937967799161"><ele>507.28571428571433</ele><time>2026-04-04T08:17:35Z</time></trkpt><trkpt lat="42.20110102309226" lon="12.219461261281706"><ele>508.7142857142858</ele><time>2026-04-04T08:17:38Z</time></trkpt><trkpt lat="42.20106498776944" lon="12.219545158588797"><ele>510.14285714285717</ele><time>2026-04-04T08:17:41Z</time></trkpt><trkpt lat="42.20104335864368" lon="12.219636595567449"><ele>511.57142857142867</ele><time>2026-04-04T08:17:44Z</time></trkpt><trkpt lat="42.201015332705424" lon="12.219723001228743"><ele>513.0</ele><time>2026-04-04T08:17:47Z</time></trkpt><trkpt lat="42.200981884589964" lon="12.219811166605071"><ele>514.4285714285714</ele><time>2026-04-04T08:17:50Z</time></trkpt><trkpt lat="42.20094212789979" lon="12.21987849159225"><ele>515.8571428571429</ele><time>2026-04-04T08:17:53Z</time></trkpt><trkpt lat="42.20090880436256" lon="12.219966886622814"><ele>517.2857142857142</ele><time>2026-04-04T08:17:56Z</time></trkpt><trkpt lat="42.20087489301337" lon="12.220059982309627"><ele>518.7142857142858</ele><time>2026-04-04T08:18:00Z</time></trkpt><trkpt lat="42.200852334026564" lon="12.220148604689646"><ele>520.1428571428571</ele><time>2026-04-04T08:18:03Z</time></trkpt><trkpt lat="42.200821171530734" lon="12.220238963925773"><ele>521.5714285714286</ele><time>2026-04-04T08:18:06Z</time></trkpt><trkpt lat="42.200782695466245" lon="12.220312165823477"><ele>523.0</ele><time>2026-04-04T08:18:09Z</time></trkpt><trkpt lat="42.200755137291125" lon="12.22040458691948"><ele>522.9999999999999</ele><time>2026-04-04T08:18:12Z</time></trkpt><trkpt lat="42.2007049617733" lon="12.220495091985224"><ele>523.0</ele><time>2026-04-04T08:18:16Z</time></trkpt><trkpt lat="42.200655324908624" lon="12.220557847458043"><ele>523.0</ele><time>2026-04-04T08:18:19Z</time></trkpt><trkpt lat="42.200602670813765" lon="12.220620090798928"><ele>523.0</ele><time>2026-04-04T08:18:22Z</time></trkpt><trkpt lat="42.200538549119386" lon="12.220666150973715"><ele>523.0</ele><time>2026-04-04T08:18:25Z</time></trkpt><trkpt lat="42.200470203540476" lon="12.220720632947442"><ele>522.9999999999999</ele><time>2026-04-04T08:18:29Z</time></trkpt><trkpt lat="42.20040723347572" lon="12.220761039106419"><ele>523.0</ele><time>2026-04-04T08:18:32Z</time></trkpt><trkpt lat="42.20033398274655" lon="12.220800716776035"><ele>524.5714285714286</ele><time>2026-04-04T08:18:36Z</time></trkpt><trkpt lat="42.20025882237577" lon="12.220839242769298"><ele>526.1428571428571</ele><time>2026-04-04T08:18:40Z</time></trkpt><trkpt lat="42.200207530366626" lon="12.220898999839756"><ele>527.7142857142858</ele><time>2026-04-04T08:18:43Z</time></trkpt><trkpt lat="42.2001442367152" lon="12.220921352191091"><ele>529.2857142857142</ele><time>2026-04-04T08:18:46Z</time></trkpt><trkpt lat="42.200085170977076" lon="12.220959452777375"><ele>530.8571428571429</ele><time>2026-04-04T08:18:49Z</time></trkpt><trkpt lat="42.20001203225379" lon="12.221013237571585"><ele>532.4285714285714</ele><time>2026-04-04T08:18:53Z</time></trkpt><trkpt lat="42.19994879892597" lon="12.221051684859308"><ele>534.0</ele><time>2026-04-04T08:18:56Z</time></trkpt><trkpt lat="42.199888019661216" lon="12.221083722566815"><ele>534.0000000000001</ele><time>2026-04-04T08:18:59Z</time></trkpt><trkpt lat="42.19982742958842" lon="12.221117020919051"><ele>534.0</ele><time>2026-04-04T08:19:02Z</time></trkpt><trkpt lat="42.1997718430459" lon="12.221163195174444"><ele>534.0</ele><time>2026-04-04T08:19:05Z</time></trkpt><trkpt lat="42.19971085877757" lon="12.221196787517378"><ele>534.0</ele><time>2026-04-04T08:19:08Z</time></trkpt><trkpt lat="42.19965055542243" lon="12.221241393673825"><ele>534.0</ele><time>2026-04-04T08:19:11Z</time></trkpt><trkpt lat="42.19959298396819" lon="12.221283693934405"><ele>534.0000000000001</ele><time>2026-04-04T08:19:14Z</time></trkpt><trkpt lat="42.19952698559325" lon="12.221308122656444"><ele>534.0</ele><time>2026-04-04T08:19:17Z</time></trkpt><trkpt lat="42.199472691720594" lon="12.22135828584052"><ele>534.0</ele><time>2026-04-04T08:19:20Z</time></trkpt><trkpt lat="42.19940158074825" lon="12.221439592727467"><ele>534.0</ele><time>2026-04-04T08:19:24Z</time></trkpt><trkpt lat="42.19935071811124" lon="12.221499563735096"><ele>534.0</ele><time>2026-04-04T08:19:27Z</time></trkpt><trkpt lat="42.19931426383617" lon="12.221583672206036"><ele>534.0</ele><time>2026-04-04T08:19:30Z</time></trkpt><trkpt lat="42.19927513890622" lon="12.221663096208204"><ele>534.0</ele><time>2026-04-04T08:19:33Z</time></trkpt><trkpt lat="42.19922559379094" lon="12.221747620797888"><ele>534.0</ele><time>2026-04-04T08:19:36Z</time></trkpt><trkpt lat="42.19918861275571" lon="12.221825668729537"><ele>533.4285714285714</ele><time>2026-04-04T08:19:39Z</time></trkpt><trkpt lat="42.199141870571445" lon="12.221903234552075"><ele>532.8571428571429</ele><time>2026-04-04T08:19:42Z</time></trkpt><trkpt lat="42.199083749673974" lon="12.221995253611887"><ele>532.2857142857142</ele><time>2026-04-04T08:19:45Z</time></trkpt><trkpt lat="42.19904247500372" lon="12.22206777153894"><ele>531.7142857142858</ele><time>2026-04-04T08:19:47Z</time></trkpt><trkpt lat="42.199004501577754" lon="12.222138105860704"><ele>531.1428571428571</ele><time>2026-04-04T08:19:49Z</time></trkpt><trkpt lat="42.198968757810384" lon="12.222219630006698"><ele>530.5714285714286</ele><time>2026-04-04T08:19:51Z</time></trkpt><trkpt lat="42.1989298431089" lon="12.222294560519355"><ele>530.0</ele><time>2026-04-04T08:19:53Z</time></trkpt><trkpt lat="42.19888833676616" lon="12.222387212339475"><ele>531.3333333333333</ele><time>2026-04-04T08:19:55Z</time></trkpt><trkpt lat="42.19884961910057" lon="12.222483240828819"><ele>532.6666666666666</ele><time>2026-04-04T08:19:57Z</time></trkpt><trkpt lat="42.19881516716062" lon="12.222572498674444"><ele>534.0</ele><time>2026-04-04T08:19:59Z</time></trkpt><trkpt lat="42.19876777140424" lon="12.22264204156409"><ele>535.3333333333334</ele><time>2026-04-04T08:20:01Z</time></trkpt><trkpt lat="42.19872200779118" lon="12.222730143055097"><ele>536.6666666666667</ele><time>2026-04-04T08:20:03Z</time></trkpt><trkpt lat="42.19868474752251" lon="12.222818622519059"><ele>538.0</ele><time>2026-04-04T08:20:05Z</time></trkpt><trkpt lat="42.19865501872751" lon="12.222903793652431"><ele>538.0</ele><time>2026-04-04T08:20:07Z</time></trkpt><trkpt lat="42.198620827995455" lon="12.222979905922369"><ele>538.0</ele><time>2026-04-04T08:20:09Z</time></trkpt><trkpt lat="42.19858855365567" lon="12.22305907785828"><ele>538.0</ele><time>2026-04-04T08:20:11Z</time></trkpt><trkpt lat="42.1985359276978" lon="12.223168720632765"><ele>538.0</ele><time>2026-04-04T08:20:14Z</time></trkpt><trkpt lat="42.19848638169896" lon="12.223265525586784"><ele>538.0</ele><time>2026-04-04T08:20:17Z</time></trkpt><trkpt lat="42.1984618116787" lon="12.223350627355117"><ele>538.0</ele><time>2026-04-04T08:20:19Z</time></trkpt><trkpt lat="42.19843500912455" lon="12.223434556805158"><ele>539.5</ele><time>2026-04-04T08:20:22Z</time></trkpt><trkpt lat="42.198403011238284" lon="12.223522810567898"><ele>541.0</ele><time>2026-04-04T08:20:25Z</time></trkpt><trkpt lat="42.19836434982259" lon="12.22365692656946"><ele>542.5</ele><time>2026-04-04T08:20:27Z</time></trkpt><trkpt lat="42.198340897208475" lon="12.223757236311675"><ele>544.0</ele><time>2026-04-04T08:20:30Z</time></trkpt><trkpt lat="42.19830350616578" lon="12.22384576552818"><ele>545.5</ele><time>2026-04-04T08:20:32Z</time></trkpt><trkpt lat="42.19829089248694" lon="12.22394000909706"><ele>547.0</ele><time>2026-04-04T08:20:34Z</time></trkpt><trkpt lat="42.198250873511086" lon="12.224053938662081"><ele>547.8333333333334</ele><time>2026-04-04T08:20:37Z</time></trkpt><trkpt lat="42.19821435471484" lon="12.224169636488947"><ele>548.6666666666667</ele><time>2026-04-04T08:20:40Z</time></trkpt><trkpt lat="42.19818289208039" lon="12.224253691173375"><ele>549.5</ele><time>2026-04-04T08:20:42Z</time></trkpt><trkpt lat="42.19814741802054" lon="12.224351514927921"><ele>550.3333333333334</ele><time>2026-04-04T08:20:45Z</time></trkpt><trkpt lat="42.19808195075828" lon="12.224454058256885"><ele>551.1666666666666</ele><time>2026-04-04T08:20:48Z</time></trkpt><trkpt lat="42.19807096887826" lon="12.224543608285693"><ele>552.0</ele><time>2026-04-04T08:20:50Z</time></trkpt><trkpt lat="42.19801747361114" lon="12.224630669178357"><ele>552.0</ele><time>2026-04-04T08:20:52Z</time></trkpt><trkpt lat="42.19798205028943" lon="12.224745960840151"><ele>552.0</ele><time>2026-04-04T08:20:55Z</time></trkpt><trkpt lat="42.197940063613615" lon="12.224859103105114"><ele>552.0</ele><time>2026-04-04T08:20:58Z</time></trkpt><trkpt lat="42.19790387555751" lon="12.224967349717728"><ele>552.0</ele><time>2026-04-04T08:21:01Z</time></trkpt><trkpt lat="42.19786845983774" lon="12.225051349736242"><ele>552.0</ele><time>2026-04-04T08:21:03Z</time></trkpt><trkpt lat="42.19783184879239" lon="12.225143082023221"><ele>552.0</ele><time>2026-04-04T08:21:05Z</time></trkpt><trkpt lat="42.19778556354781" lon="12.225235568845047"><ele>553.3333333333334</ele><time>2026-04-04T08:21:08Z</time></trkpt><trkpt lat="42.197738914285665" lon="12.225336453742202"><ele>554.6666666666666</ele><time>2026-04-04T08:21:11Z</time></trkpt><trkpt lat="42.19769530655216" lon="12.225421847275635"><ele>556.0</ele><time>2026-04-04T08:21:13Z</time></trkpt><trkpt lat="42.19767008118792" lon="12.225514361627088"><ele>557.3333333333333</ele><time>2026-04-04T08:21:15Z</time></trkpt><trkpt lat="42.19762555676759" lon="12.225598140515013"><ele>558.6666666666666</ele><time>2026-04-04T08:21:17Z</time></trkpt><trkpt lat="42.19758386659071" lon="12.225688151929912"><ele>560.0</ele><time>2026-04-04T08:21:19Z</time></trkpt><trkpt lat="42.19753301529773" lon="12.22578690322853"><ele>560.1666666666666</ele><time>2026-04-04T08:21:21Z</time></trkpt><trkpt lat="42.19748953855351" lon="12.2258784381917"><ele>560.3333333333333</ele><time>2026-04-04T08:21:23Z</time></trkpt><trkpt lat="42.19743207136062" lon="12.225977921433467"><ele>560.5</ele><time>2026-04-04T08:21:25Z</time></trkpt><trkpt lat="42.1973865264073" lon="12.226077344087932"><ele>560.6666666666666</ele><time>2026-04-04T08:21:27Z</time></trkpt><trkpt lat="42.197345549478" lon="12.226167047033108"><ele>560.8333333333334</ele><time>2026-04-04T08:21:29Z</time></trkpt><trkpt lat="42.19732152973501" lon="12.226265662349947"><ele>561.0</ele><time>2026-04-04T08:21:31Z</time></trkpt><trkpt lat="42.19729452763084" lon="12.22636437642545"><ele>560.5</ele><time>2026-04-04T08:21:33Z</time></trkpt><trkpt lat="42.1972292175635" lon="12.22646777160181"><ele>560.0</ele><time>2026-04-04T08:21:35Z</time></trkpt><trkpt lat="42.19717521209171" lon="12.226587970715169"><ele>559.5</ele><time>2026-04-04T08:21:37Z</time></trkpt><trkpt lat="42.19712869672967" lon="12.226705697140403"><ele>559.0</ele><time>2026-04-04T08:21:39Z</time></trkpt><trkpt lat="42.197067691349176" lon="12.226756583631408"><ele>558.5</ele><time>2026-04-04T08:21:42Z</time></trkpt><trkpt lat="42.19700780652305" lon="12.226809052667143"><ele>558.0</ele><time>2026-04-04T08:21:44Z</time></trkpt><trkpt lat="42.19688367927718" lon="12.226967717016658"><ele>558.1999999999999</ele><time>2026-04-04T08:21:46Z</time></trkpt><trkpt lat="42.1968224245016" lon="12.227086097667188"><ele>558.4</ele><time>2026-04-04T08:21:47Z</time></trkpt><trkpt lat="42.19676744457496" lon="12.227163395995595"><ele>558.5999999999999</ele><time>2026-04-04T08:21:48Z</time></trkpt><trkpt lat="42.196694076463416" lon="12.227295217094685"><ele>558.8</ele><time>2026-04-04T08:21:50Z</time></trkpt><trkpt lat="42.19661485677129" lon="12.227385336488622"><ele>559.0</ele><time>2026-04-04T08:21:52Z</time></trkpt><trkpt lat="42.19653161124301" lon="12.227449881367038"><ele>558.5</ele><time>2026-04-04T08:21:54Z</time></trkpt><trkpt lat="42.19645237602796" lon="12.227538031599513"><ele>558.0</ele><time>2026-04-04T08:21:56Z</time></trkpt><trkpt lat="42.196386689000725" lon="12.227607687942362"><ele>557.5</ele><time>2026-04-04T08:21:58Z</time></trkpt><trkpt lat="42.19632505483312" lon="12.227714733061136"><ele>557.0</ele><time>2026-04-04T08:22:00Z</time></trkpt><trkpt lat="42.196258333824964" lon="12.227788521647907"><ele>556.5</ele><time>2026-04-04T08:22:02Z</time></trkpt><trkpt lat="42.19621920746262" lon="12.227876714390549"><ele>556.0</ele><time>2026-04-04T08:22:04Z</time></trkpt><trkpt lat="42.19616621677876" lon="12.227963645435509"><ele>556.0</ele><time>2026-04-04T08:22:07Z</time></trkpt><trkpt lat="42.19610339769012" lon="12.22807627350153"><ele>556.0</ele><time>2026-04-04T08:22:10Z</time></trkpt><trkpt lat="42.19606077651248" lon="12.228142808090311"><ele>556.0</ele><time>2026-04-04T08:22:12Z</time></trkpt><trkpt lat="42.196021222655695" lon="12.228236140044261"><ele>556.0</ele><time>2026-04-04T08:22:15Z</time></trkpt><trkpt lat="42.19597298511158" lon="12.228312679564924"><ele>556.0</ele><time>2026-04-04T08:22:18Z</time></trkpt><trkpt lat="42.195930744079185" lon="12.228386482770778"><ele>556.0</ele><time>2026-04-04T08:22:21Z</time></trkpt><trkpt lat="42.195883958463206" lon="12.228479385044297"><ele>557.0</ele><time>2026-04-04T08:22:24Z</time></trkpt><trkpt lat="42.19583880036359" lon="12.228555730575803"><ele>558.0</ele><time>2026-04-04T08:22:27Z</time></trkpt><trkpt lat="42.19579973751195" lon="12.228632884707324"><ele>559.0</ele><time>2026-04-04T08:22:30Z</time></trkpt><trkpt lat="42.195757431582955" lon="12.22870126694047"><ele>560.0</ele><time>2026-04-04T08:22:33Z</time></trkpt><trkpt lat="42.195703489619866" lon="12.228777735983341"><ele>561.0</ele><time>2026-04-04T08:22:36Z</time></trkpt><trkpt lat="42.19566263128353" lon="12.228856509931145"><ele>562.0</ele><time>2026-04-04T08:22:39Z</time></trkpt><trkpt lat="42.195620533322554" lon="12.228927774403054"><ele>563.0</ele><time>2026-04-04T08:22:42Z</time></trkpt><trkpt lat="42.19558600380551" lon="12.229007607490473"><ele>564.6666666666666</ele><time>2026-04-04T08:22:45Z</time></trkpt><trkpt lat="42.195552630500295" lon="12.229100096660584"><ele>566.3333333333333</ele><time>2026-04-04T08:22:48Z</time></trkpt><trkpt lat="42.19550860804839" lon="12.229186972567172"><ele>568.0</ele><time>2026-04-04T08:22:51Z</time></trkpt><trkpt lat="42.19547408857671" lon="12.229275652528715"><ele>569.6666666666666</ele><time>2026-04-04T08:22:54Z</time></trkpt><trkpt lat="42.195423696732384" lon="12.229350209215955"><ele>571.3333333333334</ele><time>2026-04-04T08:22:57Z</time></trkpt><trkpt lat="42.19537635373777" lon="12.229450206424655"><ele>573.0</ele><time>2026-04-04T08:23:00Z</time></trkpt><trkpt lat="42.195341888312775" lon="12.229561970214638"><ele>573.0</ele><time>2026-04-04T08:23:03Z</time></trkpt><trkpt lat="42.19532273622086" lon="12.229671580449315"><ele>573.0</ele><time>2026-04-04T08:23:06Z</time></trkpt><trkpt lat="42.19530205554698" lon="12.229765648414782"><ele>573.0</ele><time>2026-04-04T08:23:08Z</time></trkpt><trkpt lat="42.19527251807736" lon="12.229887180850577"><ele>573.0</ele><time>2026-04-04T08:23:10Z</time></trkpt><trkpt lat="42.19524617621438" lon="12.230006117886221"><ele>573.0</ele><time>2026-04-04T08:23:13Z</time></trkpt><trkpt lat="42.19524136514937" lon="12.230100862255089"><ele>573.0</ele><time>2026-04-04T08:23:15Z</time></trkpt><trkpt lat="42.1952115219626" lon="12.230212065769475"><ele>574.1666666666666</ele><time>2026-04-04T08:23:18Z</time></trkpt><trkpt lat="42.195196101300205" lon="12.230302815051234"><ele>575.3333333333334</ele><time>2026-04-04T08:23:20Z</time></trkpt><trkpt lat="42.19517843708706" lon="12.230420722967265"><ele>576.5</ele><time>2026-04-04T08:23:23Z</time></trkpt><trkpt lat="42.195147343455275" lon="12.23053193667747"><ele>577.6666666666667</ele><time>2026-04-04T08:23:26Z</time></trkpt><trkpt lat="42.19515267387834" lon="12.23065454335806"><ele>578.8333333333334</ele><time>2026-04-04T08:23:29Z</time></trkpt><trkpt lat="42.19514771774868" lon="12.230747405862866"><ele>580.0</ele><time>2026-04-04T08:23:31Z</time></trkpt><trkpt lat="42.195118380759496" lon="12.2308519123766"><ele>580.6666666666667</ele><time>2026-04-04T08:23:34Z</time></trkpt><trkpt lat="42.19508868251852" lon="12.230956367581355"><ele>581.3333333333334</ele><time>2026-04-04T08:23:37Z</time></trkpt><trkpt lat="42.19507682265129" lon="12.231051984965877"><ele>582.0</ele><time>2026-04-04T08:23:39Z</time></trkpt><trkpt lat="42.19507170372009" lon="12.231138191684545"><ele>582.6666666666666</ele><time>2026-04-04T08:23:41Z</time></trkpt><trkpt lat="42.195039252313414" lon="12.231225142322048"><ele>583.3333333333333</ele><time>2026-04-04T08:23:44Z</time></trkpt><trkpt lat="42.19497147819703" lon="12.231328268924369"><ele>584.0</ele><time>2026-04-04T08:23:47Z</time></trkpt><trkpt lat="42.19490347063187" lon="12.231359403748005"><ele>583.5</ele><time>2026-04-04T08:23:52Z</time></trkpt><trkpt lat="42.19466935569003" lon="12.231372423991186"><ele>583.0</ele><time>2026-04-04T08:24:14Z</time></trkpt><trkpt lat="42.19460906469728" lon="12.231339881457702"><ele>582.5</ele><time>2026-04-04T08:24:15Z</time></trkpt><trkpt lat="42.19454667474986" lon="12.231358989438531"><ele>582.0</ele><time>2026-04-04T08:24:16Z</time></trkpt><trkpt lat="42.19441985713269" lon="12.231374785062137"><ele>582.0</ele><time>2026-04-04T08:24:18Z</time></trkpt><trkpt lat="42.19430696746694" lon="12.23134723647155"><ele>582.0</ele><time>2026-04-04T08:24:20Z</time></trkpt><trkpt lat="42.19423950952838" lon="12.231347283183176"><ele>582.0</ele><time>2026-04-04T08:24:21Z</time></trkpt><trkpt lat="42.19416190327666" lon="12.231335542506601"><ele>582.0</ele><time>2026-04-04T08:24:22Z</time></trkpt><trkpt lat="42.19409292241142" lon="12.23130981970299"><ele>582.0</ele><time>2026-04-04T08:24:23Z</time></trkpt><trkpt lat="42.194024513293826" lon="12.23128533372846"><ele>582.0</ele><time>2026-04-04T08:24:24Z</time></trkpt><trkpt lat="42.19395118134005" lon="12.231268057020387"><ele>581.8000000000001</ele><time>2026-04-04T08:24:25Z</time></trkpt><trkpt lat="42.193885873836244" lon="12.231243033096286"><ele>581.6</ele><time>2026-04-04T08:24:26Z</time></trkpt><trkpt lat="42.19377753497094" lon="12.231196728663033"><ele>581.4000000000001</ele><time>2026-04-04T08:24:28Z</time></trkpt><trkpt lat="42.19368428449352" lon="12.231138590903099"><ele>581.2</ele><time>2026-04-04T08:24:30Z</time></trkpt><trkpt lat="42.19362248163581" lon="12.231076647554188"><ele>581.0</ele><time>2026-04-04T08:24:33Z</time></trkpt><trkpt lat="42.19354464214887" lon="12.231011925136212"><ele>581.0</ele><time>2026-04-04T08:24:35Z</time></trkpt><trkpt lat="42.19346709173468" lon="12.230964237627905"><ele>581.0</ele><time>2026-04-04T08:24:37Z</time></trkpt><trkpt lat="42.19337863805788" lon="12.230920160474348"><ele>581.0</ele><time>2026-04-04T08:24:39Z</time></trkpt><trkpt lat="42.19330121996625" lon="12.230840079513724"><ele>581.0</ele><time>2026-04-04T08:24:41Z</time></trkpt><trkpt lat="42.193217299527966" lon="12.230785163555057"><ele>581.0</ele><time>2026-04-04T08:24:43Z</time></trkpt><trkpt lat="42.193156928141256" lon="12.23073703468659"><ele>581.0</ele><time>2026-04-04T08:24:45Z</time></trkpt><trkpt lat="42.19307250585639" lon="12.230753038581765"><ele>579.6666666666666</ele><time>2026-04-04T08:24:47Z</time></trkpt><trkpt lat="42.19299271499414" lon="12.230726038001215"><ele>578.3333333333333</ele><time>2026-04-04T08:24:49Z</time></trkpt><trkpt lat="42.1929072998633" lon="12.230698035072598"><ele>577.0</ele><time>2026-04-04T08:24:51Z</time></trkpt><trkpt lat="42.19280889990525" lon="12.2307411725102"><ele>575.6666666666666</ele><time>2026-04-04T08:24:53Z</time></trkpt><trkpt lat="42.19274220497416" lon="12.230737131234822"><ele>574.3333333333334</ele><time>2026-04-04T08:24:54Z</time></trkpt><trkpt lat="42.19267266228398" lon="12.230722857178923"><ele>573.0</ele><time>2026-04-04T08:24:55Z</time></trkpt><trkpt lat="42.1926081972993" lon="12.230715495511305"><ele>573.0</ele><time>2026-04-04T08:24:56Z</time></trkpt><trkpt lat="42.19254071833635" lon="12.230693600152264"><ele>573.0</ele><time>2026-04-04T08:24:59Z</time></trkpt><trkpt lat="42.19246736765539" lon="12.230659728294116"><ele>573.0</ele><time>2026-04-04T08:25:01Z</time></trkpt><trkpt lat="42.192383847440595" lon="12.230593967006744"><ele>573.0</ele><time>2026-04-04T08:25:03Z</time></trkpt><trkpt lat="42.19229879175927" lon="12.230560673060026"><ele>573.0</ele><time>2026-04-04T08:25:05Z</time></trkpt><trkpt lat="42.19223372730654" lon="12.230522354260197"><ele>573.0</ele><time>2026-04-04T08:25:08Z</time></trkpt><trkpt lat="42.19214913376965" lon="12.230455478903488"><ele>568.0</ele><time>2026-04-04T08:25:10Z</time></trkpt><trkpt lat="42.19203810822722" lon="12.23037164812486"><ele>563.0</ele><time>2026-04-04T08:25:11Z</time></trkpt><trkpt lat="42.19196431187847" lon="12.230348895066319"><ele>558.0</ele><time>2026-04-04T08:25:12Z</time></trkpt><trkpt lat="42.19189734235752" lon="12.230332004118528"><ele>553.0</ele><time>2026-04-04T08:25:13Z</time></trkpt><trkpt lat="42.191830057166264" lon="12.230306442750337"><ele>548.0</ele><time>2026-04-04T08:25:14Z</time></trkpt><trkpt lat="42.19171300725044" lon="12.230257346314433"><ele>548.0</ele><time>2026-04-04T08:25:16Z</time></trkpt><trkpt lat="42.191603554021704" lon="12.230216146151196"><ele>548.0</ele><time>2026-04-04T08:25:18Z</time></trkpt><trkpt lat="42.1915222579957" lon="12.230172445008694"><ele>548.0</ele><time>2026-04-04T08:25:20Z</time></trkpt><trkpt lat="42.191418272652506" lon="12.230131881323576"><ele>548.0</ele><time>2026-04-04T08:25:22Z</time></trkpt><trkpt lat="42.19131106966492" lon="12.230076830610745"><ele>548.0</ele><time>2026-04-04T08:25:24Z</time></trkpt><trkpt lat="42.19123080687686" lon="12.230007240117462"><ele>544.6</ele><time>2026-04-04T08:25:26Z</time></trkpt><trkpt lat="42.191158809627964" lon="12.229952574791698"><ele>541.1999999999999</ele><time>2026-04-04T08:25:28Z</time></trkpt><trkpt lat="42.19103293590359" lon="12.22983274298129"><ele>537.8</ele><time>2026-04-04T08:25:40Z</time></trkpt><trkpt lat="42.19098256639695" lon="12.229771557142282"><ele>534.4</ele><time>2026-04-04T08:25:41Z</time></trkpt><trkpt lat="42.19092777158861" lon="12.229710498062694"><ele>531.0</ele><time>2026-04-04T08:25:42Z</time></trkpt><trkpt lat="42.190863266036615" lon="12.229635487988228"><ele>529.1666666666666</ele><time>2026-04-04T08:25:43Z</time></trkpt><trkpt lat="42.1908037828495" lon="12.229576996008763"><ele>527.3333333333334</ele><time>2026-04-04T08:25:44Z</time></trkpt><trkpt lat="42.190754916410256" lon="12.229517833879784"><ele>525.5</ele><time>2026-04-04T08:25:45Z</time></trkpt><trkpt lat="42.19069924264636" lon="12.229446445770174"><ele>523.6666666666667</ele><time>2026-04-04T08:25:46Z</time></trkpt><trkpt lat="42.190653083642665" lon="12.229369053585001"><ele>521.8333333333334</ele><time>2026-04-04T08:25:47Z</time></trkpt><trkpt lat="42.190550650818125" lon="12.229295156614713"><ele>520.0</ele><time>2026-04-04T08:25:49Z</time></trkpt><trkpt lat="42.19048647126535" lon="12.229251669219803"><ele>516.75</ele><time>2026-04-04T08:25:50Z</time></trkpt><trkpt lat="42.19043345874193" lon="12.229174645299448"><ele>513.5</ele><time>2026-04-04T08:25:51Z</time></trkpt><trkpt lat="42.190309211446944" lon="12.22907479801715"><ele>510.25</ele><time>2026-04-04T08:25:53Z</time></trkpt><trkpt lat="42.19020626113275" lon="12.228972238133077"><ele>507.0</ele><time>2026-04-04T08:25:55Z</time></trkpt><trkpt lat="42.190130697027115" lon="12.228851363991808"><ele>504.8</ele><time>2026-04-04T08:25:57Z</time></trkpt><trkpt lat="42.190033467873135" lon="12.22873279225183"><ele>502.6</ele><time>2026-04-04T08:25:59Z</time></trkpt><trkpt lat="42.18994503445416" lon="12.22863319836648"><ele>500.40000000000003</ele><time>2026-04-04T08:26:01Z</time></trkpt><trkpt lat="42.189857077993345" lon="12.228529583594701"><ele>498.20000000000005</ele><time>2026-04-04T08:26:03Z</time></trkpt><trkpt lat="42.189788552087656" lon="12.22845945161088"><ele>496.0</ele><time>2026-04-04T08:26:05Z</time></trkpt><trkpt lat="42.18972910127677" lon="12.228384784553233"><ele>493.50000000000006</ele><time>2026-04-04T08:26:07Z</time></trkpt><trkpt lat="42.18966777014942" lon="12.228329288240175"><ele>491.0</ele><time>2026-04-04T08:26:22Z</time></trkpt><trkpt lat="42.18960233104131" lon="12.228235980626975"><ele>488.5</ele><time>2026-04-04T08:26:24Z</time></trkpt><trkpt lat="42.18950920745337" lon="12.228151111279363"><ele>486.0</ele><time>2026-04-04T08:26:26Z</time></trkpt><trkpt lat="42.18945585182004" lon="12.22808090123375"><ele>483.50000000000006</ele><time>2026-04-04T08:26:27Z</time></trkpt><trkpt lat="42.18940016510302" lon="12.228000046962885"><ele>481.0</ele><time>2026-04-04T08:26:28Z</time></trkpt><trkpt lat="42.189306016319385" lon="12.227893284857343"><ele>479.0</ele><time>2026-04-04T08:26:30Z</time></trkpt><trkpt lat="42.18923242226842" lon="12.227788889967972"><ele>477.0</ele><time>2026-04-04T08:26:32Z</time></trkpt><trkpt lat="42.1891827983145" lon="12.227732645147551"><ele>475.0</ele><time>2026-04-04T08:26:33Z</time></trkpt><trkpt lat="42.18909149456" lon="12.227632533761437"><ele>473.0</ele><time>2026-04-04T08:26:35Z</time></trkpt><trkpt lat="42.18899755858374" lon="12.227535445709162"><ele>471.0</ele><time>2026-04-04T08:26:37Z</time></trkpt><trkpt lat="42.188907092208765" lon="12.227413848662025"><ele>465.0</ele><time>2026-04-04T08:26:39Z</time></trkpt><trkpt lat="42.18882098253586" lon="12.22729490238112"><ele>459.0</ele><time>2026-04-04T08:26:41Z</time></trkpt><trkpt lat="42.18874916505828" lon="12.227174642413312"><ele>453.0</ele><time>2026-04-04T08:26:43Z</time></trkpt><trkpt lat="42.188680827560916" lon="12.227054993659484"><ele>447.0</ele><time>2026-04-04T08:26:45Z</time></trkpt><trkpt lat="42.18857505682193" lon="12.226947661048168"><ele>447.0</ele><time>2026-04-04T08:26:47Z</time></trkpt><trkpt lat="42.18852951632464" lon="12.226863170447764"><ele>447.0</ele><time>2026-04-04T08:26:48Z</time></trkpt><trkpt lat="42.18849159491211" lon="12.22677203797716"><ele>447.0</ele><time>2026-04-04T08:26:49Z</time></trkpt><trkpt lat="42.188456315268596" lon="12.226678328729296"><ele>447.0</ele><time>2026-04-04T08:26:50Z</time></trkpt><trkpt lat="42.188413304208694" lon="12.226584618201203"><ele>447.0</ele><time>2026-04-04T08:26:51Z</time></trkpt><trkpt lat="42.18837279627929" lon="12.226477824897696"><ele>447.0</ele><time>2026-04-04T08:26:52Z</time></trkpt><trkpt lat="42.18832254453046" lon="12.226361086415283"><ele>445.5</ele><time>2026-04-04T08:26:53Z</time></trkpt><trkpt lat="42.1882746335079" lon="12.226240819288211"><ele>444.0</ele><time>2026-04-04T08:26:54Z</time></trkpt><trkpt lat="42.188233376439605" lon="12.226127700370911"><ele>442.5</ele><time>2026-04-04T08:26:55Z</time></trkpt><trkpt lat="42.18818997164363" lon="12.226022108497258"><ele>441.0</ele><time>2026-04-04T08:26:56Z</time></trkpt><trkpt lat="42.1881534086985" lon="12.225929581871288"><ele>439.5</ele><time>2026-04-04T08:26:57Z</time></trkpt><trkpt lat="42.1881192500253" lon="12.225856756684806"><ele>438.0</ele><time>2026-04-04T08:26:58Z</time></trkpt><trkpt lat="42.188088327127474" lon="12.225748687323337"><ele>436.1666666666667</ele><time>2026-04-04T08:27:00Z</time></trkpt><trkpt lat="42.188121489697295" lon="12.225663049874765"><ele>434.33333333333337</ele><time>2026-04-04T08:27:02Z</time></trkpt><trkpt lat="42.18818136183944" lon="12.225616307931734"><ele>432.5</ele><time>2026-04-04T08:27:06Z</time></trkpt><trkpt lat="42.18824018259345" lon="12.225582537117342"><ele>430.6666666666667</ele><time>2026-04-04T08:27:09Z</time></trkpt><trkpt lat="42.18834278649506" lon="12.225561796487325"><ele>428.83333333333337</ele><time>2026-04-04T08:27:13Z</time></trkpt><trkpt lat="42.18840784133306" lon="12.225534649600379"><ele>427.0</ele><time>2026-04-04T08:27:16Z</time></trkpt><trkpt lat="42.188480862718855" lon="12.225475705175002"><ele>426.83333333333337</ele><time>2026-04-04T08:27:19Z</time></trkpt><trkpt lat="42.18852754918364" lon="12.225370975602281"><ele>426.6666666666667</ele><time>2026-04-04T08:27:22Z</time></trkpt><trkpt lat="42.18861468121597" lon="12.225282590538745"><ele>426.5</ele><time>2026-04-04T08:27:24Z</time></trkpt><trkpt lat="42.1886704213002" lon="12.225240696435813"><ele>426.33333333333337</ele><time>2026-04-04T08:27:25Z</time></trkpt><trkpt lat="42.188737415459265" lon="12.225225008738953"><ele>426.1666666666667</ele><time>2026-04-04T08:27:26Z</time></trkpt><trkpt lat="42.188803470710674" lon="12.225197529114206"><ele>426.0</ele><time>2026-04-04T08:27:27Z</time></trkpt><trkpt lat="42.18886842369761" lon="12.225176493480133"><ele>426.0</ele><time>2026-04-04T08:27:28Z</time></trkpt><trkpt lat="42.18892763815905" lon="12.22514487560412"><ele>426.0</ele><time>2026-04-04T08:27:29Z</time></trkpt><trkpt lat="42.18899523144856" lon="12.22510600041841"><ele>426.0</ele><time>2026-04-04T08:27:31Z</time></trkpt><trkpt lat="42.18906666923453" lon="12.224997720687734"><ele>426.0</ele><time>2026-04-04T08:27:34Z</time></trkpt><trkpt lat="42.18915370779134" lon="12.224889920517844"><ele>426.0</ele><time>2026-04-04T08:27:36Z</time></trkpt><trkpt lat="42.189245280411335" lon="12.224715017308808"><ele>422.6</ele><time>2026-04-04T08:27:38Z</time></trkpt><trkpt lat="42.189367889362764" lon="12.224676754578452"><ele>419.20000000000005</ele><time>2026-04-04T08:27:40Z</time></trkpt><trkpt lat="42.18948141703115" lon="12.22460879651541"><ele>415.79999999999995</ele><time>2026-04-04T08:27:42Z</time></trkpt><trkpt lat="42.18953586124453" lon="12.22455666816703"><ele>412.4</ele><time>2026-04-04T08:27:43Z</time></trkpt><trkpt lat="42.18958777550094" lon="12.224493773382626"><ele>409.0</ele><time>2026-04-04T08:27:44Z</time></trkpt><trkpt lat="42.1896387438053" lon="12.224412295177986"><ele>409.0</ele><time>2026-04-04T08:27:45Z</time></trkpt><trkpt lat="42.18969023140227" lon="12.224329385038217"><ele>409.0</ele><time>2026-04-04T08:27:46Z</time></trkpt><trkpt lat="42.189725415026984" lon="12.224223795014229"><ele>409.0</ele><time>2026-04-04T08:27:48Z</time></trkpt><trkpt lat="42.18975853991097" lon="12.224138099934036"><ele>409.0</ele><time>2026-04-04T08:27:50Z</time></trkpt><trkpt lat="42.18980303586135" lon="12.22407185866378"><ele>409.0</ele><time>2026-04-04T08:27:59Z</time></trkpt><trkpt lat="42.18975343599459" lon="12.224010697968083"><ele>409.0</ele><time>2026-04-04T08:36:18Z</time></trkpt><trkpt lat="42.18977768678826" lon="12.22392743024356"><ele>409.0</ele><time>2026-04-04T08:36:20Z</time></trkpt><trkpt lat="42.18982654266596" lon="12.223825859327588"><ele>406.79999999999995</ele><time>2026-04-04T08:36:22Z</time></trkpt><trkpt lat="42.189866255956325" lon="12.223721365709698"><ele>404.59999999999997</ele><time>2026-04-04T08:36:24Z</time></trkpt><trkpt lat="42.18991433008476" lon="12.223620238658464"><ele>402.4</ele><time>2026-04-04T08:36:26Z</time></trkpt><trkpt lat="42.18995510493928" lon="12.223501223557367"><ele>400.2</ele><time>2026-04-04T08:36:28Z</time></trkpt><trkpt lat="42.19000210491155" lon="12.22337828026542"><ele>398.0</ele><time>2026-04-04T08:36:30Z</time></trkpt><trkpt lat="42.190050502104626" lon="12.223251137429267"><ele>398.0</ele><time>2026-04-04T08:36:32Z</time></trkpt><trkpt lat="42.19010005197753" lon="12.223122608947415"><ele>398.0</ele><time>2026-04-04T08:36:34Z</time></trkpt><trkpt lat="42.19015169375279" lon="12.223008008518514"><ele>398.0</ele><time>2026-04-04T08:36:36Z</time></trkpt><trkpt lat="42.19019456728173" lon="12.222891669854949"><ele>398.0</ele><time>2026-04-04T08:36:38Z</time></trkpt><trkpt lat="42.19023927131819" lon="12.222781610165757"><ele>398.0</ele><time>2026-04-04T08:36:40Z</time></trkpt><trkpt lat="42.19028626884745" lon="12.222661720107375"><ele>398.0</ele><time>2026-04-04T08:36:42Z</time></trkpt><trkpt lat="42.19033743545019" lon="12.222531296553635"><ele>398.0</ele><time>2026-04-04T08:36:44Z</time></trkpt><trkpt lat="42.1903818670821" lon="12.22239677343222"><ele>398.0</ele><time>2026-04-04T08:36:46Z</time></trkpt><trkpt lat="42.19043378780207" lon="12.22227436778353"><ele>398.0</ele><time>2026-04-04T08:36:48Z</time></trkpt><trkpt lat="42.19048193471515" lon="12.222148148588262"><ele>398.0</ele><time>2026-04-04T08:36:50Z</time></trkpt><trkpt lat="42.19052633078591" lon="12.222021469030121"><ele>398.0</ele><time>2026-04-04T08:36:52Z</time></trkpt><trkpt lat="42.19058060841686" lon="12.221904983802313"><ele>398.0</ele><time>2026-04-04T08:36:54Z</time></trkpt><trkpt lat="42.190628170139725" lon="12.221779329998354"><ele>398.0</ele><time>2026-04-04T08:36:56Z</time></trkpt><trkpt lat="42.190676242310595" lon="12.221646328080508"><ele>398.0</ele><time>2026-04-04T08:36:58Z</time></trkpt><trkpt lat="42.190722419757876" lon="12.221519323163069"><ele>398.0</ele><time>2026-04-04T08:37:00Z</time></trkpt><trkpt lat="42.19077521520625" lon="12.221394605286521"><ele>398.0</ele><time>2026-04-04T08:37:02Z</time></trkpt><trkpt lat="42.19082795655599" lon="12.22127469810369"><ele>398.0</ele><time>2026-04-04T08:37:04Z</time></trkpt><trkpt lat="42.19087185364556" lon="12.221147222278846"><ele>398.0</ele><time>2026-04-04T08:37:06Z</time></trkpt><trkpt lat="42.19091855753476" lon="12.221037458220378"><ele>398.0</ele><time>2026-04-04T08:37:08Z</time></trkpt><trkpt lat="42.19096748587473" lon="12.220905658687151"><ele>398.0</ele><time>2026-04-04T08:37:10Z</time></trkpt><trkpt lat="42.19101371852508" lon="12.220781355747492"><ele>398.0</ele><time>2026-04-04T08:37:12Z</time></trkpt><trkpt lat="42.19106068106449" lon="12.220653056248183"><ele>398.0</ele><time>2026-04-04T08:37:14Z</time></trkpt><trkpt lat="42.1911126135769" lon="12.22053071017958"><ele>398.0</ele><time>2026-04-04T08:37:16Z</time></trkpt><trkpt lat="42.19115748852707" lon="12.220413210558318"><ele>398.0</ele><time>2026-04-04T08:37:18Z</time></trkpt><trkpt lat="42.191209107938256" lon="12.22029876655762"><ele>398.0</ele><time>2026-04-04T08:37:20Z</time></trkpt><trkpt lat="42.19125354633598" lon="12.22017658081853"><ele>398.59999999999997</ele><time>2026-04-04T08:37:22Z</time></trkpt><trkpt lat="42.19129787783261" lon="12.220055040586255"><ele>399.2</ele><time>2026-04-04T08:37:24Z</time></trkpt><trkpt lat="42.19134767032632" lon="12.219947458981903"><ele>399.8</ele><time>2026-04-04T08:37:26Z</time></trkpt><trkpt lat="42.191395711253115" lon="12.219843029041101"><ele>400.4</ele><time>2026-04-04T08:37:28Z</time></trkpt><trkpt lat="42.19142717563622" lon="12.219734658560762"><ele>401.0</ele><time>2026-04-04T08:37:30Z</time></trkpt><trkpt lat="42.191469149611834" lon="12.219637256425793"><ele>401.3333333333333</ele><time>2026-04-04T08:37:32Z</time></trkpt><trkpt lat="42.1915037004337" lon="12.219542499418349"><ele>401.66666666666663</ele><time>2026-04-04T08:37:34Z</time></trkpt><trkpt lat="42.19154555193953" lon="12.21943494551958"><ele>402.0</ele><time>2026-04-04T08:37:56Z</time></trkpt><trkpt lat="42.1915788713755" lon="12.219344819568285"><ele>402.33333333333337</ele><time>2026-04-04T08:37:58Z</time></trkpt><trkpt lat="42.19161983561905" lon="12.219237348595833"><ele>402.6666666666667</ele><time>2026-04-04T08:38:00Z</time></trkpt><trkpt lat="42.19166835961937" lon="12.219113588056368"><ele>403.0</ele><time>2026-04-04T08:38:02Z</time></trkpt><trkpt lat="42.191712482497095" lon="12.218997355739965"><ele>403.4</ele><time>2026-04-04T08:38:04Z</time></trkpt><trkpt lat="42.191763658244106" lon="12.21887095392833"><ele>403.79999999999995</ele><time>2026-04-04T08:38:06Z</time></trkpt><trkpt lat="42.191826775070794" lon="12.218745561026445"><ele>404.2</ele><time>2026-04-04T08:38:08Z</time></trkpt><trkpt lat="42.19187741585879" lon="12.218613578706764"><ele>404.6</ele><time>2026-04-04T08:38:10Z</time></trkpt><trkpt lat="42.19192760203814" lon="12.218482781208383"><ele>405.0</ele><time>2026-04-04T08:38:12Z</time></trkpt><trkpt lat="42.19198046663231" lon="12.218345003094115"><ele>405.0</ele><time>2026-04-04T08:38:14Z</time></trkpt><trkpt lat="42.19203125758229" lon="12.218212629405127"><ele>405.0</ele><time>2026-04-04T08:38:16Z</time></trkpt><trkpt lat="42.19208399196593" lon="12.218075190652009"><ele>405.0</ele><time>2026-04-04T08:38:18Z</time></trkpt><trkpt lat="42.19213010898104" lon="12.217954998393758"><ele>405.0</ele><time>2026-04-04T08:38:20Z</time></trkpt><trkpt lat="42.1921853677127" lon="12.217810980578863"><ele>405.0</ele><time>2026-04-04T08:38:22Z</time></trkpt><trkpt lat="42.1922354913449" lon="12.21768034609515"><ele>405.4</ele><time>2026-04-04T08:38:24Z</time></trkpt><trkpt lat="42.192266860590394" lon="12.217532445898403"><ele>405.8</ele><time>2026-04-04T08:38:26Z</time></trkpt><trkpt lat="42.192316679599166" lon="12.217396146502304"><ele>406.20000000000005</ele><time>2026-04-04T08:38:28Z</time></trkpt><trkpt lat="42.19236945894827" lon="12.217263278576715"><ele>406.6</ele><time>2026-04-04T08:38:30Z</time></trkpt><trkpt lat="42.192422344739555" lon="12.217132045897454"><ele>407.0</ele><time>2026-04-04T08:38:32Z</time></trkpt><trkpt lat="42.192466859338786" lon="12.216995113458598"><ele>407.25</ele><time>2026-04-04T08:38:34Z</time></trkpt><trkpt lat="42.192520141209855" lon="12.216867690448098"><ele>407.5</ele><time>2026-04-04T08:38:36Z</time></trkpt><trkpt lat="42.19256923819679" lon="12.216733100074897"><ele>407.75</ele><time>2026-04-04T08:38:38Z</time></trkpt><trkpt lat="42.192611063323355" lon="12.216605509414844"><ele>408.0</ele><time>2026-04-04T08:38:40Z</time></trkpt><trkpt lat="42.192672318584876" lon="12.216454835055295"><ele>408.4</ele><time>2026-04-04T08:38:43Z</time></trkpt><trkpt lat="42.19271864629744" lon="12.216348320933825"><ele>408.79999999999995</ele><time>2026-04-04T08:38:45Z</time></trkpt><trkpt lat="42.19275288440788" lon="12.21623269631871"><ele>409.2</ele><time>2026-04-04T08:38:47Z</time></trkpt><trkpt lat="42.192822677531325" lon="12.216017008978067"><ele>409.6</ele><time>2026-04-04T08:38:50Z</time></trkpt><trkpt lat="42.192856196697186" lon="12.215920639766383"><ele>410.0</ele><time>2026-04-04T08:38:52Z</time></trkpt><trkpt lat="42.19287458218019" lon="12.215831144233523"><ele>410.0</ele><time>2026-04-04T08:38:54Z</time></trkpt><trkpt lat="42.192847543459365" lon="12.215716952610254"><ele>410.0</ele><time>2026-04-04T08:38:56Z</time></trkpt><trkpt lat="42.19277933775901" lon="12.215617990070008"><ele>410.0</ele><time>2026-04-04T08:38:58Z</time></trkpt><trkpt lat="42.19267794322981" lon="12.215511968189409"><ele>410.0</ele><time>2026-04-04T08:39:00Z</time></trkpt><trkpt lat="42.192579869402756" lon="12.215404217698143"><ele>410.0</ele><time>2026-04-04T08:39:02Z</time></trkpt><trkpt lat="42.19253406285798" lon="12.215340573908865"><ele>410.2</ele><time>2026-04-04T08:39:03Z</time></trkpt><trkpt lat="42.192447131555085" lon="12.21522867670222"><ele>410.4</ele><time>2026-04-04T08:39:05Z</time></trkpt><trkpt lat="42.192392850225126" lon="12.215178409518083"><ele>410.6</ele><time>2026-04-04T08:39:06Z</time></trkpt><trkpt lat="42.19233790008815" lon="12.21512122416101"><ele>410.8</ele><time>2026-04-04T08:39:07Z</time></trkpt><trkpt lat="42.19224153224183" lon="12.215076702839523"><ele>411.0</ele><time>2026-04-04T08:39:09Z</time></trkpt><trkpt lat="42.192146970458126" lon="12.214984936190083"><ele>411.20000000000005</ele><time>2026-04-04T08:39:11Z</time></trkpt><trkpt lat="42.19204704637731" lon="12.21488669037463"><ele>411.40000000000003</ele><time>2026-04-04T08:39:13Z</time></trkpt><trkpt lat="42.19195703066379" lon="12.214795078198737"><ele>411.6</ele><time>2026-04-04T08:39:15Z</time></trkpt><trkpt lat="42.19186271302633" lon="12.214722492360305"><ele>411.8</ele><time>2026-04-04T08:39:17Z</time></trkpt><trkpt lat="42.191776836400535" lon="12.214669824792935"><ele>412.0</ele><time>2026-04-04T08:39:19Z</time></trkpt><trkpt lat="42.19167601685598" lon="12.214594867490401"><ele>412.8</ele><time>2026-04-04T08:39:21Z</time></trkpt><trkpt lat="42.19158582331197" lon="12.214546050872647"><ele>413.6</ele><time>2026-04-04T08:39:23Z</time></trkpt><trkpt lat="42.19148563213541" lon="12.214480944460686"><ele>414.40000000000003</ele><time>2026-04-04T08:39:25Z</time></trkpt><trkpt lat="42.191439317820105" lon="12.214418059743366"><ele>415.20000000000005</ele><time>2026-04-04T08:39:26Z</time></trkpt><trkpt lat="42.19133550513936" lon="12.214352427463844"><ele>416.0</ele><time>2026-04-04T08:39:28Z</time></trkpt><trkpt lat="42.19125196940666" lon="12.214293846606077"><ele>416.8</ele><time>2026-04-04T08:39:30Z</time></trkpt><trkpt lat="42.191161153943284" lon="12.214240665357671"><ele>417.6</ele><time>2026-04-04T08:39:32Z</time></trkpt><trkpt lat="42.191078485169996" lon="12.214162895830283"><ele>418.4</ele><time>2026-04-04T08:39:34Z</time></trkpt><trkpt lat="42.19098301069564" lon="12.21408487666704"><ele>419.2</ele><time>2026-04-04T08:39:36Z</time></trkpt><trkpt lat="42.19089955453409" lon="12.214039276123133"><ele>420.0</ele><time>2026-04-04T08:39:38Z</time></trkpt><trkpt lat="42.19081228864691" lon="12.213991606442798"><ele>420.0</ele><time>2026-04-04T08:39:40Z</time></trkpt><trkpt lat="42.19074243502841" lon="12.213907457543318"><ele>420.0</ele><time>2026-04-04T08:39:42Z</time></trkpt><trkpt lat="42.190655990443574" lon="12.213851984314024"><ele>420.0</ele><time>2026-04-04T08:39:44Z</time></trkpt><trkpt lat="42.1905677104816" lon="12.2138102548753"><ele>420.0</ele><time>2026-04-04T08:39:46Z</time></trkpt><trkpt lat="42.19050100222771" lon="12.21369503508635"><ele>420.0</ele><time>2026-04-04T08:39:48Z</time></trkpt><trkpt lat="42.19043937858515" lon="12.213616053459226"><ele>419.5</ele><time>2026-04-04T08:39:50Z</time></trkpt><trkpt lat="42.19037804657979" lon="12.213523682149464"><ele>419.0</ele><time>2026-04-04T08:39:52Z</time></trkpt><trkpt lat="42.19031752589437" lon="12.213425564401028"><ele>418.5</ele><time>2026-04-04T08:39:54Z</time></trkpt><trkpt lat="42.19026197439913" lon="12.213340103618423"><ele>418.0</ele><time>2026-04-04T08:39:56Z</time></trkpt><trkpt lat="42.19020903324129" lon="12.213260649065248"><ele>417.5</ele><time>2026-04-04T08:39:58Z</time></trkpt><trkpt lat="42.190161960542106" lon="12.213190383633842"><ele>417.0</ele><time>2026-04-04T08:40:00Z</time></trkpt><trkpt lat="42.1900912094536" lon="12.213104596453256"><ele>416.5</ele><time>2026-04-04T08:40:03Z</time></trkpt><trkpt lat="42.1900443692254" lon="12.21304322833126"><ele>416.0</ele><time>2026-04-04T08:40:05Z</time></trkpt><trkpt lat="42.18996429045128" lon="12.212969278875494"><ele>415.5</ele><time>2026-04-04T08:40:09Z</time></trkpt><trkpt lat="42.18992053970577" lon="12.212892828502715"><ele>415.0</ele><time>2026-04-04T08:40:12Z</time></trkpt><trkpt lat="42.18987459597541" lon="12.212809343218895"><ele>414.5</ele><time>2026-04-04T08:40:15Z</time></trkpt><trkpt lat="42.189834073369546" lon="12.212735492473762"><ele>414.0</ele><time>2026-04-04T08:40:17Z</time></trkpt><trkpt lat="42.18979047000622" lon="12.212649344735784"><ele>414.0</ele><time>2026-04-04T08:40:20Z</time></trkpt><trkpt lat="42.18975843365895" lon="12.212550636911622"><ele>414.0</ele><time>2026-04-04T08:40:22Z</time></trkpt><trkpt lat="42.18971250791857" lon="12.212461477677028"><ele>414.0</ele><time>2026-04-04T08:40:25Z</time></trkpt><trkpt lat="42.18967582091292" lon="12.212374452811932"><ele>414.0</ele><time>2026-04-04T08:40:26Z</time></trkpt><trkpt lat="42.18963846086332" lon="12.21228728887464"><ele>414.0</ele><time>2026-04-04T08:40:28Z</time></trkpt><trkpt lat="42.18956952215307" lon="12.212214475521058"><ele>414.0</ele><time>2026-04-04T08:40:31Z</time></trkpt><trkpt lat="42.189480285348196" lon="12.212013915996128"><ele>415.8333333333333</ele><time>2026-04-04T08:40:33Z</time></trkpt><trkpt lat="42.18939244957324" lon="12.211886770910287"><ele>417.66666666666663</ele><time>2026-04-04T08:40:35Z</time></trkpt><trkpt lat="42.18935105828125" lon="12.211817844902004"><ele>419.5</ele><time>2026-04-04T08:40:36Z</time></trkpt><trkpt lat="42.18930968349978" lon="12.211752503585272"><ele>421.3333333333333</ele><time>2026-04-04T08:40:37Z</time></trkpt><trkpt lat="42.18926737066877" lon="12.211688458607055"><ele>423.16666666666663</ele><time>2026-04-04T08:40:38Z</time></trkpt><trkpt lat="42.1892210000212" lon="12.211624326937994"><ele>425.0</ele><time>2026-04-04T08:40:39Z</time></trkpt><trkpt lat="42.18914589545631" lon="12.21153497932581"><ele>424.3333333333333</ele><time>2026-04-04T08:40:40Z</time></trkpt><trkpt lat="42.189054215203164" lon="12.211390210905977"><ele>423.66666666666663</ele><time>2026-04-04T08:40:42Z</time></trkpt><trkpt lat="42.18899752565431" lon="12.211323428868061"><ele>423.0</ele><time>2026-04-04T08:40:43Z</time></trkpt><trkpt lat="42.18894610287067" lon="12.21126224147911"><ele>422.33333333333337</ele><time>2026-04-04T08:40:44Z</time></trkpt><trkpt lat="42.18888675881021" lon="12.211189989091906"><ele>421.6666666666667</ele><time>2026-04-04T08:40:45Z</time></trkpt><trkpt lat="42.18882659306383" lon="12.211115173354836"><ele>421.0</ele><time>2026-04-04T08:40:46Z</time></trkpt><trkpt lat="42.18876952094021" lon="12.21103094237087"><ele>421.0</ele><time>2026-04-04T08:40:47Z</time></trkpt><trkpt lat="42.1887149331221" lon="12.210948862379103"><ele>421.0</ele><time>2026-04-04T08:40:48Z</time></trkpt><trkpt lat="42.18865664320498" lon="12.210875507920047"><ele>421.0</ele><time>2026-04-04T08:40:49Z</time></trkpt><trkpt lat="42.18860537822049" lon="12.210776277707309"><ele>421.0</ele><time>2026-04-04T08:40:50Z</time></trkpt><trkpt lat="42.1885394614693" lon="12.210665368805387"><ele>421.0</ele><time>2026-04-04T08:40:51Z</time></trkpt><trkpt lat="42.18847906246068" lon="12.210559274670818"><ele>422.8</ele><time>2026-04-04T08:40:52Z</time></trkpt><trkpt lat="42.18841733937394" lon="12.210464906160505"><ele>424.6</ele><time>2026-04-04T08:40:53Z</time></trkpt><trkpt lat="42.188341115873776" lon="12.210386458184544"><ele>426.4</ele><time>2026-04-04T08:40:54Z</time></trkpt><trkpt lat="42.18827380109674" lon="12.210294433420426"><ele>428.2</ele><time>2026-04-04T08:40:55Z</time></trkpt><trkpt lat="42.188210029814776" lon="12.210211079709525"><ele>430.0</ele><time>2026-04-04T08:40:56Z</time></trkpt><trkpt lat="42.188145918944386" lon="12.210125552992748"><ele>428.6666666666667</ele><time>2026-04-04T08:40:57Z</time></trkpt><trkpt lat="42.188081918866104" lon="12.210042449662987"><ele>427.33333333333337</ele><time>2026-04-04T08:40:58Z</time></trkpt><trkpt lat="42.18801988497962" lon="12.209964892515057"><ele>426.0</ele><time>2026-04-04T08:40:59Z</time></trkpt><trkpt lat="42.187961472425044" lon="12.209890734059098"><ele>424.66666666666663</ele><time>2026-04-04T08:41:00Z</time></trkpt><trkpt lat="42.18790762277566" lon="12.209821269129527"><ele>423.3333333333333</ele><time>2026-04-04T08:41:01Z</time></trkpt><trkpt lat="42.187862504675884" lon="12.209744506502563"><ele>422.0</ele><time>2026-04-04T08:41:02Z</time></trkpt><trkpt lat="42.187812649768794" lon="12.209671869920308"><ele>421.99999999999994</ele><time>2026-04-04T08:41:03Z</time></trkpt><trkpt lat="42.187760157580186" lon="12.209612773702457"><ele>422.0</ele><time>2026-04-04T08:41:04Z</time></trkpt><trkpt lat="42.18771394614183" lon="12.209550168584528"><ele>422.0</ele><time>2026-04-04T08:41:05Z</time></trkpt><trkpt lat="42.187662928044745" lon="12.209488499349161"><ele>422.0</ele><time>2026-04-04T08:41:06Z</time></trkpt><trkpt lat="42.1875926009256" lon="12.20936864634344"><ele>421.99999999999994</ele><time>2026-04-04T08:41:08Z</time></trkpt><trkpt lat="42.187523186652676" lon="12.209258273811804"><ele>422.0</ele><time>2026-04-04T08:41:10Z</time></trkpt><trkpt lat="42.187473522636814" lon="12.209145932222436"><ele>422.0</ele><time>2026-04-04T08:41:12Z</time></trkpt><trkpt lat="42.18739276627436" lon="12.20905904990851"><ele>422.0</ele><time>2026-04-04T08:41:14Z</time></trkpt><trkpt lat="42.187327612573455" lon="12.208945661311407"><ele>422.0</ele><time>2026-04-04T08:41:16Z</time></trkpt><trkpt lat="42.18726177143876" lon="12.2088345270917"><ele>422.0</ele><time>2026-04-04T08:41:18Z</time></trkpt><trkpt lat="42.18721281858373" lon="12.208777245575675"><ele>422.0</ele><time>2026-04-04T08:41:19Z</time></trkpt><trkpt lat="42.1871619559637" lon="12.208705679163213"><ele>421.57142857142856</ele><time>2026-04-04T08:41:20Z</time></trkpt><trkpt lat="42.18711444743662" lon="12.208629286966714"><ele>421.14285714285717</ele><time>2026-04-04T08:41:21Z</time></trkpt><trkpt lat="42.18706035235659" lon="12.208558698061754"><ele>420.71428571428567</ele><time>2026-04-04T08:41:22Z</time></trkpt><trkpt lat="42.187007585964956" lon="12.208494443508712"><ele>420.2857142857143</ele><time>2026-04-04T08:41:23Z</time></trkpt><trkpt lat="42.186954037453845" lon="12.208437019848034"><ele>419.85714285714283</ele><time>2026-04-04T08:41:25Z</time></trkpt><trkpt lat="42.18688384163716" lon="12.208416186792352"><ele>419.4285714285714</ele><time>2026-04-04T08:42:44Z</time></trkpt><trkpt lat="42.18682604974233" lon="12.208375934145959"><ele>419.0</ele><time>2026-04-04T08:42:46Z</time></trkpt><trkpt lat="42.186763125738935" lon="12.208326993377284"><ele>419.0</ele><time>2026-04-04T08:42:48Z</time></trkpt><trkpt lat="42.18669762148646" lon="12.208251514152378"><ele>419.0</ele><time>2026-04-04T08:42:50Z</time></trkpt><trkpt lat="42.18661237875813" lon="12.208190037370123"><ele>419.0</ele><time>2026-04-04T08:42:52Z</time></trkpt><trkpt lat="42.186517101973216" lon="12.20810407242164"><ele>419.0</ele><time>2026-04-04T08:42:54Z</time></trkpt><trkpt lat="42.186425918909315" lon="12.208000185767355"><ele>419.0</ele><time>2026-04-04T08:42:56Z</time></trkpt><trkpt lat="42.18635440507484" lon="12.207844973507356"><ele>417.49999999999994</ele><time>2026-04-04T08:42:58Z</time></trkpt><trkpt lat="42.186306696647634" lon="12.207689352066316"><ele>416.0</ele><time>2026-04-04T08:43:00Z</time></trkpt><trkpt lat="42.18628848729598" lon="12.207605378765773"><ele>414.5</ele><time>2026-04-04T08:43:01Z</time></trkpt><trkpt lat="42.18627191271935" lon="12.207522717669697"><ele>413.0</ele><time>2026-04-04T08:43:02Z</time></trkpt><trkpt lat="42.1862591990527" lon="12.207430509458094"><ele>411.49999999999994</ele><time>2026-04-04T08:43:03Z</time></trkpt><trkpt lat="42.18624267811914" lon="12.207264322812632"><ele>410.0</ele><time>2026-04-04T08:43:05Z</time></trkpt><trkpt lat="42.18624615967633" lon="12.20717653412804"><ele>409.99999999999994</ele><time>2026-04-04T08:43:06Z</time></trkpt><trkpt lat="42.18625949440815" lon="12.207086029626351"><ele>410.0</ele><time>2026-04-04T08:43:07Z</time></trkpt><trkpt lat="42.18626094085104" lon="12.206994941770573"><ele>410.0</ele><time>2026-04-04T08:43:08Z</time></trkpt><trkpt lat="42.186282698713754" lon="12.20681778087463"><ele>410.0</ele><time>2026-04-04T08:43:10Z</time></trkpt><trkpt lat="42.18628721773494" lon="12.206722566096584"><ele>409.99999999999994</ele><time>2026-04-04T08:43:11Z</time></trkpt><trkpt lat="42.1862936226236" lon="12.206629177895573"><ele>410.0</ele><time>2026-04-04T08:43:12Z</time></trkpt><trkpt lat="42.186288160603404" lon="12.206533258638093"><ele>410.3333333333333</ele><time>2026-04-04T08:43:13Z</time></trkpt><trkpt lat="42.18627320442417" lon="12.206426696187199"><ele>410.66666666666663</ele><time>2026-04-04T08:43:14Z</time></trkpt><trkpt lat="42.18624771612392" lon="12.206320507370274"><ele>411.0</ele><time>2026-04-04T08:43:15Z</time></trkpt><trkpt lat="42.18619136692518" lon="12.20621961425585"><ele>411.33333333333337</ele><time>2026-04-04T08:43:16Z</time></trkpt><trkpt lat="42.18613946376363" lon="12.206147588509953"><ele>411.6666666666667</ele><time>2026-04-04T08:43:17Z</time></trkpt><trkpt lat="42.1860881291908" lon="12.206056171015794"><ele>412.0</ele><time>2026-04-04T08:43:18Z</time></trkpt><trkpt lat="42.186048735171916" lon="12.205950474493005"><ele>411.99999999999994</ele><time>2026-04-04T08:43:19Z</time></trkpt><trkpt lat="42.18602097960824" lon="12.205859551292919"><ele>412.0</ele><time>2026-04-04T08:43:20Z</time></trkpt><trkpt lat="42.18600134033562" lon="12.205768613889921"><ele>412.0</ele><time>2026-04-04T08:43:21Z</time></trkpt><trkpt lat="42.18598061977233" lon="12.205678329866414"><ele>412.0</ele><time>2026-04-04T08:43:22Z</time></trkpt><trkpt lat="42.185959618518176" lon="12.205574608599026"><ele>412.0</ele><time>2026-04-04T08:43:23Z</time></trkpt><trkpt lat="42.185936517845235" lon="12.205474781868961"><ele>411.99999999999994</ele><time>2026-04-04T08:43:24Z</time></trkpt><trkpt lat="42.18591825223637" lon="12.205388359439398"><ele>412.0</ele><time>2026-04-04T08:43:25Z</time></trkpt><trkpt lat="42.18591117629393" lon="12.205301980929121"><ele>412.0</ele><time>2026-04-04T08:43:26Z</time></trkpt><trkpt lat="42.18587985322407" lon="12.205213521822595"><ele>412.0</ele><time>2026-04-04T08:43:27Z</time></trkpt><trkpt lat="42.18582143395331" lon="12.205082674535257"><ele>412.0</ele><time>2026-04-04T08:43:29Z</time></trkpt><trkpt lat="42.18575256556912" lon="12.20495639755855"><ele>412.0</ele><time>2026-04-04T08:43:31Z</time></trkpt><trkpt lat="42.185711326386446" lon="12.204888595125746"><ele>412.0</ele><time>2026-04-04T08:43:32Z</time></trkpt><trkpt lat="42.18564414826623" lon="12.204778799019259"><ele>412.0</ele><time>2026-04-04T08:43:34Z</time></trkpt><trkpt lat="42.1855853493571" lon="12.204659733441229"><ele>412.0</ele><time>2026-04-04T08:43:36Z</time></trkpt><trkpt lat="42.18549882864629" lon="12.204550877926975"><ele>412.0</ele><time>2026-04-04T08:43:38Z</time></trkpt><trkpt lat="42.185410709844774" lon="12.20441747813632"><ele>412.0</ele><time>2026-04-04T08:43:41Z</time></trkpt><trkpt lat="42.18534787402471" lon="12.204315267377682"><ele>412.0</ele><time>2026-04-04T08:43:43Z</time></trkpt><trkpt lat="42.18528994583963" lon="12.204220667074836"><ele>412.0</ele><time>2026-04-04T08:43:45Z</time></trkpt><trkpt lat="42.1852420850277" lon="12.20411518640494"><ele>412.0</ele><time>2026-04-04T08:43:47Z</time></trkpt><trkpt lat="42.185188599463785" lon="12.204026164212411"><ele>412.0</ele><time>2026-04-04T08:43:49Z</time></trkpt><trkpt lat="42.18512915929712" lon="12.20394466627427"><ele>412.0</ele><time>2026-04-04T08:43:51Z</time></trkpt><trkpt lat="42.18506780785434" lon="12.203838708194677"><ele>414.25</ele><time>2026-04-04T08:43:54Z</time></trkpt><trkpt lat="42.18501515414456" lon="12.2037612081291"><ele>416.5</ele><time>2026-04-04T08:43:57Z</time></trkpt><trkpt lat="42.18495201829925" lon="12.203543025655536"><ele>418.75</ele><time>2026-04-04T08:43:58Z</time></trkpt><trkpt lat="42.18488950192897" lon="12.20341412852611"><ele>421.0</ele><time>2026-04-04T08:44:00Z</time></trkpt><trkpt lat="42.184826500626315" lon="12.203319908920115"><ele>418.0</ele><time>2026-04-04T08:44:02Z</time></trkpt><trkpt lat="42.184771349744416" lon="12.203193529634097"><ele>415.0</ele><time>2026-04-04T08:44:04Z</time></trkpt><trkpt lat="42.18472510764399" lon="12.203059562730598"><ele>412.0</ele><time>2026-04-04T08:44:06Z</time></trkpt><trkpt lat="42.1846806963398" lon="12.20289993275582"><ele>409.0</ele><time>2026-04-04T08:44:08Z</time></trkpt><trkpt lat="42.184660694599245" lon="12.202818068179198"><ele>406.0</ele><time>2026-04-04T08:44:09Z</time></trkpt><trkpt lat="42.18464215622314" lon="12.20265708109357"><ele>406.00000000000006</ele><time>2026-04-04T08:44:11Z</time></trkpt><trkpt lat="42.184643316433394" lon="12.202567487661875"><ele>406.0</ele><time>2026-04-04T08:44:12Z</time></trkpt><trkpt lat="42.18465077718864" lon="12.202473326938904"><ele>406.0</ele><time>2026-04-04T08:44:13Z</time></trkpt><trkpt lat="42.184656984081634" lon="12.202383786816485"><ele>406.0</ele><time>2026-04-04T08:44:14Z</time></trkpt><trkpt lat="42.18466696876309" lon="12.202293181764574"><ele>406.00000000000006</ele><time>2026-04-04T08:44:15Z</time></trkpt><trkpt lat="42.18468678590341" lon="12.202196726110742"><ele>406.0</ele><time>2026-04-04T08:44:16Z</time></trkpt><trkpt lat="42.18481129557353" lon="12.202029772948707"><ele>404.0</ele><time>2026-04-04T08:44:17Z</time></trkpt><trkpt lat="42.18486149105934" lon="12.201858883580533"><ele>402.0</ele><time>2026-04-04T08:44:19Z</time></trkpt><trkpt lat="42.184877143362876" lon="12.201755259788992"><ele>400.0</ele><time>2026-04-04T08:44:20Z</time></trkpt><trkpt lat="42.18485811875717" lon="12.201579227148597"><ele>398.0</ele><time>2026-04-04T08:44:22Z</time></trkpt><trkpt lat="42.18481138603177" lon="12.20145801386313"><ele>396.0</ele><time>2026-04-04T08:44:23Z</time></trkpt><trkpt lat="42.184787559914575" lon="12.201347350240084"><ele>396.0</ele><time>2026-04-04T08:44:24Z</time></trkpt><trkpt lat="42.184740615488515" lon="12.201213287387947"><ele>396.0</ele><time>2026-04-04T08:44:25Z</time></trkpt><trkpt lat="42.18469130345658" lon="12.201127492273349"><ele>396.0</ele><time>2026-04-04T08:44:26Z</time></trkpt><trkpt lat="42.18465281628777" lon="12.201037918693194"><ele>396.0</ele><time>2026-04-04T08:44:27Z</time></trkpt><trkpt lat="42.184678998589966" lon="12.20093956586907"><ele>396.0</ele><time>2026-04-04T08:44:28Z</time></trkpt><trkpt lat="42.18466153917928" lon="12.200856800297213"><ele>396.0</ele><time>2026-04-04T08:44:29Z</time></trkpt><trkpt lat="42.18457904410728" lon="12.200753623179386"><ele>396.8</ele><time>2026-04-04T08:44:30Z</time></trkpt><trkpt lat="42.184540900769896" lon="12.200609876086872"><ele>397.6</ele><time>2026-04-04T08:44:31Z</time></trkpt><trkpt lat="42.18450515103903" lon="12.200531988432733"><ele>398.4</ele><time>2026-04-04T08:44:32Z</time></trkpt><trkpt lat="42.18448859265442" lon="12.200431696673785"><ele>399.2</ele><time>2026-04-04T08:44:33Z</time></trkpt><trkpt lat="42.184471294541176" lon="12.200254416742426"><ele>400.0</ele><time>2026-04-04T08:44:35Z</time></trkpt><trkpt lat="42.18444390074527" lon="12.200161227800335"><ele>400.0</ele><time>2026-04-04T08:44:36Z</time></trkpt><trkpt lat="42.184414404930806" lon="12.200070331319665"><ele>400.0</ele><time>2026-04-04T08:44:37Z</time></trkpt><trkpt lat="42.184391094173115" lon="12.199949543484742"><ele>400.0</ele><time>2026-04-04T08:44:38Z</time></trkpt><trkpt lat="42.18436590609227" lon="12.199862879670718"><ele>400.0</ele><time>2026-04-04T08:44:39Z</time></trkpt><trkpt lat="42.18431008951427" lon="12.199707407487807"><ele>400.0</ele><time>2026-04-04T08:44:41Z</time></trkpt><trkpt lat="42.18425938862466" lon="12.19956871459624"><ele>401.0</ele><time>2026-04-04T08:44:43Z</time></trkpt><trkpt lat="42.18420211180615" lon="12.199509933328216"><ele>402.0</ele><time>2026-04-04T08:44:44Z</time></trkpt><trkpt lat="42.184117542312926" lon="12.19940852724841"><ele>403.0</ele><time>2026-04-04T08:44:46Z</time></trkpt><trkpt lat="42.18405415675806" lon="12.199291933847116"><ele>404.0</ele><time>2026-04-04T08:44:48Z</time></trkpt><trkpt lat="42.18398386465602" lon="12.199183218279643"><ele>405.0</ele><time>2026-04-04T08:44:50Z</time></trkpt><trkpt lat="42.183931829612675" lon="12.199119020716049"><ele>403.0</ele><time>2026-04-04T08:44:51Z</time></trkpt><trkpt lat="42.183858173264056" lon="12.198977249883583"><ele>401.0</ele><time>2026-04-04T08:44:53Z</time></trkpt><trkpt lat="42.18379515816334" lon="12.198854607661836"><ele>399.0</ele><time>2026-04-04T08:44:55Z</time></trkpt><trkpt lat="42.183712616066096" lon="12.198743958973925"><ele>397.0</ele><time>2026-04-04T08:44:57Z</time></trkpt><trkpt lat="42.18365736970734" lon="12.198626110326506"><ele>397.00000000000006</ele><time>2026-04-04T08:44:59Z</time></trkpt><trkpt lat="42.183620178470925" lon="12.198550823212296"><ele>397.0</ele><time>2026-04-04T08:45:00Z</time></trkpt><trkpt lat="42.18355689743873" lon="12.198442264197093"><ele>397.0</ele><time>2026-04-04T08:45:02Z</time></trkpt><trkpt lat="42.183535109492446" lon="12.198356784140021"><ele>397.0</ele><time>2026-04-04T08:45:03Z</time></trkpt><trkpt lat="42.183504919594" lon="12.198271153303777"><ele>397.00000000000006</ele><time>2026-04-04T08:45:04Z</time></trkpt><trkpt lat="42.18345225691317" lon="12.198151041865644"><ele>397.0</ele><time>2026-04-04T08:45:06Z</time></trkpt><trkpt lat="42.18340207496417" lon="12.19802649202352"><ele>398.6</ele><time>2026-04-04T08:45:08Z</time></trkpt><trkpt lat="42.18334566194389" lon="12.197897549213547"><ele>400.20000000000005</ele><time>2026-04-04T08:45:10Z</time></trkpt><trkpt lat="42.183295733402474" lon="12.197791507734847"><ele>401.8</ele><time>2026-04-04T08:45:12Z</time></trkpt><trkpt lat="42.1833192332324" lon="12.197655934021233"><ele>403.4</ele><time>2026-04-04T08:45:14Z</time></trkpt><trkpt lat="42.183279423740544" lon="12.197575526412285"><ele>405.0</ele><time>2026-04-04T08:45:16Z</time></trkpt><trkpt lat="42.183234779349895" lon="12.197485353222739"><ele>404.71428571428567</ele><time>2026-04-04T08:45:19Z</time></trkpt><trkpt lat="42.18316266244078" lon="12.197432345898157"><ele>404.42857142857144</ele><time>2026-04-04T08:45:22Z</time></trkpt><trkpt lat="42.1830987905769" lon="12.19737208509952"><ele>404.1428571428571</ele><time>2026-04-04T08:45:25Z</time></trkpt><trkpt lat="42.183050123209796" lon="12.197293817061507"><ele>403.85714285714283</ele><time>2026-04-04T08:45:28Z</time></trkpt><trkpt lat="42.18300473352812" lon="12.197231335637241"><ele>403.57142857142856</ele><time>2026-04-04T08:45:30Z</time></trkpt><trkpt lat="42.182954457224135" lon="12.197173988521582"><ele>403.2857142857143</ele><time>2026-04-04T08:45:32Z</time></trkpt><trkpt lat="42.18292733124353" lon="12.197095298541926"><ele>403.0</ele><time>2026-04-04T08:45:34Z</time></trkpt><trkpt lat="42.18289072717062" lon="12.19702019968584"><ele>403.00000000000006</ele><time>2026-04-04T08:45:37Z</time></trkpt><trkpt lat="42.182826226434436" lon="12.196991906612428"><ele>403.0</ele><time>2026-04-04T08:45:52Z</time></trkpt><trkpt lat="42.18279542553337" lon="12.196895244263906"><ele>403.0</ele><time>2026-04-04T08:45:57Z</time></trkpt><trkpt lat="42.18275446652381" lon="12.196805615309758"><ele>403.0</ele><time>2026-04-04T08:45:59Z</time></trkpt><trkpt lat="42.18273403813946" lon="12.196718368619148"><ele>403.00000000000006</ele><time>2026-04-04T08:46:01Z</time></trkpt><trkpt lat="42.18267847426833" lon="12.196642290347729"><ele>403.0</ele><time>2026-04-04T08:46:03Z</time></trkpt><trkpt lat="42.18260307263037" lon="12.196569631103367"><ele>403.6666666666667</ele><time>2026-04-04T08:46:05Z</time></trkpt><trkpt lat="42.18253996977127" lon="12.196487374925718"><ele>404.33333333333337</ele><time>2026-04-04T08:46:07Z</time></trkpt><trkpt lat="42.1824653648276" lon="12.196417226885925"><ele>405.0</ele><time>2026-04-04T08:46:09Z</time></trkpt><trkpt lat="42.182384275395435" lon="12.196373417184128"><ele>405.66666666666663</ele><time>2026-04-04T08:46:11Z</time></trkpt><trkpt lat="42.18230793994467" lon="12.196326794014665"><ele>406.3333333333333</ele><time>2026-04-04T08:46:15Z</time></trkpt><trkpt lat="42.18223044479163" lon="12.196276614339006"><ele>407.0</ele><time>2026-04-04T08:46:18Z</time></trkpt><trkpt lat="42.18215249630988" lon="12.196237692432872"><ele>407.0</ele><time>2026-04-04T08:46:20Z</time></trkpt><trkpt lat="42.18200761407884" lon="12.19613429844714"><ele>407.0</ele><time>2026-04-04T08:46:21Z</time></trkpt><trkpt lat="42.18189139893283" lon="12.196106796105417"><ele>407.0</ele><time>2026-04-04T08:46:23Z</time></trkpt><trkpt lat="42.181789277899284" lon="12.196063113527659"><ele>407.0</ele><time>2026-04-04T08:46:25Z</time></trkpt><trkpt lat="42.18170187053875" lon="12.196015413425158"><ele>407.0</ele><time>2026-04-04T08:46:27Z</time></trkpt><trkpt lat="42.18160669577457" lon="12.195972546951971"><ele>407.0</ele><time>2026-04-04T08:46:29Z</time></trkpt><trkpt lat="42.1815079747531" lon="12.19593406163341"><ele>407.0</ele><time>2026-04-04T08:46:31Z</time></trkpt><trkpt lat="42.18143392206214" lon="12.195932412881923"><ele>407.0</ele><time>2026-04-04T08:46:33Z</time></trkpt><trkpt lat="42.18131844358823" lon="12.195873350863181"><ele>407.0</ele><time>2026-04-04T08:46:35Z</time></trkpt><trkpt lat="42.18124329880806" lon="12.19585478007419"><ele>406.66666666666663</ele><time>2026-04-04T08:46:37Z</time></trkpt><trkpt lat="42.18115959624296" lon="12.195822508698253"><ele>406.3333333333333</ele><time>2026-04-04T08:46:40Z</time></trkpt><trkpt lat="42.1810674529793" lon="12.195768792639722"><ele>406.0</ele><time>2026-04-04T08:46:43Z</time></trkpt><trkpt lat="42.18101039867804" lon="12.195690901553778"><ele>405.66666666666663</ele><time>2026-04-04T08:46:47Z</time></trkpt><trkpt lat="42.180968081781806" lon="12.195606073741974"><ele>405.3333333333333</ele><time>2026-04-04T08:46:49Z</time></trkpt><trkpt lat="42.180908088397516" lon="12.195535620807403"><ele>405.0</ele><time>2026-04-04T08:46:53Z</time></trkpt><trkpt lat="42.180865289054076" lon="12.195449625032577"><ele>406.3333333333333</ele><time>2026-04-04T08:46:56Z</time></trkpt><trkpt lat="42.1808101883567" lon="12.195359850893333"><ele>407.66666666666663</ele><time>2026-04-04T08:46:59Z</time></trkpt><trkpt lat="42.18076116528051" lon="12.195272226590003"><ele>409.0</ele><time>2026-04-04T08:47:02Z</time></trkpt><trkpt lat="42.180720029456" lon="12.195195324692959"><ele>410.3333333333333</ele><time>2026-04-04T08:47:05Z</time></trkpt><trkpt lat="42.18067070600765" lon="12.195113674901762"><ele>411.66666666666663</ele><time>2026-04-04T08:47:08Z</time></trkpt><trkpt lat="42.18061645363267" lon="12.195058546531245"><ele>413.0</ele><time>2026-04-04T08:47:10Z</time></trkpt><trkpt lat="42.180546880800684" lon="12.1949990005502"><ele>412.99999999999994</ele><time>2026-04-04T08:47:13Z</time></trkpt><trkpt lat="42.180481197866754" lon="12.194947505865084"><ele>413.0</ele><time>2026-04-04T08:47:16Z</time></trkpt><trkpt lat="42.180403705657596" lon="12.194910785111935"><ele>413.0</ele><time>2026-04-04T08:47:19Z</time></trkpt><trkpt lat="42.18031623405834" lon="12.194868650741398"><ele>413.0</ele><time>2026-04-04T08:47:22Z</time></trkpt><trkpt lat="42.18022051499117" lon="12.19482324032833"><ele>412.99999999999994</ele><time>2026-04-04T08:47:25Z</time></trkpt><trkpt lat="42.18014083155958" lon="12.19475712733398"><ele>413.0</ele><time>2026-04-04T08:47:28Z</time></trkpt><trkpt lat="42.18005900969465" lon="12.194722435160454"><ele>415.49999999999994</ele><time>2026-04-04T08:47:31Z</time></trkpt><trkpt lat="42.17998787211304" lon="12.194628666758641"><ele>418.0</ele><time>2026-04-04T08:47:33Z</time></trkpt><trkpt lat="42.17992423642074" lon="12.194553638519137"><ele>420.5</ele><time>2026-04-04T08:47:34Z</time></trkpt><trkpt lat="42.17985088485271" lon="12.194482707542422"><ele>423.0</ele><time>2026-04-04T08:47:36Z</time></trkpt><trkpt lat="42.179815764700756" lon="12.194378001183347"><ele>425.49999999999994</ele><time>2026-04-04T08:47:39Z</time></trkpt><trkpt lat="42.1797930540881" lon="12.194287043578159"><ele>428.0</ele><time>2026-04-04T08:47:41Z</time></trkpt><trkpt lat="42.179785281620035" lon="12.19417380314514"><ele>422.5</ele><time>2026-04-04T08:47:44Z</time></trkpt><trkpt lat="42.17974739312707" lon="12.194057072513726"><ele>417.0</ele><time>2026-04-04T08:47:45Z</time></trkpt><trkpt lat="42.17969940450613" lon="12.193908509016845"><ele>411.5</ele><time>2026-04-04T08:47:47Z</time></trkpt><trkpt lat="42.17962307614389" lon="12.193751108141168"><ele>406.0</ele><time>2026-04-04T08:47:49Z</time></trkpt><trkpt lat="42.17955537196677" lon="12.193603730536216"><ele>406.00000000000006</ele><time>2026-04-04T08:47:51Z</time></trkpt><trkpt lat="42.17951161547953" lon="12.19351211456019"><ele>406.0</ele><time>2026-04-04T08:47:52Z</time></trkpt><trkpt lat="42.17947086908322" lon="12.193404930506029"><ele>406.0</ele><time>2026-04-04T08:47:53Z</time></trkpt><trkpt lat="42.17945227334249" lon="12.193283075867747"><ele>406.0</ele><time>2026-04-04T08:47:54Z</time></trkpt><trkpt lat="42.17942344561054" lon="12.19318307620439"><ele>406.00000000000006</ele><time>2026-04-04T08:47:55Z</time></trkpt><trkpt lat="42.17937752956571" lon="12.193080004828557"><ele>406.0</ele><time>2026-04-04T08:47:56Z</time></trkpt><trkpt lat="42.17935295689835" lon="12.192988726732544"><ele>410.0</ele><time>2026-04-04T08:47:57Z</time></trkpt><trkpt lat="42.179317599943474" lon="12.1929010004702"><ele>414.0</ele><time>2026-04-04T08:47:58Z</time></trkpt><trkpt lat="42.17927164698089" lon="12.192825051360865"><ele>418.0</ele><time>2026-04-04T08:47:59Z</time></trkpt><trkpt lat="42.17921417567719" lon="12.192770736060274"><ele>422.0</ele><time>2026-04-04T08:48:00Z</time></trkpt><trkpt lat="42.17911302441314" lon="12.192669604280878"><ele>426.0</ele><time>2026-04-04T08:48:02Z</time></trkpt><trkpt lat="42.17903776363103" lon="12.192548377505515"><ele>422.3333333333333</ele><time>2026-04-04T08:48:04Z</time></trkpt><trkpt lat="42.17897825306609" lon="12.192496381462565"><ele>418.66666666666663</ele><time>2026-04-04T08:48:05Z</time></trkpt><trkpt lat="42.17891815973517" lon="12.192404655816716"><ele>415.0</ele><time>2026-04-04T08:48:07Z</time></trkpt><trkpt lat="42.17886912827657" lon="12.192306715102944"><ele>411.3333333333333</ele><time>2026-04-04T08:48:09Z</time></trkpt><trkpt lat="42.17881209946989" lon="12.192205563074957"><ele>407.66666666666663</ele><time>2026-04-04T08:48:11Z</time></trkpt><trkpt lat="42.17875177213579" lon="12.192129662556589"><ele>404.0</ele><time>2026-04-04T08:48:13Z</time></trkpt><trkpt lat="42.17869874009519" lon="12.192037079939286"><ele>404.0</ele><time>2026-04-04T08:48:15Z</time></trkpt><trkpt lat="42.17865829862723" lon="12.191966278143218"><ele>404.0</ele><time>2026-04-04T08:48:16Z</time></trkpt><trkpt lat="42.178603120888425" lon="12.191819024623806"><ele>404.0</ele><time>2026-04-04T08:48:18Z</time></trkpt><trkpt lat="42.17855053859526" lon="12.191685248620747"><ele>404.0</ele><time>2026-04-04T08:48:20Z</time></trkpt><trkpt lat="42.17850214746222" lon="12.191561432646997"><ele>404.0</ele><time>2026-04-04T08:48:22Z</time></trkpt><trkpt lat="42.17844429760905" lon="12.191442948478572"><ele>408.25</ele><time>2026-04-04T08:48:24Z</time></trkpt><trkpt lat="42.17838587013699" lon="12.191340265315787"><ele>412.5</ele><time>2026-04-04T08:48:26Z</time></trkpt><trkpt lat="42.17832525173291" lon="12.191211399089728"><ele>416.75</ele><time>2026-04-04T08:48:29Z</time></trkpt><trkpt lat="42.1782388461074" lon="12.191016237344417"><ele>421.0</ele><time>2026-04-04T08:48:32Z</time></trkpt><trkpt lat="42.17817816457444" lon="12.190903761265039"><ele>414.83333333333337</ele><time>2026-04-04T08:48:34Z</time></trkpt><trkpt lat="42.178115327740734" lon="12.190811824757205"><ele>408.6666666666667</ele><time>2026-04-04T08:48:36Z</time></trkpt><trkpt lat="42.178074330979385" lon="12.190702457746925"><ele>402.5</ele><time>2026-04-04T08:48:38Z</time></trkpt><trkpt lat="42.17804833209599" lon="12.190613760060367"><ele>396.33333333333337</ele><time>2026-04-04T08:48:40Z</time></trkpt><trkpt lat="42.178067804493296" lon="12.190512938866986"><ele>390.1666666666667</ele><time>2026-04-04T08:48:42Z</time></trkpt><trkpt lat="42.178094360584645" lon="12.190382077127328"><ele>384.0</ele><time>2026-04-04T08:49:30Z</time></trkpt><trkpt lat="42.178132681497424" lon="12.190292178703737"><ele>390.2</ele><time>2026-04-04T08:49:34Z</time></trkpt><trkpt lat="42.17819590074554" lon="12.190196116528485"><ele>396.4</ele><time>2026-04-04T08:49:36Z</time></trkpt><trkpt lat="42.17827386213193" lon="12.190095068812154"><ele>402.6</ele><time>2026-04-04T08:49:38Z</time></trkpt><trkpt lat="42.178327442485134" lon="12.189971217570207"><ele>408.8</ele><time>2026-04-04T08:49:40Z</time></trkpt><trkpt lat="42.17841733530463" lon="12.189950426934093"><ele>415.0</ele><time>2026-04-04T08:49:41Z</time></trkpt><trkpt lat="42.178456203711335" lon="12.189865643192208"><ele>412.1666666666667</ele><time>2026-04-04T08:49:42Z</time></trkpt><trkpt lat="42.17849773821853" lon="12.18979447224008"><ele>409.33333333333337</ele><time>2026-04-04T08:49:43Z</time></trkpt><trkpt lat="42.178552868441855" lon="12.189728235453627"><ele>406.5</ele><time>2026-04-04T08:49:44Z</time></trkpt><trkpt lat="42.17861691616408" lon="12.189675954311323"><ele>403.66666666666663</ele><time>2026-04-04T08:49:45Z</time></trkpt><trkpt lat="42.17869997535452" lon="12.189633547464318"><ele>400.8333333333333</ele><time>2026-04-04T08:49:46Z</time></trkpt><trkpt lat="42.17879497831944" lon="12.189570169193667"><ele>398.0</ele><time>2026-04-04T08:49:47Z</time></trkpt><trkpt lat="42.178875216014816" lon="12.189533100089811"><ele>397.99999999999994</ele><time>2026-04-04T08:49:48Z</time></trkpt><trkpt lat="42.178948138754244" lon="12.189506269804163"><ele>398.0</ele><time>2026-04-04T08:49:49Z</time></trkpt><trkpt lat="42.17902627074989" lon="12.18946292355309"><ele>398.0</ele><time>2026-04-04T08:49:50Z</time></trkpt><trkpt lat="42.17910092889846" lon="12.189428832910773"><ele>398.0</ele><time>2026-04-04T08:49:51Z</time></trkpt><trkpt lat="42.179165211132016" lon="12.189390515654734"><ele>397.99999999999994</ele><time>2026-04-04T08:49:52Z</time></trkpt><trkpt lat="42.17922625186655" lon="12.189345165567909"><ele>398.0</ele><time>2026-04-04T08:49:53Z</time></trkpt><trkpt lat="42.17927398118167" lon="12.18927299069854"><ele>399.8333333333333</ele><time>2026-04-04T08:49:54Z</time></trkpt><trkpt lat="42.179290293151084" lon="12.189165064816141"><ele>401.66666666666663</ele><time>2026-04-04T08:49:55Z</time></trkpt><trkpt lat="42.17926976883685" lon="12.189034519637039"><ele>403.5</ele><time>2026-04-04T08:49:56Z</time></trkpt><trkpt lat="42.17923541125884" lon="12.188915299770311"><ele>405.33333333333337</ele><time>2026-04-04T08:49:58Z</time></trkpt><trkpt lat="42.17920958602816" lon="12.188819501170155"><ele>407.1666666666667</ele><time>2026-04-04T08:50:00Z</time></trkpt><trkpt lat="42.1791875210785" lon="12.188737651271603"><ele>409.0</ele><time>2026-04-04T08:50:02Z</time></trkpt><trkpt lat="42.17916775939418" lon="12.188656031413535"><ele>409.0</ele><time>2026-04-04T08:50:06Z</time></trkpt><trkpt lat="42.17904272357605" lon="12.188655985974956"><ele>409.0</ele><time>2026-04-04T08:50:08Z</time></trkpt><trkpt lat="42.17902878909748" lon="12.18856971987162"><ele>409.0</ele><time>2026-04-04T08:50:11Z</time></trkpt><trkpt lat="42.17903146635256" lon="12.188445150284986"><ele>409.0</ele><time>2026-04-04T08:50:13Z</time></trkpt><trkpt lat="42.179107271832976" lon="12.188352540602779"><ele>409.0</ele><time>2026-04-04T08:50:15Z</time></trkpt><trkpt lat="42.179208439119286" lon="12.188265362519218"><ele>409.0</ele><time>2026-04-04T08:50:17Z</time></trkpt><trkpt lat="42.17928353186791" lon="12.188209106856803"><ele>409.0</ele><time>2026-04-04T08:50:19Z</time></trkpt><trkpt lat="42.17936347054425" lon="12.188141525074009"><ele>409.0</ele><time>2026-04-04T08:50:20Z</time></trkpt><trkpt lat="42.179459820245704" lon="12.18813281444881"><ele>409.0</ele><time>2026-04-04T08:50:22Z</time></trkpt><trkpt lat="42.179542671580826" lon="12.188043469270925"><ele>409.0</ele><time>2026-04-04T08:50:23Z</time></trkpt><trkpt lat="42.17961130094323" lon="12.187901563792087"><ele>408.50000000000006</ele><time>2026-04-04T08:50:24Z</time></trkpt><trkpt lat="42.179646590257086" lon="12.187780385664357"><ele>408.0</ele><time>2026-04-04T08:50:25Z</time></trkpt><trkpt lat="42.17966472252554" lon="12.18768202793804"><ele>407.5</ele><time>2026-04-04T08:50:26Z</time></trkpt><trkpt lat="42.179678491227925" lon="12.187565037393604"><ele>407.0</ele><time>2026-04-04T08:50:27Z</time></trkpt><trkpt lat="42.17968266510693" lon="12.187466266118717"><ele>406.50000000000006</ele><time>2026-04-04T08:50:28Z</time></trkpt><trkpt lat="42.17967284491617" lon="12.187362757973887"><ele>406.0</ele><time>2026-04-04T08:50:29Z</time></trkpt><trkpt lat="42.17964742101629" lon="12.187276532958313"><ele>408.6666666666667</ele><time>2026-04-04T08:50:30Z</time></trkpt><trkpt lat="42.179596944472245" lon="12.18715607841629"><ele>411.33333333333337</ele><time>2026-04-04T08:50:32Z</time></trkpt><trkpt lat="42.17951337110489" lon="12.187108497851508"><ele>414.0</ele><time>2026-04-04T08:50:34Z</time></trkpt><trkpt lat="42.17944908680688" lon="12.18706577660746"><ele>416.66666666666663</ele><time>2026-04-04T08:50:36Z</time></trkpt><trkpt lat="42.17938122786546" lon="12.187036253472908"><ele>419.3333333333333</ele><time>2026-04-04T08:50:39Z</time></trkpt><trkpt lat="42.17931374607478" lon="12.187007310754321"><ele>422.0</ele><time>2026-04-04T08:50:42Z</time></trkpt><trkpt lat="42.179243819703395" lon="12.186979866524087"><ele>421.99999999999994</ele><time>2026-04-04T08:50:44Z</time></trkpt><trkpt lat="42.179182352309034" lon="12.186958346992839"><ele>422.0</ele><time>2026-04-04T08:50:46Z</time></trkpt><trkpt lat="42.17910979403914" lon="12.187115881708653"><ele>422.0</ele><time>2026-04-04T08:50:48Z</time></trkpt><trkpt lat="42.17903087761023" lon="12.187081821471176"><ele>422.0</ele><time>2026-04-04T08:50:50Z</time></trkpt><trkpt lat="42.17896094552118" lon="12.187086098079236"><ele>421.99999999999994</ele><time>2026-04-04T08:50:52Z</time></trkpt><trkpt lat="42.178871622468186" lon="12.187060438936049"><ele>422.0</ele><time>2026-04-04T08:50:55Z</time></trkpt><trkpt lat="42.17879342363278" lon="12.187059280634886"><ele>422.2857142857143</ele><time>2026-04-04T08:50:59Z</time></trkpt><trkpt lat="42.17872070505548" lon="12.187045590578816"><ele>422.57142857142856</ele><time>2026-04-04T08:51:02Z</time></trkpt><trkpt lat="42.178654593582586" lon="12.187064017471267"><ele>422.8571428571429</ele><time>2026-04-04T08:51:05Z</time></trkpt><trkpt lat="42.17857300582651" lon="12.18702703979931"><ele>423.1428571428571</ele><time>2026-04-04T08:51:09Z</time></trkpt><trkpt lat="42.17850014111893" lon="12.187029372039557"><ele>423.4285714285714</ele><time>2026-04-04T08:51:12Z</time></trkpt><trkpt lat="42.17843418708915" lon="12.187013871592605"><ele>423.7142857142857</ele><time>2026-04-04T08:51:14Z</time></trkpt><trkpt lat="42.17836127206576" lon="12.187001520370808"><ele>424.0</ele><time>2026-04-04T08:51:17Z</time></trkpt><trkpt lat="42.178287805206296" lon="12.186983894891233"><ele>424.0</ele><time>2026-04-04T08:51:20Z</time></trkpt><trkpt lat="42.17820503029273" lon="12.186947133384447"><ele>424.0</ele><time>2026-04-04T08:51:23Z</time></trkpt><trkpt lat="42.17816943102567" lon="12.186864521756958"><ele>424.0</ele><time>2026-04-04T08:51:25Z</time></trkpt><trkpt lat="42.17815330891339" lon="12.186778131150904"><ele>424.0</ele><time>2026-04-04T08:51:27Z</time></trkpt><trkpt lat="42.17816089404377" lon="12.18668204836893"><ele>424.0</ele><time>2026-04-04T08:51:30Z</time></trkpt><trkpt lat="42.178194688323025" lon="12.1866085670741"><ele>424.0</ele><time>2026-04-04T08:51:33Z</time></trkpt><trkpt lat="42.17823430980198" lon="12.1865302909037"><ele>424.0</ele><time>2026-04-04T08:51:37Z</time></trkpt><trkpt lat="42.17828074082815" lon="12.186460614249697"><ele>426.14285714285717</ele><time>2026-04-04T08:51:41Z</time></trkpt><trkpt lat="42.178329949569566" lon="12.186407088127147"><ele>428.2857142857143</ele><time>2026-04-04T08:51:45Z</time></trkpt><trkpt lat="42.17840217483351" lon="12.186358788859208"><ele>430.42857142857144</ele><time>2026-04-04T08:51:50Z</time></trkpt><trkpt lat="42.17846961167596" lon="12.186322231636218"><ele>432.57142857142856</ele><time>2026-04-04T08:51:55Z</time></trkpt><trkpt lat="42.17853006589154" lon="12.186288368308315"><ele>434.71428571428567</ele><time>2026-04-04T08:51:59Z</time></trkpt><trkpt lat="42.17859490307391" lon="12.186246923321683"><ele>436.85714285714283</ele><time>2026-04-04T08:52:03Z</time></trkpt><trkpt lat="42.1786609047142" lon="12.186203788876098"><ele>439.0</ele><time>2026-04-04T08:52:07Z</time></trkpt><trkpt lat="42.17872278948681" lon="12.186168027904264"><ele>439.0</ele><time>2026-04-04T08:52:11Z</time></trkpt><trkpt lat="42.178766467355565" lon="12.186101490144647"><ele>439.0</ele><time>2026-04-04T08:52:16Z</time></trkpt><trkpt lat="42.178753287426225" lon="12.18600036163141"><ele>439.0</ele><time>2026-04-04T08:52:23Z</time></trkpt><trkpt lat="42.178706473818096" lon="12.185939589800409"><ele>439.0</ele><time>2026-04-04T08:52:27Z</time></trkpt><trkpt lat="42.17864349845744" lon="12.185907993623216"><ele>439.0</ele><time>2026-04-04T08:52:31Z</time></trkpt><trkpt lat="42.1785784007486" lon="12.185855265227845"><ele>439.0</ele><time>2026-04-04T08:52:36Z</time></trkpt><trkpt lat="42.17854332353773" lon="12.185779195973717"><ele>439.0</ele><time>2026-04-04T08:52:40Z</time></trkpt><trkpt lat="42.17849351419033" lon="12.185687966683277"><ele>441.0</ele><time>2026-04-04T08:52:45Z</time></trkpt><trkpt lat="42.17846454184712" lon="12.185593754091574"><ele>443.0</ele><time>2026-04-04T08:52:49Z</time></trkpt><trkpt lat="42.178461600687655" lon="12.185484932920795"><ele>445.0</ele><time>2026-04-04T08:52:53Z</time></trkpt><trkpt lat="42.17845249809373" lon="12.185391612350939"><ele>447.0</ele><time>2026-04-04T08:52:56Z</time></trkpt><trkpt lat="42.17844840533682" lon="12.185305846902093"><ele>449.0</ele><time>2026-04-04T08:52:59Z</time></trkpt><trkpt lat="42.17844812587555" lon="12.185207033798141"><ele>450.99999999999994</ele><time>2026-04-04T08:53:03Z</time></trkpt><trkpt lat="42.17848383693297" lon="12.185113005681655"><ele>452.99999999999994</ele><time>2026-04-04T08:53:07Z</time></trkpt><trkpt lat="42.17852091256194" lon="12.185026848797081"><ele>452.99999999999994</ele><time>2026-04-04T08:53:10Z</time></trkpt><trkpt lat="42.17854768226241" lon="12.184935600232492"><ele>453.0</ele><time>2026-04-04T08:53:13Z</time></trkpt><trkpt lat="42.178592445854285" lon="12.184874458057548"><ele>452.99999999999994</ele><time>2026-04-04T08:53:16Z</time></trkpt><trkpt lat="42.178636010501144" lon="12.184800431434072"><ele>452.99999999999994</ele><time>2026-04-04T08:53:20Z</time></trkpt><trkpt lat="42.17867502386015" lon="12.18470387704554"><ele>453.0</ele><time>2026-04-04T08:53:24Z</time></trkpt><trkpt lat="42.17870763628591" lon="12.184628456577478"><ele>452.99999999999994</ele><time>2026-04-04T08:53:28Z</time></trkpt><trkpt lat="42.17873667949655" lon="12.184548874628401"><ele>452.99999999999994</ele><time>2026-04-04T08:53:32Z</time></trkpt><trkpt lat="42.17875370786161" lon="12.184462466331912"><ele>454.5714285714285</ele><time>2026-04-04T08:53:36Z</time></trkpt><trkpt lat="42.178794680846295" lon="12.18436780376078"><ele>456.1428571428571</ele><time>2026-04-04T08:53:40Z</time></trkpt><trkpt lat="42.178826691214105" lon="12.184288068245676"><ele>457.7142857142857</ele><time>2026-04-04T08:53:44Z</time></trkpt><trkpt lat="42.17883111023181" lon="12.184203014243971"><ele>459.2857142857143</ele><time>2026-04-04T08:53:48Z</time></trkpt><trkpt lat="42.17881131096335" lon="12.184116530396018"><ele>460.8571428571429</ele><time>2026-04-04T08:53:54Z</time></trkpt><trkpt lat="42.178746947724505" lon="12.184059505829952"><ele>462.4285714285715</ele><time>2026-04-04T08:54:00Z</time></trkpt><trkpt lat="42.17868171009667" lon="12.184012409373814"><ele>464.00000000000006</ele><time>2026-04-04T08:54:05Z</time></trkpt><trkpt lat="42.17863530524337" lon="12.183949892392139"><ele>465.28571428571433</ele><time>2026-04-04T08:54:09Z</time></trkpt><trkpt lat="42.178586378419496" lon="12.183890336047304"><ele>466.57142857142856</ele><time>2026-04-04T08:54:13Z</time></trkpt><trkpt lat="42.17853166372282" lon="12.183818526378952"><ele>467.8571428571429</ele><time>2026-04-04T08:54:17Z</time></trkpt><trkpt lat="42.178483842163395" lon="12.183752773183032"><ele>469.14285714285717</ele><time>2026-04-04T08:54:21Z</time></trkpt><trkpt lat="42.17843838113111" lon="12.183681028981024"><ele>470.42857142857144</ele><time>2026-04-04T08:54:25Z</time></trkpt><trkpt lat="42.178376704393436" lon="12.183614284202383"><ele>471.7142857142857</ele><time>2026-04-04T08:54:29Z</time></trkpt><trkpt lat="42.17832660570469" lon="12.183539430152678"><ele>473.0</ele><time>2026-04-04T08:54:33Z</time></trkpt><trkpt lat="42.17827582443497" lon="12.183457369204213"><ele>472.99999999999994</ele><time>2026-04-04T08:54:37Z</time></trkpt><trkpt lat="42.17822613343683" lon="12.183371898186884"><ele>473.0</ele><time>2026-04-04T08:54:41Z</time></trkpt><trkpt lat="42.1781998017463" lon="12.183281759479739"><ele>473.0</ele><time>2026-04-04T08:54:44Z</time></trkpt><trkpt lat="42.178177873726085" lon="12.183179334305851"><ele>473.0</ele><time>2026-04-04T08:54:48Z</time></trkpt><trkpt lat="42.178162265774816" lon="12.183066772886665"><ele>472.99999999999994</ele><time>2026-04-04T08:54:51Z</time></trkpt><trkpt lat="42.1781540909712" lon="12.182967837699898"><ele>473.0</ele><time>2026-04-04T08:54:54Z</time></trkpt><trkpt lat="42.17814817814016" lon="12.182876020187047"><ele>472.49999999999994</ele><time>2026-04-04T08:54:57Z</time></trkpt><trkpt lat="42.17816154461727" lon="12.182766985545976"><ele>472.0</ele><time>2026-04-04T08:55:00Z</time></trkpt><trkpt lat="42.17815731007683" lon="12.182635514276454"><ele>471.5</ele><time>2026-04-04T08:55:03Z</time></trkpt><trkpt lat="42.17816671122542" lon="12.182545665454265"><ele>471.0</ele><time>2026-04-04T08:55:06Z</time></trkpt><trkpt lat="42.17815803800043" lon="12.182425596465409"><ele>470.49999999999994</ele><time>2026-04-04T08:55:08Z</time></trkpt><trkpt lat="42.178167629245785" lon="12.182309648767072"><ele>470.0</ele><time>2026-04-04T08:55:10Z</time></trkpt><trkpt lat="42.17821492439229" lon="12.182212991726113"><ele>470.0</ele><time>2026-04-04T08:55:13Z</time></trkpt><trkpt lat="42.178252276951405" lon="12.18211968377961"><ele>470.0</ele><time>2026-04-04T08:55:16Z</time></trkpt><trkpt lat="42.178256637526204" lon="12.18201218090607"><ele>470.0</ele><time>2026-04-04T08:55:29Z</time></trkpt><trkpt lat="42.178331139568115" lon="12.181929655259923"><ele>470.0</ele><time>2026-04-04T08:55:32Z</time></trkpt><trkpt lat="42.17840901382187" lon="12.181839422342852"><ele>470.0</ele><time>2026-04-04T08:55:34Z</time></trkpt><trkpt lat="42.17846713421046" lon="12.181708287780612"><ele>469.99999999999994</ele><time>2026-04-04T08:55:36Z</time></trkpt><trkpt lat="42.17855013409933" lon="12.181616597376157"><ele>470.0</ele><time>2026-04-04T08:55:38Z</time></trkpt><trkpt lat="42.178585016859735" lon="12.181521555065434"><ele>470.0</ele><time>2026-04-04T08:55:39Z</time></trkpt><trkpt lat="42.17862739556114" lon="12.181420664543463"><ele>470.0</ele><time>2026-04-04T08:55:40Z</time></trkpt><trkpt lat="42.17866939270497" lon="12.18130985991774"><ele>469.99999999999994</ele><time>2026-04-04T08:55:41Z</time></trkpt><trkpt lat="42.17868889920833" lon="12.181220656341171"><ele>470.0</ele><time>2026-04-04T08:55:42Z</time></trkpt><trkpt lat="42.17868490298018" lon="12.181086468231422"><ele>468.3333333333333</ele><time>2026-04-04T08:55:43Z</time></trkpt><trkpt lat="42.17872455690832" lon="12.180935235844723"><ele>466.66666666666663</ele><time>2026-04-04T08:55:45Z</time></trkpt><trkpt lat="42.17874920890966" lon="12.180848340186023"><ele>465.0</ele><time>2026-04-04T08:55:46Z</time></trkpt><trkpt lat="42.178761687593614" lon="12.180731807259408"><ele>463.33333333333337</ele><time>2026-04-04T08:55:47Z</time></trkpt><trkpt lat="42.178778113713896" lon="12.180620797068832"><ele>461.6666666666667</ele><time>2026-04-04T08:55:48Z</time></trkpt><trkpt lat="42.17880474251021" lon="12.180518826057714"><ele>460.0</ele><time>2026-04-04T08:55:49Z</time></trkpt><trkpt lat="42.17884056843405" lon="12.180429081934959"><ele>459.83333333333337</ele><time>2026-04-04T08:55:50Z</time></trkpt><trkpt lat="42.178900231403325" lon="12.180356600641488"><ele>459.6666666666667</ele><time>2026-04-04T08:55:51Z</time></trkpt><trkpt lat="42.17896385194757" lon="12.180277282558832"><ele>459.5</ele><time>2026-04-04T08:55:52Z</time></trkpt><trkpt lat="42.179048229113825" lon="12.180217396926981"><ele>459.33333333333337</ele><time>2026-04-04T08:55:53Z</time></trkpt><trkpt lat="42.179131487334324" lon="12.180162924699852"><ele>459.1666666666667</ele><time>2026-04-04T08:55:54Z</time></trkpt><trkpt lat="42.17920572100566" lon="12.180115767862478"><ele>459.0</ele><time>2026-04-04T08:55:55Z</time></trkpt><trkpt lat="42.17928161654747" lon="12.180077617659931"><ele>459.0</ele><time>2026-04-04T08:55:56Z</time></trkpt><trkpt lat="42.179349563328515" lon="12.180053633823297"><ele>459.0</ele><time>2026-04-04T08:55:57Z</time></trkpt><trkpt lat="42.179416776953786" lon="12.180044897943844"><ele>459.0</ele><time>2026-04-04T08:55:58Z</time></trkpt><trkpt lat="42.17947839195466" lon="12.180001643055743"><ele>459.0</ele><time>2026-04-04T08:55:59Z</time></trkpt><trkpt lat="42.17953424846965" lon="12.179930366001003"><ele>459.0</ele><time>2026-04-04T08:56:00Z</time></trkpt><trkpt lat="42.179609875820205" lon="12.179886720193382"><ele>459.0</ele><time>2026-04-04T08:56:01Z</time></trkpt><trkpt lat="42.17969565497325" lon="12.179858040276201"><ele>458.6666666666667</ele><time>2026-04-04T08:56:02Z</time></trkpt><trkpt lat="42.179818496753825" lon="12.179827366498019"><ele>458.33333333333337</ele><time>2026-04-04T08:56:04Z</time></trkpt><trkpt lat="42.17988194131611" lon="12.179783589699142"><ele>458.0</ele><time>2026-04-04T08:56:05Z</time></trkpt><trkpt lat="42.1799381020299" lon="12.17973557589376"><ele>457.6666666666667</ele><time>2026-04-04T08:56:06Z</time></trkpt><trkpt lat="42.18000061236103" lon="12.179707474583317"><ele>457.33333333333337</ele><time>2026-04-04T08:56:07Z</time></trkpt><trkpt lat="42.18005848134574" lon="12.179671168353886"><ele>457.0</ele><time>2026-04-04T08:56:08Z</time></trkpt><trkpt lat="42.180108495960546" lon="12.17961639412179"><ele>457.00000000000006</ele><time>2026-04-04T08:56:09Z</time></trkpt><trkpt lat="42.180206805731345" lon="12.179518065053188"><ele>457.0</ele><time>2026-04-04T08:56:11Z</time></trkpt><trkpt lat="42.1802576401928" lon="12.17946704757476"><ele>457.0</ele><time>2026-04-04T08:56:12Z</time></trkpt><trkpt lat="42.180334571720834" lon="12.179393374861313"><ele>457.0</ele><time>2026-04-04T08:56:14Z</time></trkpt><trkpt lat="42.180388684990135" lon="12.17930830346361"><ele>457.00000000000006</ele><time>2026-04-04T08:56:16Z</time></trkpt><trkpt lat="42.18040186121472" lon="12.179205324790164"><ele>457.0</ele><time>2026-04-04T08:56:19Z</time></trkpt><trkpt lat="42.180340807984734" lon="12.179152556694786"><ele>457.00000000000006</ele><time>2026-04-04T09:00:09.999Z</time></trkpt><trkpt lat="42.1802637439931" lon="12.179109547920785"><ele>457.0</ele><time>2026-04-04T09:00:11.999Z</time></trkpt><trkpt lat="42.18021966834276" lon="12.179027817480213"><ele>457.0</ele><time>2026-04-04T09:00:13.999Z</time></trkpt><trkpt lat="42.180136338805596" lon="12.178905008861266"><ele>457.0</ele><time>2026-04-04T09:00:15.999Z</time></trkpt><trkpt lat="42.18009892907178" lon="12.178823166772998"><ele>457.00000000000006</ele><time>2026-04-04T09:00:16.999Z</time></trkpt><trkpt lat="42.180074449817646" lon="12.178729647845067"><ele>457.0</ele><time>2026-04-04T09:00:17.999Z</time></trkpt><trkpt lat="42.18003643165228" lon="12.178653772897706"><ele>456.7142857142858</ele><time>2026-04-04T09:00:18.999Z</time></trkpt><trkpt lat="42.179980426635346" lon="12.17860881824337"><ele>456.42857142857144</ele><time>2026-04-04T09:00:19.999Z</time></trkpt><trkpt lat="42.17991634793594" lon="12.178600064410638"><ele>456.14285714285717</ele><time>2026-04-04T09:00:20.999Z</time></trkpt><trkpt lat="42.17984893502112" lon="12.178593028830251"><ele>455.8571428571429</ele><time>2026-04-04T09:00:21.999Z</time></trkpt><trkpt lat="42.179786729403666" lon="12.178572436417188"><ele>455.57142857142856</ele><time>2026-04-04T09:00:22.999Z</time></trkpt><trkpt lat="42.179729281168505" lon="12.17853077783719"><ele>455.2857142857143</ele><time>2026-04-04T09:00:23.999Z</time></trkpt><trkpt lat="42.17969062300363" lon="12.178462701350403"><ele>455.0</ele><time>2026-04-04T09:00:24.999Z</time></trkpt><trkpt lat="42.17963957378591" lon="12.178402906998413"><ele>454.8333333333333</ele><time>2026-04-04T09:00:25.999Z</time></trkpt><trkpt lat="42.17959652545064" lon="12.178322292915455"><ele>454.66666666666663</ele><time>2026-04-04T09:00:26.999Z</time></trkpt><trkpt lat="42.17950241068705" lon="12.178251401595203"><ele>454.5</ele><time>2026-04-04T09:00:28.999Z</time></trkpt><trkpt lat="42.17944142049606" lon="12.178198415566529"><ele>454.33333333333337</ele><time>2026-04-04T09:00:29.999Z</time></trkpt><trkpt lat="42.179358942691245" lon="12.178115913158038"><ele>454.1666666666667</ele><time>2026-04-04T09:00:32Z</time></trkpt><trkpt lat="42.17931387442221" lon="12.178023052227207"><ele>454.0</ele><time>2026-04-04T09:00:33Z</time></trkpt><trkpt lat="42.17928661227958" lon="12.177944744825616"><ele>454.0</ele><time>2026-04-04T09:00:34Z</time></trkpt><trkpt lat="42.17925521377326" lon="12.17784693204204"><ele>454.00000000000006</ele><time>2026-04-04T09:00:36Z</time></trkpt><trkpt lat="42.17919202363222" lon="12.177802312464372"><ele>454.0</ele><time>2026-04-04T09:00:38Z</time></trkpt><trkpt lat="42.17912872199308" lon="12.177789781472333"><ele>454.0</ele><time>2026-04-04T09:00:42Z</time></trkpt><trkpt lat="42.17909500882574" lon="12.17771580486562"><ele>454.00000000000006</ele><time>2026-04-04T09:00:53.999Z</time></trkpt><trkpt lat="42.17912535307959" lon="12.177630431375812"><ele>454.0</ele><time>2026-04-04T09:00:58.999Z</time></trkpt><trkpt lat="42.1791839713627" lon="12.17758649234846"><ele>454.0</ele><time>2026-04-04T09:01:05.999Z</time></trkpt><trkpt lat="42.17918922332" lon="12.177499455419683"><ele>454.00000000000006</ele><time>2026-04-04T09:01:08.999Z</time></trkpt><trkpt lat="42.179187836328275" lon="12.177389035565366"><ele>454.0</ele><time>2026-04-04T09:01:15Z</time></trkpt><trkpt lat="42.17914568537877" lon="12.17731046262192"><ele>454.0</ele><time>2026-04-04T09:01:17Z</time></trkpt><trkpt lat="42.179113794208384" lon="12.177187954186115"><ele>454.0</ele><time>2026-04-04T09:01:19Z</time></trkpt><trkpt lat="42.17907828477651" lon="12.17704682098369"><ele>454.00000000000006</ele><time>2026-04-04T09:01:21Z</time></trkpt><trkpt lat="42.1790826663955" lon="12.17694466839565"><ele>454.0</ele><time>2026-04-04T09:01:22Z</time></trkpt><trkpt lat="42.1790231944418" lon="12.176842256990037"><ele>449.25</ele><time>2026-04-04T09:01:24Z</time></trkpt><trkpt lat="42.178987859402724" lon="12.176731806665206"><ele>444.5</ele><time>2026-04-04T09:01:26Z</time></trkpt><trkpt lat="42.17900122139974" lon="12.17661136087144"><ele>439.75</ele><time>2026-04-04T09:01:30Z</time></trkpt><trkpt lat="42.17893877270979" lon="12.176284489045859"><ele>435.0</ele><time>2026-04-04T09:01:40Z</time></trkpt><trkpt lat="42.17893849511934" lon="12.176123657680174"><ele>435.0</ele><time>2026-04-04T09:01:42Z</time></trkpt><trkpt lat="42.17895009887098" lon="12.176017176031262"><ele>435.0</ele><time>2026-04-04T09:01:43Z</time></trkpt><trkpt lat="42.17892449724999" lon="12.175906178122435"><ele>435.0</ele><time>2026-04-04T09:01:44Z</time></trkpt><trkpt lat="42.17889172898529" lon="12.175807751944538"><ele>435.0</ele><time>2026-04-04T09:01:45Z</time></trkpt><trkpt lat="42.178837476755746" lon="12.175738370650315"><ele>435.0</ele><time>2026-04-04T09:01:46Z</time></trkpt><trkpt lat="42.17873032820589" lon="12.175610993518088"><ele>435.8</ele><time>2026-04-04T09:01:48Z</time></trkpt><trkpt lat="42.17868227585724" lon="12.175459239118775"><ele>436.6</ele><time>2026-04-04T09:01:50Z</time></trkpt><trkpt lat="42.178643152542485" lon="12.175342129486578"><ele>437.4</ele><time>2026-04-04T09:01:52Z</time></trkpt><trkpt lat="42.1785619885224" lon="12.175241280141101"><ele>438.2</ele><time>2026-04-04T09:01:54Z</time></trkpt><trkpt lat="42.17852057122401" lon="12.175109043853064"><ele>439.0</ele><time>2026-04-04T09:01:56Z</time></trkpt><trkpt lat="42.17847426852725" lon="12.17500304204775"><ele>439.00000000000006</ele><time>2026-04-04T09:01:58Z</time></trkpt><trkpt lat="42.17843130048674" lon="12.174912010156213"><ele>439.0</ele><time>2026-04-04T09:02:00Z</time></trkpt><trkpt lat="42.1784037358738" lon="12.174793532699821"><ele>439.0</ele><time>2026-04-04T09:02:03Z</time></trkpt><trkpt lat="42.17833248110371" lon="12.174726420715535"><ele>439.0</ele><time>2026-04-04T09:02:07Z</time></trkpt><trkpt lat="42.17828362201033" lon="12.17463480765496"><ele>439.00000000000006</ele><time>2026-04-04T09:02:11Z</time></trkpt><trkpt lat="42.17824589147437" lon="12.174535271505599"><ele>439.0</ele><time>2026-04-04T09:02:14Z</time></trkpt><trkpt lat="42.178229859692166" lon="12.174440367675297"><ele>438.33333333333337</ele><time>2026-04-04T09:02:16.001Z</time></trkpt><trkpt lat="42.17817477367367" lon="12.174367997101037"><ele>437.6666666666667</ele><time>2026-04-04T09:02:19.001Z</time></trkpt><trkpt lat="42.178123363072466" lon="12.174273666493875"><ele>437.0</ele><time>2026-04-04T09:02:20.001Z</time></trkpt><trkpt lat="42.17806760144123" lon="12.174172078752875"><ele>436.33333333333337</ele><time>2026-04-04T09:02:22.001Z</time></trkpt><trkpt lat="42.17802383770412" lon="12.174073565368685"><ele>435.6666666666667</ele><time>2026-04-04T09:02:23.001Z</time></trkpt><trkpt lat="42.17795475044106" lon="12.17397519383829"><ele>435.0</ele><time>2026-04-04T09:02:25.001Z</time></trkpt><trkpt lat="42.177872151867895" lon="12.17389657738777"><ele>435.0</ele><time>2026-04-04T09:02:27.001Z</time></trkpt><trkpt lat="42.17783984989135" lon="12.17380743383659"><ele>435.0</ele><time>2026-04-04T09:02:28.001Z</time></trkpt><trkpt lat="42.17775268184309" lon="12.173700672561674"><ele>435.0</ele><time>2026-04-04T09:02:30.001Z</time></trkpt><trkpt lat="42.177670373964546" lon="12.173639389434893"><ele>435.0</ele><time>2026-04-04T09:02:32.001Z</time></trkpt><trkpt lat="42.17755738258285" lon="12.173557359920371"><ele>435.0</ele><time>2026-04-04T09:02:34.001Z</time></trkpt><trkpt lat="42.17748020850933" lon="12.173518637935032"><ele>435.0</ele><time>2026-04-04T09:02:36.001Z</time></trkpt><trkpt lat="42.17741132829158" lon="12.173500977245222"><ele>435.0</ele><time>2026-04-04T09:02:38.001Z</time></trkpt><trkpt lat="42.17733519029165" lon="12.173448340178833"><ele>435.0</ele><time>2026-04-04T09:02:40.001Z</time></trkpt><trkpt lat="42.177272636193244" lon="12.173317737631393"><ele>435.0</ele><time>2026-04-04T09:02:42.001Z</time></trkpt><trkpt lat="42.177198038433" lon="12.173242552883384"><ele>435.0</ele><time>2026-04-04T09:02:44.001Z</time></trkpt><trkpt lat="42.17714030455693" lon="12.173207620482787"><ele>435.0</ele><time>2026-04-04T09:02:45.001Z</time></trkpt><trkpt lat="42.177070672684934" lon="12.173055995399622"><ele>432.00000000000006</ele><time>2026-04-04T09:02:47.001Z</time></trkpt><trkpt lat="42.1770375234055" lon="12.172976081497806"><ele>429.0</ele><time>2026-04-04T09:02:48.001Z</time></trkpt><trkpt lat="42.176991743232314" lon="12.17290949238308"><ele>426.0</ele><time>2026-04-04T09:02:49.001Z</time></trkpt><trkpt lat="42.176952444592395" lon="12.17284251164178"><ele>423.0</ele><time>2026-04-04T09:02:50.001Z</time></trkpt><trkpt lat="42.17695325852258" lon="12.17271963309596"><ele>420.0</ele><time>2026-04-04T09:02:52.001Z</time></trkpt><trkpt lat="42.17702706201712" lon="12.17265716165493"><ele>417.00000000000006</ele><time>2026-04-04T09:02:54.001Z</time></trkpt><trkpt lat="42.17706925779215" lon="12.172586981033522"><ele>414.0</ele><time>2026-04-04T09:02:58.001Z</time></trkpt><trkpt lat="42.17701223964204" lon="12.172532965556977"><ele>414.00000000000006</ele><time>2026-04-04T09:03:01.001Z</time></trkpt><trkpt lat="42.17694584115081" lon="12.172506251938154"><ele>414.0</ele><time>2026-04-04T09:03:04.001Z</time></trkpt><trkpt lat="42.17693101316359" lon="12.172419576766549"><ele>414.0</ele><time>2026-04-04T09:03:08Z</time></trkpt><trkpt lat="42.17695598012547" lon="12.172322493883355"><ele>414.0</ele><time>2026-04-04T09:03:12Z</time></trkpt><trkpt lat="42.176917437711914" lon="12.172249018416212"><ele>414.0</ele><time>2026-04-04T09:03:14Z</time></trkpt><trkpt lat="42.176843746234304" lon="12.172288395924427"><ele>414.00000000000006</ele><time>2026-04-04T09:03:17Z</time></trkpt><trkpt lat="42.17677397900191" lon="12.172282676126567"><ele>414.0</ele><time>2026-04-04T09:03:20Z</time></trkpt><trkpt lat="42.176695520910684" lon="12.172298933459073"><ele>413.7142857142857</ele><time>2026-04-04T09:03:24.001Z</time></trkpt><trkpt lat="42.176611566522965" lon="12.172265547462924"><ele>413.42857142857144</ele><time>2026-04-04T09:03:26.001Z</time></trkpt><trkpt lat="42.176550477616296" lon="12.172234973943691"><ele>413.1428571428571</ele><time>2026-04-04T09:03:28.001Z</time></trkpt><trkpt lat="42.176531239412085" lon="12.172134943552905"><ele>412.8571428571429</ele><time>2026-04-04T09:03:33.001Z</time></trkpt><trkpt lat="42.176520373156585" lon="12.172032350076366"><ele>412.57142857142856</ele><time>2026-04-04T09:03:35.001Z</time></trkpt><trkpt lat="42.176491992724465" lon="12.17195495875607"><ele>412.2857142857143</ele><time>2026-04-04T09:03:39.001Z</time></trkpt><trkpt lat="42.17647296388889" lon="12.171867746334925"><ele>412.0</ele><time>2026-04-04T09:03:55.001Z</time></trkpt><trkpt lat="42.176427233559934" lon="12.17180049802641"><ele>412.83333333333337</ele><time>2026-04-04T09:04:36.001Z</time></trkpt><trkpt lat="42.17636061515568" lon="12.171787841190053"><ele>413.6666666666667</ele><time>2026-04-04T09:05:09.001Z</time></trkpt><trkpt lat="42.17636647861715" lon="12.171700481465304"><ele>414.5</ele><time>2026-04-04T09:05:17.001Z</time></trkpt><trkpt lat="42.17631670531729" lon="12.171609238519094"><ele>415.33333333333337</ele><time>2026-04-04T09:05:21.001Z</time></trkpt><trkpt lat="42.17627393483126" lon="12.171501855234313"><ele>416.1666666666667</ele><time>2026-04-04T09:05:25.001Z</time></trkpt><trkpt lat="42.17625281004922" lon="12.171411115694521"><ele>417.0</ele><time>2026-04-04T09:05:28.001Z</time></trkpt><trkpt lat="42.176255120177565" lon="12.171282460104274"><ele>417.0</ele><time>2026-04-04T09:05:32.001Z</time></trkpt><trkpt lat="42.176252997051286" lon="12.171195602449359"><ele>417.0</ele><time>2026-04-04T09:05:35.001Z</time></trkpt><trkpt lat="42.176259413375156" lon="12.171107136827207"><ele>417.0</ele><time>2026-04-04T09:05:43.001Z</time></trkpt><trkpt lat="42.176241502358714" lon="12.171018190938092"><ele>417.0</ele><time>2026-04-04T09:05:51.001Z</time></trkpt><trkpt lat="42.1762429105051" lon="12.17090504073789"><ele>417.0</ele><time>2026-04-04T09:05:55.001Z</time></trkpt><trkpt lat="42.17618922168049" lon="12.170830945803777"><ele>417.0</ele><time>2026-04-04T09:05:59.001Z</time></trkpt><trkpt lat="42.17616110350439" lon="12.170749786522553"><ele>417.0</ele><time>2026-04-04T09:06:02.001Z</time></trkpt><trkpt lat="42.17611117399298" lon="12.17067889780074"><ele>417.1666666666667</ele><time>2026-04-04T09:06:05.001Z</time></trkpt><trkpt lat="42.17605494204726" lon="12.170583377687517"><ele>417.33333333333337</ele><time>2026-04-04T09:06:08.001Z</time></trkpt><trkpt lat="42.175994730846675" lon="12.170515339256593"><ele>417.5</ele><time>2026-04-04T09:06:11.001Z</time></trkpt><trkpt lat="42.17592386522928" lon="12.170479547859829"><ele>417.6666666666667</ele><time>2026-04-04T09:06:14.001Z</time></trkpt><trkpt lat="42.17586109173919" lon="12.170428128447568"><ele>417.83333333333337</ele><time>2026-04-04T09:06:17.001Z</time></trkpt><trkpt lat="42.17579468967892" lon="12.170421670995532"><ele>418.0</ele><time>2026-04-04T09:06:20.001Z</time></trkpt><trkpt lat="42.17572523614551" lon="12.170365278528926"><ele>417.83333333333337</ele><time>2026-04-04T09:06:23.001Z</time></trkpt><trkpt lat="42.17564399368801" lon="12.170329882816585"><ele>417.6666666666667</ele><time>2026-04-04T09:06:27.001Z</time></trkpt><trkpt lat="42.17556840603748" lon="12.170308137157344"><ele>417.5</ele><time>2026-04-04T09:06:30.001Z</time></trkpt><trkpt lat="42.17549101536709" lon="12.170250661217175"><ele>417.33333333333337</ele><time>2026-04-04T09:06:33.001Z</time></trkpt><trkpt lat="42.17541106882069" lon="12.17020647178688"><ele>417.1666666666667</ele><time>2026-04-04T09:06:36.001Z</time></trkpt><trkpt lat="42.17535823085741" lon="12.170116404130948"><ele>417.0</ele><time>2026-04-04T09:06:39.001Z</time></trkpt><trkpt lat="42.175342730099516" lon="12.170026998484989"><ele>417.0</ele><time>2026-04-04T09:06:41.001Z</time></trkpt><trkpt lat="42.175339575264964" lon="12.169931572219296"><ele>417.0</ele><time>2026-04-04T09:06:44.001Z</time></trkpt><trkpt lat="42.175347143277236" lon="12.169814754393904"><ele>417.0</ele><time>2026-04-04T09:06:47.001Z</time></trkpt><trkpt lat="42.17533109573506" lon="12.16969015449555"><ele>417.0</ele><time>2026-04-04T09:06:50.001Z</time></trkpt><trkpt lat="42.175326194340506" lon="12.169565111957438"><ele>417.0</ele><time>2026-04-04T09:06:53.001Z</time></trkpt><trkpt lat="42.17531052205941" lon="12.169462493447243"><ele>417.0</ele><time>2026-04-04T09:06:56.001Z</time></trkpt><trkpt lat="42.175275561765545" lon="12.16936270371288"><ele>417.5</ele><time>2026-04-04T09:06:59.001Z</time></trkpt><trkpt lat="42.175213490241084" lon="12.169293193033612"><ele>418.0</ele><time>2026-04-04T09:07:03.001Z</time></trkpt><trkpt lat="42.17516595540697" lon="12.169214833059685"><ele>418.5</ele><time>2026-04-04T09:07:06.001Z</time></trkpt><trkpt lat="42.17511422663953" lon="12.169141068967715"><ele>419.0</ele><time>2026-04-04T09:07:09.001Z</time></trkpt><trkpt lat="42.17505534581634" lon="12.169100983023997"><ele>419.5</ele><time>2026-04-04T09:07:12.001Z</time></trkpt><trkpt lat="42.17498114592282" lon="12.16908105080265"><ele>420.0</ele><time>2026-04-04T09:07:16.001Z</time></trkpt><trkpt lat="42.174935150704584" lon="12.168995436924169"><ele>421.2857142857143</ele><time>2026-04-04T09:07:19.001Z</time></trkpt><trkpt lat="42.174880839443134" lon="12.168931027038873"><ele>422.57142857142856</ele><time>2026-04-04T09:07:22.001Z</time></trkpt><trkpt lat="42.17482691224462" lon="12.168862795918887"><ele>423.8571428571429</ele><time>2026-04-04T09:07:25.001Z</time></trkpt><trkpt lat="42.1747804973069" lon="12.16879059444817"><ele>425.1428571428571</ele><time>2026-04-04T09:07:27.001Z</time></trkpt><trkpt lat="42.17472405911308" lon="12.168742290637626"><ele>426.42857142857144</ele><time>2026-04-04T09:07:30.001Z</time></trkpt><trkpt lat="42.17466495880197" lon="12.168681944972926"><ele>427.7142857142857</ele><time>2026-04-04T09:07:33.001Z</time></trkpt><trkpt lat="42.17458997247368" lon="12.168659337631157"><ele>429.0</ele><time>2026-04-04T09:07:36.001Z</time></trkpt><trkpt lat="42.17450947020488" lon="12.16864871176873"><ele>429.0</ele><time>2026-04-04T09:07:39.001Z</time></trkpt><trkpt lat="42.17446444759469" lon="12.168554039966972"><ele>429.0</ele><time>2026-04-04T09:07:41.001Z</time></trkpt><trkpt lat="42.17439002116966" lon="12.16851172597106"><ele>429.0</ele><time>2026-04-04T09:07:44.001Z</time></trkpt><trkpt lat="42.17430703610586" lon="12.168439583011631"><ele>429.0</ele><time>2026-04-04T09:07:47.001Z</time></trkpt><trkpt lat="42.17423014545301" lon="12.168397900075089"><ele>429.0</ele><time>2026-04-04T09:07:50.001Z</time></trkpt><trkpt lat="42.17417856345502" lon="12.16833724933316"><ele>429.0</ele><time>2026-04-04T09:07:52.001Z</time></trkpt><trkpt lat="42.174100611752046" lon="12.16825454707814"><ele>429.5</ele><time>2026-04-04T09:07:55.001Z</time></trkpt><trkpt lat="42.17404255328063" lon="12.168181621147388"><ele>430.0</ele><time>2026-04-04T09:07:58.001Z</time></trkpt><trkpt lat="42.1739695921423" lon="12.168131890803606"><ele>430.5</ele><time>2026-04-04T09:08:01.001Z</time></trkpt><trkpt lat="42.17390064040607" lon="12.168068267301953"><ele>431.0</ele><time>2026-04-04T09:08:04.001Z</time></trkpt><trkpt lat="42.17384683612071" lon="12.16802190551428"><ele>431.5</ele><time>2026-04-04T09:08:06.001Z</time></trkpt><trkpt lat="42.17376244043914" lon="12.167942762223815"><ele>432.0</ele><time>2026-04-04T09:08:09.001Z</time></trkpt><trkpt lat="42.17369113251711" lon="12.167889637398774"><ele>432.0</ele><time>2026-04-04T09:08:12.001Z</time></trkpt><trkpt lat="42.17362336436774" lon="12.167822601525263"><ele>432.0</ele><time>2026-04-04T09:08:14.001Z</time></trkpt><trkpt lat="42.17357881053571" lon="12.16774717032772"><ele>432.0</ele><time>2026-04-04T09:08:16.001Z</time></trkpt><trkpt lat="42.17353504379136" lon="12.167672694845052"><ele>432.0</ele><time>2026-04-04T09:08:18.001Z</time></trkpt><trkpt lat="42.173474109819125" lon="12.16763229314214"><ele>432.0</ele><time>2026-04-04T09:08:20.001Z</time></trkpt><trkpt lat="42.17339885153016" lon="12.167598638579816"><ele>432.0</ele><time>2026-04-04T09:08:22.001Z</time></trkpt><trkpt lat="42.17334007709399" lon="12.167534819753943"><ele>432.0</ele><time>2026-04-04T09:08:24.001Z</time></trkpt><trkpt lat="42.1732841826152" lon="12.167459450826424"><ele>432.0</ele><time>2026-04-04T09:08:25.001Z</time></trkpt><trkpt lat="42.17319411182653" lon="12.167395337075133"><ele>432.0</ele><time>2026-04-04T09:08:27.001Z</time></trkpt><trkpt lat="42.17315882249645" lon="12.16730091311477"><ele>432.0</ele><time>2026-04-04T09:08:29.001Z</time></trkpt><trkpt lat="42.17312148757269" lon="12.16722692227087"><ele>432.0</ele><time>2026-04-04T09:08:32.001Z</time></trkpt><trkpt lat="42.17307478569727" lon="12.167164645634708"><ele>432.0</ele><time>2026-04-04T09:08:36.001Z</time></trkpt><trkpt lat="42.17301253108184" lon="12.167135820387298"><ele>432.0</ele><time>2026-04-04T09:08:41.001Z</time></trkpt><trkpt lat="42.17295555317681" lon="12.16706872107639"><ele>432.7142857142857</ele><time>2026-04-04T09:08:46.001Z</time></trkpt><trkpt lat="42.17286956265027" lon="12.167016336568091"><ele>433.42857142857144</ele><time>2026-04-04T09:08:50.001Z</time></trkpt><trkpt lat="42.17281485159051" lon="12.16695552476917"><ele>434.1428571428571</ele><time>2026-04-04T09:08:53.001Z</time></trkpt><trkpt lat="42.17275424281954" lon="12.166908597272625"><ele>434.8571428571429</ele><time>2026-04-04T09:08:56.001Z</time></trkpt><trkpt lat="42.172693502759216" lon="12.16687928417843"><ele>435.5714285714286</ele><time>2026-04-04T09:08:58.001Z</time></trkpt><trkpt lat="42.1726347058594" lon="12.166818481241714"><ele>436.2857142857143</ele><time>2026-04-04T09:09:01.001Z</time></trkpt><trkpt lat="42.17257157223765" lon="12.166787636201832"><ele>437.0</ele><time>2026-04-04T09:09:04.001Z</time></trkpt><trkpt lat="42.172484155484675" lon="12.166653711675178"><ele>437.0</ele><time>2026-04-04T09:09:07.001Z</time></trkpt><trkpt lat="42.17247549809739" lon="12.166560122163094"><ele>437.0</ele><time>2026-04-04T09:09:09.001Z</time></trkpt><trkpt lat="42.17242805247142" lon="12.166490188187726"><ele>437.0</ele><time>2026-04-04T09:09:12.001Z</time></trkpt><trkpt lat="42.172388926199325" lon="12.166417728149902"><ele>437.0</ele><time>2026-04-04T09:09:14.001Z</time></trkpt><trkpt lat="42.172321539230786" lon="12.166410000466852"><ele>437.0</ele><time>2026-04-04T09:09:16.001Z</time></trkpt><trkpt lat="42.17224924897468" lon="12.166382958117902"><ele>437.0</ele><time>2026-04-04T09:09:19.001Z</time></trkpt><trkpt lat="42.172176451077" lon="12.166368634241405"><ele>437.0</ele><time>2026-04-04T09:09:22.001Z</time></trkpt><trkpt lat="42.17209740753046" lon="12.166366424794987"><ele>438.1428571428571</ele><time>2026-04-04T09:09:24.001Z</time></trkpt><trkpt lat="42.172005901358354" lon="12.16634856893981"><ele>439.28571428571433</ele><time>2026-04-04T09:09:27.001Z</time></trkpt><trkpt lat="42.1719342529183" lon="12.166337279526497"><ele>440.42857142857144</ele><time>2026-04-04T09:09:30.001Z</time></trkpt><trkpt lat="42.17186655805393" lon="12.166335349033787"><ele>441.57142857142856</ele><time>2026-04-04T09:09:32.001Z</time></trkpt><trkpt lat="42.17179301231934" lon="12.16632817381426"><ele>442.71428571428567</ele><time>2026-04-04T09:09:35.001Z</time></trkpt><trkpt lat="42.17172889539589" lon="12.166323120611402"><ele>443.8571428571429</ele><time>2026-04-04T09:09:37.001Z</time></trkpt><trkpt lat="42.1716607751938" lon="12.166293116496355"><ele>445.0</ele><time>2026-04-04T09:09:39Z</time></trkpt><trkpt lat="42.17160431314338" lon="12.166218914890958"><ele>444.33333333333337</ele><time>2026-04-04T09:09:42Z</time></trkpt><trkpt lat="42.1715224156713" lon="12.166225217779992"><ele>443.6666666666667</ele><time>2026-04-04T09:09:45Z</time></trkpt><trkpt lat="42.17144708005255" lon="12.166189144555256"><ele>443.0</ele><time>2026-04-04T09:09:48Z</time></trkpt><trkpt lat="42.171376334286705" lon="12.166157533639545"><ele>442.33333333333337</ele><time>2026-04-04T09:09:51Z</time></trkpt><trkpt lat="42.171296962294974" lon="12.16614679794364"><ele>441.6666666666667</ele><time>2026-04-04T09:09:54Z</time></trkpt><trkpt lat="42.171212923146186" lon="12.166128817918972"><ele>441.0</ele><time>2026-04-04T09:09:57Z</time></trkpt><trkpt lat="42.17116618317434" lon="12.166048665301716"><ele>441.0</ele><time>2026-04-04T09:10:00Z</time></trkpt><trkpt lat="42.17117857628816" lon="12.165929605995279"><ele>441.0</ele><time>2026-04-04T09:10:02Z</time></trkpt><trkpt lat="42.1711613984177" lon="12.165808449294445"><ele>441.0</ele><time>2026-04-04T09:10:05Z</time></trkpt><trkpt lat="42.171097723837924" lon="12.165688440122013"><ele>441.0</ele><time>2026-04-04T09:10:08Z</time></trkpt><trkpt lat="42.17105524652609" lon="12.165573232115628"><ele>441.0</ele><time>2026-04-04T09:10:11Z</time></trkpt><trkpt lat="42.171024744524374" lon="12.16548074098827"><ele>442.1666666666667</ele><time>2026-04-04T09:10:13Z</time></trkpt><trkpt lat="42.17100225006656" lon="12.165384109231315"><ele>443.33333333333337</ele><time>2026-04-04T09:10:15Z</time></trkpt><trkpt lat="42.17097531407408" lon="12.165262051423483"><ele>444.5</ele><time>2026-04-04T09:10:18Z</time></trkpt><trkpt lat="42.17100820416413" lon="12.165154291028493"><ele>445.6666666666667</ele><time>2026-04-04T09:10:21Z</time></trkpt><trkpt lat="42.171015553284555" lon="12.165054948656985"><ele>446.83333333333337</ele><time>2026-04-04T09:10:24Z</time></trkpt><trkpt lat="42.171018026387046" lon="12.164952094719194"><ele>448.0</ele><time>2026-04-04T09:10:27Z</time></trkpt><trkpt lat="42.17102919121498" lon="12.164856234234438"><ele>448.0</ele><time>2026-04-04T09:10:30Z</time></trkpt><trkpt lat="42.171031988389544" lon="12.164771217226868"><ele>448.0</ele><time>2026-04-04T09:10:33Z</time></trkpt><trkpt lat="42.17099262511017" lon="12.164637987970984"><ele>448.0</ele><time>2026-04-04T09:10:37Z</time></trkpt><trkpt lat="42.17099418606188" lon="12.164544500537223"><ele>448.0</ele><time>2026-04-04T09:10:40Z</time></trkpt><trkpt lat="42.17096352742386" lon="12.164456725717113"><ele>448.0</ele><time>2026-04-04T09:10:43Z</time></trkpt><trkpt lat="42.170933941720186" lon="12.1643800759866"><ele>448.0</ele><time>2026-04-04T09:10:47Z</time></trkpt><trkpt lat="42.170902964982574" lon="12.1643055129903"><ele>448.0</ele><time>2026-04-04T09:10:50Z</time></trkpt><trkpt lat="42.170874900357624" lon="12.164216731525107"><ele>448.0</ele><time>2026-04-04T09:10:54.001Z</time></trkpt><trkpt lat="42.17089382864431" lon="12.164125023141048"><ele>448.0</ele><time>2026-04-04T09:10:56.001Z</time></trkpt><trkpt lat="42.17088850624507" lon="12.164014388401418"><ele>448.0</ele><time>2026-04-04T09:10:59.001Z</time></trkpt><trkpt lat="42.170834080920535" lon="12.163963520939657"><ele>448.0</ele><time>2026-04-04T09:11:03.001Z</time></trkpt><trkpt lat="42.17076475036267" lon="12.16392146544241"><ele>448.0</ele><time>2026-04-04T09:11:08.001Z</time></trkpt><trkpt lat="42.17073278161799" lon="12.163833893672253"><ele>448.0</ele><time>2026-04-04T09:11:11.001Z</time></trkpt><trkpt lat="42.17076081215449" lon="12.163740123545745"><ele>448.0</ele><time>2026-04-04T09:11:13.001Z</time></trkpt><trkpt lat="42.17078399904813" lon="12.163639278781734"><ele>448.57142857142856</ele><time>2026-04-04T09:11:17.001Z</time></trkpt><trkpt lat="42.170752201626335" lon="12.16352865373002"><ele>449.1428571428571</ele><time>2026-04-04T09:11:21Z</time></trkpt><trkpt lat="42.1707220372956" lon="12.163439586258418"><ele>449.7142857142857</ele><time>2026-04-04T09:11:25Z</time></trkpt><trkpt lat="42.170670901427584" lon="12.163376593811988"><ele>450.2857142857143</ele><time>2026-04-04T09:11:29Z</time></trkpt><trkpt lat="42.17061833096547" lon="12.163326583054076"><ele>450.85714285714283</ele><time>2026-04-04T09:11:33Z</time></trkpt><trkpt lat="42.170552819981964" lon="12.163320021540166"><ele>451.42857142857144</ele><time>2026-04-04T09:11:37Z</time></trkpt><trkpt lat="42.17048951666435" lon="12.16327830743718"><ele>452.0</ele><time>2026-04-04T09:11:40Z</time></trkpt><trkpt lat="42.170428114437975" lon="12.163228862101159"><ele>453.0</ele><time>2026-04-04T09:11:43Z</time></trkpt><trkpt lat="42.17036401550265" lon="12.163192856758549"><ele>454.0</ele><time>2026-04-04T09:11:46Z</time></trkpt><trkpt lat="42.17030044397259" lon="12.16312989663753"><ele>455.0</ele><time>2026-04-04T09:11:49Z</time></trkpt><trkpt lat="42.17029211154537" lon="12.163027085011219"><ele>456.0</ele><time>2026-04-04T09:11:57Z</time></trkpt><trkpt lat="42.17036009601788" lon="12.163067147527347"><ele>457.0</ele><time>2026-04-04T09:12:15Z</time></trkpt><trkpt lat="42.1704265278916" lon="12.163084272424218"><ele>458.0</ele><time>2026-04-04T09:12:23Z</time></trkpt><trkpt lat="42.17047374011741" lon="12.163027891530168"><ele>459.0</ele><time>2026-04-04T09:12:40Z</time></trkpt><trkpt lat="42.17051249573079" lon="12.16295406875416"><ele>459.0</ele><time>2026-04-04T09:12:47Z</time></trkpt><trkpt lat="42.1705475213634" lon="12.162877664033896"><ele>459.0</ele><time>2026-04-04T09:12:53Z</time></trkpt><trkpt lat="42.17048514213125" lon="12.162866158695152"><ele>459.0</ele><time>2026-04-04T09:13:08Z</time></trkpt><trkpt lat="42.17042090766437" lon="12.162874361620432"><ele>459.0</ele><time>2026-04-04T09:13:14Z</time></trkpt><trkpt lat="42.1703587823961" lon="12.162846178526781"><ele>459.0</ele><time>2026-04-04T09:13:23Z</time></trkpt><trkpt lat="42.17033753552173" lon="12.162762733252617"><ele>459.0</ele><time>2026-04-04T09:13:29Z</time></trkpt><trkpt lat="42.17026872878131" lon="12.16272499221624"><ele>459.0</ele><time>2026-04-04T09:13:39Z</time></trkpt><trkpt lat="42.17020291774705" lon="12.162742481527962"><ele>459.0</ele><time>2026-04-04T09:13:45Z</time></trkpt><trkpt lat="42.170180425631905" lon="12.162825147796742"><ele>459.0</ele><time>2026-04-04T09:13:53Z</time></trkpt><trkpt lat="42.17016025894647" lon="12.162936814401435"><ele>459.0</ele><time>2026-04-04T09:14:04Z</time></trkpt><trkpt lat="42.170095409709056" lon="12.162902472771675"><ele>459.0</ele><time>2026-04-04T09:14:10Z</time></trkpt><trkpt lat="42.169999755853155" lon="12.162860748512"><ele>459.0</ele><time>2026-04-04T09:14:18Z</time></trkpt><trkpt lat="42.16993346471337" lon="12.162828386820504"><ele>459.0</ele><time>2026-04-04T09:14:20Z</time></trkpt><trkpt lat="42.1698581528025" lon="12.162781859188453"><ele>458.0</ele><time>2026-04-04T09:14:23Z</time></trkpt><trkpt lat="42.169775167987524" lon="12.1627214848156"><ele>457.0</ele><time>2026-04-04T09:14:27Z</time></trkpt><trkpt lat="42.169725546089275" lon="12.162631918953766"><ele>456.0</ele><time>2026-04-04T09:14:31Z</time></trkpt><trkpt lat="42.16966919636944" lon="12.162583666785721"><ele>455.0</ele><time>2026-04-04T09:14:34Z</time></trkpt><trkpt lat="42.1696061216863" lon="12.162561619638142"><ele>454.0</ele><time>2026-04-04T09:14:37Z</time></trkpt><trkpt lat="42.169532966689076" lon="12.162521916643021"><ele>453.0</ele><time>2026-04-04T09:14:40Z</time></trkpt><trkpt lat="42.169469108662675" lon="12.162484796252933"><ele>453.0</ele><time>2026-04-04T09:14:43Z</time></trkpt><trkpt lat="42.16941166139888" lon="12.162438477849314"><ele>453.0</ele><time>2026-04-04T09:14:46Z</time></trkpt><trkpt lat="42.169337269375426" lon="12.162407110837677"><ele>453.0</ele><time>2026-04-04T09:14:50Z</time></trkpt><trkpt lat="42.169264312045755" lon="12.1623465812811"><ele>453.0</ele><time>2026-04-04T09:14:54Z</time></trkpt><trkpt lat="42.16919723584923" lon="12.162309560844658"><ele>453.0</ele><time>2026-04-04T09:14:56Z</time></trkpt><trkpt lat="42.169148673526394" lon="12.16223306222284"><ele>453.0</ele><time>2026-04-04T09:14:59Z</time></trkpt><trkpt lat="42.16908632093089" lon="12.162163534971825"><ele>453.42857142857133</ele><time>2026-04-04T09:15:02Z</time></trkpt><trkpt lat="42.169040911579906" lon="12.162088133013086"><ele>453.85714285714283</ele><time>2026-04-04T09:15:05Z</time></trkpt><trkpt lat="42.168981214032705" lon="12.162034275109733"><ele>454.2857142857142</ele><time>2026-04-04T09:15:08Z</time></trkpt><trkpt lat="42.16892548582686" lon="12.16195289915866"><ele>454.71428571428567</ele><time>2026-04-04T09:15:11Z</time></trkpt><trkpt lat="42.168869130136756" lon="12.161882888665943"><ele>455.1428571428571</ele><time>2026-04-04T09:15:14Z</time></trkpt><trkpt lat="42.1688202106787" lon="12.161823254773111"><ele>455.57142857142856</ele><time>2026-04-04T09:15:17Z</time></trkpt><trkpt lat="42.16876981942844" lon="12.161762120396446"><ele>456.0</ele><time>2026-04-04T09:15:20Z</time></trkpt><trkpt lat="42.168719708732574" lon="12.161690339591743"><ele>456.0</ele><time>2026-04-04T09:15:23Z</time></trkpt><trkpt lat="42.16867190479302" lon="12.16160118959566"><ele>455.99999999999994</ele><time>2026-04-04T09:15:27Z</time></trkpt><trkpt lat="42.168626542070974" lon="12.161537752542172"><ele>456.0</ele><time>2026-04-04T09:15:30Z</time></trkpt><trkpt lat="42.16858701943783" lon="12.1614712010855"><ele>456.0</ele><time>2026-04-04T09:15:33Z</time></trkpt><trkpt lat="42.1685435237315" lon="12.161408103032693"><ele>455.99999999999994</ele><time>2026-04-04T09:15:36Z</time></trkpt><trkpt lat="42.168493372040835" lon="12.161332078682024"><ele>456.0</ele><time>2026-04-04T09:15:39Z</time></trkpt><trkpt lat="42.168432990844" lon="12.161281657273983"><ele>456.0</ele><time>2026-04-04T09:15:42Z</time></trkpt><trkpt lat="42.16838293182365" lon="12.161191602278016"><ele>455.8333333333333</ele><time>2026-04-04T09:15:45Z</time></trkpt><trkpt lat="42.16831565484018" lon="12.161144341925354"><ele>455.66666666666663</ele><time>2026-04-04T09:15:48Z</time></trkpt><trkpt lat="42.16826700667218" lon="12.16108169984381"><ele>455.5</ele><time>2026-04-04T09:15:51Z</time></trkpt><trkpt lat="42.16820390930662" lon="12.161011081176415"><ele>455.3333333333333</ele><time>2026-04-04T09:15:54Z</time></trkpt><trkpt lat="42.16813609544375" lon="12.160936344972908"><ele>455.16666666666663</ele><time>2026-04-04T09:15:57Z</time></trkpt><trkpt lat="42.16808379709779" lon="12.160855682403096"><ele>455.0</ele><time>2026-04-04T09:16:03Z</time></trkpt><trkpt lat="42.168053386547044" lon="12.160768393633566"><ele>456.8571428571429</ele><time>2026-04-04T09:16:08Z</time></trkpt><trkpt lat="42.16808539727834" lon="12.160684502398611"><ele>458.7142857142857</ele><time>2026-04-04T09:16:16Z</time></trkpt><trkpt lat="42.16805943172293" lon="12.16059510737419"><ele>460.57142857142856</ele><time>2026-04-04T09:16:29Z</time></trkpt><trkpt lat="42.16802014140602" lon="12.16052199803543"><ele>462.42857142857144</ele><time>2026-04-04T09:16:40Z</time></trkpt><trkpt lat="42.16798068613196" lon="12.160593708755473"><ele>464.28571428571433</ele><time>2026-04-04T09:16:49Z</time></trkpt><trkpt lat="42.167916980862884" lon="12.160628027671173"><ele>466.14285714285717</ele><time>2026-04-04T09:16:51Z</time></trkpt><trkpt lat="42.167858022059434" lon="12.160593537460008"><ele>468.0</ele><time>2026-04-04T09:16:54Z</time></trkpt><trkpt lat="42.16780246122148" lon="12.160543639533506"><ele>468.0</ele><time>2026-04-04T09:16:58Z</time></trkpt><trkpt lat="42.167755368640286" lon="12.160486761864023"><ele>468.0</ele><time>2026-04-04T09:17:01Z</time></trkpt><trkpt lat="42.167693998043205" lon="12.160408237304416"><ele>468.0</ele><time>2026-04-04T09:17:04Z</time></trkpt><trkpt lat="42.16762356448673" lon="12.160325386017979"><ele>468.0</ele><time>2026-04-04T09:17:07Z</time></trkpt><trkpt lat="42.16758358526073" lon="12.160244631783225"><ele>468.0</ele><time>2026-04-04T09:17:10Z</time></trkpt><trkpt lat="42.167539152540044" lon="12.160167284992443"><ele>468.0</ele><time>2026-04-04T09:17:13Z</time></trkpt><trkpt lat="42.16749711953743" lon="12.160086054748486"><ele>468.0</ele><time>2026-04-04T09:17:16Z</time></trkpt><trkpt lat="42.16743197189014" lon="12.160021556150879"><ele>468.0</ele><time>2026-04-04T09:17:19Z</time></trkpt><trkpt lat="42.167381111901165" lon="12.159961960911685"><ele>468.0</ele><time>2026-04-04T09:17:22Z</time></trkpt><trkpt lat="42.16731770339331" lon="12.159881932524964"><ele>468.0</ele><time>2026-04-04T09:17:25Z</time></trkpt><trkpt lat="42.16727689072178" lon="12.159783873563935"><ele>468.0</ele><time>2026-04-04T09:17:28Z</time></trkpt><trkpt lat="42.167234334722636" lon="12.159690194189936"><ele>468.0</ele><time>2026-04-04T09:17:31Z</time></trkpt><trkpt lat="42.167180319721886" lon="12.159614071631202"><ele>468.5714285714286</ele><time>2026-04-04T09:17:34Z</time></trkpt><trkpt lat="42.16713813915889" lon="12.159526502900299"><ele>469.1428571428572</ele><time>2026-04-04T09:17:37Z</time></trkpt><trkpt lat="42.167099535349195" lon="12.159457932927635"><ele>469.7142857142857</ele><time>2026-04-04T09:17:40Z</time></trkpt><trkpt lat="42.16704867418321" lon="12.159366531695202"><ele>470.28571428571433</ele><time>2026-04-04T09:17:43Z</time></trkpt><trkpt lat="42.16700988232649" lon="12.159287683190675"><ele>470.8571428571429</ele><time>2026-04-04T09:17:46Z</time></trkpt><trkpt lat="42.16695654671047" lon="12.159237342883987"><ele>471.42857142857144</ele><time>2026-04-04T09:17:49Z</time></trkpt><trkpt lat="42.16692281338355" lon="12.159158927158698"><ele>472.0</ele><time>2026-04-04T09:17:52Z</time></trkpt><trkpt lat="42.16689456434544" lon="12.159059128526696"><ele>472.85714285714283</ele><time>2026-04-04T09:17:55Z</time></trkpt><trkpt lat="42.1668572844721" lon="12.158982201213663"><ele>473.7142857142858</ele><time>2026-04-04T09:17:58Z</time></trkpt><trkpt lat="42.166802565616194" lon="12.158895867842913"><ele>474.5714285714286</ele><time>2026-04-04T09:18:01Z</time></trkpt><trkpt lat="42.166802395085966" lon="12.158802687702467"><ele>475.42857142857144</ele><time>2026-04-04T09:18:04Z</time></trkpt><trkpt lat="42.166774070364646" lon="12.158724046120918"><ele>476.28571428571433</ele><time>2026-04-04T09:18:07Z</time></trkpt><trkpt lat="42.166724427157895" lon="12.158654182192622"><ele>477.1428571428572</ele><time>2026-04-04T09:18:10Z</time></trkpt><trkpt lat="42.16667151123966" lon="12.158557443236917"><ele>478.00000000000006</ele><time>2026-04-04T09:18:14Z</time></trkpt><trkpt lat="42.1666400708251" lon="12.158451545997666"><ele>478.00000000000006</ele><time>2026-04-04T09:18:18Z</time></trkpt><trkpt lat="42.16661161064227" lon="12.158370025435463"><ele>478.0</ele><time>2026-04-04T09:18:21Z</time></trkpt><trkpt lat="42.16658864848074" lon="12.158278439148834"><ele>478.00000000000006</ele><time>2026-04-04T09:18:24Z</time></trkpt><trkpt lat="42.16655490150209" lon="12.15819282950819"><ele>478.00000000000006</ele><time>2026-04-04T09:18:27Z</time></trkpt><trkpt lat="42.16650597624236" lon="12.158113838810216"><ele>478.0</ele><time>2026-04-04T09:18:30Z</time></trkpt><trkpt lat="42.16653194355728" lon="12.158205652880444"><ele>478.00000000000006</ele><time>2026-04-04T09:18:41Z</time></trkpt><trkpt lat="42.16653656717826" lon="12.158303729791307"><ele>478.00000000000006</ele><time>2026-04-04T09:18:45Z</time></trkpt><trkpt lat="42.16656445870838" lon="12.158385722040208"><ele>478.0</ele><time>2026-04-04T09:18:47Z</time></trkpt><trkpt lat="42.16655309790128" lon="12.158493536274255"><ele>477.99999999999994</ele><time>2026-04-04T09:18:50Z</time></trkpt><trkpt lat="42.16656543387783" lon="12.158670763990239"><ele>477.99999999999994</ele><time>2026-04-04T09:18:53Z</time></trkpt><trkpt lat="42.16653177428766" lon="12.158789009942323"><ele>478.0</ele><time>2026-04-04T09:18:55Z</time></trkpt><trkpt lat="42.1664643864171" lon="12.158884266152068"><ele>478.0</ele><time>2026-04-04T09:18:57Z</time></trkpt><trkpt lat="42.166366583576036" lon="12.158937300499565"><ele>478.1428571428572</ele><time>2026-04-04T09:18:59Z</time></trkpt><trkpt lat="42.16628488634273" lon="12.158937575032766"><ele>478.28571428571433</ele><time>2026-04-04T09:19:01Z</time></trkpt><trkpt lat="42.16621263098186" lon="12.158938279552455"><ele>478.42857142857144</ele><time>2026-04-04T09:19:03Z</time></trkpt><trkpt lat="42.1661471504541" lon="12.15894003986863"><ele>478.5714285714286</ele><time>2026-04-04T09:19:05Z</time></trkpt><trkpt lat="42.166060941267204" lon="12.158939727250127"><ele>478.7142857142858</ele><time>2026-04-04T09:19:08Z</time></trkpt><trkpt lat="42.16599693956058" lon="12.15894034142335"><ele>478.85714285714283</ele><time>2026-04-04T09:19:35Z</time></trkpt><trkpt lat="42.16593006417254" lon="12.158927252938946"><ele>479.0</ele><time>2026-04-04T09:19:38Z</time></trkpt><trkpt lat="42.16587301652046" lon="12.158883918170392"><ele>478.99999999999994</ele><time>2026-04-04T09:19:40Z</time></trkpt><trkpt lat="42.16579343278544" lon="12.158848856078855"><ele>479.0</ele><time>2026-04-04T09:19:42Z</time></trkpt><trkpt lat="42.165689837794886" lon="12.15879737032069"><ele>479.0</ele><time>2026-04-04T09:19:44Z</time></trkpt><trkpt lat="42.16561808018883" lon="12.158778736025985"><ele>479.0</ele><time>2026-04-04T09:19:45Z</time></trkpt><trkpt lat="42.16555611661291" lon="12.158761206805234"><ele>478.99999999999994</ele><time>2026-04-04T09:19:46Z</time></trkpt><trkpt lat="42.16547053985834" lon="12.158757633063134"><ele>479.0</ele><time>2026-04-04T09:19:48Z</time></trkpt><trkpt lat="42.165409724746546" lon="12.15878355335425"><ele>480.0</ele><time>2026-04-04T09:19:49Z</time></trkpt><trkpt lat="42.165315935763736" lon="12.158853508443153"><ele>481.0</ele><time>2026-04-04T09:19:51Z</time></trkpt><trkpt lat="42.16520257373037" lon="12.15886776265999"><ele>482.0</ele><time>2026-04-04T09:19:53Z</time></trkpt><trkpt lat="42.16513527845412" lon="12.158794599330013"><ele>483.0</ele><time>2026-04-04T09:19:55Z</time></trkpt><trkpt lat="42.16504126029741" lon="12.15880925830535"><ele>484.0</ele><time>2026-04-04T09:19:58Z</time></trkpt><trkpt lat="42.16504427368209" lon="12.158910320048566"><ele>484.00000000000006</ele><time>2026-04-04T09:20:01Z</time></trkpt><trkpt lat="42.16496080514642" lon="12.158956266200246"><ele>484.0</ele><time>2026-04-04T09:20:05Z</time></trkpt><trkpt lat="42.16489349480465" lon="12.158976628461998"><ele>484.0</ele><time>2026-04-04T09:20:08Z</time></trkpt><trkpt lat="42.164805875162756" lon="12.158985429337982"><ele>484.0</ele><time>2026-04-04T09:20:10Z</time></trkpt><trkpt lat="42.164729315769115" lon="12.15894448102666"><ele>484.00000000000006</ele><time>2026-04-04T09:20:12Z</time></trkpt><trkpt lat="42.16465607300485" lon="12.158899605801707"><ele>484.0</ele><time>2026-04-04T09:20:14Z</time></trkpt><trkpt lat="42.16459062859428" lon="12.158906674655343"><ele>483.1666666666667</ele><time>2026-04-04T09:20:16Z</time></trkpt><trkpt lat="42.164521294325525" lon="12.158916368984086"><ele>482.33333333333337</ele><time>2026-04-04T09:20:18Z</time></trkpt><trkpt lat="42.16447546949591" lon="12.15885686517943"><ele>481.5</ele><time>2026-04-04T09:20:19Z</time></trkpt><trkpt lat="42.16438962684585" lon="12.158837885280848"><ele>480.66666666666663</ele><time>2026-04-04T09:20:22Z</time></trkpt><trkpt lat="42.164331192272016" lon="12.158793264135813"><ele>479.8333333333333</ele><time>2026-04-04T09:20:24Z</time></trkpt><trkpt lat="42.164239157443504" lon="12.158750157172863"><ele>479.0</ele><time>2026-04-04T09:20:27Z</time></trkpt><trkpt lat="42.164175289283804" lon="12.158688101494231"><ele>479.0</ele><time>2026-04-04T09:20:28Z</time></trkpt><trkpt lat="42.164064981406305" lon="12.158606543962561"><ele>479.0</ele><time>2026-04-04T09:20:30Z</time></trkpt><trkpt lat="42.16401647177759" lon="12.158546694802052"><ele>479.0</ele><time>2026-04-04T09:20:31Z</time></trkpt><trkpt lat="42.16398131349091" lon="12.158474382424505"><ele>479.0</ele><time>2026-04-04T09:20:32Z</time></trkpt><trkpt lat="42.16392106311923" lon="12.158338404016344"><ele>479.0</ele><time>2026-04-04T09:20:34Z</time></trkpt><trkpt lat="42.16383083719314" lon="12.158234034100264"><ele>478.4</ele><time>2026-04-04T09:20:36Z</time></trkpt><trkpt lat="42.16372293606288" lon="12.15813940804068"><ele>477.79999999999995</ele><time>2026-04-04T09:20:38Z</time></trkpt><trkpt lat="42.163654097215826" lon="12.15807967304571"><ele>477.20000000000005</ele><time>2026-04-04T09:20:40Z</time></trkpt><trkpt lat="42.16355339132574" lon="12.157973525684989"><ele>476.6</ele><time>2026-04-04T09:20:43Z</time></trkpt><trkpt lat="42.16349107999329" lon="12.157921075279221"><ele>476.0</ele><time>2026-04-04T09:20:45Z</time></trkpt><trkpt lat="42.163421440100244" lon="12.157860739085883"><ele>475.99999999999994</ele><time>2026-04-04T09:20:47Z</time></trkpt><trkpt lat="42.1633804558895" lon="12.15778030605401"><ele>476.0</ele><time>2026-04-04T09:20:49Z</time></trkpt><trkpt lat="42.16333386714148" lon="12.157707628366525"><ele>476.0</ele><time>2026-04-04T09:20:51Z</time></trkpt><trkpt lat="42.16325440620333" lon="12.157617935876683"><ele>476.0</ele><time>2026-04-04T09:20:53Z</time></trkpt><trkpt lat="42.163210118587024" lon="12.15754895133982"><ele>475.99999999999994</ele><time>2026-04-04T09:20:54Z</time></trkpt><trkpt lat="42.16314027571365" lon="12.157482207853135"><ele>476.0</ele><time>2026-04-04T09:20:55Z</time></trkpt><trkpt lat="42.163060916847044" lon="12.157413575809775"><ele>474.99999999999994</ele><time>2026-04-04T09:20:57Z</time></trkpt><trkpt lat="42.163009436055354" lon="12.15732824634526"><ele>474.0</ele><time>2026-04-04T09:20:59Z</time></trkpt><trkpt lat="42.16295816271307" lon="12.157249815821872"><ele>473.0</ele><time>2026-04-04T09:21:01Z</time></trkpt><trkpt lat="42.1629294887533" lon="12.157163434989767"><ele>472.0</ele><time>2026-04-04T09:21:03Z</time></trkpt><trkpt lat="42.162876825871244" lon="12.157075441997454"><ele>470.99999999999994</ele><time>2026-04-04T09:21:05Z</time></trkpt><trkpt lat="42.162815527535216" lon="12.157009796933748"><ele>470.0</ele><time>2026-04-04T09:21:07Z</time></trkpt><trkpt lat="42.16277629105516" lon="12.156917449425576"><ele>470.0</ele><time>2026-04-04T09:21:09Z</time></trkpt><trkpt lat="42.16273243690527" lon="12.156833442604603"><ele>470.0</ele><time>2026-04-04T09:21:11Z</time></trkpt><trkpt lat="42.162552472063766" lon="12.156395362202613"><ele>470.0</ele><time>2026-04-04T09:21:14Z</time></trkpt><trkpt lat="42.16252181330875" lon="12.156312950493929"><ele>471.4</ele><time>2026-04-04T09:21:15Z</time></trkpt><trkpt lat="42.162470534285234" lon="12.15617438430421"><ele>472.8</ele><time>2026-04-04T09:21:17Z</time></trkpt><trkpt lat="42.162419183637454" lon="12.15601846620483"><ele>474.20000000000005</ele><time>2026-04-04T09:21:19Z</time></trkpt><trkpt lat="42.162379842264095" lon="12.155918187479532"><ele>475.6</ele><time>2026-04-04T09:21:20Z</time></trkpt><trkpt lat="42.162297689703" lon="12.155891819993123"><ele>477.0</ele><time>2026-04-04T09:21:21Z</time></trkpt><trkpt lat="42.162251700989586" lon="12.15582982154475"><ele>474.3333333333333</ele><time>2026-04-04T09:21:22Z</time></trkpt><trkpt lat="42.162218428668965" lon="12.155730455112085"><ele>471.66666666666663</ele><time>2026-04-04T09:21:23Z</time></trkpt><trkpt lat="42.16217067367171" lon="12.155650701284246"><ele>469.0</ele><time>2026-04-04T09:21:24Z</time></trkpt><trkpt lat="42.16213939613256" lon="12.155541402042285"><ele>466.3333333333333</ele><time>2026-04-04T09:21:25Z</time></trkpt><trkpt lat="42.16208010891285" lon="12.155491274382875"><ele>463.66666666666663</ele><time>2026-04-04T09:21:26Z</time></trkpt><trkpt lat="42.16209496993805" lon="12.1553740976955"><ele>461.0</ele><time>2026-04-04T09:21:27Z</time></trkpt><trkpt lat="42.162072237491245" lon="12.155280480416371"><ele>460.99999999999994</ele><time>2026-04-04T09:21:28Z</time></trkpt><trkpt lat="42.16204452410232" lon="12.155187050462702"><ele>461.0</ele><time>2026-04-04T09:21:29Z</time></trkpt><trkpt lat="42.16198627218797" lon="12.155096562471428"><ele>461.0</ele><time>2026-04-04T09:21:31Z</time></trkpt><trkpt lat="42.16194062168211" lon="12.15501584130291"><ele>461.0</ele><time>2026-04-04T09:21:32Z</time></trkpt><trkpt lat="42.16190455553054" lon="12.154936266281586"><ele>460.99999999999994</ele><time>2026-04-04T09:21:33Z</time></trkpt><trkpt lat="42.16187320760653" lon="12.154839565283106"><ele>461.0</ele><time>2026-04-04T09:21:34Z</time></trkpt><trkpt lat="42.161828711843725" lon="12.154765849424058"><ele>461.20000000000005</ele><time>2026-04-04T09:21:35Z</time></trkpt><trkpt lat="42.161780477147225" lon="12.154699211397869"><ele>461.40000000000003</ele><time>2026-04-04T09:21:36Z</time></trkpt><trkpt lat="42.16173779789317" lon="12.154523423386474"><ele>461.6</ele><time>2026-04-04T09:21:38Z</time></trkpt><trkpt lat="42.16170945147215" lon="12.154434301916087"><ele>461.8</ele><time>2026-04-04T09:21:39Z</time></trkpt><trkpt lat="42.16166537037016" lon="12.15426718777815"><ele>462.0</ele><time>2026-04-04T09:21:41Z</time></trkpt><trkpt lat="42.16163760171012" lon="12.154110828058268"><ele>462.40000000000003</ele><time>2026-04-04T09:21:43Z</time></trkpt><trkpt lat="42.16162391707653" lon="12.153981781090154"><ele>462.80000000000007</ele><time>2026-04-04T09:21:45Z</time></trkpt><trkpt lat="42.16157630305423" lon="12.15386666342215"><ele>463.2</ele><time>2026-04-04T09:21:47Z</time></trkpt><trkpt lat="42.16155855674381" lon="12.153724255919242"><ele>463.6</ele><time>2026-04-04T09:21:49Z</time></trkpt><trkpt lat="42.16158039861543" lon="12.153578845903484"><ele>464.0</ele><time>2026-04-04T09:21:51Z</time></trkpt><trkpt lat="42.161548293438095" lon="12.153409609054714"><ele>462.3333333333333</ele><time>2026-04-04T09:21:53Z</time></trkpt><trkpt lat="42.16152639823009" lon="12.153327856730247"><ele>460.66666666666663</ele><time>2026-04-04T09:21:54Z</time></trkpt><trkpt lat="42.16150318549377" lon="12.153206554718178"><ele>459.0</ele><time>2026-04-04T09:21:55Z</time></trkpt><trkpt lat="42.16145613557196" lon="12.153093943775948"><ele>457.33333333333337</ele><time>2026-04-04T09:21:56Z</time></trkpt><trkpt lat="42.16141582764059" lon="12.153008614748655"><ele>455.6666666666667</ele><time>2026-04-04T09:21:57Z</time></trkpt><trkpt lat="42.16140755247234" lon="12.15289964715427"><ele>454.0</ele><time>2026-04-04T09:21:58Z</time></trkpt><trkpt lat="42.16138462817577" lon="12.15280677659518"><ele>453.00000000000006</ele><time>2026-04-04T09:21:59Z</time></trkpt><trkpt lat="42.16133951485159" lon="12.152718512882343"><ele>452.0</ele><time>2026-04-04T09:22:00Z</time></trkpt><trkpt lat="42.16128076380557" lon="12.152633736088276"><ele>451.0</ele><time>2026-04-04T09:22:01Z</time></trkpt><trkpt lat="42.161265954631844" lon="12.152543994939553"><ele>450.0</ele><time>2026-04-04T09:22:02Z</time></trkpt><trkpt lat="42.161214520825254" lon="12.152396105692624"><ele>449.00000000000006</ele><time>2026-04-04T09:22:04Z</time></trkpt><trkpt lat="42.16120339290119" lon="12.15228629571535"><ele>448.0</ele><time>2026-04-04T09:22:05Z</time></trkpt><trkpt lat="42.16117484875007" lon="12.152170881308141"><ele>447.4</ele><time>2026-04-04T09:22:06Z</time></trkpt><trkpt lat="42.161125946073994" lon="12.152075136031128"><ele>446.79999999999995</ele><time>2026-04-04T09:22:07Z</time></trkpt><trkpt lat="42.16106767169103" lon="12.152020190548734"><ele>446.2</ele><time>2026-04-04T09:22:08Z</time></trkpt><trkpt lat="42.16104760069476" lon="12.151934962060498"><ele>445.6</ele><time>2026-04-04T09:22:09Z</time></trkpt><trkpt lat="42.16101195892076" lon="12.151782627869192"><ele>445.0</ele><time>2026-04-04T09:22:11Z</time></trkpt><trkpt lat="42.16089233602763" lon="12.151757796885958"><ele>445.0</ele><time>2026-04-04T09:22:13Z</time></trkpt><trkpt lat="42.16084978567119" lon="12.151641286354428"><ele>445.0</ele><time>2026-04-04T09:22:15Z</time></trkpt><trkpt lat="42.160851610458046" lon="12.151554583419113"><ele>445.0</ele><time>2026-04-04T09:22:16Z</time></trkpt><trkpt lat="42.16090107296374" lon="12.151407025134345"><ele>445.0</ele><time>2026-04-04T09:22:18Z</time></trkpt><trkpt lat="42.16087401526403" lon="12.151274871300439"><ele>445.0</ele><time>2026-04-04T09:22:20Z</time></trkpt><trkpt lat="42.16084898074142" lon="12.151110814753906"><ele>444.83333333333337</ele><time>2026-04-04T09:22:22Z</time></trkpt><trkpt lat="42.160834403631476" lon="12.150960569760151"><ele>444.6666666666667</ele><time>2026-04-04T09:22:24Z</time></trkpt><trkpt lat="42.160823342085706" lon="12.150814697110068"><ele>444.5</ele><time>2026-04-04T09:22:26Z</time></trkpt><trkpt lat="42.16078837081711" lon="12.150729892441813"><ele>444.33333333333337</ele><time>2026-04-04T09:22:27Z</time></trkpt><trkpt lat="42.16076697801831" lon="12.15064034701172"><ele>444.1666666666667</ele><time>2026-04-04T09:22:28Z</time></trkpt><trkpt lat="42.16073855998707" lon="12.150554143641354"><ele>444.0</ele><time>2026-04-04T09:22:29Z</time></trkpt><trkpt lat="42.160726310314246" lon="12.150432821576496"><ele>443.5</ele><time>2026-04-04T09:22:30Z</time></trkpt><trkpt lat="42.16072919167577" lon="12.15031508086696"><ele>443.0</ele><time>2026-04-04T09:22:31Z</time></trkpt><trkpt lat="42.160702590173955" lon="12.15023432724601"><ele>442.5</ele><time>2026-04-04T09:22:32Z</time></trkpt><trkpt lat="42.16066770649206" lon="12.150147792201619"><ele>442.0</ele><time>2026-04-04T09:22:33Z</time></trkpt><trkpt lat="42.160604628392214" lon="12.149980608416287"><ele>441.5</ele><time>2026-04-04T09:22:35Z</time></trkpt><trkpt lat="42.16055998797794" lon="12.14990409604532"><ele>441.0</ele><time>2026-04-04T09:22:36Z</time></trkpt><trkpt lat="42.16049829253694" lon="12.149788992829588"><ele>436.8</ele><time>2026-04-04T09:22:38Z</time></trkpt><trkpt lat="42.16045950932133" lon="12.149652546087353"><ele>432.6</ele><time>2026-04-04T09:22:40Z</time></trkpt><trkpt lat="42.16043844623229" lon="12.149534715693264"><ele>428.4</ele><time>2026-04-04T09:22:42Z</time></trkpt><trkpt lat="42.160382282216815" lon="12.149465428647506"><ele>424.2</ele><time>2026-04-04T09:22:44Z</time></trkpt><trkpt lat="42.16030228403997" lon="12.149366694612395"><ele>420.0</ele><time>2026-04-04T09:22:46Z</time></trkpt><trkpt lat="42.16031926103077" lon="12.149258208324687"><ele>420.0</ele><time>2026-04-04T09:22:47Z</time></trkpt><trkpt lat="42.16032073021942" lon="12.149143261959916"><ele>420.0</ele><time>2026-04-04T09:22:48Z</time></trkpt><trkpt lat="42.16033245128428" lon="12.149035282649754"><ele>420.0</ele><time>2026-04-04T09:22:49Z</time></trkpt><trkpt lat="42.16038677968497" lon="12.148910610577131"><ele>420.0</ele><time>2026-04-04T09:22:50Z</time></trkpt><trkpt lat="42.16038281029797" lon="12.14876449287113"><ele>420.0</ele><time>2026-04-04T09:22:51Z</time></trkpt><trkpt lat="42.16037808931807" lon="12.148609385329049"><ele>417.8</ele><time>2026-04-04T09:22:52Z</time></trkpt><trkpt lat="42.16037140581142" lon="12.148461686675411"><ele>415.6</ele><time>2026-04-04T09:22:53Z</time></trkpt><trkpt lat="42.160360190879416" lon="12.14832741135409"><ele>413.4</ele><time>2026-04-04T09:22:54Z</time></trkpt><trkpt lat="42.16034623933656" lon="12.14818537453298"><ele>411.2</ele><time>2026-04-04T09:22:55Z</time></trkpt><trkpt lat="42.1603336292608" lon="12.148024347152084"><ele>409.0</ele><time>2026-04-04T09:22:56Z</time></trkpt><trkpt lat="42.16033222770661" lon="12.14786403457778"><ele>407.0</ele><time>2026-04-04T09:22:57Z</time></trkpt><trkpt lat="42.160333463104614" lon="12.147711981126832"><ele>405.0</ele><time>2026-04-04T09:22:58Z</time></trkpt><trkpt lat="42.16032942370174" lon="12.147560699034631"><ele>403.0</ele><time>2026-04-04T09:22:59Z</time></trkpt><trkpt lat="42.16032262366661" lon="12.147395570023912"><ele>401.0</ele><time>2026-04-04T09:23:00Z</time></trkpt><trkpt lat="42.16031132937129" lon="12.147228552923933"><ele>400.4</ele><time>2026-04-04T09:23:01Z</time></trkpt><trkpt lat="42.16029809323481" lon="12.147080449202319"><ele>399.8</ele><time>2026-04-04T09:23:02Z</time></trkpt><trkpt lat="42.16028042631753" lon="12.146917754907248"><ele>399.2</ele><time>2026-04-04T09:23:03Z</time></trkpt><trkpt lat="42.160260792538296" lon="12.146756000013447"><ele>398.59999999999997</ele><time>2026-04-04T09:23:04Z</time></trkpt><trkpt lat="42.16024475212841" lon="12.146631920202754"><ele>398.0</ele><time>2026-04-04T09:23:05Z</time></trkpt><trkpt lat="42.16023188174225" lon="12.146521979657274"><ele>396.59999999999997</ele><time>2026-04-04T09:23:06Z</time></trkpt><trkpt lat="42.16022264251827" lon="12.146423054593782"><ele>395.2</ele><time>2026-04-04T09:23:07Z</time></trkpt><trkpt lat="42.160228229612855" lon="12.14626508978564"><ele>393.8</ele><time>2026-04-04T09:23:09Z</time></trkpt><trkpt lat="42.16031369386242" lon="12.14616216871136"><ele>392.4</ele><time>2026-04-04T09:23:11Z</time></trkpt><trkpt lat="42.160405749590126" lon="12.146155913315916"><ele>391.0</ele><time>2026-04-04T09:23:13Z</time></trkpt><trkpt lat="42.16052636380938" lon="12.146195740077713"><ele>391.00000000000006</ele><time>2026-04-04T09:23:15Z</time></trkpt><trkpt lat="42.160597648594496" lon="12.146202717389002"><ele>391.0</ele><time>2026-04-04T09:23:16Z</time></trkpt><trkpt lat="42.160672508319074" lon="12.146223298207591"><ele>391.0</ele><time>2026-04-04T09:23:17Z</time></trkpt><trkpt lat="42.16074858794771" lon="12.146228541149743"><ele>391.0</ele><time>2026-04-04T09:23:18Z</time></trkpt><trkpt lat="42.16082813501076" lon="12.146216580406316"><ele>391.00000000000006</ele><time>2026-04-04T09:23:19Z</time></trkpt><trkpt lat="42.160901495085405" lon="12.146184828296088"><ele>391.0</ele><time>2026-04-04T09:23:20Z</time></trkpt><trkpt lat="42.1609624399349" lon="12.146138470612424"><ele>391.1666666666667</ele><time>2026-04-04T09:23:21Z</time></trkpt><trkpt lat="42.161006093960026" lon="12.146057865421676"><ele>391.33333333333337</ele><time>2026-04-04T09:23:22Z</time></trkpt><trkpt lat="42.161036651293834" lon="12.14597863909412"><ele>391.5</ele><time>2026-04-04T09:23:23Z</time></trkpt><trkpt lat="42.161046309831335" lon="12.145808873584064"><ele>391.66666666666663</ele><time>2026-04-04T09:23:25Z</time></trkpt><trkpt lat="42.16103608501176" lon="12.145723882451783"><ele>391.8333333333333</ele><time>2026-04-04T09:23:26Z</time></trkpt><trkpt lat="42.161056819625955" lon="12.145583642631156"><ele>392.0</ele><time>2026-04-04T09:23:28Z</time></trkpt><trkpt lat="42.161043940551274" lon="12.145498414179475"><ele>391.6</ele><time>2026-04-04T09:23:29Z</time></trkpt><trkpt lat="42.16103271023393" lon="12.145363832236987"><ele>391.20000000000005</ele><time>2026-04-04T09:23:31Z</time></trkpt><trkpt lat="42.161030829138205" lon="12.14524131756224"><ele>390.8</ele><time>2026-04-04T09:23:33Z</time></trkpt><trkpt lat="42.161042299230076" lon="12.145125578532118"><ele>390.4</ele><time>2026-04-04T09:23:35Z</time></trkpt><trkpt lat="42.161053464900675" lon="12.145028157947808"><ele>390.0</ele><time>2026-04-04T09:23:37Z</time></trkpt><trkpt lat="42.160931158888125" lon="12.144878515697885"><ele>390.75</ele><time>2026-04-04T09:23:40Z</time></trkpt><trkpt lat="42.16080506058696" lon="12.144875947628991"><ele>391.5</ele><time>2026-04-04T09:23:42Z</time></trkpt><trkpt lat="42.160691910249646" lon="12.144866564960704"><ele>392.25</ele><time>2026-04-04T09:23:44Z</time></trkpt><trkpt lat="42.16058305084187" lon="12.1448487665665"><ele>393.0</ele><time>2026-04-04T09:23:46Z</time></trkpt><trkpt lat="42.1604693156629" lon="12.144814450754323"><ele>393.0</ele><time>2026-04-04T09:23:48Z</time></trkpt><trkpt lat="42.16037216954197" lon="12.144737222721004"><ele>393.0</ele><time>2026-04-04T09:23:50Z</time></trkpt><trkpt lat="42.16031218758939" lon="12.144683277645916"><ele>393.0</ele><time>2026-04-04T09:23:51Z</time></trkpt><trkpt lat="42.16025716061049" lon="12.144633788807758"><ele>393.0</ele><time>2026-04-04T09:23:52Z</time></trkpt><trkpt lat="42.16015447074664" lon="12.144561381098338"><ele>393.0</ele><time>2026-04-04T09:23:54Z</time></trkpt><trkpt lat="42.16010341944432" lon="12.144458746198248"><ele>393.0</ele><time>2026-04-04T09:23:56Z</time></trkpt><trkpt lat="42.16003308608777" lon="12.144356751970294"><ele>393.0</ele><time>2026-04-04T09:23:58Z</time></trkpt><trkpt lat="42.16003434333584" lon="12.144226361059644"><ele>393.0</ele><time>2026-04-04T09:24:00Z</time></trkpt><trkpt lat="42.16000172999188" lon="12.144112837252907"><ele>393.0</ele><time>2026-04-04T09:24:02Z</time></trkpt><trkpt lat="42.1599516655706" lon="12.14399707747896"><ele>393.0</ele><time>2026-04-04T09:24:04Z</time></trkpt><trkpt lat="42.15990235773988" lon="12.143881860885564"><ele>393.8333333333333</ele><time>2026-04-04T09:24:06Z</time></trkpt><trkpt lat="42.15981263558915" lon="12.143834126803265"><ele>394.66666666666663</ele><time>2026-04-04T09:24:08Z</time></trkpt><trkpt lat="42.15977689690893" lon="12.143761919198356"><ele>395.5</ele><time>2026-04-04T09:24:10Z</time></trkpt><trkpt lat="42.15976725932657" lon="12.14365607068903"><ele>396.3333333333333</ele><time>2026-04-04T09:24:12Z</time></trkpt><trkpt lat="42.15974163584652" lon="12.143549711935478"><ele>397.16666666666663</ele><time>2026-04-04T09:24:14Z</time></trkpt><trkpt lat="42.15973260454663" lon="12.143456614969736"><ele>398.0</ele><time>2026-04-04T09:24:17Z</time></trkpt><trkpt lat="42.15970458719332" lon="12.143348016461172"><ele>397.99999999999994</ele><time>2026-04-04T09:24:20Z</time></trkpt><trkpt lat="42.15966880304611" lon="12.143237389836235"><ele>398.0</ele><time>2026-04-04T09:24:23Z</time></trkpt><trkpt lat="42.15963839509412" lon="12.143135631561188"><ele>398.0</ele><time>2026-04-04T09:24:26Z</time></trkpt><trkpt lat="42.15960456447324" lon="12.143061059940113"><ele>398.0</ele><time>2026-04-04T09:24:28Z</time></trkpt><trkpt lat="42.159585371723004" lon="12.14293540704122"><ele>397.99999999999994</ele><time>2026-04-04T09:24:31Z</time></trkpt><trkpt lat="42.15954231846178" lon="12.142806577504413"><ele>398.0</ele><time>2026-04-04T09:24:34Z</time></trkpt><trkpt lat="42.15951258881259" lon="12.142686046259755"><ele>398.3333333333333</ele><time>2026-04-04T09:24:37Z</time></trkpt><trkpt lat="42.159479787235476" lon="12.142563054986898"><ele>398.66666666666663</ele><time>2026-04-04T09:24:40Z</time></trkpt><trkpt lat="42.15941416221213" lon="12.14253059231472"><ele>399.0</ele><time>2026-04-04T09:24:43Z</time></trkpt><trkpt lat="42.15939445412011" lon="12.142629034625648"><ele>399.33333333333337</ele><time>2026-04-04T09:24:47Z</time></trkpt><trkpt lat="42.15938962102788" lon="12.142738636608339"><ele>399.6666666666667</ele><time>2026-04-04T09:24:50Z</time></trkpt><trkpt lat="42.15938476966105" lon="12.14282526685909"><ele>400.0</ele><time>2026-04-04T09:24:53Z</time></trkpt><trkpt lat="42.15937976557609" lon="12.142916827818059"><ele>400.00000000000006</ele><time>2026-04-04T09:24:56Z</time></trkpt><trkpt lat="42.15938245394993" lon="12.143013842494481"><ele>400.0</ele><time>2026-04-04T09:24:59Z</time></trkpt><trkpt lat="42.15935036226126" lon="12.143110692971149"><ele>400.0</ele><time>2026-04-04T09:25:02Z</time></trkpt><trkpt lat="42.15929399406519" lon="12.143173915446557"><ele>400.0</ele><time>2026-04-04T09:25:05Z</time></trkpt><trkpt lat="42.15923022497284" lon="12.143176486195577"><ele>400.0</ele><time>2026-04-04T09:25:07Z</time></trkpt><trkpt lat="42.15916250663118" lon="12.143175697953705"><ele>400.00000000000006</ele><time>2026-04-04T09:25:10Z</time></trkpt><trkpt lat="42.15909121125633" lon="12.143202628507314"><ele>400.0</ele><time>2026-04-04T09:25:13Z</time></trkpt><trkpt lat="42.1590263399283" lon="12.143207307485891"><ele>400.7142857142857</ele><time>2026-04-04T09:25:16Z</time></trkpt><trkpt lat="42.15897998283726" lon="12.143276743886094"><ele>401.42857142857144</ele><time>2026-04-04T09:25:20Z</time></trkpt><trkpt lat="42.15895764135664" lon="12.143380505667317"><ele>402.1428571428571</ele><time>2026-04-04T09:25:25Z</time></trkpt><trkpt lat="42.15894691109146" lon="12.143464570065465"><ele>402.8571428571429</ele><time>2026-04-04T09:25:28Z</time></trkpt><trkpt lat="42.15892254465557" lon="12.1435681714808"><ele>403.57142857142856</ele><time>2026-04-04T09:25:33Z</time></trkpt><trkpt lat="42.158887698520196" lon="12.143663724763256"><ele>404.2857142857143</ele><time>2026-04-04T09:25:37Z</time></trkpt><trkpt lat="42.15881421098567" lon="12.143690135251404"><ele>405.0</ele><time>2026-04-04T09:25:40Z</time></trkpt><trkpt lat="42.158750841185174" lon="12.143699886124304"><ele>405.0</ele><time>2026-04-04T09:25:43Z</time></trkpt><trkpt lat="42.15867973366303" lon="12.143686849690514"><ele>405.0</ele><time>2026-04-04T09:25:46Z</time></trkpt><trkpt lat="42.15860186576353" lon="12.14367452049735"><ele>405.0</ele><time>2026-04-04T09:25:49Z</time></trkpt><trkpt lat="42.158519188848175" lon="12.143668985792274"><ele>405.0</ele><time>2026-04-04T09:25:52Z</time></trkpt><trkpt lat="42.15843684894701" lon="12.143663099362625"><ele>405.0</ele><time>2026-04-04T09:25:55Z</time></trkpt><trkpt lat="42.15836033919001" lon="12.143670696447131"><ele>405.0</ele><time>2026-04-04T09:25:58Z</time></trkpt><trkpt lat="42.158303341404" lon="12.14373391315327"><ele>405.0</ele><time>2026-04-04T09:26:01Z</time></trkpt><trkpt lat="42.158221817812084" lon="12.143757958765665"><ele>405.0</ele><time>2026-04-04T09:26:04Z</time></trkpt><trkpt lat="42.158140774413745" lon="12.143792277961776"><ele>405.0</ele><time>2026-04-04T09:26:07Z</time></trkpt><trkpt lat="42.15808392780515" lon="12.143842117665386"><ele>405.0</ele><time>2026-04-04T09:26:09Z</time></trkpt><trkpt lat="42.157992212213095" lon="12.143862724010019"><ele>405.0</ele><time>2026-04-04T09:26:11Z</time></trkpt><trkpt lat="42.15787448909388" lon="12.143804762952511"><ele>406.0</ele><time>2026-04-04T09:26:14Z</time></trkpt><trkpt lat="42.157788518162754" lon="12.143767764178524"><ele>407.0</ele><time>2026-04-04T09:26:15Z</time></trkpt><trkpt lat="42.15772380437783" lon="12.143741021262382"><ele>408.0</ele><time>2026-04-04T09:26:16Z</time></trkpt><trkpt lat="42.157646041909004" lon="12.143714590417362"><ele>409.0</ele><time>2026-04-04T09:26:17Z</time></trkpt><trkpt lat="42.15757263938839" lon="12.143683542184206"><ele>410.0</ele><time>2026-04-04T09:26:18Z</time></trkpt><trkpt lat="42.157473469679665" lon="12.143664176736497"><ele>411.0</ele><time>2026-04-04T09:26:19Z</time></trkpt><trkpt lat="42.15739039576573" lon="12.143655743068933"><ele>410.6</ele><time>2026-04-04T09:26:20Z</time></trkpt><trkpt lat="42.15728129662389" lon="12.143707467953318"><ele>410.20000000000005</ele><time>2026-04-04T09:26:21Z</time></trkpt><trkpt lat="42.157213860539855" lon="12.143784606398047"><ele>409.79999999999995</ele><time>2026-04-04T09:26:22Z</time></trkpt><trkpt lat="42.15716003449119" lon="12.143867635098722"><ele>409.4</ele><time>2026-04-04T09:26:23Z</time></trkpt><trkpt lat="42.157115548434874" lon="12.143956079591293"><ele>409.0</ele><time>2026-04-04T09:26:24Z</time></trkpt><trkpt lat="42.157067066506265" lon="12.14406066083909"><ele>408.83333333333337</ele><time>2026-04-04T09:26:26Z</time></trkpt><trkpt lat="42.15701407077622" lon="12.14415901587527"><ele>408.6666666666667</ele><time>2026-04-04T09:26:28Z</time></trkpt><trkpt lat="42.15695911648869" lon="12.144260257832476"><ele>408.5</ele><time>2026-04-04T09:26:30Z</time></trkpt><trkpt lat="42.15693457233663" lon="12.14434773566277"><ele>408.33333333333337</ele><time>2026-04-04T09:26:32Z</time></trkpt><trkpt lat="42.15687185665114" lon="12.144334146317632"><ele>408.1666666666667</ele><time>2026-04-04T09:26:34Z</time></trkpt><trkpt lat="42.15680268467448" lon="12.14429126462558"><ele>408.0</ele><time>2026-04-04T09:26:36Z</time></trkpt><trkpt lat="42.15672737478432" lon="12.144282036145958"><ele>408.0</ele><time>2026-04-04T09:26:39Z</time></trkpt><trkpt lat="42.15664100962664" lon="12.144225466526988"><ele>408.0</ele><time>2026-04-04T09:26:42Z</time></trkpt><trkpt lat="42.156554305252676" lon="12.144176064420137"><ele>408.0</ele><time>2026-04-04T09:26:45Z</time></trkpt><trkpt lat="42.15648927749893" lon="12.144143651203118"><ele>408.0</ele><time>2026-04-04T09:26:48Z</time></trkpt><trkpt lat="42.15642921779482" lon="12.14411653217569"><ele>408.0</ele><time>2026-04-04T09:26:51Z</time></trkpt><trkpt lat="42.156371383355896" lon="12.144074383454667"><ele>408.0</ele><time>2026-04-04T09:26:54Z</time></trkpt><trkpt lat="42.156308079024335" lon="12.144044367218473"><ele>409.5</ele><time>2026-04-04T09:26:57Z</time></trkpt><trkpt lat="42.156242286639454" lon="12.144001547531614"><ele>411.0</ele><time>2026-04-04T09:27:00Z</time></trkpt><trkpt lat="42.156151687095424" lon="12.143947715787418"><ele>412.5</ele><time>2026-04-04T09:27:04Z</time></trkpt><trkpt lat="42.156085590459725" lon="12.143882381166895"><ele>414.0</ele><time>2026-04-04T09:27:08Z</time></trkpt><trkpt lat="42.15601775082474" lon="12.14380810030507"><ele>415.5</ele><time>2026-04-04T09:27:12Z</time></trkpt><trkpt lat="42.15596211794469" lon="12.143763643655864"><ele>417.0</ele><time>2026-04-04T09:27:15Z</time></trkpt><trkpt lat="42.15589296039149" lon="12.143700769314322"><ele>417.0</ele><time>2026-04-04T09:27:19Z</time></trkpt><trkpt lat="42.15584085095707" lon="12.143630079067302"><ele>417.0</ele><time>2026-04-04T09:27:22Z</time></trkpt><trkpt lat="42.155780911705946" lon="12.143583219324784"><ele>417.0</ele><time>2026-04-04T09:27:25Z</time></trkpt><trkpt lat="42.1557307662101" lon="12.143515460678444"><ele>417.0</ele><time>2026-04-04T09:27:28Z</time></trkpt><trkpt lat="42.155643522350914" lon="12.143424884829772"><ele>417.0</ele><time>2026-04-04T09:27:30Z</time></trkpt><trkpt lat="42.1555735830333" lon="12.143356699835564"><ele>417.0</ele><time>2026-04-04T09:27:32Z</time></trkpt><trkpt lat="42.15551721108961" lon="12.143281492976042"><ele>417.1666666666667</ele><time>2026-04-04T09:27:35Z</time></trkpt><trkpt lat="42.15545331494895" lon="12.14321404204653"><ele>417.33333333333337</ele><time>2026-04-04T09:27:37Z</time></trkpt><trkpt lat="42.1553871245876" lon="12.143144235885226"><ele>417.5</ele><time>2026-04-04T09:27:39Z</time></trkpt><trkpt lat="42.15531977531019" lon="12.143056241297874"><ele>417.6666666666667</ele><time>2026-04-04T09:27:41Z</time></trkpt><trkpt lat="42.15526037963255" lon="12.14302114697204"><ele>417.83333333333337</ele><time>2026-04-04T09:27:44Z</time></trkpt><trkpt lat="42.155209663963475" lon="12.142958246117736"><ele>418.0</ele><time>2026-04-04T09:27:46Z</time></trkpt><trkpt lat="42.15515461329297" lon="12.142886553993542"><ele>418.00000000000006</ele><time>2026-04-04T09:27:48Z</time></trkpt><trkpt lat="42.15508743197722" lon="12.142799237205754"><ele>418.0</ele><time>2026-04-04T09:27:51Z</time></trkpt><trkpt lat="42.15502742592858" lon="12.142754460856802"><ele>418.0</ele><time>2026-04-04T09:27:53Z</time></trkpt><trkpt lat="42.154975715886664" lon="12.142691059803528"><ele>418.0</ele><time>2026-04-04T09:27:56Z</time></trkpt><trkpt lat="42.154924157296655" lon="12.142607312744035"><ele>418.00000000000006</ele><time>2026-04-04T09:27:58Z</time></trkpt><trkpt lat="42.1548484276476" lon="12.142561937089338"><ele>418.0</ele><time>2026-04-04T09:28:00Z</time></trkpt><trkpt lat="42.154783917368384" lon="12.142497408080983"><ele>417.6666666666667</ele><time>2026-04-04T09:28:02Z</time></trkpt><trkpt lat="42.1547093106751" lon="12.142440766912562"><ele>417.33333333333337</ele><time>2026-04-04T09:28:04Z</time></trkpt><trkpt lat="42.15465697999056" lon="12.142377740622797"><ele>417.0</ele><time>2026-04-04T09:28:06Z</time></trkpt><trkpt lat="42.154613540985395" lon="12.142303869289643"><ele>416.66666666666663</ele><time>2026-04-04T09:28:08Z</time></trkpt><trkpt lat="42.15458881756493" lon="12.142206497712076"><ele>416.3333333333333</ele><time>2026-04-04T09:28:10Z</time></trkpt><trkpt lat="42.15461457779546" lon="12.142110470190167"><ele>416.0</ele><time>2026-04-04T09:28:12Z</time></trkpt><trkpt lat="42.15462835523084" lon="12.141978457299828"><ele>415.99999999999994</ele><time>2026-04-04T09:28:15Z</time></trkpt><trkpt lat="42.154626230789546" lon="12.141846243350574"><ele>416.0</ele><time>2026-04-04T09:28:17Z</time></trkpt><trkpt lat="42.15464060682642" lon="12.14174597027787"><ele>416.0</ele><time>2026-04-04T09:28:19Z</time></trkpt><trkpt lat="42.154682029635346" lon="12.141651437921526"><ele>416.0</ele><time>2026-04-04T09:28:21Z</time></trkpt><trkpt lat="42.15469282331878" lon="12.141550690591906"><ele>415.99999999999994</ele><time>2026-04-04T09:28:23Z</time></trkpt><trkpt lat="42.15472520440894" lon="12.141453297878316"><ele>416.0</ele><time>2026-04-04T09:28:26Z</time></trkpt><trkpt lat="42.15475474121335" lon="12.141354295435992"><ele>416.57142857142856</ele><time>2026-04-04T09:28:30Z</time></trkpt><trkpt lat="42.15477555054405" lon="12.141255096092552"><ele>417.14285714285717</ele><time>2026-04-04T09:28:34Z</time></trkpt><trkpt lat="42.15478038766619" lon="12.141164130111491"><ele>417.7142857142857</ele><time>2026-04-04T09:28:37Z</time></trkpt><trkpt lat="42.15480371421759" lon="12.14106944976462"><ele>418.2857142857143</ele><time>2026-04-04T09:28:41Z</time></trkpt><trkpt lat="42.154820166306756" lon="12.140971956271997"><ele>418.8571428571429</ele><time>2026-04-04T09:28:44Z</time></trkpt><trkpt lat="42.154849311786286" lon="12.140875111764384"><ele>419.42857142857144</ele><time>2026-04-04T09:28:47Z</time></trkpt><trkpt lat="42.15488074107636" lon="12.140798916954752"><ele>420.0</ele><time>2026-04-04T09:28:49Z</time></trkpt><trkpt lat="42.15492232870727" lon="12.14073314243456"><ele>420.57142857142856</ele><time>2026-04-04T09:28:50Z</time></trkpt><trkpt lat="42.15494636716488" lon="12.140641759426506"><ele>421.1428571428571</ele><time>2026-04-04T09:28:53Z</time></trkpt><trkpt lat="42.15497617345572" lon="12.140547078357683"><ele>421.7142857142857</ele><time>2026-04-04T09:28:55Z</time></trkpt><trkpt lat="42.1550109850295" lon="12.140475590311798"><ele>422.2857142857143</ele><time>2026-04-04T09:28:57Z</time></trkpt><trkpt lat="42.15503332369049" lon="12.140377503825102"><ele>422.85714285714283</ele><time>2026-04-04T09:28:59Z</time></trkpt><trkpt lat="42.15506380852234" lon="12.140298204013504"><ele>423.42857142857144</ele><time>2026-04-04T09:29:01Z</time></trkpt><trkpt lat="42.155111114588856" lon="12.140229109938423"><ele>424.0</ele><time>2026-04-04T09:29:03Z</time></trkpt><trkpt lat="42.15511543868971" lon="12.140120889648346"><ele>424.00000000000006</ele><time>2026-04-04T09:29:05Z</time></trkpt><trkpt lat="42.1551416692574" lon="12.139999184730337"><ele>424.0</ele><time>2026-04-04T09:29:07Z</time></trkpt><trkpt lat="42.1551671737463" lon="12.139900068048485"><ele>424.0</ele><time>2026-04-04T09:29:09Z</time></trkpt><trkpt lat="42.15520052815924" lon="12.13980510779769"><ele>424.0</ele><time>2026-04-04T09:29:11Z</time></trkpt><trkpt lat="42.155229750751445" lon="12.139710735599975"><ele>424.00000000000006</ele><time>2026-04-04T09:29:13Z</time></trkpt><trkpt lat="42.15522579105379" lon="12.139609355290249"><ele>424.0</ele><time>2026-04-04T09:29:15Z</time></trkpt><trkpt lat="42.1552559156533" lon="12.139517210038322"><ele>424.00000000000006</ele><time>2026-04-04T09:29:17Z</time></trkpt><trkpt lat="42.15529020116187" lon="12.139423879033233"><ele>424.0</ele><time>2026-04-04T09:29:19Z</time></trkpt><trkpt lat="42.155315025070564" lon="12.139315571976239"><ele>424.0</ele><time>2026-04-04T09:29:21Z</time></trkpt><trkpt lat="42.15535148075757" lon="12.13920691128085"><ele>424.0</ele><time>2026-04-04T09:29:23Z</time></trkpt><trkpt lat="42.155384257554715" lon="12.139093723518139"><ele>424.00000000000006</ele><time>2026-04-04T09:29:25Z</time></trkpt><trkpt lat="42.155416517868694" lon="12.138974159431074"><ele>424.0</ele><time>2026-04-04T09:29:27Z</time></trkpt><trkpt lat="42.155428978217635" lon="12.138870844778209"><ele>423.2</ele><time>2026-04-04T09:29:29Z</time></trkpt><trkpt lat="42.15532946648084" lon="12.138833211112452"><ele>422.4</ele><time>2026-04-04T09:29:32Z</time></trkpt><trkpt lat="42.155247187689454" lon="12.138830584937384"><ele>421.6</ele><time>2026-04-04T09:29:34Z</time></trkpt><trkpt lat="42.155159197466176" lon="12.138822762359439"><ele>420.8</ele><time>2026-04-04T09:29:36Z</time></trkpt><trkpt lat="42.1550679170848" lon="12.138824023083322"><ele>420.0</ele><time>2026-04-04T09:29:38Z</time></trkpt><trkpt lat="42.15496580425823" lon="12.138829320151633"><ele>420.25</ele><time>2026-04-04T09:29:40Z</time></trkpt><trkpt lat="42.15485868379836" lon="12.138837077843748"><ele>420.5</ele><time>2026-04-04T09:29:42Z</time></trkpt><trkpt lat="42.15476177022236" lon="12.138726167825501"><ele>420.75</ele><time>2026-04-04T09:29:44Z</time></trkpt><trkpt lat="42.154660405994115" lon="12.13872016010947"><ele>421.0</ele><time>2026-04-04T09:29:46Z</time></trkpt><trkpt lat="42.154544050858675" lon="12.13871326389674"><ele>421.0</ele><time>2026-04-04T09:29:48Z</time></trkpt><trkpt lat="42.15444410739708" lon="12.13870893465368"><ele>421.0</ele><time>2026-04-04T09:29:50Z</time></trkpt><trkpt lat="42.15433273488978" lon="12.138706252596975"><ele>421.0</ele><time>2026-04-04T09:29:52Z</time></trkpt><trkpt lat="42.154231749733135" lon="12.138706670570784"><ele>421.0</ele><time>2026-04-04T09:29:54Z</time></trkpt><trkpt lat="42.15413379430712" lon="12.138707374116013"><ele>421.0</ele><time>2026-04-04T09:29:56Z</time></trkpt><trkpt lat="42.15397617431434" lon="12.138713307321868"><ele>421.20000000000005</ele><time>2026-04-04T09:29:59Z</time></trkpt><trkpt lat="42.15387174155594" lon="12.138709918391164"><ele>421.40000000000003</ele><time>2026-04-04T09:30:01Z</time></trkpt><trkpt lat="42.153772215456996" lon="12.138706794258125"><ele>421.6</ele><time>2026-04-04T09:30:03Z</time></trkpt><trkpt lat="42.15368479003421" lon="12.138704049964005"><ele>421.8</ele><time>2026-04-04T09:30:05Z</time></trkpt><trkpt lat="42.15358643145639" lon="12.138700962474108"><ele>422.0</ele><time>2026-04-04T09:30:07Z</time></trkpt><trkpt lat="42.15348715082488" lon="12.138719118509593"><ele>422.0</ele><time>2026-04-04T09:30:09Z</time></trkpt><trkpt lat="42.15338346326405" lon="12.138728348018507"><ele>422.0</ele><time>2026-04-04T09:30:11Z</time></trkpt><trkpt lat="42.153271863942635" lon="12.138722895215261"><ele>422.0</ele><time>2026-04-04T09:30:13Z</time></trkpt><trkpt lat="42.153167670388676" lon="12.138719978769783"><ele>422.0</ele><time>2026-04-04T09:30:15Z</time></trkpt><trkpt lat="42.153072855032214" lon="12.138708348053392"><ele>422.0</ele><time>2026-04-04T09:30:17Z</time></trkpt><trkpt lat="42.15296861520438" lon="12.138704676428745"><ele>423.20000000000005</ele><time>2026-04-04T09:30:19Z</time></trkpt><trkpt lat="42.152871912073955" lon="12.138754672130183"><ele>424.4</ele><time>2026-04-04T09:30:21Z</time></trkpt><trkpt lat="42.15276725784708" lon="12.138746647323492"><ele>425.59999999999997</ele><time>2026-04-04T09:30:23Z</time></trkpt><trkpt lat="42.15266057140273" lon="12.138755323075472"><ele>426.79999999999995</ele><time>2026-04-04T09:30:25Z</time></trkpt><trkpt lat="42.152545786393766" lon="12.138753374496725"><ele>428.0</ele><time>2026-04-04T09:30:27Z</time></trkpt><trkpt lat="42.15250007747975" lon="12.138645386340828"><ele>428.0</ele><time>2026-04-04T09:30:28Z</time></trkpt><trkpt lat="42.15240285928295" lon="12.138640197366922"><ele>427.99999999999994</ele><time>2026-04-04T09:30:30Z</time></trkpt><trkpt lat="42.15231922408485" lon="12.138635733370222"><ele>427.99999999999994</ele><time>2026-04-04T09:30:33Z</time></trkpt><trkpt lat="42.15218059225984" lon="12.138628334170475"><ele>428.0</ele><time>2026-04-04T09:30:34Z</time></trkpt><trkpt lat="42.15209451298876" lon="12.138724279832962"><ele>428.0</ele><time>2026-04-04T09:30:36Z</time></trkpt><trkpt lat="42.152031484333406" lon="12.138766301207673"><ele>429.0</ele><time>2026-04-04T09:30:37Z</time></trkpt><trkpt lat="42.1519584457361" lon="12.138727826062848"><ele>429.99999999999994</ele><time>2026-04-04T09:30:38Z</time></trkpt><trkpt lat="42.15185096974448" lon="12.138719652031007"><ele>430.99999999999994</ele><time>2026-04-04T09:30:40Z</time></trkpt><trkpt lat="42.151768811251905" lon="12.1387327978835"><ele>432.0</ele><time>2026-04-04T09:30:42Z</time></trkpt><trkpt lat="42.15168087947143" lon="12.138735113867059"><ele>433.0</ele><time>2026-04-04T09:30:44Z</time></trkpt><trkpt lat="42.15157514791932" lon="12.138721743949755"><ele>433.25</ele><time>2026-04-04T09:30:46Z</time></trkpt><trkpt lat="42.15146053788032" lon="12.138712085216737"><ele>433.5</ele><time>2026-04-04T09:30:48Z</time></trkpt><trkpt lat="42.15134540044921" lon="12.138699721930639"><ele>433.75</ele><time>2026-04-04T09:30:50Z</time></trkpt><trkpt lat="42.15122336077849" lon="12.138693478003715"><ele>434.0</ele><time>2026-04-04T09:30:52Z</time></trkpt><trkpt lat="42.15110579587312" lon="12.138666107296533"><ele>434.0</ele><time>2026-04-04T09:30:54Z</time></trkpt><trkpt lat="42.151038621792466" lon="12.138670894334048"><ele>434.0</ele><time>2026-04-04T09:30:55Z</time></trkpt><trkpt lat="42.150930545912736" lon="12.138651935860258"><ele>434.0</ele><time>2026-04-04T09:30:57Z</time></trkpt><trkpt lat="42.15082487227583" lon="12.138662079222039"><ele>434.0</ele><time>2026-04-04T09:30:59Z</time></trkpt><trkpt lat="42.15072704267259" lon="12.138685627158644"><ele>434.0</ele><time>2026-04-04T09:31:03Z</time></trkpt><trkpt lat="42.150613266881024" lon="12.138674196827866"><ele>433.79999999999995</ele><time>2026-04-04T09:31:05Z</time></trkpt><trkpt lat="42.15053775998427" lon="12.138621093850912"><ele>433.59999999999997</ele><time>2026-04-04T09:31:07Z</time></trkpt><trkpt lat="42.15045194278307" lon="12.138643364432713"><ele>433.4</ele><time>2026-04-04T09:31:09Z</time></trkpt><trkpt lat="42.150340395267115" lon="12.13865249776137"><ele>433.2</ele><time>2026-04-04T09:31:11Z</time></trkpt><trkpt lat="42.150211922977256" lon="12.138671057388084"><ele>433.0</ele><time>2026-04-04T09:31:12Z</time></trkpt><trkpt lat="42.15008938511311" lon="12.138665085408666"><ele>433.00000000000006</ele><time>2026-04-04T09:31:13Z</time></trkpt><trkpt lat="42.14998734532251" lon="12.138658187329751"><ele>433.0</ele><time>2026-04-04T09:31:14Z</time></trkpt><trkpt lat="42.14989286292348" lon="12.138649529725638"><ele>433.0</ele><time>2026-04-04T09:31:15Z</time></trkpt><trkpt lat="42.14981344240559" lon="12.13863599448179"><ele>433.0</ele><time>2026-04-04T09:31:16Z</time></trkpt><trkpt lat="42.149732097359625" lon="12.138634805732968"><ele>433.00000000000006</ele><time>2026-04-04T09:31:17Z</time></trkpt><trkpt lat="42.14966603820096" lon="12.138632460154348"><ele>433.0</ele><time>2026-04-04T09:31:18Z</time></trkpt><trkpt lat="42.14958600089436" lon="12.138629419119244"><ele>432.2</ele><time>2026-04-04T09:31:19Z</time></trkpt><trkpt lat="42.14951267175755" lon="12.138623254809955"><ele>431.4</ele><time>2026-04-04T09:31:20Z</time></trkpt><trkpt lat="42.14935719825717" lon="12.138603463572958"><ele>430.59999999999997</ele><time>2026-04-04T09:31:22Z</time></trkpt><trkpt lat="42.14927725983442" lon="12.138604283930528"><ele>429.79999999999995</ele><time>2026-04-04T09:31:23Z</time></trkpt><trkpt lat="42.149215980918605" lon="12.138625907597445"><ele>429.0</ele><time>2026-04-04T09:31:24Z</time></trkpt><trkpt lat="42.14911882420961" lon="12.138587282980657"><ele>428.3333333333333</ele><time>2026-04-04T09:31:26Z</time></trkpt><trkpt lat="42.14903801895939" lon="12.138585447215293"><ele>427.66666666666663</ele><time>2026-04-04T09:31:27Z</time></trkpt><trkpt lat="42.14894762248757" lon="12.138615807308463"><ele>427.0</ele><time>2026-04-04T09:31:28Z</time></trkpt><trkpt lat="42.14887529343234" lon="12.138623056123322"><ele>426.3333333333333</ele><time>2026-04-04T09:31:29Z</time></trkpt><trkpt lat="42.14879733449062" lon="12.138616449118716"><ele>425.66666666666663</ele><time>2026-04-04T09:31:30Z</time></trkpt><trkpt lat="42.148729369571804" lon="12.13862277422861"><ele>425.0</ele><time>2026-04-04T09:31:31Z</time></trkpt><trkpt lat="42.14865941070188" lon="12.13861983482814"><ele>424.99999999999994</ele><time>2026-04-04T09:31:32Z</time></trkpt><trkpt lat="42.148588990901466" lon="12.138619890995386"><ele>425.0</ele><time>2026-04-04T09:31:33Z</time></trkpt><trkpt lat="42.14846851112829" lon="12.138605632704593"><ele>425.0</ele><time>2026-04-04T09:31:35Z</time></trkpt><trkpt lat="42.14840646825795" lon="12.13859058013944"><ele>425.0</ele><time>2026-04-04T09:31:36Z</time></trkpt><trkpt lat="42.14829485868993" lon="12.13857398950224"><ele>424.99999999999994</ele><time>2026-04-04T09:31:38Z</time></trkpt><trkpt lat="42.14822714033133" lon="12.138574647844282"><ele>425.0</ele><time>2026-04-04T09:31:39Z</time></trkpt><trkpt lat="42.14816313840808" lon="12.138585078361029"><ele>424.2</ele><time>2026-04-04T09:31:40Z</time></trkpt><trkpt lat="42.148092727718705" lon="12.138617534386139"><ele>423.4</ele><time>2026-04-04T09:31:41Z</time></trkpt><trkpt lat="42.147967815152086" lon="12.138645583333824"><ele>422.6</ele><time>2026-04-04T09:31:43Z</time></trkpt><trkpt lat="42.14790639888587" lon="12.138670898391993"><ele>421.8</ele><time>2026-04-04T09:31:44Z</time></trkpt><trkpt lat="42.147846954103" lon="12.138720539212395"><ele>421.0</ele><time>2026-04-04T09:31:45Z</time></trkpt><trkpt lat="42.14773594280746" lon="12.13877875146825"><ele>421.00000000000006</ele><time>2026-04-04T09:31:47Z</time></trkpt><trkpt lat="42.14766836019718" lon="12.138794553747916"><ele>421.0</ele><time>2026-04-04T09:31:48Z</time></trkpt><trkpt lat="42.147560983790505" lon="12.138867541183325"><ele>421.0</ele><time>2026-04-04T09:31:50Z</time></trkpt><trkpt lat="42.147492679439196" lon="12.13886776641047"><ele>421.0</ele><time>2026-04-04T09:31:51Z</time></trkpt><trkpt lat="42.14739619650819" lon="12.138870546267698"><ele>421.00000000000006</ele><time>2026-04-04T09:31:52Z</time></trkpt><trkpt lat="42.147329437239314" lon="12.138880121596376"><ele>421.0</ele><time>2026-04-04T09:31:53Z</time></trkpt><trkpt lat="42.14725157453211" lon="12.138900913797526"><ele>420.6</ele><time>2026-04-04T09:31:54Z</time></trkpt><trkpt lat="42.14717477226005" lon="12.13892944275814"><ele>420.20000000000005</ele><time>2026-04-04T09:31:55Z</time></trkpt><trkpt lat="42.14711391988277" lon="12.13895714698685"><ele>419.79999999999995</ele><time>2026-04-04T09:31:56Z</time></trkpt><trkpt lat="42.14700605045064" lon="12.139014577169306"><ele>419.4</ele><time>2026-04-04T09:31:58Z</time></trkpt><trkpt lat="42.14690736849189" lon="12.139028245312579"><ele>419.0</ele><time>2026-04-04T09:31:59Z</time></trkpt><trkpt lat="42.14680950126393" lon="12.139046091411045"><ele>418.79999999999995</ele><time>2026-04-04T09:32:00Z</time></trkpt><trkpt lat="42.14666043741336" lon="12.139100437458785"><ele>418.59999999999997</ele><time>2026-04-04T09:32:02Z</time></trkpt><trkpt lat="42.14659059399648" lon="12.139143697629985"><ele>418.4</ele><time>2026-04-04T09:32:03Z</time></trkpt><trkpt lat="42.14652412766792" lon="12.139184855827805"><ele>418.2</ele><time>2026-04-04T09:32:04Z</time></trkpt><trkpt lat="42.14644242340188" lon="12.13917767723742"><ele>418.0</ele><time>2026-04-04T09:32:05Z</time></trkpt><trkpt lat="42.146362661121145" lon="12.13916745225619"><ele>418.00000000000006</ele><time>2026-04-04T09:32:06Z</time></trkpt><trkpt lat="42.14629445561068" lon="12.139191566814418"><ele>418.0</ele><time>2026-04-04T09:32:07Z</time></trkpt><trkpt lat="42.14621750930011" lon="12.139205920973406"><ele>418.0</ele><time>2026-04-04T09:32:08Z</time></trkpt><trkpt lat="42.146137767568966" lon="12.13920439164265"><ele>418.0</ele><time>2026-04-04T09:32:09Z</time></trkpt><trkpt lat="42.146042483216064" lon="12.139236367775126"><ele>418.00000000000006</ele><time>2026-04-04T09:32:10Z</time></trkpt><trkpt lat="42.14597853515489" lon="12.139262825677722"><ele>418.0</ele><time>2026-04-04T09:32:11Z</time></trkpt><trkpt lat="42.14589408616354" lon="12.139294042934589"><ele>418.00000000000006</ele><time>2026-04-04T09:32:12Z</time></trkpt><trkpt lat="42.145823444453676" lon="12.139315515335056"><ele>418.0</ele><time>2026-04-04T09:32:13Z</time></trkpt><trkpt lat="42.14573230457285" lon="12.139329083604196"><ele>418.0</ele><time>2026-04-04T09:32:14Z</time></trkpt><trkpt lat="42.14564296165994" lon="12.139345320373181"><ele>418.0</ele><time>2026-04-04T09:32:15Z</time></trkpt><trkpt lat="42.14556848032594" lon="12.13936007931627"><ele>418.00000000000006</ele><time>2026-04-04T09:32:16Z</time></trkpt><trkpt lat="42.14547199382185" lon="12.139381087626822"><ele>418.0</ele><time>2026-04-04T09:32:17Z</time></trkpt><trkpt lat="42.14537463537007" lon="12.139400595489695"><ele>417.00000000000006</ele><time>2026-04-04T09:32:18Z</time></trkpt><trkpt lat="42.14528103412414" lon="12.139407591265895"><ele>416.0</ele><time>2026-04-04T09:32:19Z</time></trkpt><trkpt lat="42.14519422569321" lon="12.139414589903543"><ele>415.0</ele><time>2026-04-04T09:32:20Z</time></trkpt><trkpt lat="42.145112616552666" lon="12.139416771780052"><ele>414.0</ele><time>2026-04-04T09:32:21Z</time></trkpt><trkpt lat="42.145030205009256" lon="12.1394147376776"><ele>413.00000000000006</ele><time>2026-04-04T09:32:22Z</time></trkpt><trkpt lat="42.14494240772904" lon="12.139410453593232"><ele>412.0</ele><time>2026-04-04T09:32:23Z</time></trkpt><trkpt lat="42.14484587141123" lon="12.139420359436148"><ele>410.00000000000006</ele><time>2026-04-04T09:32:24Z</time></trkpt><trkpt lat="42.14475250666714" lon="12.139425409887545"><ele>408.0</ele><time>2026-04-04T09:32:25Z</time></trkpt><trkpt lat="42.14465895358432" lon="12.139426920290502"><ele>406.0</ele><time>2026-04-04T09:32:26Z</time></trkpt><trkpt lat="42.14457147816662" lon="12.139446812692949"><ele>404.0</ele><time>2026-04-04T09:32:27Z</time></trkpt><trkpt lat="42.14449154005408" lon="12.139470904014827"><ele>402.00000000000006</ele><time>2026-04-04T09:32:28Z</time></trkpt><trkpt lat="42.14440181942701" lon="12.139497011602492"><ele>400.0</ele><time>2026-04-04T09:32:29Z</time></trkpt><trkpt lat="42.1443082519237" lon="12.139512547007127"><ele>400.0</ele><time>2026-04-04T09:32:30Z</time></trkpt><trkpt lat="42.14421665025957" lon="12.139522387438008"><ele>400.0</ele><time>2026-04-04T09:32:31Z</time></trkpt><trkpt lat="42.14411824634793" lon="12.139522350636689"><ele>400.0</ele><time>2026-04-04T09:32:32Z</time></trkpt><trkpt lat="42.144019575188885" lon="12.139539041017445"><ele>400.0</ele><time>2026-04-04T09:32:33Z</time></trkpt><trkpt lat="42.14391741261927" lon="12.13954758774596"><ele>400.0</ele><time>2026-04-04T09:32:34Z</time></trkpt><trkpt lat="42.1438089758996" lon="12.139557518035131"><ele>397.2</ele><time>2026-04-04T09:32:35Z</time></trkpt><trkpt lat="42.143705363265745" lon="12.139563270792099"><ele>394.4</ele><time>2026-04-04T09:32:36Z</time></trkpt><trkpt lat="42.14359024020577" lon="12.139588701443333"><ele>391.6</ele><time>2026-04-04T09:32:37Z</time></trkpt><trkpt lat="42.14348326280688" lon="12.139599316490385"><ele>388.8</ele><time>2026-04-04T09:32:38Z</time></trkpt><trkpt lat="42.1433772140006" lon="12.139620727769055"><ele>386.0</ele><time>2026-04-04T09:32:39Z</time></trkpt><trkpt lat="42.143268939246624" lon="12.139643788801502"><ele>383.0</ele><time>2026-04-04T09:32:40Z</time></trkpt><trkpt lat="42.14315994055983" lon="12.139674042790693"><ele>380.0</ele><time>2026-04-04T09:32:41Z</time></trkpt><trkpt lat="42.14304705800341" lon="12.139713391834825"><ele>377.0</ele><time>2026-04-04T09:32:42Z</time></trkpt><trkpt lat="42.142943717100444" lon="12.139757089649882"><ele>374.0</ele><time>2026-04-04T09:32:43Z</time></trkpt><trkpt lat="42.14283518216094" lon="12.1398065203503"><ele>374.0</ele><time>2026-04-04T09:32:44Z</time></trkpt><trkpt lat="42.14272437785165" lon="12.139856984655532"><ele>374.0</ele><time>2026-04-04T09:32:45Z</time></trkpt><trkpt lat="42.14260922103375" lon="12.139909895669641"><ele>374.0</ele><time>2026-04-04T09:32:46Z</time></trkpt><trkpt lat="42.14249179384379" lon="12.139959491707183"><ele>374.0</ele><time>2026-04-04T09:32:47Z</time></trkpt><trkpt lat="42.142361769342585" lon="12.140016696148102"><ele>372.25</ele><time>2026-04-04T09:32:48Z</time></trkpt><trkpt lat="42.142242566365205" lon="12.14007062576334"><ele>370.5</ele><time>2026-04-04T09:32:49Z</time></trkpt><trkpt lat="42.142136886838216" lon="12.140121439289837"><ele>368.75</ele><time>2026-04-04T09:32:50Z</time></trkpt><trkpt lat="42.14202467488686" lon="12.140185988383354"><ele>367.0</ele><time>2026-04-04T09:32:51Z</time></trkpt><trkpt lat="42.14192462209686" lon="12.140232627682074"><ele>367.0</ele><time>2026-04-04T09:32:52Z</time></trkpt><trkpt lat="42.1418397796824" lon="12.14026609309982"><ele>367.0</ele><time>2026-04-04T09:32:53Z</time></trkpt><trkpt lat="42.14176575405245" lon="12.14030710758423"><ele>367.0</ele><time>2026-04-04T09:32:54Z</time></trkpt><trkpt lat="42.141652265334905" lon="12.140335353266376"><ele>367.0</ele><time>2026-04-04T09:32:56Z</time></trkpt><trkpt lat="42.14158832671192" lon="12.140180600644786"><ele>367.0</ele><time>2026-04-04T09:32:58Z</time></trkpt><trkpt lat="42.14156409705898" lon="12.140048226671052"><ele>367.0</ele><time>2026-04-04T09:33:00Z</time></trkpt><trkpt lat="42.141555735737434" lon="12.139946346842988"><ele>367.0</ele><time>2026-04-04T09:33:02Z</time></trkpt><trkpt lat="42.14155082298007" lon="12.139831770302074"><ele>367.0</ele><time>2026-04-04T09:33:04Z</time></trkpt><trkpt lat="42.14156000327635" lon="12.13971141335026"><ele>367.0</ele><time>2026-04-04T09:33:06Z</time></trkpt><trkpt lat="42.14154791656021" lon="12.13957969666208"><ele>367.0</ele><time>2026-04-04T09:33:08Z</time></trkpt><trkpt lat="42.14153515305287" lon="12.13944178128115"><ele>367.16666666666663</ele><time>2026-04-04T09:33:10Z</time></trkpt><trkpt lat="42.14156650129307" lon="12.139295058601396"><ele>367.3333333333333</ele><time>2026-04-04T09:33:12Z</time></trkpt><trkpt lat="42.14154370540981" lon="12.13921034720552"><ele>367.5</ele><time>2026-04-04T09:33:13Z</time></trkpt><trkpt lat="42.14154104355849" lon="12.139120704860844"><ele>367.6666666666667</ele><time>2026-04-04T09:33:14Z</time></trkpt><trkpt lat="42.141549314735926" lon="12.139022398047072"><ele>367.83333333333337</ele><time>2026-04-04T09:33:15Z</time></trkpt><trkpt lat="42.14155645679416" lon="12.138924370912102"><ele>368.0</ele><time>2026-04-04T09:33:16Z</time></trkpt><trkpt lat="42.14156448756974" lon="12.13881902966301"><ele>367.2</ele><time>2026-04-04T09:33:17Z</time></trkpt><trkpt lat="42.1415666021182" lon="12.138711157913738"><ele>366.4</ele><time>2026-04-04T09:33:18Z</time></trkpt><trkpt lat="42.14156450476894" lon="12.138602615180638"><ele>365.59999999999997</ele><time>2026-04-04T09:33:19Z</time></trkpt><trkpt lat="42.14156781790975" lon="12.1384890504245"><ele>364.79999999999995</ele><time>2026-04-04T09:33:20Z</time></trkpt><trkpt lat="42.14158652044627" lon="12.138280118434565"><ele>364.0</ele><time>2026-04-04T09:33:22Z</time></trkpt><trkpt lat="42.1415984181092" lon="12.138182664210659"><ele>364.0</ele><time>2026-04-04T09:33:23Z</time></trkpt><trkpt lat="42.141613382333965" lon="12.138082857348232"><ele>364.0</ele><time>2026-04-04T09:33:24Z</time></trkpt><trkpt lat="42.14162417089075" lon="12.137987245351493"><ele>364.0</ele><time>2026-04-04T09:33:25Z</time></trkpt><trkpt lat="42.14162499550867" lon="12.137894544517149"><ele>364.0</ele><time>2026-04-04T09:33:26Z</time></trkpt><trkpt lat="42.14161908564165" lon="12.13780188709352"><ele>364.0</ele><time>2026-04-04T09:33:27Z</time></trkpt><trkpt lat="42.141609603926895" lon="12.137713831379921"><ele>364.0</ele><time>2026-04-04T09:33:28Z</time></trkpt><trkpt lat="42.1415993529353" lon="12.137625968768985"><ele>364.0</ele><time>2026-04-04T09:33:29Z</time></trkpt><trkpt lat="42.14157386256879" lon="12.137537646760627"><ele>363.57142857142856</ele><time>2026-04-04T09:33:30Z</time></trkpt><trkpt lat="42.14153904764185" lon="12.137460555747596"><ele>363.1428571428571</ele><time>2026-04-04T09:33:31Z</time></trkpt><trkpt lat="42.141487250652546" lon="12.137399198497677"><ele>362.7142857142857</ele><time>2026-04-04T09:33:32Z</time></trkpt><trkpt lat="42.14141614560502" lon="12.13736728983161"><ele>362.2857142857143</ele><time>2026-04-04T09:33:33Z</time></trkpt><trkpt lat="42.14134945527533" lon="12.137347095435173"><ele>361.85714285714283</ele><time>2026-04-04T09:33:34Z</time></trkpt><trkpt lat="42.14127962016966" lon="12.13733436097465"><ele>361.42857142857144</ele><time>2026-04-04T09:33:35Z</time></trkpt><trkpt lat="42.14121455542356" lon="12.137327059416851"><ele>361.0</ele><time>2026-04-04T09:33:36Z</time></trkpt><trkpt lat="42.14114993461757" lon="12.13729789007743"><ele>363.0</ele><time>2026-04-04T09:33:37Z</time></trkpt><trkpt lat="42.141081635062356" lon="12.137287664647548"><ele>365.0</ele><time>2026-04-04T09:33:38Z</time></trkpt><trkpt lat="42.14100854356356" lon="12.137310144447373"><ele>367.0</ele><time>2026-04-04T09:33:39Z</time></trkpt><trkpt lat="42.140944170046154" lon="12.13729136802214"><ele>369.0</ele><time>2026-04-04T09:33:40Z</time></trkpt><trkpt lat="42.1408725104694" lon="12.137289303471398"><ele>371.0</ele><time>2026-04-04T09:33:41Z</time></trkpt><trkpt lat="42.140807921147555" lon="12.13727755677106"><ele>373.0</ele><time>2026-04-04T09:33:42Z</time></trkpt><trkpt lat="42.14074474520019" lon="12.137258710424685"><ele>375.0</ele><time>2026-04-04T09:33:43Z</time></trkpt><trkpt lat="42.14068192654234" lon="12.137249552390058"><ele>375.0</ele><time>2026-04-04T09:33:44Z</time></trkpt><trkpt lat="42.14056735715394" lon="12.1372099035737"><ele>375.0</ele><time>2026-04-04T09:33:46Z</time></trkpt><trkpt lat="42.14045829215109" lon="12.137187192758978"><ele>375.0</ele><time>2026-04-04T09:33:48Z</time></trkpt><trkpt lat="42.140353507350014" lon="12.137157637047435"><ele>375.0</ele><time>2026-04-04T09:33:50Z</time></trkpt><trkpt lat="42.1402490569689" lon="12.137124952430081"><ele>375.0</ele><time>2026-04-04T09:33:52Z</time></trkpt><trkpt lat="42.140146083780316" lon="12.137086522891412"><ele>375.0</ele><time>2026-04-04T09:33:54Z</time></trkpt><trkpt lat="42.140044625720265" lon="12.13707370219801"><ele>375.0</ele><time>2026-04-04T09:33:56Z</time></trkpt><trkpt lat="42.13998250234557" lon="12.13709210021135"><ele>375.0</ele><time>2026-04-04T09:33:58Z</time></trkpt><trkpt lat="42.13985827875063" lon="12.137152374061467"><ele>375.0</ele><time>2026-04-04T09:34:00Z</time></trkpt><trkpt lat="42.13979434162039" lon="12.137172279578387"><ele>375.0</ele><time>2026-04-04T09:34:02Z</time></trkpt><trkpt lat="42.13972936759442" lon="12.137182732156381"><ele>375.0</ele><time>2026-04-04T09:34:04Z</time></trkpt><trkpt lat="42.139660480510464" lon="12.137233430459744"><ele>375.42857142857144</ele><time>2026-04-04T09:34:07Z</time></trkpt><trkpt lat="42.13958318334039" lon="12.137283356848735"><ele>375.85714285714283</ele><time>2026-04-04T09:34:10Z</time></trkpt><trkpt lat="42.13952502550511" lon="12.137326189221714"><ele>376.2857142857143</ele><time>2026-04-04T09:34:12Z</time></trkpt><trkpt lat="42.139458182240055" lon="12.13735108767128"><ele>376.7142857142857</ele><time>2026-04-04T09:34:14Z</time></trkpt><trkpt lat="42.13939334289359" lon="12.137347509389963"><ele>377.1428571428571</ele><time>2026-04-04T09:34:16Z</time></trkpt><trkpt lat="42.139306277914336" lon="12.137364494977874"><ele>377.57142857142856</ele><time>2026-04-04T09:34:19Z</time></trkpt><trkpt lat="42.139242639831195" lon="12.137317125575624"><ele>378.0</ele><time>2026-04-04T09:34:23Z</time></trkpt><trkpt lat="42.13915408929003" lon="12.137266966748468"><ele>378.0</ele><time>2026-04-04T09:34:26Z</time></trkpt><trkpt lat="42.13907643445066" lon="12.137218738309427"><ele>378.0</ele><time>2026-04-04T09:34:29Z</time></trkpt><trkpt lat="42.13899562269029" lon="12.137154645509217"><ele>378.0</ele><time>2026-04-04T09:34:32Z</time></trkpt><trkpt lat="42.138917680718436" lon="12.137097209612493"><ele>378.0</ele><time>2026-04-04T09:34:34Z</time></trkpt><trkpt lat="42.13885176452727" lon="12.13703728399436"><ele>378.0</ele><time>2026-04-04T09:34:36Z</time></trkpt><trkpt lat="42.13877849798131" lon="12.136980677076652"><ele>378.0</ele><time>2026-04-04T09:34:37Z</time></trkpt><trkpt lat="42.13867767028442" lon="12.13690331897366"><ele>376.5</ele><time>2026-04-04T09:34:39Z</time></trkpt><trkpt lat="42.13861480602936" lon="12.136857870899892"><ele>375.0</ele><time>2026-04-04T09:34:40Z</time></trkpt><trkpt lat="42.13854951874452" lon="12.136807767267575"><ele>373.5</ele><time>2026-04-04T09:34:41Z</time></trkpt><trkpt lat="42.13847640445374" lon="12.136760515606463"><ele>372.0</ele><time>2026-04-04T09:34:42Z</time></trkpt><trkpt lat="42.138400992273134" lon="12.13670948272363"><ele>370.5</ele><time>2026-04-04T09:34:43Z</time></trkpt><trkpt lat="42.13832007354911" lon="12.136656835752971"><ele>369.0</ele><time>2026-04-04T09:34:44Z</time></trkpt><trkpt lat="42.138243269980265" lon="12.136576944563268"><ele>367.79999999999995</ele><time>2026-04-04T09:34:45Z</time></trkpt><trkpt lat="42.13817044539783" lon="12.136488105115218"><ele>366.59999999999997</ele><time>2026-04-04T09:34:46Z</time></trkpt><trkpt lat="42.13810262067748" lon="12.136399363747817"><ele>365.4</ele><time>2026-04-04T09:34:47Z</time></trkpt><trkpt lat="42.13803883797586" lon="12.136305732367157"><ele>364.2</ele><time>2026-04-04T09:34:48Z</time></trkpt><trkpt lat="42.1379751006136" lon="12.13622016580083"><ele>363.0</ele><time>2026-04-04T09:34:49Z</time></trkpt><trkpt lat="42.13793076212429" lon="12.136119328000028"><ele>363.0</ele><time>2026-04-04T09:34:50Z</time></trkpt><trkpt lat="42.137868972445276" lon="12.136026772029982"><ele>363.0</ele><time>2026-04-04T09:34:51Z</time></trkpt><trkpt lat="42.13780549683045" lon="12.135937343634282"><ele>363.0</ele><time>2026-04-04T09:34:52Z</time></trkpt><trkpt lat="42.13774740045965" lon="12.135855432859511"><ele>363.0</ele><time>2026-04-04T09:34:53Z</time></trkpt><trkpt lat="42.13768804842131" lon="12.13577175170847"><ele>363.0</ele><time>2026-04-04T09:34:54Z</time></trkpt><trkpt lat="42.13763062106241" lon="12.135690784172379"><ele>363.0</ele><time>2026-04-04T09:34:55Z</time></trkpt><trkpt lat="42.13756943560955" lon="12.135622554476399"><ele>363.5</ele><time>2026-04-04T09:34:56Z</time></trkpt><trkpt lat="42.137522776930496" lon="12.135542261767215"><ele>364.0</ele><time>2026-04-04T09:34:57Z</time></trkpt><trkpt lat="42.13746896895817" lon="12.135467429718346"><ele>364.5</ele><time>2026-04-04T09:34:58Z</time></trkpt><trkpt lat="42.137417927383815" lon="12.135399983778253"><ele>365.0</ele><time>2026-04-04T09:34:59Z</time></trkpt><trkpt lat="42.1373738268627" lon="12.13533051675628"><ele>365.5</ele><time>2026-04-04T09:35:00Z</time></trkpt><trkpt lat="42.13731937677971" lon="12.135276297940912"><ele>366.0</ele><time>2026-04-04T09:35:01Z</time></trkpt><trkpt lat="42.137240752755474" lon="12.135151665672618"><ele>366.0</ele><time>2026-04-04T09:35:03Z</time></trkpt><trkpt lat="42.13715565414122" lon="12.135041446136343"><ele>366.0</ele><time>2026-04-04T09:35:05Z</time></trkpt><trkpt lat="42.1370818817079" lon="12.134932956152307"><ele>366.0</ele><time>2026-04-04T09:35:07Z</time></trkpt><trkpt lat="42.137000737239184" lon="12.134844633041766"><ele>366.0</ele><time>2026-04-04T09:35:09Z</time></trkpt><trkpt lat="42.13692080750645" lon="12.134746882057879"><ele>366.0</ele><time>2026-04-04T09:35:11Z</time></trkpt><trkpt lat="42.1368482192282" lon="12.134625078037343"><ele>366.20000000000005</ele><time>2026-04-04T09:35:13Z</time></trkpt><trkpt lat="42.13672898532789" lon="12.134554081224245"><ele>366.40000000000003</ele><time>2026-04-04T09:35:15Z</time></trkpt><trkpt lat="42.13667509460936" lon="12.134499986291251"><ele>366.6</ele><time>2026-04-04T09:35:16Z</time></trkpt><trkpt lat="42.13655282939956" lon="12.134439182385933"><ele>366.8</ele><time>2026-04-04T09:35:18Z</time></trkpt><trkpt lat="42.1364582860746" lon="12.134406924703514"><ele>367.0</ele><time>2026-04-04T09:35:19Z</time></trkpt><trkpt lat="42.136383184990976" lon="12.134383578382792"><ele>365.8</ele><time>2026-04-04T09:35:20Z</time></trkpt><trkpt lat="42.13630817273635" lon="12.134365519264907"><ele>364.6</ele><time>2026-04-04T09:35:21Z</time></trkpt><trkpt lat="42.13619742990708" lon="12.134345010682518"><ele>363.40000000000003</ele><time>2026-04-04T09:35:22Z</time></trkpt><trkpt lat="42.1360961401042" lon="12.134333695946722"><ele>362.20000000000005</ele><time>2026-04-04T09:35:23Z</time></trkpt><trkpt lat="42.13600224651063" lon="12.134323860193168"><ele>361.0</ele><time>2026-04-04T09:35:24Z</time></trkpt><trkpt lat="42.135900103956885" lon="12.13431484767429"><ele>361.0</ele><time>2026-04-04T09:35:25Z</time></trkpt><trkpt lat="42.13580715166576" lon="12.134327219465296"><ele>361.0</ele><time>2026-04-04T09:35:26Z</time></trkpt><trkpt lat="42.13571400074766" lon="12.134303180038355"><ele>361.0</ele><time>2026-04-04T09:35:27Z</time></trkpt><trkpt lat="42.13560929403572" lon="12.134300891366308"><ele>361.0</ele><time>2026-04-04T09:35:28Z</time></trkpt><trkpt lat="42.135503536653665" lon="12.134300127967693"><ele>361.0</ele><time>2026-04-04T09:35:29Z</time></trkpt><trkpt lat="42.135395078300895" lon="12.134300488665314"><ele>359.8</ele><time>2026-04-04T09:35:30Z</time></trkpt><trkpt lat="42.13528939394141" lon="12.134300840133225"><ele>358.6</ele><time>2026-04-04T09:35:31Z</time></trkpt><trkpt lat="42.13518839374819" lon="12.134317629288036"><ele>357.4</ele><time>2026-04-04T09:35:32Z</time></trkpt><trkpt lat="42.135069102083456" lon="12.134318016227772"><ele>356.2</ele><time>2026-04-04T09:35:33Z</time></trkpt><trkpt lat="42.13496951574986" lon="12.13429221636558"><ele>355.0</ele><time>2026-04-04T09:35:34Z</time></trkpt><trkpt lat="42.134862961178555" lon="12.134282364973524"><ele>353.8</ele><time>2026-04-04T09:35:35Z</time></trkpt><trkpt lat="42.134758199025164" lon="12.13426874457896"><ele>352.6</ele><time>2026-04-04T09:35:36Z</time></trkpt><trkpt lat="42.134648728130976" lon="12.134253455350695"><ele>351.4</ele><time>2026-04-04T09:35:37Z</time></trkpt><trkpt lat="42.1345436107104" lon="12.134238774139355"><ele>350.2</ele><time>2026-04-04T09:35:38Z</time></trkpt><trkpt lat="42.13442973883403" lon="12.13423515818199"><ele>349.0</ele><time>2026-04-04T09:35:39Z</time></trkpt><trkpt lat="42.13432528024599" lon="12.134201939997014"><ele>349.0</ele><time>2026-04-04T09:35:40Z</time></trkpt><trkpt lat="42.134206085623475" lon="12.134181956728753"><ele>349.0</ele><time>2026-04-04T09:35:41Z</time></trkpt><trkpt lat="42.13408870541414" lon="12.134162277651487"><ele>349.0</ele><time>2026-04-04T09:35:42Z</time></trkpt><trkpt lat="42.133969801820385" lon="12.134142343163573"><ele>349.0</ele><time>2026-04-04T09:35:43Z</time></trkpt><trkpt lat="42.1338555777302" lon="12.134119095478127"><ele>348.0</ele><time>2026-04-04T09:35:44Z</time></trkpt><trkpt lat="42.13374648949599" lon="12.134078719202403"><ele>347.0</ele><time>2026-04-04T09:35:45Z</time></trkpt><trkpt lat="42.133636919521635" lon="12.13403043346121"><ele>346.0</ele><time>2026-04-04T09:35:46Z</time></trkpt><trkpt lat="42.13356345240768" lon="12.133909079805376"><ele>345.0</ele><time>2026-04-04T09:35:47Z</time></trkpt><trkpt lat="42.13351241499741" lon="12.133762066959916"><ele>345.0</ele><time>2026-04-04T09:35:48Z</time></trkpt><trkpt lat="42.13345219453589" lon="12.1336326979012"><ele>345.0</ele><time>2026-04-04T09:35:49Z</time></trkpt><trkpt lat="42.13342594826658" lon="12.13352202621918"><ele>345.0</ele><time>2026-04-04T09:35:50Z</time></trkpt><trkpt lat="42.133352225587686" lon="12.133448483634245"><ele>345.0</ele><time>2026-04-04T09:35:51Z</time></trkpt><trkpt lat="42.13325763930096" lon="12.13341795296549"><ele>345.0</ele><time>2026-04-04T09:35:52Z</time></trkpt><trkpt lat="42.13317438437477" lon="12.133394491965493"><ele>346.1666666666667</ele><time>2026-04-04T09:35:53Z</time></trkpt><trkpt lat="42.13309832994759" lon="12.133394523913998"><ele>347.3333333333333</ele><time>2026-04-04T09:35:54Z</time></trkpt><trkpt lat="42.13303854683349" lon="12.133473892316301"><ele>348.5</ele><time>2026-04-04T09:35:55Z</time></trkpt><trkpt lat="42.13298303625764" lon="12.133541952731404"><ele>349.66666666666663</ele><time>2026-04-04T09:35:56Z</time></trkpt><trkpt lat="42.132941268843275" lon="12.133621808999317"><ele>350.8333333333333</ele><time>2026-04-04T09:35:57Z</time></trkpt><trkpt lat="42.13285900239654" lon="12.133724227925637"><ele>352.0</ele><time>2026-04-04T09:35:59Z</time></trkpt><trkpt lat="42.132793539461666" lon="12.133833463099634"><ele>352.0</ele><time>2026-04-04T09:36:01Z</time></trkpt><trkpt lat="42.13272123329623" lon="12.13394366248875"><ele>352.0</ele><time>2026-04-04T09:36:03Z</time></trkpt><trkpt lat="42.13265776568692" lon="12.134025133643284"><ele>352.0</ele><time>2026-04-04T09:36:05Z</time></trkpt><trkpt lat="42.132585815156375" lon="12.134088647248477"><ele>352.0</ele><time>2026-04-04T09:36:07Z</time></trkpt><trkpt lat="42.13246648960973" lon="12.134121954699982"><ele>352.0</ele><time>2026-04-04T09:36:10Z</time></trkpt><trkpt lat="42.13240043351391" lon="12.134104189254002"><ele>352.0</ele><time>2026-04-04T09:36:12Z</time></trkpt><trkpt lat="42.13224124616687" lon="12.134060084211981"><ele>352.0</ele><time>2026-04-04T09:36:15Z</time></trkpt><trkpt lat="42.132172844888956" lon="12.134017986663679"><ele>352.0</ele><time>2026-04-04T09:36:17Z</time></trkpt><trkpt lat="42.13211072903779" lon="12.133978296119617"><ele>352.0</ele><time>2026-04-04T09:36:19Z</time></trkpt><trkpt lat="42.13205199584493" lon="12.133934493787558"><ele>352.0</ele><time>2026-04-04T09:36:21Z</time></trkpt><trkpt lat="42.13198939405904" lon="12.133882611892663"><ele>352.0</ele><time>2026-04-04T09:36:23Z</time></trkpt><trkpt lat="42.13193443927515" lon="12.13382463034009"><ele>352.0</ele><time>2026-04-04T09:36:25Z</time></trkpt><trkpt lat="42.13186421694338" lon="12.13374811119812"><ele>352.0</ele><time>2026-04-04T09:36:28Z</time></trkpt><trkpt lat="42.13178964584707" lon="12.13367131154566"><ele>352.0</ele><time>2026-04-04T09:36:31Z</time></trkpt><trkpt lat="42.13172702832298" lon="12.133622954585427"><ele>352.0</ele><time>2026-04-04T09:36:33Z</time></trkpt><trkpt lat="42.131676233868276" lon="12.133568129716867"><ele>352.0</ele><time>2026-04-04T09:36:36Z</time></trkpt><trkpt lat="42.13160196764434" lon="12.133505772399284"><ele>352.0</ele><time>2026-04-04T09:36:39Z</time></trkpt><trkpt lat="42.13153101126187" lon="12.133419810074864"><ele>353.14285714285717</ele><time>2026-04-04T09:36:42Z</time></trkpt><trkpt lat="42.13144975199492" lon="12.133344326607"><ele>354.2857142857143</ele><time>2026-04-04T09:36:45Z</time></trkpt><trkpt lat="42.131384237886834" lon="12.13328303126701"><ele>355.42857142857144</ele><time>2026-04-04T09:36:48Z</time></trkpt><trkpt lat="42.13132993405149" lon="12.133237376602734"><ele>356.57142857142856</ele><time>2026-04-04T09:36:50Z</time></trkpt><trkpt lat="42.131271263542104" lon="12.133200853124112"><ele>357.7142857142857</ele><time>2026-04-04T09:36:52Z</time></trkpt><trkpt lat="42.13122374728959" lon="12.133134987485546"><ele>358.85714285714283</ele><time>2026-04-04T09:36:54Z</time></trkpt><trkpt lat="42.131172236247046" lon="12.133067016405558"><ele>360.0</ele><time>2026-04-04T09:36:56Z</time></trkpt><trkpt lat="42.131109306695684" lon="12.133029783510448"><ele>360.5</ele><time>2026-04-04T09:36:58Z</time></trkpt><trkpt lat="42.13104668601037" lon="12.132994785598768"><ele>361.0</ele><time>2026-04-04T09:37:00Z</time></trkpt><trkpt lat="42.13096896229816" lon="12.132983395018108"><ele>361.5</ele><time>2026-04-04T09:37:02Z</time></trkpt><trkpt lat="42.130892121639135" lon="12.132995677246944"><ele>362.0</ele><time>2026-04-04T09:37:04Z</time></trkpt><trkpt lat="42.13080255898146" lon="12.133066873086106"><ele>362.5</ele><time>2026-04-04T09:37:08Z</time></trkpt><trkpt lat="42.13074601795098" lon="12.133115432316005"><ele>363.0</ele><time>2026-04-04T09:37:10Z</time></trkpt><trkpt lat="42.130719872320164" lon="12.133206294717077"><ele>363.57142857142856</ele><time>2026-04-04T09:37:11Z</time></trkpt><trkpt lat="42.13065124903277" lon="12.133255341537234"><ele>364.1428571428571</ele><time>2026-04-04T09:37:14Z</time></trkpt><trkpt lat="42.13058922173438" lon="12.1332393929388"><ele>364.71428571428567</ele><time>2026-04-04T09:37:16Z</time></trkpt><trkpt lat="42.13052564643663" lon="12.133197241497465"><ele>365.2857142857143</ele><time>2026-04-04T09:37:19Z</time></trkpt><trkpt lat="42.130453140289646" lon="12.133143228113898"><ele>365.8571428571429</ele><time>2026-04-04T09:37:24Z</time></trkpt><trkpt lat="42.13040168798072" lon="12.133077572973576"><ele>366.4285714285714</ele><time>2026-04-04T09:37:27Z</time></trkpt><trkpt lat="42.13034406441814" lon="12.133040629566796"><ele>367.0</ele><time>2026-04-04T09:37:30Z</time></trkpt><trkpt lat="42.13028254718205" lon="12.133013745443005"><ele>367.66666666666663</ele><time>2026-04-04T09:37:33Z</time></trkpt><trkpt lat="42.13020599255955" lon="12.13297168534006"><ele>368.3333333333333</ele><time>2026-04-04T09:37:37Z</time></trkpt><trkpt lat="42.13014152688104" lon="12.132945131700497"><ele>369.0</ele><time>2026-04-04T09:37:40Z</time></trkpt><trkpt lat="42.13006267311288" lon="12.132917960161612"><ele>369.6666666666667</ele><time>2026-04-04T09:37:44Z</time></trkpt><trkpt lat="42.1300015447275" lon="12.132876589754794"><ele>370.33333333333337</ele><time>2026-04-04T09:37:47Z</time></trkpt><trkpt lat="42.12992685784898" lon="12.132830712865754"><ele>371.0</ele><time>2026-04-04T09:37:51Z</time></trkpt><trkpt lat="42.129872587885345" lon="12.132776152981554"><ele>371.1666666666667</ele><time>2026-04-04T09:37:54Z</time></trkpt><trkpt lat="42.12980112520908" lon="12.13273000360529"><ele>371.33333333333337</ele><time>2026-04-04T09:37:57Z</time></trkpt><trkpt lat="42.12978657073887" lon="12.132632774832157"><ele>371.5</ele><time>2026-04-04T09:37:59Z</time></trkpt><trkpt lat="42.12981569863735" lon="12.132550425260858"><ele>371.6666666666667</ele><time>2026-04-04T09:38:03Z</time></trkpt><trkpt lat="42.129817978029436" lon="12.132443858281086"><ele>371.8333333333333</ele><time>2026-04-04T09:38:06Z</time></trkpt><trkpt lat="42.12982994856156" lon="12.132342652482002"><ele>372.0</ele><time>2026-04-04T09:38:07Z</time></trkpt><trkpt lat="42.12984562396502" lon="12.132221920239562"><ele>371.8333333333333</ele><time>2026-04-04T09:38:10Z</time></trkpt><trkpt lat="42.129827871193996" lon="12.132112640597043"><ele>371.6666666666667</ele><time>2026-04-04T09:38:12Z</time></trkpt><trkpt lat="42.129882757983445" lon="12.131977523578486"><ele>371.5</ele><time>2026-04-04T09:38:15Z</time></trkpt><trkpt lat="42.12990419491514" lon="12.131896288669724"><ele>371.33333333333337</ele><time>2026-04-04T09:38:17Z</time></trkpt><trkpt lat="42.12993529775962" lon="12.131798944594662"><ele>371.1666666666667</ele><time>2026-04-04T09:38:19Z</time></trkpt><trkpt lat="42.12997939647792" lon="12.1316828505648"><ele>371.0</ele><time>2026-04-04T09:38:21Z</time></trkpt><trkpt lat="42.13001864661631" lon="12.131571375135598"><ele>370.8</ele><time>2026-04-04T09:38:23Z</time></trkpt><trkpt lat="42.130064803245716" lon="12.13144535812418"><ele>370.6</ele><time>2026-04-04T09:38:25Z</time></trkpt><trkpt lat="42.130100111888844" lon="12.131317085633246"><ele>370.4</ele><time>2026-04-04T09:38:27Z</time></trkpt><trkpt lat="42.130127658409904" lon="12.131217896285316"><ele>370.2</ele><time>2026-04-04T09:38:29Z</time></trkpt><trkpt lat="42.130102436571455" lon="12.131123542513533"><ele>370.0</ele><time>2026-04-04T09:38:33Z</time></trkpt><trkpt lat="42.130002724933576" lon="12.1310640408803"><ele>369.0</ele><time>2026-04-04T09:38:36Z</time></trkpt><trkpt lat="42.1298251443991" lon="12.130956360422761"><ele>368.0</ele><time>2026-04-04T09:38:37Z</time></trkpt><trkpt lat="42.129735391633034" lon="12.130886354550753"><ele>367.0</ele><time>2026-04-04T09:38:39Z</time></trkpt><trkpt lat="42.12964048947339" lon="12.130815260055602"><ele>366.0</ele><time>2026-04-04T09:38:41Z</time></trkpt><trkpt lat="42.12952158393183" lon="12.130761749851507"><ele>365.6</ele><time>2026-04-04T09:38:43Z</time></trkpt><trkpt lat="42.12939661616233" lon="12.130686182238472"><ele>365.20000000000005</ele><time>2026-04-04T09:38:45Z</time></trkpt><trkpt lat="42.12928043176332" lon="12.130607478063961"><ele>364.79999999999995</ele><time>2026-04-04T09:38:47Z</time></trkpt><trkpt lat="42.12922170044501" lon="12.130558623924149"><ele>364.4</ele><time>2026-04-04T09:38:48Z</time></trkpt><trkpt lat="42.12916361727181" lon="12.130516034158383"><ele>364.0</ele><time>2026-04-04T09:38:49Z</time></trkpt><trkpt lat="42.12910003825741" lon="12.130480709049042"><ele>364.0</ele><time>2026-04-04T09:38:50Z</time></trkpt><trkpt lat="42.12903905913566" lon="12.130419911760027"><ele>364.0</ele><time>2026-04-04T09:38:51Z</time></trkpt><trkpt lat="42.12897595095823" lon="12.130378631889897"><ele>364.0</ele><time>2026-04-04T09:38:52Z</time></trkpt><trkpt lat="42.12891340953673" lon="12.130337725393373"><ele>364.0</ele><time>2026-04-04T09:38:53Z</time></trkpt><trkpt lat="42.1288475563046" lon="12.130316588730077"><ele>364.0</ele><time>2026-04-04T09:38:54Z</time></trkpt><trkpt lat="42.12878938300113" lon="12.13025660334122"><ele>364.0</ele><time>2026-04-04T09:38:55Z</time></trkpt><trkpt lat="42.12872990848307" lon="12.130217702777653"><ele>364.0</ele><time>2026-04-04T09:38:56Z</time></trkpt><trkpt lat="42.12864402214748" lon="12.13016152708341"><ele>364.0</ele><time>2026-04-04T09:38:58Z</time></trkpt><trkpt lat="42.128690069708384" lon="12.130007150092965"><ele>364.0</ele><time>2026-04-04T09:39:01Z</time></trkpt><trkpt lat="42.12874277327891" lon="12.129878198928061"><ele>364.0</ele><time>2026-04-04T09:39:03Z</time></trkpt><trkpt lat="42.12879529213078" lon="12.129730664584645"><ele>364.0</ele><time>2026-04-04T09:39:05Z</time></trkpt><trkpt lat="42.128818246308384" lon="12.129651007204453"><ele>364.0</ele><time>2026-04-04T09:39:06Z</time></trkpt><trkpt lat="42.128847739599394" lon="12.129569665218732"><ele>363.8333333333333</ele><time>2026-04-04T09:39:07Z</time></trkpt><trkpt lat="42.12887937428191" lon="12.129488904717157"><ele>363.66666666666663</ele><time>2026-04-04T09:39:08Z</time></trkpt><trkpt lat="42.128911279267825" lon="12.12941273751801"><ele>363.5</ele><time>2026-04-04T09:39:09Z</time></trkpt><trkpt lat="42.128955415247844" lon="12.129277405267304"><ele>363.3333333333333</ele><time>2026-04-04T09:39:11Z</time></trkpt><trkpt lat="42.12897501666055" lon="12.129190432106407"><ele>363.1666666666667</ele><time>2026-04-04T09:39:13Z</time></trkpt><trkpt lat="42.12891202732574" lon="12.129138416477442"><ele>363.0</ele><time>2026-04-04T09:39:15Z</time></trkpt><trkpt lat="42.12882185607186" lon="12.12911945933584"><ele>363.0</ele><time>2026-04-04T09:39:17Z</time></trkpt><trkpt lat="42.1287277031932" lon="12.1290676245786"><ele>363.0</ele><time>2026-04-04T09:39:19Z</time></trkpt><trkpt lat="42.128643176147776" lon="12.128999670447511"><ele>363.0</ele><time>2026-04-04T09:39:21Z</time></trkpt><trkpt lat="42.12853938456561" lon="12.128928866125563"><ele>363.0</ele><time>2026-04-04T09:39:23Z</time></trkpt><trkpt lat="42.128438187885365" lon="12.12883149278853"><ele>363.0</ele><time>2026-04-04T09:39:25Z</time></trkpt><trkpt lat="42.12836089051041" lon="12.128721806389974"><ele>362.59999999999997</ele><time>2026-04-04T09:39:27Z</time></trkpt><trkpt lat="42.128297491197664" lon="12.128705638216013"><ele>362.2</ele><time>2026-04-04T09:39:28Z</time></trkpt><trkpt lat="42.12823399623266" lon="12.128691372857869"><ele>361.8</ele><time>2026-04-04T09:39:29Z</time></trkpt><trkpt lat="42.12812770256719" lon="12.12860785752535"><ele>361.4</ele><time>2026-04-04T09:39:31Z</time></trkpt><trkpt lat="42.12803015853729" lon="12.128526954030338"><ele>361.0</ele><time>2026-04-04T09:39:33Z</time></trkpt><trkpt lat="42.12792192898795" lon="12.128466965034422"><ele>361.0</ele><time>2026-04-04T09:39:35Z</time></trkpt><trkpt lat="42.127822557821204" lon="12.128411136144862"><ele>361.0</ele><time>2026-04-04T09:39:37Z</time></trkpt><trkpt lat="42.12773431935491" lon="12.128330983702087"><ele>361.0</ele><time>2026-04-04T09:39:39Z</time></trkpt><trkpt lat="42.12763325468503" lon="12.12827666179416"><ele>361.0</ele><time>2026-04-04T09:39:41Z</time></trkpt><trkpt lat="42.127546497109925" lon="12.128219892679711"><ele>361.0</ele><time>2026-04-04T09:39:43Z</time></trkpt><trkpt lat="42.12743689943028" lon="12.12812059317833"><ele>360.6</ele><time>2026-04-04T09:39:46Z</time></trkpt><trkpt lat="42.12744414495374" lon="12.127973659586626"><ele>360.20000000000005</ele><time>2026-04-04T09:39:48Z</time></trkpt><trkpt lat="42.12744118120205" lon="12.127819051332834"><ele>359.79999999999995</ele><time>2026-04-04T09:39:50Z</time></trkpt><trkpt lat="42.127434128294475" lon="12.127650143515938"><ele>359.4</ele><time>2026-04-04T09:39:52Z</time></trkpt><trkpt lat="42.12743423414475" lon="12.12755965215645"><ele>359.0</ele><time>2026-04-04T09:39:53Z</time></trkpt><trkpt lat="42.12744753913911" lon="12.127462686350437"><ele>358.6</ele><time>2026-04-04T09:39:54Z</time></trkpt><trkpt lat="42.12745920926322" lon="12.127364185345776"><ele>358.2</ele><time>2026-04-04T09:39:55Z</time></trkpt><trkpt lat="42.127471555284295" lon="12.127230822968365"><ele>357.8</ele><time>2026-04-04T09:39:57Z</time></trkpt><trkpt lat="42.12751682076199" lon="12.127074550709608"><ele>357.40000000000003</ele><time>2026-04-04T09:39:59Z</time></trkpt><trkpt lat="42.12753090448878" lon="12.126910716065808"><ele>357.0</ele><time>2026-04-04T09:40:01Z</time></trkpt><trkpt lat="42.127540787299985" lon="12.126815551943373"><ele>357.0</ele><time>2026-04-04T09:40:02Z</time></trkpt><trkpt lat="42.12756620150458" lon="12.126733994925877"><ele>357.0</ele><time>2026-04-04T09:40:03Z</time></trkpt><trkpt lat="42.127589225567135" lon="12.126650602318009"><ele>357.0</ele><time>2026-04-04T09:40:04Z</time></trkpt><trkpt lat="42.1276325158878" lon="12.126497673255471"><ele>357.0</ele><time>2026-04-04T09:40:06Z</time></trkpt><trkpt lat="42.12766000181574" lon="12.126419400837362"><ele>357.0</ele><time>2026-04-04T09:40:07Z</time></trkpt><trkpt lat="42.1276890526661" lon="12.126270987315209"><ele>357.0</ele><time>2026-04-04T09:40:09Z</time></trkpt><trkpt lat="42.12772615993742" lon="12.126126487689172"><ele>356.40000000000003</ele><time>2026-04-04T09:40:11Z</time></trkpt><trkpt lat="42.12775523443489" lon="12.126028894419685"><ele>355.8</ele><time>2026-04-04T09:40:13Z</time></trkpt><trkpt lat="42.127720555884814" lon="12.125954543452442"><ele>355.2</ele><time>2026-04-04T09:40:16Z</time></trkpt><trkpt lat="42.12765673479147" lon="12.125869003093666"><ele>354.6</ele><time>2026-04-04T09:40:20Z</time></trkpt><trkpt lat="42.127527292900005" lon="12.125764972283527"><ele>354.0</ele><time>2026-04-04T09:40:22Z</time></trkpt><trkpt lat="42.12743436630119" lon="12.125706605612745"><ele>354.1666666666667</ele><time>2026-04-04T09:40:24Z</time></trkpt><trkpt lat="42.12738666390866" lon="12.12562820374435"><ele>354.3333333333333</ele><time>2026-04-04T09:40:26Z</time></trkpt><trkpt lat="42.127325475576846" lon="12.125544956469229"><ele>354.5</ele><time>2026-04-04T09:40:28Z</time></trkpt><trkpt lat="42.12726000411618" lon="12.125490893811538"><ele>354.66666666666663</ele><time>2026-04-04T09:40:30Z</time></trkpt><trkpt lat="42.12720620744221" lon="12.125425555284565"><ele>354.8333333333333</ele><time>2026-04-04T09:40:32Z</time></trkpt><trkpt lat="42.12714727043586" lon="12.12538296464139"><ele>355.0</ele><time>2026-04-04T09:40:34Z</time></trkpt><trkpt lat="42.12707948970301" lon="12.12530667601936"><ele>355.0</ele><time>2026-04-04T09:40:36Z</time></trkpt><trkpt lat="42.12698166901507" lon="12.1252288859232"><ele>355.0</ele><time>2026-04-04T09:40:38Z</time></trkpt><trkpt lat="42.12690887306904" lon="12.125116274842032"><ele>355.0</ele><time>2026-04-04T09:40:40Z</time></trkpt><trkpt lat="42.126824223250736" lon="12.12504798949755"><ele>355.0</ele><time>2026-04-04T09:40:42Z</time></trkpt><trkpt lat="42.12674723338158" lon="12.1249842684499"><ele>355.0</ele><time>2026-04-04T09:40:44Z</time></trkpt><trkpt lat="42.12668922819149" lon="12.124912368698393"><ele>355.0</ele><time>2026-04-04T09:40:46Z</time></trkpt><trkpt lat="42.126634804151145" lon="12.12485861772631"><ele>355.0</ele><time>2026-04-04T09:40:48Z</time></trkpt><trkpt lat="42.12654959584413" lon="12.124775431722153"><ele>355.0</ele><time>2026-04-04T09:40:51Z</time></trkpt><trkpt lat="42.12648261458285" lon="12.124682499070461"><ele>355.0</ele><time>2026-04-04T09:40:55Z</time></trkpt><trkpt lat="42.12639485646876" lon="12.124619544781956"><ele>355.0</ele><time>2026-04-04T09:40:58Z</time></trkpt><trkpt lat="42.12631012339725" lon="12.124519502993412"><ele>355.0</ele><time>2026-04-04T09:41:01Z</time></trkpt><trkpt lat="42.12623617560959" lon="12.124453509330586"><ele>355.0</ele><time>2026-04-04T09:41:03Z</time></trkpt><trkpt lat="42.12616347387854" lon="12.124380145737888"><ele>355.0</ele><time>2026-04-04T09:41:05Z</time></trkpt><trkpt lat="42.126087805831546" lon="12.124309609623351"><ele>355.0</ele><time>2026-04-04T09:41:07Z</time></trkpt><trkpt lat="42.12601562615286" lon="12.124236302526553"><ele>355.0</ele><time>2026-04-04T09:41:09Z</time></trkpt><trkpt lat="42.12593571336153" lon="12.124156690300778"><ele>355.0</ele><time>2026-04-04T09:41:11Z</time></trkpt><trkpt lat="42.12584871701048" lon="12.124079923711127"><ele>355.0</ele><time>2026-04-04T09:41:13Z</time></trkpt><trkpt lat="42.125768288076934" lon="12.124004195537792"><ele>355.0</ele><time>2026-04-04T09:41:15Z</time></trkpt><trkpt lat="42.125686975522946" lon="12.123930280258282"><ele>355.0</ele><time>2026-04-04T09:41:17Z</time></trkpt><trkpt lat="42.125597560696086" lon="12.123855294125194"><ele>355.0</ele><time>2026-04-04T09:41:19Z</time></trkpt><trkpt lat="42.12550009774843" lon="12.123781269841208"><ele>355.0</ele><time>2026-04-04T09:41:21Z</time></trkpt><trkpt lat="42.125487661306416" lon="12.12364684361823"><ele>355.0</ele><time>2026-04-04T09:41:22Z</time></trkpt><trkpt lat="42.12539842993417" lon="12.123585010590038"><ele>355.0</ele><time>2026-04-04T09:41:24Z</time></trkpt><trkpt lat="42.12525818983664" lon="12.123706990982322"><ele>355.0</ele><time>2026-04-04T09:41:26Z</time></trkpt><trkpt lat="42.125173542252234" lon="12.123644165996774"><ele>355.0</ele><time>2026-04-04T09:41:28Z</time></trkpt><trkpt lat="42.125086463740516" lon="12.123602117755047"><ele>355.0</ele><time>2026-04-04T09:41:30Z</time></trkpt><trkpt lat="42.124988031411064" lon="12.123539340184957"><ele>355.0</ele><time>2026-04-04T09:41:32Z</time></trkpt><trkpt lat="42.12488435639108" lon="12.123482322278104"><ele>355.0</ele><time>2026-04-04T09:41:34Z</time></trkpt><trkpt lat="42.12479906429969" lon="12.123415866081528"><ele>355.0</ele><time>2026-04-04T09:41:36Z</time></trkpt><trkpt lat="42.124708668117776" lon="12.123370364395862"><ele>355.6</ele><time>2026-04-04T09:41:38Z</time></trkpt><trkpt lat="42.124626387197644" lon="12.123343418808227"><ele>356.2</ele><time>2026-04-04T09:41:40Z</time></trkpt><trkpt lat="42.12454471780614" lon="12.123346216783768"><ele>356.79999999999995</ele><time>2026-04-04T09:41:42Z</time></trkpt><trkpt lat="42.12446088222956" lon="12.123334881021455"><ele>357.4</ele><time>2026-04-04T09:41:44Z</time></trkpt><trkpt lat="42.1243345960307" lon="12.123325514413619"><ele>358.0</ele><time>2026-04-04T09:41:47Z</time></trkpt><trkpt lat="42.12424404257379" lon="12.123328073553505"><ele>358.00000000000006</ele><time>2026-04-04T09:41:49Z</time></trkpt><trkpt lat="42.12416963823408" lon="12.12334693541825"><ele>358.0</ele><time>2026-04-04T09:41:51Z</time></trkpt><trkpt lat="42.12412082728631" lon="12.123424255099371"><ele>358.0</ele><time>2026-04-04T09:41:53Z</time></trkpt><trkpt lat="42.12416345216571" lon="12.123491418402123"><ele>358.0</ele><time>2026-04-04T09:41:55Z</time></trkpt><trkpt lat="42.124241801879805" lon="12.12349799117309"><ele>358.0</ele><time>2026-04-04T09:41:58Z</time></trkpt><trkpt lat="42.12430988996477" lon="12.123539004400026"><ele>358.00000000000006</ele><time>2026-04-04T09:42:02Z</time></trkpt><trkpt lat="42.124380399990436" lon="12.123577243147635"><ele>358.0</ele><time>2026-04-04T09:42:06Z</time></trkpt><trkpt lat="42.12444818780523" lon="12.123633830915637"><ele>358.0</ele><time>2026-04-04T09:42:10Z</time></trkpt><trkpt lat="42.124509776529436" lon="12.12365637346561"><ele>358.0</ele><time>2026-04-04T09:42:13Z</time></trkpt><trkpt lat="42.12458353811053" lon="12.123710569063938"><ele>358.0</ele><time>2026-04-04T09:42:17Z</time></trkpt><trkpt lat="42.12464402949335" lon="12.123742241926365"><ele>358.0</ele><time>2026-04-04T09:42:20Z</time></trkpt><trkpt lat="42.124702760562414" lon="12.12379442495107"><ele>358.0</ele><time>2026-04-04T09:42:26Z</time></trkpt><trkpt lat="42.12467099357904" lon="12.123871822839801"><ele>358.0</ele><time>2026-04-04T09:44:00Z</time></trkpt></trkseg></trk></gpx>